<?xml version="1.0" encoding="UTF-8" standalone="no" ?>
<gpx xmlns="http://www.topografix.com/GPX/1/1" xmlns:xsi="http://www.w3.org/2001/XMLSchema-instance" xsi:schemaLocation="http://www.topografix.com/GPX/1/1 http://www.topografix.com/GPX/1/1/gpx.xsd" version="1.1" creator="VisuGPX - https://www.visugpx.com">
  <metadata>
    <name>Rando VTTHN - Forêt de Roumare</name>
    <desc><![CDATA[Forêt de Roumare organisée par Raphou]]></desc>
  </metadata>
  <trk>
    <name><![CDATA[Rando VTTHN - Forêt de Roumare_1]]></name>
    <trkseg>
      <trkpt lat="49.40927" lon="0.99164">
        <ele>126.57987976074</ele>
        <time>2014-01-11T09:06:36.000Z</time>
      </trkpt>
      <trkpt lat="49.40919" lon="0.99159">
        <ele>126.87989807129</ele>
        <time>2014-01-11T09:06:40.000Z</time>
      </trkpt>
      <trkpt lat="49.4092" lon="0.99158">
        <ele>126.96604156494</ele>
        <time>2014-01-11T09:06:50.000Z</time>
      </trkpt>
      <trkpt lat="49.40921" lon="0.99159">
        <ele>126.99005889893</ele>
        <time>2014-01-11T09:06:54.000Z</time>
      </trkpt>
      <trkpt lat="49.40919" lon="0.99162">
        <ele>126.99365234375</ele>
        <time>2014-01-11T09:07:01.000Z</time>
      </trkpt>
      <trkpt lat="49.40919" lon="0.99162">
        <ele>126.99365234375</ele>
        <time>2014-01-11T09:07:21.000Z</time>
      </trkpt>
      <trkpt lat="49.40922" lon="0.99159">
        <ele>127.07843017578</ele>
        <time>2014-01-11T09:07:24.000Z</time>
      </trkpt>
      <trkpt lat="49.40922" lon="0.99157">
        <ele>127.05523681641</ele>
        <time>2014-01-11T09:07:27.000Z</time>
      </trkpt>
      <trkpt lat="49.40922" lon="0.99156">
        <ele>127.05210113525</ele>
        <time>2014-01-11T09:07:30.000Z</time>
      </trkpt>
      <trkpt lat="49.40919" lon="0.99154">
        <ele>127.10163879395</ele>
        <time>2014-01-11T09:07:39.000Z</time>
      </trkpt>
      <trkpt lat="49.40919" lon="0.99154">
        <ele>127.17169189453</ele>
        <time>2014-01-11T09:07:44.000Z</time>
      </trkpt>
      <trkpt lat="49.40919" lon="0.99153">
        <ele>127.24143981934</ele>
        <time>2014-01-11T09:07:58.000Z</time>
      </trkpt>
      <trkpt lat="49.40918" lon="0.99153">
        <ele>127.31435394287</ele>
        <time>2014-01-11T09:08:09.000Z</time>
      </trkpt>
      <trkpt lat="49.40918" lon="0.99154">
        <ele>127.36042785645</ele>
        <time>2014-01-11T09:08:22.000Z</time>
      </trkpt>
      <trkpt lat="49.40918" lon="0.99156">
        <ele>127.36877441406</ele>
        <time>2014-01-11T09:08:27.000Z</time>
      </trkpt>
      <trkpt lat="49.40919" lon="0.99156">
        <ele>127.34920501709</ele>
        <time>2014-01-11T09:08:33.000Z</time>
      </trkpt>
      <trkpt lat="49.4092" lon="0.99156">
        <ele>127.31870269775</ele>
        <time>2014-01-11T09:08:49.000Z</time>
      </trkpt>
      <trkpt lat="49.40923" lon="0.99156">
        <ele>127.24131011963</ele>
        <time>2014-01-11T09:08:52.000Z</time>
      </trkpt>
      <trkpt lat="49.40925" lon="0.99156">
        <ele>127.15765380859</ele>
        <time>2014-01-11T09:08:55.000Z</time>
      </trkpt>
      <trkpt lat="49.40929" lon="0.99154">
        <ele>127.04744720459</ele>
        <time>2014-01-11T09:08:58.000Z</time>
      </trkpt>
      <trkpt lat="49.40932" lon="0.99151">
        <ele>126.94358062744</ele>
        <time>2014-01-11T09:09:01.000Z</time>
      </trkpt>
      <trkpt lat="49.40934" lon="0.99147">
        <ele>126.86519622803</ele>
        <time>2014-01-11T09:09:03.000Z</time>
      </trkpt>
      <trkpt lat="49.40935" lon="0.99141">
        <ele>126.83978271484</ele>
        <time>2014-01-11T09:09:06.000Z</time>
      </trkpt>
      <trkpt lat="49.40934" lon="0.99138">
        <ele>126.85914611816</ele>
        <time>2014-01-11T09:09:08.000Z</time>
      </trkpt>
      <trkpt lat="49.40934" lon="0.99134">
        <ele>126.93544006348</ele>
        <time>2014-01-11T09:09:11.000Z</time>
      </trkpt>
      <trkpt lat="49.40934" lon="0.99134">
        <ele>126.93544006348</ele>
        <time>2014-01-11T09:09:31.000Z</time>
      </trkpt>
      <trkpt lat="49.40931" lon="0.9913">
        <ele>127.08602142334</ele>
        <time>2014-01-11T09:09:32.000Z</time>
      </trkpt>
      <trkpt lat="49.40929" lon="0.99129">
        <ele>127.2525177002</ele>
        <time>2014-01-11T09:09:35.000Z</time>
      </trkpt>
      <trkpt lat="49.40927" lon="0.99125">
        <ele>127.44344329834</ele>
        <time>2014-01-11T09:09:38.000Z</time>
      </trkpt>
      <trkpt lat="49.40925" lon="0.99118">
        <ele>127.6819229126</ele>
        <time>2014-01-11T09:09:41.000Z</time>
      </trkpt>
      <trkpt lat="49.40927" lon="0.9911">
        <ele>127.9220123291</ele>
        <time>2014-01-11T09:09:44.000Z</time>
      </trkpt>
      <trkpt lat="49.40931" lon="0.99103">
        <ele>128.09097290039</ele>
        <time>2014-01-11T09:09:47.000Z</time>
      </trkpt>
      <trkpt lat="49.40934" lon="0.99098">
        <ele>128.21636962891</ele>
        <time>2014-01-11T09:09:49.000Z</time>
      </trkpt>
      <trkpt lat="49.40938" lon="0.99093">
        <ele>128.27688598633</ele>
        <time>2014-01-11T09:09:51.000Z</time>
      </trkpt>
      <trkpt lat="49.40942" lon="0.99088">
        <ele>128.2442779541</ele>
        <time>2014-01-11T09:09:53.000Z</time>
      </trkpt>
      <trkpt lat="49.40947" lon="0.99083">
        <ele>128.12882995605</ele>
        <time>2014-01-11T09:09:56.000Z</time>
      </trkpt>
      <trkpt lat="49.40952" lon="0.99079">
        <ele>127.98567199707</ele>
        <time>2014-01-11T09:09:58.000Z</time>
      </trkpt>
      <trkpt lat="49.40957" lon="0.99072">
        <ele>127.83335113525</ele>
        <time>2014-01-11T09:10:01.000Z</time>
      </trkpt>
      <trkpt lat="49.40962" lon="0.99062">
        <ele>127.70792388916</ele>
        <time>2014-01-11T09:10:04.000Z</time>
      </trkpt>
      <trkpt lat="49.40968" lon="0.99049">
        <ele>127.6174697876</ele>
        <time>2014-01-11T09:10:07.000Z</time>
      </trkpt>
      <trkpt lat="49.40975" lon="0.99035">
        <ele>127.60294342041</ele>
        <time>2014-01-11T09:10:10.000Z</time>
      </trkpt>
      <trkpt lat="49.40985" lon="0.99021">
        <ele>127.64213562012</ele>
        <time>2014-01-11T09:10:13.000Z</time>
      </trkpt>
      <trkpt lat="49.40994" lon="0.99009">
        <ele>127.71885681152</ele>
        <time>2014-01-11T09:10:16.000Z</time>
      </trkpt>
      <trkpt lat="49.41002" lon="0.98996">
        <ele>127.81777191162</ele>
        <time>2014-01-11T09:10:19.000Z</time>
      </trkpt>
      <trkpt lat="49.41009" lon="0.98985">
        <ele>127.90739440918</ele>
        <time>2014-01-11T09:10:22.000Z</time>
      </trkpt>
      <trkpt lat="49.41016" lon="0.98972">
        <ele>127.97811126709</ele>
        <time>2014-01-11T09:10:25.000Z</time>
      </trkpt>
      <trkpt lat="49.41025" lon="0.98957">
        <ele>128.04484558105</ele>
        <time>2014-01-11T09:10:28.000Z</time>
      </trkpt>
      <trkpt lat="49.4103" lon="0.98947">
        <ele>128.10153198242</ele>
        <time>2014-01-11T09:10:30.000Z</time>
      </trkpt>
      <trkpt lat="49.41037" lon="0.98938">
        <ele>128.12701416016</ele>
        <time>2014-01-11T09:10:32.000Z</time>
      </trkpt>
      <trkpt lat="49.41047" lon="0.98924">
        <ele>128.13705444336</ele>
        <time>2014-01-11T09:10:35.000Z</time>
      </trkpt>
      <trkpt lat="49.41052" lon="0.98917">
        <ele>128.1418762207</ele>
        <time>2014-01-11T09:10:37.000Z</time>
      </trkpt>
      <trkpt lat="49.41057" lon="0.98908">
        <ele>128.14326477051</ele>
        <time>2014-01-11T09:10:40.000Z</time>
      </trkpt>
      <trkpt lat="49.41066" lon="0.98894">
        <ele>128.14300537109</ele>
        <time>2014-01-11T09:10:43.000Z</time>
      </trkpt>
      <trkpt lat="49.41096" lon="0.98841">
        <ele>128.24600219727</ele>
        <time>2014-01-11T09:10:48.000Z</time>
      </trkpt>
      <trkpt lat="49.41107" lon="0.98825">
        <ele>128.42233276367</ele>
        <time>2014-01-11T09:10:50.000Z</time>
      </trkpt>
      <trkpt lat="49.41117" lon="0.9881">
        <ele>128.6657409668</ele>
        <time>2014-01-11T09:10:52.000Z</time>
      </trkpt>
      <trkpt lat="49.4113" lon="0.9879">
        <ele>128.9754486084</ele>
        <time>2014-01-11T09:10:55.000Z</time>
      </trkpt>
      <trkpt lat="49.41142" lon="0.98774">
        <ele>129.32746887207</ele>
        <time>2014-01-11T09:10:58.000Z</time>
      </trkpt>
      <trkpt lat="49.41151" lon="0.98762">
        <ele>129.60598754883</ele>
        <time>2014-01-11T09:11:01.000Z</time>
      </trkpt>
      <trkpt lat="49.41158" lon="0.98752">
        <ele>129.83898925781</ele>
        <time>2014-01-11T09:11:04.000Z</time>
      </trkpt>
      <trkpt lat="49.41164" lon="0.98744">
        <ele>130.01547241211</ele>
        <time>2014-01-11T09:11:06.000Z</time>
      </trkpt>
      <trkpt lat="49.41169" lon="0.98735">
        <ele>130.12831115723</ele>
        <time>2014-01-11T09:11:08.000Z</time>
      </trkpt>
      <trkpt lat="49.41174" lon="0.98726">
        <ele>130.19911193848</ele>
        <time>2014-01-11T09:11:10.000Z</time>
      </trkpt>
      <trkpt lat="49.4118" lon="0.98714">
        <ele>130.22850036621</ele>
        <time>2014-01-11T09:11:13.000Z</time>
      </trkpt>
      <trkpt lat="49.41185" lon="0.98707">
        <ele>130.23208618164</ele>
        <time>2014-01-11T09:11:15.000Z</time>
      </trkpt>
      <trkpt lat="49.4119" lon="0.98698">
        <ele>130.20541381836</ele>
        <time>2014-01-11T09:11:17.000Z</time>
      </trkpt>
      <trkpt lat="49.41199" lon="0.98681">
        <ele>130.11486816406</ele>
        <time>2014-01-11T09:11:20.000Z</time>
      </trkpt>
      <trkpt lat="49.4121" lon="0.98667">
        <ele>129.93623352051</ele>
        <time>2014-01-11T09:11:23.000Z</time>
      </trkpt>
      <trkpt lat="49.41221" lon="0.98652">
        <ele>129.64358520508</ele>
        <time>2014-01-11T09:11:26.000Z</time>
      </trkpt>
      <trkpt lat="49.41231" lon="0.98636">
        <ele>129.23388671875</ele>
        <time>2014-01-11T09:11:29.000Z</time>
      </trkpt>
      <trkpt lat="49.41239" lon="0.98623">
        <ele>128.75045776367</ele>
        <time>2014-01-11T09:11:32.000Z</time>
      </trkpt>
      <trkpt lat="49.41243" lon="0.98614">
        <ele>128.2646484375</ele>
        <time>2014-01-11T09:11:34.000Z</time>
      </trkpt>
      <trkpt lat="49.41249" lon="0.98599">
        <ele>127.791015625</ele>
        <time>2014-01-11T09:11:37.000Z</time>
      </trkpt>
      <trkpt lat="49.41251" lon="0.98596">
        <ele>127.4296875</ele>
        <time>2014-01-11T09:11:39.000Z</time>
      </trkpt>
      <trkpt lat="49.41271" lon="0.98557">
        <ele>126.99868011475</ele>
        <time>2014-01-11T09:11:47.000Z</time>
      </trkpt>
      <trkpt lat="49.41279" lon="0.98542">
        <ele>126.6197052002</ele>
        <time>2014-01-11T09:11:50.000Z</time>
      </trkpt>
      <trkpt lat="49.41286" lon="0.98529">
        <ele>126.27548980713</ele>
        <time>2014-01-11T09:11:53.000Z</time>
      </trkpt>
      <trkpt lat="49.41293" lon="0.98518">
        <ele>125.99572753906</ele>
        <time>2014-01-11T09:11:56.000Z</time>
      </trkpt>
      <trkpt lat="49.41303" lon="0.98493">
        <ele>125.76741027832</ele>
        <time>2014-01-11T09:12:02.000Z</time>
      </trkpt>
      <trkpt lat="49.41306" lon="0.98474">
        <ele>125.77091217041</ele>
        <time>2014-01-11T09:12:05.000Z</time>
      </trkpt>
      <trkpt lat="49.41306" lon="0.98452">
        <ele>125.86820983887</ele>
        <time>2014-01-11T09:12:08.000Z</time>
      </trkpt>
      <trkpt lat="49.41304" lon="0.98421">
        <ele>126.06436920166</ele>
        <time>2014-01-11T09:12:11.000Z</time>
      </trkpt>
      <trkpt lat="49.41301" lon="0.98397">
        <ele>126.32286071777</ele>
        <time>2014-01-11T09:12:14.000Z</time>
      </trkpt>
      <trkpt lat="49.41299" lon="0.98382">
        <ele>126.57228851318</ele>
        <time>2014-01-11T09:12:16.000Z</time>
      </trkpt>
      <trkpt lat="49.41298" lon="0.98361">
        <ele>126.82020568848</ele>
        <time>2014-01-11T09:12:19.000Z</time>
      </trkpt>
      <trkpt lat="49.41296" lon="0.98346">
        <ele>127.04277038574</ele>
        <time>2014-01-11T09:12:21.000Z</time>
      </trkpt>
      <trkpt lat="49.4129" lon="0.98317">
        <ele>127.19651794434</ele>
        <time>2014-01-11T09:12:24.000Z</time>
      </trkpt>
      <trkpt lat="49.41282" lon="0.98292">
        <ele>127.27421569824</ele>
        <time>2014-01-11T09:12:27.000Z</time>
      </trkpt>
      <trkpt lat="49.41275" lon="0.9827">
        <ele>127.29637145996</ele>
        <time>2014-01-11T09:12:30.000Z</time>
      </trkpt>
      <trkpt lat="49.41273" lon="0.98256">
        <ele>127.262550354</ele>
        <time>2014-01-11T09:12:32.000Z</time>
      </trkpt>
      <trkpt lat="49.41272" lon="0.98246">
        <ele>127.18705749512</ele>
        <time>2014-01-11T09:12:34.000Z</time>
      </trkpt>
      <trkpt lat="49.41271" lon="0.98243">
        <ele>127.09920501709</ele>
        <time>2014-01-11T09:12:37.000Z</time>
      </trkpt>
      <trkpt lat="49.41268" lon="0.98233">
        <ele>127.02909851074</ele>
        <time>2014-01-11T09:12:40.000Z</time>
      </trkpt>
      <trkpt lat="49.41267" lon="0.98231">
        <ele>126.98636627197</ele>
        <time>2014-01-11T09:12:42.000Z</time>
      </trkpt>
      <trkpt lat="49.41275" lon="0.98222">
        <ele>126.95512390137</ele>
        <time>2014-01-11T09:12:56.000Z</time>
      </trkpt>
      <trkpt lat="49.41288" lon="0.9822">
        <ele>126.92543792725</ele>
        <time>2014-01-11T09:13:03.000Z</time>
      </trkpt>
      <trkpt lat="49.41298" lon="0.98221">
        <ele>126.88956451416</ele>
        <time>2014-01-11T09:13:07.000Z</time>
      </trkpt>
      <trkpt lat="49.41301" lon="0.9822">
        <ele>126.85498046875</ele>
        <time>2014-01-11T09:13:10.000Z</time>
      </trkpt>
      <trkpt lat="49.41309" lon="0.9822">
        <ele>126.8126449585</ele>
        <time>2014-01-11T09:13:13.000Z</time>
      </trkpt>
      <trkpt lat="49.41312" lon="0.9822">
        <ele>126.77835845947</ele>
        <time>2014-01-11T09:13:16.000Z</time>
      </trkpt>
      <trkpt lat="49.41344" lon="0.98224">
        <ele>126.73947906494</ele>
        <time>2014-01-11T09:13:21.000Z</time>
      </trkpt>
      <trkpt lat="49.41352" lon="0.98226">
        <ele>126.70306396484</ele>
        <time>2014-01-11T09:13:23.000Z</time>
      </trkpt>
      <trkpt lat="49.41365" lon="0.98231">
        <ele>126.65940093994</ele>
        <time>2014-01-11T09:13:26.000Z</time>
      </trkpt>
      <trkpt lat="49.41375" lon="0.98235">
        <ele>126.61173248291</ele>
        <time>2014-01-11T09:13:28.000Z</time>
      </trkpt>
      <trkpt lat="49.41388" lon="0.98241">
        <ele>126.54123687744</ele>
        <time>2014-01-11T09:13:31.000Z</time>
      </trkpt>
      <trkpt lat="49.41401" lon="0.98248">
        <ele>126.45277404785</ele>
        <time>2014-01-11T09:13:34.000Z</time>
      </trkpt>
      <trkpt lat="49.41412" lon="0.98252">
        <ele>126.33485412598</ele>
        <time>2014-01-11T09:13:37.000Z</time>
      </trkpt>
      <trkpt lat="49.41422" lon="0.98256">
        <ele>126.18951416016</ele>
        <time>2014-01-11T09:13:41.000Z</time>
      </trkpt>
      <trkpt lat="49.41433" lon="0.98254">
        <ele>126.03004455566</ele>
        <time>2014-01-11T09:13:43.000Z</time>
      </trkpt>
      <trkpt lat="49.41439" lon="0.98253">
        <ele>125.88581848145</ele>
        <time>2014-01-11T09:13:45.000Z</time>
      </trkpt>
      <trkpt lat="49.41445" lon="0.98251">
        <ele>125.76987457275</ele>
        <time>2014-01-11T09:13:47.000Z</time>
      </trkpt>
      <trkpt lat="49.41456" lon="0.98244">
        <ele>125.68393707275</ele>
        <time>2014-01-11T09:13:50.000Z</time>
      </trkpt>
      <trkpt lat="49.41468" lon="0.98233">
        <ele>125.63558197021</ele>
        <time>2014-01-11T09:13:53.000Z</time>
      </trkpt>
      <trkpt lat="49.4148" lon="0.98219">
        <ele>125.61682128906</ele>
        <time>2014-01-11T09:13:56.000Z</time>
      </trkpt>
      <trkpt lat="49.41492" lon="0.98203">
        <ele>125.61798095703</ele>
        <time>2014-01-11T09:13:59.000Z</time>
      </trkpt>
      <trkpt lat="49.41505" lon="0.98186">
        <ele>125.62725830078</ele>
        <time>2014-01-11T09:14:02.000Z</time>
      </trkpt>
      <trkpt lat="49.41514" lon="0.98173">
        <ele>125.62646484375</ele>
        <time>2014-01-11T09:14:04.000Z</time>
      </trkpt>
      <trkpt lat="49.41528" lon="0.98155">
        <ele>125.54669189453</ele>
        <time>2014-01-11T09:14:07.000Z</time>
      </trkpt>
      <trkpt lat="49.41542" lon="0.98135">
        <ele>125.34892272949</ele>
        <time>2014-01-11T09:14:10.000Z</time>
      </trkpt>
      <trkpt lat="49.41551" lon="0.98121">
        <ele>125.06337738037</ele>
        <time>2014-01-11T09:14:12.000Z</time>
      </trkpt>
      <trkpt lat="49.41565" lon="0.98094">
        <ele>124.64107513428</ele>
        <time>2014-01-11T09:14:15.000Z</time>
      </trkpt>
      <trkpt lat="49.41574" lon="0.98078">
        <ele>124.10844421387</ele>
        <time>2014-01-11T09:14:17.000Z</time>
      </trkpt>
      <trkpt lat="49.41589" lon="0.98056">
        <ele>123.31671142578</ele>
        <time>2014-01-11T09:14:20.000Z</time>
      </trkpt>
      <trkpt lat="49.41603" lon="0.98031">
        <ele>122.31169128418</ele>
        <time>2014-01-11T09:14:23.000Z</time>
      </trkpt>
      <trkpt lat="49.4162" lon="0.98002">
        <ele>121.08666992188</ele>
        <time>2014-01-11T09:14:26.000Z</time>
      </trkpt>
      <trkpt lat="49.41632" lon="0.97982">
        <ele>119.76965332031</ele>
        <time>2014-01-11T09:14:28.000Z</time>
      </trkpt>
      <trkpt lat="49.41644" lon="0.97963">
        <ele>118.32670593262</ele>
        <time>2014-01-11T09:14:30.000Z</time>
      </trkpt>
      <trkpt lat="49.41656" lon="0.97944">
        <ele>116.91996765137</ele>
        <time>2014-01-11T09:14:32.000Z</time>
      </trkpt>
      <trkpt lat="49.41674" lon="0.97915">
        <ele>115.31485748291</ele>
        <time>2014-01-11T09:14:35.000Z</time>
      </trkpt>
      <trkpt lat="49.41685" lon="0.97898">
        <ele>113.77639007568</ele>
        <time>2014-01-11T09:14:37.000Z</time>
      </trkpt>
      <trkpt lat="49.41696" lon="0.97881">
        <ele>112.24128723145</ele>
        <time>2014-01-11T09:14:39.000Z</time>
      </trkpt>
      <trkpt lat="49.41713" lon="0.97856">
        <ele>110.61656188965</ele>
        <time>2014-01-11T09:14:42.000Z</time>
      </trkpt>
      <trkpt lat="49.41729" lon="0.97832">
        <ele>108.96549987793</ele>
        <time>2014-01-11T09:14:45.000Z</time>
      </trkpt>
      <trkpt lat="49.41739" lon="0.97816">
        <ele>107.56545257568</ele>
        <time>2014-01-11T09:14:47.000Z</time>
      </trkpt>
      <trkpt lat="49.41755" lon="0.9779">
        <ele>105.85652923584</ele>
        <time>2014-01-11T09:14:50.000Z</time>
      </trkpt>
      <trkpt lat="49.41769" lon="0.97768">
        <ele>103.79809570312</ele>
        <time>2014-01-11T09:14:53.000Z</time>
      </trkpt>
      <trkpt lat="49.41779" lon="0.97752">
        <ele>101.66413879395</ele>
        <time>2014-01-11T09:14:55.000Z</time>
      </trkpt>
      <trkpt lat="49.41795" lon="0.97724">
        <ele>99.109916687012</ele>
        <time>2014-01-11T09:14:58.000Z</time>
      </trkpt>
      <trkpt lat="49.41805" lon="0.97707">
        <ele>96.325355529785</ele>
        <time>2014-01-11T09:15:00.000Z</time>
      </trkpt>
      <trkpt lat="49.4182" lon="0.97683">
        <ele>93.355087280273</ele>
        <time>2014-01-11T09:15:03.000Z</time>
      </trkpt>
      <trkpt lat="49.41829" lon="0.9767">
        <ele>90.506301879883</ele>
        <time>2014-01-11T09:15:05.000Z</time>
      </trkpt>
      <trkpt lat="49.41842" lon="0.97647">
        <ele>87.535232543945</ele>
        <time>2014-01-11T09:15:08.000Z</time>
      </trkpt>
      <trkpt lat="49.41854" lon="0.97627">
        <ele>84.820640563965</ele>
        <time>2014-01-11T09:15:11.000Z</time>
      </trkpt>
      <trkpt lat="49.41865" lon="0.97609">
        <ele>82.14672088623</ele>
        <time>2014-01-11T09:15:14.000Z</time>
      </trkpt>
      <trkpt lat="49.41875" lon="0.97595">
        <ele>79.779472351074</ele>
        <time>2014-01-11T09:15:19.000Z</time>
      </trkpt>
      <trkpt lat="49.41887" lon="0.97576">
        <ele>77.349349975586</ele>
        <time>2014-01-11T09:15:20.000Z</time>
      </trkpt>
      <trkpt lat="49.41898" lon="0.9756">
        <ele>74.98070526123</ele>
        <time>2014-01-11T09:15:23.000Z</time>
      </trkpt>
      <trkpt lat="49.41903" lon="0.97552">
        <ele>72.853271484375</ele>
        <time>2014-01-11T09:15:25.000Z</time>
      </trkpt>
      <trkpt lat="49.41914" lon="0.97537">
        <ele>70.726554870605</ele>
        <time>2014-01-11T09:15:28.000Z</time>
      </trkpt>
      <trkpt lat="49.41925" lon="0.97519">
        <ele>68.470336914062</ele>
        <time>2014-01-11T09:15:31.000Z</time>
      </trkpt>
      <trkpt lat="49.41936" lon="0.97501">
        <ele>66.210426330566</ele>
        <time>2014-01-11T09:15:34.000Z</time>
      </trkpt>
      <trkpt lat="49.41942" lon="0.97489">
        <ele>64.043907165527</ele>
        <time>2014-01-11T09:15:36.000Z</time>
      </trkpt>
      <trkpt lat="49.41948" lon="0.97478">
        <ele>61.79109954834</ele>
        <time>2014-01-11T09:15:38.000Z</time>
      </trkpt>
      <trkpt lat="49.41954" lon="0.97469">
        <ele>59.671630859375</ele>
        <time>2014-01-11T09:15:41.000Z</time>
      </trkpt>
      <trkpt lat="49.41963" lon="0.97459">
        <ele>57.660179138184</ele>
        <time>2014-01-11T09:15:44.000Z</time>
      </trkpt>
      <trkpt lat="49.41973" lon="0.97442">
        <ele>55.619140625</ele>
        <time>2014-01-11T09:15:47.000Z</time>
      </trkpt>
      <trkpt lat="49.41983" lon="0.97428">
        <ele>53.421802520752</ele>
        <time>2014-01-11T09:15:50.000Z</time>
      </trkpt>
      <trkpt lat="49.41989" lon="0.97424">
        <ele>51.321338653564</ele>
        <time>2014-01-11T09:15:52.000Z</time>
      </trkpt>
      <trkpt lat="49.41993" lon="0.9742">
        <ele>49.368118286133</ele>
        <time>2014-01-11T09:15:55.000Z</time>
      </trkpt>
      <trkpt lat="49.41996" lon="0.97417">
        <ele>47.70849609375</ele>
        <time>2014-01-11T09:15:58.000Z</time>
      </trkpt>
      <trkpt lat="49.41999" lon="0.97418">
        <ele>46.532562255859</ele>
        <time>2014-01-11T09:15:59.000Z</time>
      </trkpt>
      <trkpt lat="49.42001" lon="0.97419">
        <ele>45.887557983398</ele>
        <time>2014-01-11T09:16:02.000Z</time>
      </trkpt>
      <trkpt lat="49.42002" lon="0.97423">
        <ele>45.532459259033</ele>
        <time>2014-01-11T09:16:04.000Z</time>
      </trkpt>
      <trkpt lat="49.42004" lon="0.97431">
        <ele>45.470767974854</ele>
        <time>2014-01-11T09:16:07.000Z</time>
      </trkpt>
      <trkpt lat="49.42005" lon="0.97437">
        <ele>45.629524230957</ele>
        <time>2014-01-11T09:16:09.000Z</time>
      </trkpt>
      <trkpt lat="49.42006" lon="0.97444">
        <ele>45.936592102051</ele>
        <time>2014-01-11T09:16:11.000Z</time>
      </trkpt>
      <trkpt lat="49.42007" lon="0.97454">
        <ele>46.387168884277</ele>
        <time>2014-01-11T09:16:14.000Z</time>
      </trkpt>
      <trkpt lat="49.42008" lon="0.97463">
        <ele>46.911571502686</ele>
        <time>2014-01-11T09:16:17.000Z</time>
      </trkpt>
      <trkpt lat="49.42009" lon="0.97472">
        <ele>47.453151702881</ele>
        <time>2014-01-11T09:16:20.000Z</time>
      </trkpt>
      <trkpt lat="49.4201" lon="0.97479">
        <ele>47.990928649902</ele>
        <time>2014-01-11T09:16:23.000Z</time>
      </trkpt>
      <trkpt lat="49.42015" lon="0.97494">
        <ele>48.573822021484</ele>
        <time>2014-01-11T09:16:26.000Z</time>
      </trkpt>
      <trkpt lat="49.42019" lon="0.97503">
        <ele>49.041431427002</ele>
        <time>2014-01-11T09:16:28.000Z</time>
      </trkpt>
      <trkpt lat="49.42023" lon="0.97516">
        <ele>49.46125793457</ele>
        <time>2014-01-11T09:16:31.000Z</time>
      </trkpt>
      <trkpt lat="49.42025" lon="0.97525">
        <ele>49.822559356689</ele>
        <time>2014-01-11T09:16:33.000Z</time>
      </trkpt>
      <trkpt lat="49.42027" lon="0.97533">
        <ele>50.194522857666</ele>
        <time>2014-01-11T09:16:35.000Z</time>
      </trkpt>
      <trkpt lat="49.42027" lon="0.97536">
        <ele>50.467067718506</ele>
        <time>2014-01-11T09:16:38.000Z</time>
      </trkpt>
      <trkpt lat="49.42029" lon="0.97556">
        <ele>50.937225341797</ele>
        <time>2014-01-11T09:16:41.000Z</time>
      </trkpt>
      <trkpt lat="49.4203" lon="0.97566">
        <ele>51.465892791748</ele>
        <time>2014-01-11T09:16:44.000Z</time>
      </trkpt>
      <trkpt lat="49.42031" lon="0.97575">
        <ele>52.013561248779</ele>
        <time>2014-01-11T09:16:47.000Z</time>
      </trkpt>
      <trkpt lat="49.42032" lon="0.97584">
        <ele>52.568260192871</ele>
        <time>2014-01-11T09:16:50.000Z</time>
      </trkpt>
      <trkpt lat="49.42035" lon="0.97591">
        <ele>53.115772247314</ele>
        <time>2014-01-11T09:16:52.000Z</time>
      </trkpt>
      <trkpt lat="49.42039" lon="0.97602">
        <ele>53.464012145996</ele>
        <time>2014-01-11T09:16:55.000Z</time>
      </trkpt>
      <trkpt lat="49.42042" lon="0.97612">
        <ele>53.707359313965</ele>
        <time>2014-01-11T09:16:58.000Z</time>
      </trkpt>
      <trkpt lat="49.42044" lon="0.97618">
        <ele>53.877265930176</ele>
        <time>2014-01-11T09:17:01.000Z</time>
      </trkpt>
      <trkpt lat="49.42048" lon="0.97631">
        <ele>54.019203186035</ele>
        <time>2014-01-11T09:17:04.000Z</time>
      </trkpt>
      <trkpt lat="49.42051" lon="0.97638">
        <ele>54.134246826172</ele>
        <time>2014-01-11T09:17:06.000Z</time>
      </trkpt>
      <trkpt lat="49.42056" lon="0.97649">
        <ele>54.187744140625</ele>
        <time>2014-01-11T09:17:09.000Z</time>
      </trkpt>
      <trkpt lat="49.42057" lon="0.97652">
        <ele>54.207538604736</ele>
        <time>2014-01-11T09:17:11.000Z</time>
      </trkpt>
      <trkpt lat="49.4206" lon="0.9766">
        <ele>54.198722839355</ele>
        <time>2014-01-11T09:17:14.000Z</time>
      </trkpt>
      <trkpt lat="49.42066" lon="0.97676">
        <ele>54.067176818848</ele>
        <time>2014-01-11T09:17:17.000Z</time>
      </trkpt>
      <trkpt lat="49.4207" lon="0.97688">
        <ele>53.905792236328</ele>
        <time>2014-01-11T09:17:20.000Z</time>
      </trkpt>
      <trkpt lat="49.42072" lon="0.97694">
        <ele>53.755542755127</ele>
        <time>2014-01-11T09:17:22.000Z</time>
      </trkpt>
      <trkpt lat="49.42076" lon="0.97706">
        <ele>53.573638916016</ele>
        <time>2014-01-11T09:17:25.000Z</time>
      </trkpt>
      <trkpt lat="49.42083" lon="0.97718">
        <ele>53.258350372314</ele>
        <time>2014-01-11T09:17:28.000Z</time>
      </trkpt>
      <trkpt lat="49.42092" lon="0.97731">
        <ele>52.96768951416</ele>
        <time>2014-01-11T09:17:31.000Z</time>
      </trkpt>
      <trkpt lat="49.42096" lon="0.97738">
        <ele>52.69722366333</ele>
        <time>2014-01-11T09:17:33.000Z</time>
      </trkpt>
      <trkpt lat="49.42101" lon="0.97745">
        <ele>52.441905975342</ele>
        <time>2014-01-11T09:17:35.000Z</time>
      </trkpt>
      <trkpt lat="49.42107" lon="0.97756">
        <ele>52.20841217041</ele>
        <time>2014-01-11T09:17:38.000Z</time>
      </trkpt>
      <trkpt lat="49.42113" lon="0.97765">
        <ele>52.113861083984</ele>
        <time>2014-01-11T09:17:41.000Z</time>
      </trkpt>
      <trkpt lat="49.42118" lon="0.97774">
        <ele>52.050346374512</ele>
        <time>2014-01-11T09:17:44.000Z</time>
      </trkpt>
      <trkpt lat="49.42124" lon="0.97783">
        <ele>51.988334655762</ele>
        <time>2014-01-11T09:17:47.000Z</time>
      </trkpt>
      <trkpt lat="49.42131" lon="0.97793">
        <ele>51.933769226074</ele>
        <time>2014-01-11T09:17:50.000Z</time>
      </trkpt>
      <trkpt lat="49.42136" lon="0.97799">
        <ele>51.870746612549</ele>
        <time>2014-01-11T09:17:52.000Z</time>
      </trkpt>
      <trkpt lat="49.42143" lon="0.97808">
        <ele>51.778015136719</ele>
        <time>2014-01-11T09:17:55.000Z</time>
      </trkpt>
      <trkpt lat="49.42152" lon="0.97818">
        <ele>51.659412384033</ele>
        <time>2014-01-11T09:17:58.000Z</time>
      </trkpt>
      <trkpt lat="49.42157" lon="0.97825">
        <ele>51.541870117188</ele>
        <time>2014-01-11T09:18:00.000Z</time>
      </trkpt>
      <trkpt lat="49.42163" lon="0.97831">
        <ele>51.412170410156</ele>
        <time>2014-01-11T09:18:02.000Z</time>
      </trkpt>
      <trkpt lat="49.42172" lon="0.97841">
        <ele>51.251201629639</ele>
        <time>2014-01-11T09:18:05.000Z</time>
      </trkpt>
      <trkpt lat="49.42179" lon="0.97849">
        <ele>51.077194213867</ele>
        <time>2014-01-11T09:18:08.000Z</time>
      </trkpt>
      <trkpt lat="49.42187" lon="0.97857">
        <ele>50.843162536621</ele>
        <time>2014-01-11T09:18:12.000Z</time>
      </trkpt>
      <trkpt lat="49.42194" lon="0.97865">
        <ele>50.562446594238</ele>
        <time>2014-01-11T09:18:14.000Z</time>
      </trkpt>
      <trkpt lat="49.42205" lon="0.97881">
        <ele>50.245628356934</ele>
        <time>2014-01-11T09:18:17.000Z</time>
      </trkpt>
      <trkpt lat="49.42213" lon="0.97892">
        <ele>49.907558441162</ele>
        <time>2014-01-11T09:18:20.000Z</time>
      </trkpt>
      <trkpt lat="49.42219" lon="0.97901">
        <ele>49.586982727051</ele>
        <time>2014-01-11T09:18:22.000Z</time>
      </trkpt>
      <trkpt lat="49.42227" lon="0.97915">
        <ele>49.322814941406</ele>
        <time>2014-01-11T09:18:25.000Z</time>
      </trkpt>
      <trkpt lat="49.42235" lon="0.97927">
        <ele>49.044109344482</ele>
        <time>2014-01-11T09:18:28.000Z</time>
      </trkpt>
      <trkpt lat="49.42244" lon="0.97936">
        <ele>48.664600372314</ele>
        <time>2014-01-11T09:18:31.000Z</time>
      </trkpt>
      <trkpt lat="49.42252" lon="0.97942">
        <ele>48.211395263672</ele>
        <time>2014-01-11T09:18:34.000Z</time>
      </trkpt>
      <trkpt lat="49.42257" lon="0.97946">
        <ele>47.707191467285</ele>
        <time>2014-01-11T09:18:37.000Z</time>
      </trkpt>
      <trkpt lat="49.42256" lon="0.97948">
        <ele>47.282539367676</ele>
        <time>2014-01-11T09:18:40.000Z</time>
      </trkpt>
      <trkpt lat="49.42257" lon="0.97951">
        <ele>46.939147949219</ele>
        <time>2014-01-11T09:18:43.000Z</time>
      </trkpt>
      <trkpt lat="49.42261" lon="0.97955">
        <ele>46.682418823242</ele>
        <time>2014-01-11T09:18:46.000Z</time>
      </trkpt>
      <trkpt lat="49.4227" lon="0.97961">
        <ele>46.420547485352</ele>
        <time>2014-01-11T09:18:49.000Z</time>
      </trkpt>
      <trkpt lat="49.4228" lon="0.97968">
        <ele>46.054252624512</ele>
        <time>2014-01-11T09:18:52.000Z</time>
      </trkpt>
      <trkpt lat="49.4229" lon="0.97977">
        <ele>45.506519317627</ele>
        <time>2014-01-11T09:18:55.000Z</time>
      </trkpt>
      <trkpt lat="49.42296" lon="0.97984">
        <ele>44.867919921875</ele>
        <time>2014-01-11T09:18:57.000Z</time>
      </trkpt>
      <trkpt lat="49.42303" lon="0.97991">
        <ele>44.217185974121</ele>
        <time>2014-01-11T09:18:59.000Z</time>
      </trkpt>
      <trkpt lat="49.42311" lon="0.97998">
        <ele>43.598365783691</ele>
        <time>2014-01-11T09:19:02.000Z</time>
      </trkpt>
      <trkpt lat="49.42317" lon="0.98003">
        <ele>43.122913360596</ele>
        <time>2014-01-11T09:19:04.000Z</time>
      </trkpt>
      <trkpt lat="49.42325" lon="0.9801">
        <ele>42.740825653076</ele>
        <time>2014-01-11T09:19:07.000Z</time>
      </trkpt>
      <trkpt lat="49.42334" lon="0.98017">
        <ele>42.386837005615</ele>
        <time>2014-01-11T09:19:10.000Z</time>
      </trkpt>
      <trkpt lat="49.4234" lon="0.98023">
        <ele>42.209632873535</ele>
        <time>2014-01-11T09:19:12.000Z</time>
      </trkpt>
      <trkpt lat="49.4235" lon="0.98036">
        <ele>42.305938720703</ele>
        <time>2014-01-11T09:19:15.000Z</time>
      </trkpt>
      <trkpt lat="49.42357" lon="0.98047">
        <ele>42.532138824463</ele>
        <time>2014-01-11T09:19:17.000Z</time>
      </trkpt>
      <trkpt lat="49.42368" lon="0.98065">
        <ele>42.831729888916</ele>
        <time>2014-01-11T09:19:20.000Z</time>
      </trkpt>
      <trkpt lat="49.42377" lon="0.98082">
        <ele>43.107025146484</ele>
        <time>2014-01-11T09:19:23.000Z</time>
      </trkpt>
      <trkpt lat="49.42385" lon="0.981">
        <ele>43.258605957031</ele>
        <time>2014-01-11T09:19:26.000Z</time>
      </trkpt>
      <trkpt lat="49.42392" lon="0.98116">
        <ele>43.234703063965</ele>
        <time>2014-01-11T09:19:29.000Z</time>
      </trkpt>
      <trkpt lat="49.42396" lon="0.98123">
        <ele>43.061485290527</ele>
        <time>2014-01-11T09:19:31.000Z</time>
      </trkpt>
      <trkpt lat="49.42403" lon="0.9813">
        <ele>42.71301651001</ele>
        <time>2014-01-11T09:19:34.000Z</time>
      </trkpt>
      <trkpt lat="49.42406" lon="0.98134">
        <ele>42.372245788574</ele>
        <time>2014-01-11T09:19:37.000Z</time>
      </trkpt>
      <trkpt lat="49.42409" lon="0.98143">
        <ele>42.054676055908</ele>
        <time>2014-01-11T09:19:39.000Z</time>
      </trkpt>
      <trkpt lat="49.42411" lon="0.98153">
        <ele>41.784172058105</ele>
        <time>2014-01-11T09:19:41.000Z</time>
      </trkpt>
      <trkpt lat="49.42412" lon="0.98161">
        <ele>41.587966918945</ele>
        <time>2014-01-11T09:19:43.000Z</time>
      </trkpt>
      <trkpt lat="49.42414" lon="0.98173">
        <ele>41.588172912598</ele>
        <time>2014-01-11T09:19:46.000Z</time>
      </trkpt>
      <trkpt lat="49.42418" lon="0.98185">
        <ele>41.770484924316</ele>
        <time>2014-01-11T09:19:49.000Z</time>
      </trkpt>
      <trkpt lat="49.42421" lon="0.98196">
        <ele>42.180122375488</ele>
        <time>2014-01-11T09:19:52.000Z</time>
      </trkpt>
      <trkpt lat="49.42425" lon="0.98209">
        <ele>42.7785987854</ele>
        <time>2014-01-11T09:19:55.000Z</time>
      </trkpt>
      <trkpt lat="49.4243" lon="0.98223">
        <ele>43.556507110596</ele>
        <time>2014-01-11T09:19:58.000Z</time>
      </trkpt>
      <trkpt lat="49.42434" lon="0.98236">
        <ele>44.427539825439</ele>
        <time>2014-01-11T09:20:01.000Z</time>
      </trkpt>
      <trkpt lat="49.42441" lon="0.98254">
        <ele>45.321479797363</ele>
        <time>2014-01-11T09:20:04.000Z</time>
      </trkpt>
      <trkpt lat="49.42449" lon="0.98274">
        <ele>46.094306945801</ele>
        <time>2014-01-11T09:20:07.000Z</time>
      </trkpt>
      <trkpt lat="49.42459" lon="0.98292">
        <ele>46.627937316895</ele>
        <time>2014-01-11T09:20:10.000Z</time>
      </trkpt>
      <trkpt lat="49.42466" lon="0.98301">
        <ele>46.902393341064</ele>
        <time>2014-01-11T09:20:12.000Z</time>
      </trkpt>
      <trkpt lat="49.42472" lon="0.98308">
        <ele>46.941608428955</ele>
        <time>2014-01-11T09:20:14.000Z</time>
      </trkpt>
      <trkpt lat="49.4248" lon="0.98318">
        <ele>46.677223205566</ele>
        <time>2014-01-11T09:20:17.000Z</time>
      </trkpt>
      <trkpt lat="49.42488" lon="0.98325">
        <ele>46.132545471191</ele>
        <time>2014-01-11T09:20:20.000Z</time>
      </trkpt>
      <trkpt lat="49.4249" lon="0.98326">
        <ele>45.555233001709</ele>
        <time>2014-01-11T09:20:23.000Z</time>
      </trkpt>
      <trkpt lat="49.42503" lon="0.98336">
        <ele>44.825817108154</ele>
        <time>2014-01-11T09:20:27.000Z</time>
      </trkpt>
      <trkpt lat="49.42513" lon="0.98345">
        <ele>44.298931121826</ele>
        <time>2014-01-11T09:20:29.000Z</time>
      </trkpt>
      <trkpt lat="49.42519" lon="0.98349">
        <ele>43.991313934326</ele>
        <time>2014-01-11T09:20:31.000Z</time>
      </trkpt>
      <trkpt lat="49.42531" lon="0.98359">
        <ele>43.960414886475</ele>
        <time>2014-01-11T09:20:34.000Z</time>
      </trkpt>
      <trkpt lat="49.42538" lon="0.98365">
        <ele>44.046283721924</ele>
        <time>2014-01-11T09:20:36.000Z</time>
      </trkpt>
      <trkpt lat="49.42549" lon="0.98375">
        <ele>44.428550720215</ele>
        <time>2014-01-11T09:20:39.000Z</time>
      </trkpt>
      <trkpt lat="49.42554" lon="0.9838">
        <ele>44.731086730957</ele>
        <time>2014-01-11T09:20:41.000Z</time>
      </trkpt>
      <trkpt lat="49.42562" lon="0.98386">
        <ele>45.00626373291</ele>
        <time>2014-01-11T09:20:44.000Z</time>
      </trkpt>
      <trkpt lat="49.42566" lon="0.98389">
        <ele>45.188758850098</ele>
        <time>2014-01-11T09:20:46.000Z</time>
      </trkpt>
      <trkpt lat="49.42572" lon="0.98391">
        <ele>45.308612823486</ele>
        <time>2014-01-11T09:20:49.000Z</time>
      </trkpt>
      <trkpt lat="49.4258" lon="0.98397">
        <ele>45.36060333252</ele>
        <time>2014-01-11T09:20:53.000Z</time>
      </trkpt>
      <trkpt lat="49.42582" lon="0.98399">
        <ele>45.388076782227</ele>
        <time>2014-01-11T09:20:56.000Z</time>
      </trkpt>
      <trkpt lat="49.42596" lon="0.98413">
        <ele>45.411991119385</ele>
        <time>2014-01-11T09:21:01.000Z</time>
      </trkpt>
      <trkpt lat="49.42605" lon="0.98422">
        <ele>45.496292114258</ele>
        <time>2014-01-11T09:21:05.000Z</time>
      </trkpt>
      <trkpt lat="49.42614" lon="0.9843">
        <ele>45.70528793335</ele>
        <time>2014-01-11T09:21:08.000Z</time>
      </trkpt>
      <trkpt lat="49.42626" lon="0.9844">
        <ele>45.993419647217</ele>
        <time>2014-01-11T09:21:11.000Z</time>
      </trkpt>
      <trkpt lat="49.42639" lon="0.9845">
        <ele>46.322845458984</ele>
        <time>2014-01-11T09:21:14.000Z</time>
      </trkpt>
      <trkpt lat="49.42651" lon="0.98459">
        <ele>46.651935577393</ele>
        <time>2014-01-11T09:21:17.000Z</time>
      </trkpt>
      <trkpt lat="49.42659" lon="0.98467">
        <ele>46.919441223145</ele>
        <time>2014-01-11T09:21:19.000Z</time>
      </trkpt>
      <trkpt lat="49.42673" lon="0.98479">
        <ele>47.095123291016</ele>
        <time>2014-01-11T09:21:22.000Z</time>
      </trkpt>
      <trkpt lat="49.42685" lon="0.98489">
        <ele>47.206687927246</ele>
        <time>2014-01-11T09:21:25.000Z</time>
      </trkpt>
      <trkpt lat="49.42696" lon="0.98497">
        <ele>47.224617004395</ele>
        <time>2014-01-11T09:21:28.000Z</time>
      </trkpt>
      <trkpt lat="49.42705" lon="0.98505">
        <ele>47.228828430176</ele>
        <time>2014-01-11T09:21:31.000Z</time>
      </trkpt>
      <trkpt lat="49.4271" lon="0.9851">
        <ele>47.248912811279</ele>
        <time>2014-01-11T09:21:33.000Z</time>
      </trkpt>
      <trkpt lat="49.42716" lon="0.98514">
        <ele>47.243808746338</ele>
        <time>2014-01-11T09:21:35.000Z</time>
      </trkpt>
      <trkpt lat="49.42723" lon="0.98521">
        <ele>47.21849822998</ele>
        <time>2014-01-11T09:21:38.000Z</time>
      </trkpt>
      <trkpt lat="49.4273" lon="0.98526">
        <ele>47.224479675293</ele>
        <time>2014-01-11T09:21:41.000Z</time>
      </trkpt>
      <trkpt lat="49.42734" lon="0.9853">
        <ele>47.208030700684</ele>
        <time>2014-01-11T09:21:43.000Z</time>
      </trkpt>
      <trkpt lat="49.42738" lon="0.98533">
        <ele>47.146476745605</ele>
        <time>2014-01-11T09:21:45.000Z</time>
      </trkpt>
      <trkpt lat="49.42745" lon="0.98538">
        <ele>47.034736633301</ele>
        <time>2014-01-11T09:21:48.000Z</time>
      </trkpt>
      <trkpt lat="49.42749" lon="0.98541">
        <ele>46.896472930908</ele>
        <time>2014-01-11T09:21:50.000Z</time>
      </trkpt>
      <trkpt lat="49.42754" lon="0.98545">
        <ele>46.829193115234</ele>
        <time>2014-01-11T09:21:53.000Z</time>
      </trkpt>
      <trkpt lat="49.42756" lon="0.98547">
        <ele>46.809680938721</ele>
        <time>2014-01-11T09:21:56.000Z</time>
      </trkpt>
      <trkpt lat="49.42765" lon="0.98557">
        <ele>46.955986022949</ele>
        <time>2014-01-11T09:21:59.000Z</time>
      </trkpt>
      <trkpt lat="49.4277" lon="0.98561">
        <ele>47.205631256104</ele>
        <time>2014-01-11T09:22:01.000Z</time>
      </trkpt>
      <trkpt lat="49.42772" lon="0.98563">
        <ele>47.499900817871</ele>
        <time>2014-01-11T09:22:04.000Z</time>
      </trkpt>
      <trkpt lat="49.42791" lon="0.98577">
        <ele>47.818164825439</ele>
        <time>2014-01-11T09:22:08.000Z</time>
      </trkpt>
      <trkpt lat="49.42799" lon="0.98585">
        <ele>48.12508392334</ele>
        <time>2014-01-11T09:22:10.000Z</time>
      </trkpt>
      <trkpt lat="49.42811" lon="0.98594">
        <ele>48.408344268799</ele>
        <time>2014-01-11T09:22:13.000Z</time>
      </trkpt>
      <trkpt lat="49.42823" lon="0.98604">
        <ele>48.715789794922</ele>
        <time>2014-01-11T09:22:16.000Z</time>
      </trkpt>
      <trkpt lat="49.42833" lon="0.9861">
        <ele>49.030673980713</ele>
        <time>2014-01-11T09:22:19.000Z</time>
      </trkpt>
      <trkpt lat="49.42842" lon="0.98616">
        <ele>49.405097961426</ele>
        <time>2014-01-11T09:22:22.000Z</time>
      </trkpt>
      <trkpt lat="49.42847" lon="0.98619">
        <ele>49.844390869141</ele>
        <time>2014-01-11T09:22:24.000Z</time>
      </trkpt>
      <trkpt lat="49.42855" lon="0.98627">
        <ele>50.303855895996</ele>
        <time>2014-01-11T09:22:27.000Z</time>
      </trkpt>
      <trkpt lat="49.42859" lon="0.9863">
        <ele>50.733509063721</ele>
        <time>2014-01-11T09:22:29.000Z</time>
      </trkpt>
      <trkpt lat="49.42862" lon="0.98629">
        <ele>51.145751953125</ele>
        <time>2014-01-11T09:22:32.000Z</time>
      </trkpt>
      <trkpt lat="49.42867" lon="0.9863">
        <ele>51.455860137939</ele>
        <time>2014-01-11T09:22:34.000Z</time>
      </trkpt>
      <trkpt lat="49.42877" lon="0.98636">
        <ele>51.771404266357</ele>
        <time>2014-01-11T09:22:37.000Z</time>
      </trkpt>
      <trkpt lat="49.42884" lon="0.98643">
        <ele>52.019237518311</ele>
        <time>2014-01-11T09:22:39.000Z</time>
      </trkpt>
      <trkpt lat="49.42894" lon="0.98653">
        <ele>52.272899627686</ele>
        <time>2014-01-11T09:22:42.000Z</time>
      </trkpt>
      <trkpt lat="49.42899" lon="0.98658">
        <ele>52.532745361328</ele>
        <time>2014-01-11T09:22:44.000Z</time>
      </trkpt>
      <trkpt lat="49.42907" lon="0.98666">
        <ele>52.762268066406</ele>
        <time>2014-01-11T09:22:47.000Z</time>
      </trkpt>
      <trkpt lat="49.42915" lon="0.98671">
        <ele>52.952613830566</ele>
        <time>2014-01-11T09:22:50.000Z</time>
      </trkpt>
      <trkpt lat="49.42922" lon="0.98673">
        <ele>53.148254394531</ele>
        <time>2014-01-11T09:22:53.000Z</time>
      </trkpt>
      <trkpt lat="49.42931" lon="0.98676">
        <ele>53.37557220459</ele>
        <time>2014-01-11T09:22:56.000Z</time>
      </trkpt>
      <trkpt lat="49.42939" lon="0.98679">
        <ele>53.696350097656</ele>
        <time>2014-01-11T09:22:59.000Z</time>
      </trkpt>
      <trkpt lat="49.42947" lon="0.98684">
        <ele>54.126747131348</ele>
        <time>2014-01-11T09:23:02.000Z</time>
      </trkpt>
      <trkpt lat="49.42955" lon="0.98688">
        <ele>54.614196777344</ele>
        <time>2014-01-11T09:23:05.000Z</time>
      </trkpt>
      <trkpt lat="49.42961" lon="0.9869">
        <ele>55.090087890625</ele>
        <time>2014-01-11T09:23:07.000Z</time>
      </trkpt>
      <trkpt lat="49.42969" lon="0.98693">
        <ele>55.579284667969</ele>
        <time>2014-01-11T09:23:10.000Z</time>
      </trkpt>
      <trkpt lat="49.42979" lon="0.98697">
        <ele>56.076671600342</ele>
        <time>2014-01-11T09:23:13.000Z</time>
      </trkpt>
      <trkpt lat="49.42986" lon="0.987">
        <ele>56.539600372314</ele>
        <time>2014-01-11T09:23:15.000Z</time>
      </trkpt>
      <trkpt lat="49.42996" lon="0.98705">
        <ele>57.030467987061</ele>
        <time>2014-01-11T09:23:18.000Z</time>
      </trkpt>
      <trkpt lat="49.43003" lon="0.98709">
        <ele>57.552600860596</ele>
        <time>2014-01-11T09:23:20.000Z</time>
      </trkpt>
      <trkpt lat="49.43015" lon="0.98714">
        <ele>58.088043212891</ele>
        <time>2014-01-11T09:23:23.000Z</time>
      </trkpt>
      <trkpt lat="49.43026" lon="0.98718">
        <ele>58.580841064453</ele>
        <time>2014-01-11T09:23:26.000Z</time>
      </trkpt>
      <trkpt lat="49.43037" lon="0.98722">
        <ele>59.040031433105</ele>
        <time>2014-01-11T09:23:29.000Z</time>
      </trkpt>
      <trkpt lat="49.43047" lon="0.98726">
        <ele>59.389789581299</ele>
        <time>2014-01-11T09:23:32.000Z</time>
      </trkpt>
      <trkpt lat="49.43054" lon="0.98729">
        <ele>59.651836395264</ele>
        <time>2014-01-11T09:23:34.000Z</time>
      </trkpt>
      <trkpt lat="49.43064" lon="0.98734">
        <ele>59.785224914551</ele>
        <time>2014-01-11T09:23:37.000Z</time>
      </trkpt>
      <trkpt lat="49.43073" lon="0.98737">
        <ele>59.815773010254</ele>
        <time>2014-01-11T09:23:40.000Z</time>
      </trkpt>
      <trkpt lat="49.43079" lon="0.98739">
        <ele>59.774047851562</ele>
        <time>2014-01-11T09:23:42.000Z</time>
      </trkpt>
      <trkpt lat="49.43085" lon="0.98741">
        <ele>59.68306350708</ele>
        <time>2014-01-11T09:23:44.000Z</time>
      </trkpt>
      <trkpt lat="49.4309" lon="0.98743">
        <ele>59.597099304199</ele>
        <time>2014-01-11T09:23:46.000Z</time>
      </trkpt>
      <trkpt lat="49.43098" lon="0.98744">
        <ele>59.537891387939</ele>
        <time>2014-01-11T09:23:49.000Z</time>
      </trkpt>
      <trkpt lat="49.43106" lon="0.98747">
        <ele>59.489940643311</ele>
        <time>2014-01-11T09:23:52.000Z</time>
      </trkpt>
      <trkpt lat="49.43114" lon="0.98752">
        <ele>59.458290100098</ele>
        <time>2014-01-11T09:23:55.000Z</time>
      </trkpt>
      <trkpt lat="49.43122" lon="0.98757">
        <ele>59.49129486084</ele>
        <time>2014-01-11T09:23:58.000Z</time>
      </trkpt>
      <trkpt lat="49.43131" lon="0.98762">
        <ele>59.545341491699</ele>
        <time>2014-01-11T09:24:01.000Z</time>
      </trkpt>
      <trkpt lat="49.43139" lon="0.98765">
        <ele>59.607177734375</ele>
        <time>2014-01-11T09:24:04.000Z</time>
      </trkpt>
      <trkpt lat="49.43144" lon="0.98767">
        <ele>59.696746826172</ele>
        <time>2014-01-11T09:24:06.000Z</time>
      </trkpt>
      <trkpt lat="49.43152" lon="0.98771">
        <ele>59.807838439941</ele>
        <time>2014-01-11T09:24:09.000Z</time>
      </trkpt>
      <trkpt lat="49.43157" lon="0.98773">
        <ele>59.883464813232</ele>
        <time>2014-01-11T09:24:11.000Z</time>
      </trkpt>
      <trkpt lat="49.43163" lon="0.98776">
        <ele>59.932880401611</ele>
        <time>2014-01-11T09:24:13.000Z</time>
      </trkpt>
      <trkpt lat="49.4317" lon="0.98778">
        <ele>59.947273254395</ele>
        <time>2014-01-11T09:24:16.000Z</time>
      </trkpt>
      <trkpt lat="49.43176" lon="0.9878">
        <ele>59.923316955566</ele>
        <time>2014-01-11T09:24:18.000Z</time>
      </trkpt>
      <trkpt lat="49.43184" lon="0.98783">
        <ele>59.841815948486</ele>
        <time>2014-01-11T09:24:21.000Z</time>
      </trkpt>
      <trkpt lat="49.43188" lon="0.98784">
        <ele>59.728771209717</ele>
        <time>2014-01-11T09:24:23.000Z</time>
      </trkpt>
      <trkpt lat="49.43196" lon="0.98786">
        <ele>59.565330505371</ele>
        <time>2014-01-11T09:24:26.000Z</time>
      </trkpt>
      <trkpt lat="49.43204" lon="0.98786">
        <ele>59.376983642578</ele>
        <time>2014-01-11T09:24:29.000Z</time>
      </trkpt>
      <trkpt lat="49.43208" lon="0.98783">
        <ele>59.203399658203</ele>
        <time>2014-01-11T09:24:32.000Z</time>
      </trkpt>
      <trkpt lat="49.4321" lon="0.9878">
        <ele>59.079010009766</ele>
        <time>2014-01-11T09:24:35.000Z</time>
      </trkpt>
      <trkpt lat="49.43211" lon="0.98776">
        <ele>58.992443084717</ele>
        <time>2014-01-11T09:24:38.000Z</time>
      </trkpt>
      <trkpt lat="49.43213" lon="0.98773">
        <ele>58.954906463623</ele>
        <time>2014-01-11T09:24:44.000Z</time>
      </trkpt>
      <trkpt lat="49.43214" lon="0.98773">
        <ele>58.953144073486</ele>
        <time>2014-01-11T09:24:47.000Z</time>
      </trkpt>
      <trkpt lat="49.43214" lon="0.98775">
        <ele>58.955726623535</ele>
        <time>2014-01-11T09:24:52.000Z</time>
      </trkpt>
      <trkpt lat="49.43216" lon="0.9878">
        <ele>58.925994873047</ele>
        <time>2014-01-11T09:25:08.000Z</time>
      </trkpt>
      <trkpt lat="49.43217" lon="0.98779">
        <ele>58.879108428955</ele>
        <time>2014-01-11T09:25:11.000Z</time>
      </trkpt>
      <trkpt lat="49.43227" lon="0.9878">
        <ele>58.7783203125</ele>
        <time>2014-01-11T09:25:16.000Z</time>
      </trkpt>
      <trkpt lat="49.43233" lon="0.9878">
        <ele>58.654640197754</ele>
        <time>2014-01-11T09:25:21.000Z</time>
      </trkpt>
      <trkpt lat="49.43234" lon="0.9878">
        <ele>58.537902832031</ele>
        <time>2014-01-11T09:25:23.000Z</time>
      </trkpt>
      <trkpt lat="49.43238" lon="0.98776">
        <ele>58.455200195312</ele>
        <time>2014-01-11T09:25:26.000Z</time>
      </trkpt>
      <trkpt lat="49.43238" lon="0.98774">
        <ele>58.382740020752</ele>
        <time>2014-01-11T09:25:28.000Z</time>
      </trkpt>
      <trkpt lat="49.43241" lon="0.98767">
        <ele>58.398124694824</ele>
        <time>2014-01-11T09:25:31.000Z</time>
      </trkpt>
      <trkpt lat="49.43243" lon="0.98761">
        <ele>58.473976135254</ele>
        <time>2014-01-11T09:25:34.000Z</time>
      </trkpt>
      <trkpt lat="49.43245" lon="0.98755">
        <ele>58.582862854004</ele>
        <time>2014-01-11T09:25:39.000Z</time>
      </trkpt>
      <trkpt lat="49.43247" lon="0.98751">
        <ele>58.708515167236</ele>
        <time>2014-01-11T09:25:41.000Z</time>
      </trkpt>
      <trkpt lat="49.43249" lon="0.98748">
        <ele>58.906391143799</ele>
        <time>2014-01-11T09:25:44.000Z</time>
      </trkpt>
      <trkpt lat="49.4325" lon="0.98745">
        <ele>59.144824981689</ele>
        <time>2014-01-11T09:25:46.000Z</time>
      </trkpt>
      <trkpt lat="49.43251" lon="0.98738">
        <ele>59.585731506348</ele>
        <time>2014-01-11T09:25:52.000Z</time>
      </trkpt>
      <trkpt lat="49.43253" lon="0.98731">
        <ele>60.218711853027</ele>
        <time>2014-01-11T09:25:57.000Z</time>
      </trkpt>
      <trkpt lat="49.43253" lon="0.98726">
        <ele>60.963417053223</ele>
        <time>2014-01-11T09:26:01.000Z</time>
      </trkpt>
      <trkpt lat="49.43253" lon="0.98719">
        <ele>61.845855712891</ele>
        <time>2014-01-11T09:26:08.000Z</time>
      </trkpt>
      <trkpt lat="49.43254" lon="0.98715">
        <ele>62.775352478027</ele>
        <time>2014-01-11T09:26:11.000Z</time>
      </trkpt>
      <trkpt lat="49.43255" lon="0.98713">
        <ele>63.530853271484</ele>
        <time>2014-01-11T09:26:13.000Z</time>
      </trkpt>
      <trkpt lat="49.43256" lon="0.98712">
        <ele>64.10856628418</ele>
        <time>2014-01-11T09:26:16.000Z</time>
      </trkpt>
      <trkpt lat="49.43257" lon="0.9871">
        <ele>64.591262817383</ele>
        <time>2014-01-11T09:26:22.000Z</time>
      </trkpt>
      <trkpt lat="49.43257" lon="0.98709">
        <ele>64.91170501709</ele>
        <time>2014-01-11T09:26:25.000Z</time>
      </trkpt>
      <trkpt lat="49.43257" lon="0.98707">
        <ele>65.16658782959</ele>
        <time>2014-01-11T09:26:28.000Z</time>
      </trkpt>
      <trkpt lat="49.43256" lon="0.98705">
        <ele>65.404296875</ele>
        <time>2014-01-11T09:26:30.000Z</time>
      </trkpt>
      <trkpt lat="49.43256" lon="0.98704">
        <ele>65.64070892334</ele>
        <time>2014-01-11T09:26:32.000Z</time>
      </trkpt>
      <trkpt lat="49.43256" lon="0.98701">
        <ele>65.911544799805</ele>
        <time>2014-01-11T09:26:35.000Z</time>
      </trkpt>
      <trkpt lat="49.43257" lon="0.98698">
        <ele>66.230201721191</ele>
        <time>2014-01-11T09:26:38.000Z</time>
      </trkpt>
      <trkpt lat="49.43257" lon="0.98694">
        <ele>66.609664916992</ele>
        <time>2014-01-11T09:26:41.000Z</time>
      </trkpt>
      <trkpt lat="49.43258" lon="0.9869">
        <ele>67.064491271973</ele>
        <time>2014-01-11T09:26:44.000Z</time>
      </trkpt>
      <trkpt lat="49.43258" lon="0.98686">
        <ele>67.591232299805</ele>
        <time>2014-01-11T09:26:47.000Z</time>
      </trkpt>
      <trkpt lat="49.43259" lon="0.98684">
        <ele>68.125282287598</ele>
        <time>2014-01-11T09:26:49.000Z</time>
      </trkpt>
      <trkpt lat="49.43259" lon="0.9868">
        <ele>68.663467407227</ele>
        <time>2014-01-11T09:26:52.000Z</time>
      </trkpt>
      <trkpt lat="49.43259" lon="0.98678">
        <ele>69.15274810791</ele>
        <time>2014-01-11T09:26:55.000Z</time>
      </trkpt>
      <trkpt lat="49.4326" lon="0.98672">
        <ele>69.680885314941</ele>
        <time>2014-01-11T09:26:58.000Z</time>
      </trkpt>
      <trkpt lat="49.43261" lon="0.98668">
        <ele>70.223930358887</ele>
        <time>2014-01-11T09:27:01.000Z</time>
      </trkpt>
      <trkpt lat="49.43262" lon="0.98664">
        <ele>70.758460998535</ele>
        <time>2014-01-11T09:27:04.000Z</time>
      </trkpt>
      <trkpt lat="49.43262" lon="0.9866">
        <ele>71.234725952148</ele>
        <time>2014-01-11T09:27:07.000Z</time>
      </trkpt>
      <trkpt lat="49.43263" lon="0.98659">
        <ele>71.659629821777</ele>
        <time>2014-01-11T09:27:10.000Z</time>
      </trkpt>
      <trkpt lat="49.43264" lon="0.98659">
        <ele>71.918899536133</ele>
        <time>2014-01-11T09:27:16.000Z</time>
      </trkpt>
      <trkpt lat="49.43266" lon="0.98658">
        <ele>72.050468444824</ele>
        <time>2014-01-11T09:27:26.000Z</time>
      </trkpt>
      <trkpt lat="49.43265" lon="0.98659">
        <ele>72.092399597168</ele>
        <time>2014-01-11T09:27:40.000Z</time>
      </trkpt>
      <trkpt lat="49.43266" lon="0.98657">
        <ele>72.111312866211</ele>
        <time>2014-01-11T09:27:51.000Z</time>
      </trkpt>
      <trkpt lat="49.43266" lon="0.98656">
        <ele>72.131034851074</ele>
        <time>2014-01-11T09:27:53.000Z</time>
      </trkpt>
      <trkpt lat="49.43266" lon="0.98655">
        <ele>72.180252075195</ele>
        <time>2014-01-11T09:27:55.000Z</time>
      </trkpt>
      <trkpt lat="49.43266" lon="0.98655">
        <ele>72.180252075195</ele>
        <time>2014-01-11T09:28:15.000Z</time>
      </trkpt>
      <trkpt lat="49.43269" lon="0.98648">
        <ele>72.30419921875</ele>
        <time>2014-01-11T09:28:23.000Z</time>
      </trkpt>
      <trkpt lat="49.4327" lon="0.98649">
        <ele>72.413902282715</ele>
        <time>2014-01-11T09:28:26.000Z</time>
      </trkpt>
      <trkpt lat="49.4327" lon="0.98652">
        <ele>72.464492797852</ele>
        <time>2014-01-11T09:28:30.000Z</time>
      </trkpt>
      <trkpt lat="49.43269" lon="0.98654">
        <ele>72.472244262695</ele>
        <time>2014-01-11T09:28:32.000Z</time>
      </trkpt>
      <trkpt lat="49.43269" lon="0.98655">
        <ele>72.433364868164</ele>
        <time>2014-01-11T09:28:35.000Z</time>
      </trkpt>
      <trkpt lat="49.43269" lon="0.98657">
        <ele>72.302276611328</ele>
        <time>2014-01-11T09:28:39.000Z</time>
      </trkpt>
      <trkpt lat="49.43269" lon="0.98655">
        <ele>72.221412658691</ele>
        <time>2014-01-11T09:28:51.000Z</time>
      </trkpt>
      <trkpt lat="49.4327" lon="0.98653">
        <ele>72.19255065918</ele>
        <time>2014-01-11T09:28:56.000Z</time>
      </trkpt>
      <trkpt lat="49.4327" lon="0.98653">
        <ele>72.19255065918</ele>
        <time>2014-01-11T09:29:16.000Z</time>
      </trkpt>
      <trkpt lat="49.43255" lon="0.98669">
        <ele>72.030502319336</ele>
        <time>2014-01-11T09:29:30.000Z</time>
      </trkpt>
      <trkpt lat="49.43255" lon="0.98666">
        <ele>71.980850219727</ele>
        <time>2014-01-11T09:29:33.000Z</time>
      </trkpt>
      <trkpt lat="49.43254" lon="0.98664">
        <ele>71.98201751709</ele>
        <time>2014-01-11T09:29:40.000Z</time>
      </trkpt>
      <trkpt lat="49.43257" lon="0.9866">
        <ele>72.007202148438</ele>
        <time>2014-01-11T09:29:48.000Z</time>
      </trkpt>
      <trkpt lat="49.43258" lon="0.98659">
        <ele>72.022994995117</ele>
        <time>2014-01-11T09:29:50.000Z</time>
      </trkpt>
      <trkpt lat="49.43259" lon="0.98658">
        <ele>72.210205078125</ele>
        <time>2014-01-11T09:29:53.000Z</time>
      </trkpt>
      <trkpt lat="49.4326" lon="0.98657">
        <ele>72.306869506836</ele>
        <time>2014-01-11T09:30:05.000Z</time>
      </trkpt>
      <trkpt lat="49.43261" lon="0.98656">
        <ele>72.381271362305</ele>
        <time>2014-01-11T09:30:08.000Z</time>
      </trkpt>
      <trkpt lat="49.43262" lon="0.98656">
        <ele>72.407272338867</ele>
        <time>2014-01-11T09:30:11.000Z</time>
      </trkpt>
      <trkpt lat="49.43263" lon="0.98654">
        <ele>72.441223144531</ele>
        <time>2014-01-11T09:30:14.000Z</time>
      </trkpt>
      <trkpt lat="49.43263" lon="0.98654">
        <ele>72.441223144531</ele>
        <time>2014-01-11T09:30:34.000Z</time>
      </trkpt>
      <trkpt lat="49.43265" lon="0.98651">
        <ele>72.492866516113</ele>
        <time>2014-01-11T09:32:51.000Z</time>
      </trkpt>
      <trkpt lat="49.43265" lon="0.98651">
        <ele>72.492866516113</ele>
        <time>2014-01-11T09:33:11.000Z</time>
      </trkpt>
      <trkpt lat="49.4326" lon="0.98656">
        <ele>72.511131286621</ele>
        <time>2014-01-11T09:34:10.000Z</time>
      </trkpt>
      <trkpt lat="49.43261" lon="0.98657">
        <ele>72.498458862305</ele>
        <time>2014-01-11T09:34:13.000Z</time>
      </trkpt>
      <trkpt lat="49.43261" lon="0.98657">
        <ele>72.498458862305</ele>
        <time>2014-01-11T09:34:33.000Z</time>
      </trkpt>
      <trkpt lat="49.43259" lon="0.98656">
        <ele>72.519592285156</ele>
        <time>2014-01-11T09:34:35.000Z</time>
      </trkpt>
      <trkpt lat="49.43259" lon="0.98655">
        <ele>72.545303344727</ele>
        <time>2014-01-11T09:34:48.000Z</time>
      </trkpt>
      <trkpt lat="49.43259" lon="0.98653">
        <ele>72.564682006836</ele>
        <time>2014-01-11T09:34:53.000Z</time>
      </trkpt>
      <trkpt lat="49.43259" lon="0.98651">
        <ele>72.648544311523</ele>
        <time>2014-01-11T09:34:56.000Z</time>
      </trkpt>
      <trkpt lat="49.43259" lon="0.98648">
        <ele>72.79817199707</ele>
        <time>2014-01-11T09:35:04.000Z</time>
      </trkpt>
      <trkpt lat="49.4326" lon="0.98647">
        <ele>72.927772521973</ele>
        <time>2014-01-11T09:35:09.000Z</time>
      </trkpt>
      <trkpt lat="49.43261" lon="0.98645">
        <ele>73.071517944336</ele>
        <time>2014-01-11T09:35:21.000Z</time>
      </trkpt>
      <trkpt lat="49.43263" lon="0.98649">
        <ele>73.094696044922</ele>
        <time>2014-01-11T09:35:33.000Z</time>
      </trkpt>
      <trkpt lat="49.43265" lon="0.98653">
        <ele>73.018844604492</ele>
        <time>2014-01-11T09:35:36.000Z</time>
      </trkpt>
      <trkpt lat="49.43267" lon="0.98658">
        <ele>72.798667907715</ele>
        <time>2014-01-11T09:35:38.000Z</time>
      </trkpt>
      <trkpt lat="49.43268" lon="0.98659">
        <ele>72.551109313965</ele>
        <time>2014-01-11T09:35:40.000Z</time>
      </trkpt>
      <trkpt lat="49.43269" lon="0.98656">
        <ele>72.3017578125</ele>
        <time>2014-01-11T09:35:45.000Z</time>
      </trkpt>
      <trkpt lat="49.43269" lon="0.98654">
        <ele>72.18367767334</ele>
        <time>2014-01-11T09:35:48.000Z</time>
      </trkpt>
      <trkpt lat="49.43269" lon="0.98652">
        <ele>72.16227722168</ele>
        <time>2014-01-11T09:35:50.000Z</time>
      </trkpt>
      <trkpt lat="49.43269" lon="0.98651">
        <ele>72.263687133789</ele>
        <time>2014-01-11T09:35:53.000Z</time>
      </trkpt>
      <trkpt lat="49.43268" lon="0.98649">
        <ele>72.404151916504</ele>
        <time>2014-01-11T09:35:56.000Z</time>
      </trkpt>
      <trkpt lat="49.43266" lon="0.98649">
        <ele>72.542671203613</ele>
        <time>2014-01-11T09:36:03.000Z</time>
      </trkpt>
      <trkpt lat="49.43266" lon="0.98649">
        <ele>72.542671203613</ele>
        <time>2014-01-11T09:36:23.000Z</time>
      </trkpt>
      <trkpt lat="49.43253" lon="0.98633">
        <ele>73.029960632324</ele>
        <time>2014-01-11T09:36:38.000Z</time>
      </trkpt>
      <trkpt lat="49.43253" lon="0.98633">
        <ele>73.029960632324</ele>
        <time>2014-01-11T09:36:58.000Z</time>
      </trkpt>
      <trkpt lat="49.43259" lon="0.98642">
        <ele>73.281349182129</ele>
        <time>2014-01-11T09:37:10.000Z</time>
      </trkpt>
      <trkpt lat="49.43262" lon="0.98643">
        <ele>73.457466125488</ele>
        <time>2014-01-11T09:37:13.000Z</time>
      </trkpt>
      <trkpt lat="49.43262" lon="0.98643">
        <ele>73.457466125488</ele>
        <time>2014-01-11T09:37:33.000Z</time>
      </trkpt>
      <trkpt lat="49.43264" lon="0.98657">
        <ele>73.37760925293</ele>
        <time>2014-01-11T09:38:33.000Z</time>
      </trkpt>
      <trkpt lat="49.43266" lon="0.98657">
        <ele>73.250663757324</ele>
        <time>2014-01-11T09:38:36.000Z</time>
      </trkpt>
      <trkpt lat="49.43266" lon="0.98654">
        <ele>72.782943725586</ele>
        <time>2014-01-11T09:38:47.000Z</time>
      </trkpt>
      <trkpt lat="49.43264" lon="0.98639">
        <ele>72.770195007324</ele>
        <time>2014-01-11T09:39:02.000Z</time>
      </trkpt>
      <trkpt lat="49.43264" lon="0.98637">
        <ele>72.846954345703</ele>
        <time>2014-01-11T09:39:05.000Z</time>
      </trkpt>
      <trkpt lat="49.43262" lon="0.98641">
        <ele>73.11882019043</ele>
        <time>2014-01-11T09:39:15.000Z</time>
      </trkpt>
      <trkpt lat="49.43261" lon="0.98644">
        <ele>73.367980957031</ele>
        <time>2014-01-11T09:39:20.000Z</time>
      </trkpt>
      <trkpt lat="49.43261" lon="0.98646">
        <ele>73.547027587891</ele>
        <time>2014-01-11T09:39:23.000Z</time>
      </trkpt>
      <trkpt lat="49.43261" lon="0.98647">
        <ele>73.454551696777</ele>
        <time>2014-01-11T09:39:26.000Z</time>
      </trkpt>
      <trkpt lat="49.43262" lon="0.98648">
        <ele>73.294136047363</ele>
        <time>2014-01-11T09:39:31.000Z</time>
      </trkpt>
      <trkpt lat="49.43262" lon="0.98648">
        <ele>73.294136047363</ele>
        <time>2014-01-11T09:39:51.000Z</time>
      </trkpt>
      <trkpt lat="49.43261" lon="0.98659">
        <ele>73.016983032227</ele>
        <time>2014-01-11T09:41:57.000Z</time>
      </trkpt>
      <trkpt lat="49.43259" lon="0.9866">
        <ele>72.776817321777</ele>
        <time>2014-01-11T09:42:00.000Z</time>
      </trkpt>
      <trkpt lat="49.43259" lon="0.98661">
        <ele>72.549880981445</ele>
        <time>2014-01-11T09:42:08.000Z</time>
      </trkpt>
      <trkpt lat="49.43259" lon="0.9866">
        <ele>72.366218566895</ele>
        <time>2014-01-11T09:42:24.000Z</time>
      </trkpt>
      <trkpt lat="49.43261" lon="0.9866">
        <ele>72.200294494629</ele>
        <time>2014-01-11T09:42:26.000Z</time>
      </trkpt>
      <trkpt lat="49.43262" lon="0.9866">
        <ele>72.175094604492</ele>
        <time>2014-01-11T09:42:29.000Z</time>
      </trkpt>
      <trkpt lat="49.43263" lon="0.98659">
        <ele>72.149757385254</ele>
        <time>2014-01-11T09:42:34.000Z</time>
      </trkpt>
      <trkpt lat="49.43265" lon="0.98657">
        <ele>72.157669067383</ele>
        <time>2014-01-11T09:42:41.000Z</time>
      </trkpt>
      <trkpt lat="49.43266" lon="0.98655">
        <ele>72.18514251709</ele>
        <time>2014-01-11T09:42:51.000Z</time>
      </trkpt>
      <trkpt lat="49.43269" lon="0.98654">
        <ele>72.202697753906</ele>
        <time>2014-01-11T09:43:06.000Z</time>
      </trkpt>
      <trkpt lat="49.4327" lon="0.98654">
        <ele>72.232688903809</ele>
        <time>2014-01-11T09:43:08.000Z</time>
      </trkpt>
      <trkpt lat="49.43278" lon="0.98653">
        <ele>72.203842163086</ele>
        <time>2014-01-11T09:43:11.000Z</time>
      </trkpt>
      <trkpt lat="49.43283" lon="0.98652">
        <ele>72.131965637207</ele>
        <time>2014-01-11T09:43:13.000Z</time>
      </trkpt>
      <trkpt lat="49.43287" lon="0.98648">
        <ele>72.037002563477</ele>
        <time>2014-01-11T09:43:16.000Z</time>
      </trkpt>
      <trkpt lat="49.43293" lon="0.98637">
        <ele>72.068885803223</ele>
        <time>2014-01-11T09:43:19.000Z</time>
      </trkpt>
      <trkpt lat="49.43296" lon="0.98627">
        <ele>72.19295501709</ele>
        <time>2014-01-11T09:43:22.000Z</time>
      </trkpt>
      <trkpt lat="49.43303" lon="0.98602">
        <ele>72.618835449219</ele>
        <time>2014-01-11T09:43:37.000Z</time>
      </trkpt>
      <trkpt lat="49.43303" lon="0.98597">
        <ele>73.120071411133</ele>
        <time>2014-01-11T09:43:39.000Z</time>
      </trkpt>
      <trkpt lat="49.43304" lon="0.98579">
        <ele>73.786224365234</ele>
        <time>2014-01-11T09:43:44.000Z</time>
      </trkpt>
      <trkpt lat="49.43309" lon="0.98535">
        <ele>74.547317504883</ele>
        <time>2014-01-11T09:43:57.000Z</time>
      </trkpt>
      <trkpt lat="49.43317" lon="0.98493">
        <ele>75.315818786621</ele>
        <time>2014-01-11T09:44:07.000Z</time>
      </trkpt>
      <trkpt lat="49.43322" lon="0.98452">
        <ele>75.903549194336</ele>
        <time>2014-01-11T09:44:18.000Z</time>
      </trkpt>
      <trkpt lat="49.43323" lon="0.9844">
        <ele>76.467933654785</ele>
        <time>2014-01-11T09:44:22.000Z</time>
      </trkpt>
      <trkpt lat="49.43324" lon="0.98432">
        <ele>76.874549865723</ele>
        <time>2014-01-11T09:44:25.000Z</time>
      </trkpt>
      <trkpt lat="49.43324" lon="0.9843">
        <ele>77.086326599121</ele>
        <time>2014-01-11T09:44:28.000Z</time>
      </trkpt>
      <trkpt lat="49.43325" lon="0.98386">
        <ele>77.573257446289</ele>
        <time>2014-01-11T09:44:44.000Z</time>
      </trkpt>
      <trkpt lat="49.43328" lon="0.9836">
        <ele>78.282867431641</ele>
        <time>2014-01-11T09:44:49.000Z</time>
      </trkpt>
      <trkpt lat="49.4333" lon="0.98349">
        <ele>79.082336425781</ele>
        <time>2014-01-11T09:44:51.000Z</time>
      </trkpt>
      <trkpt lat="49.4333" lon="0.98346">
        <ele>79.891563415527</ele>
        <time>2014-01-11T09:44:53.000Z</time>
      </trkpt>
      <trkpt lat="49.43332" lon="0.98331">
        <ele>80.836547851562</ele>
        <time>2014-01-11T09:44:58.000Z</time>
      </trkpt>
      <trkpt lat="49.43332" lon="0.98328">
        <ele>81.41130065918</ele>
        <time>2014-01-11T09:45:00.000Z</time>
      </trkpt>
      <trkpt lat="49.43332" lon="0.98319">
        <ele>81.705238342285</ele>
        <time>2014-01-11T09:45:03.000Z</time>
      </trkpt>
      <trkpt lat="49.43332" lon="0.98316">
        <ele>81.878494262695</ele>
        <time>2014-01-11T09:45:05.000Z</time>
      </trkpt>
      <trkpt lat="49.43333" lon="0.98302">
        <ele>82.021286010742</ele>
        <time>2014-01-11T09:45:12.000Z</time>
      </trkpt>
      <trkpt lat="49.43332" lon="0.98277">
        <ele>82.024002075195</ele>
        <time>2014-01-11T09:45:19.000Z</time>
      </trkpt>
      <trkpt lat="49.43332" lon="0.98252">
        <ele>82.028244018555</ele>
        <time>2014-01-11T09:45:22.000Z</time>
      </trkpt>
      <trkpt lat="49.43333" lon="0.98226">
        <ele>81.851669311523</ele>
        <time>2014-01-11T09:45:25.000Z</time>
      </trkpt>
      <trkpt lat="49.43335" lon="0.98196">
        <ele>81.448951721191</ele>
        <time>2014-01-11T09:45:28.000Z</time>
      </trkpt>
      <trkpt lat="49.43339" lon="0.98172">
        <ele>80.836074829102</ele>
        <time>2014-01-11T09:45:31.000Z</time>
      </trkpt>
      <trkpt lat="49.43343" lon="0.98149">
        <ele>80.077392578125</ele>
        <time>2014-01-11T09:45:34.000Z</time>
      </trkpt>
      <trkpt lat="49.43348" lon="0.98125">
        <ele>79.232864379883</ele>
        <time>2014-01-11T09:45:37.000Z</time>
      </trkpt>
      <trkpt lat="49.43354" lon="0.981">
        <ele>78.525016784668</ele>
        <time>2014-01-11T09:45:40.000Z</time>
      </trkpt>
      <trkpt lat="49.43359" lon="0.98075">
        <ele>78.093475341797</ele>
        <time>2014-01-11T09:45:43.000Z</time>
      </trkpt>
      <trkpt lat="49.43361" lon="0.98052">
        <ele>78.035598754883</ele>
        <time>2014-01-11T09:45:46.000Z</time>
      </trkpt>
      <trkpt lat="49.43361" lon="0.98032">
        <ele>78.248046875</ele>
        <time>2014-01-11T09:45:49.000Z</time>
      </trkpt>
      <trkpt lat="49.43358" lon="0.98022">
        <ele>78.552536010742</ele>
        <time>2014-01-11T09:45:52.000Z</time>
      </trkpt>
      <trkpt lat="49.43358" lon="0.98007">
        <ele>78.977737426758</ele>
        <time>2014-01-11T09:45:55.000Z</time>
      </trkpt>
      <trkpt lat="49.43358" lon="0.97992">
        <ele>79.425300598145</ele>
        <time>2014-01-11T09:45:58.000Z</time>
      </trkpt>
      <trkpt lat="49.43357" lon="0.97981">
        <ele>79.73738861084</ele>
        <time>2014-01-11T09:46:01.000Z</time>
      </trkpt>
      <trkpt lat="49.43358" lon="0.97969">
        <ele>79.988990783691</ele>
        <time>2014-01-11T09:46:04.000Z</time>
      </trkpt>
      <trkpt lat="49.43358" lon="0.97969">
        <ele>79.988990783691</ele>
        <time>2014-01-11T09:46:24.000Z</time>
      </trkpt>
      <trkpt lat="49.43365" lon="0.97929">
        <ele>80.565826416016</ele>
        <time>2014-01-11T09:46:27.000Z</time>
      </trkpt>
      <trkpt lat="49.43365" lon="0.97929">
        <ele>80.565826416016</ele>
        <time>2014-01-11T09:46:47.000Z</time>
      </trkpt>
      <trkpt lat="49.43386" lon="0.97898">
        <ele>81.422668457031</ele>
        <time>2014-01-11T09:46:49.000Z</time>
      </trkpt>
      <trkpt lat="49.43406" lon="0.97864">
        <ele>82.309471130371</ele>
        <time>2014-01-11T09:47:04.000Z</time>
      </trkpt>
      <trkpt lat="49.43426" lon="0.97835">
        <ele>83.235649108887</ele>
        <time>2014-01-11T09:47:16.000Z</time>
      </trkpt>
      <trkpt lat="49.43444" lon="0.97799">
        <ele>84.274398803711</ele>
        <time>2014-01-11T09:47:28.000Z</time>
      </trkpt>
      <trkpt lat="49.43464" lon="0.9777">
        <ele>85.179214477539</ele>
        <time>2014-01-11T09:47:42.000Z</time>
      </trkpt>
      <trkpt lat="49.4349" lon="0.9774">
        <ele>86.055503845215</ele>
        <time>2014-01-11T09:47:54.000Z</time>
      </trkpt>
      <trkpt lat="49.43513" lon="0.97708">
        <ele>87.249221801758</ele>
        <time>2014-01-11T09:48:10.000Z</time>
      </trkpt>
      <trkpt lat="49.43532" lon="0.97678">
        <ele>88.773895263672</ele>
        <time>2014-01-11T09:48:15.000Z</time>
      </trkpt>
      <trkpt lat="49.43557" lon="0.97652">
        <ele>90.693359375</ele>
        <time>2014-01-11T09:48:25.000Z</time>
      </trkpt>
      <trkpt lat="49.43581" lon="0.97629">
        <ele>92.97420501709</ele>
        <time>2014-01-11T09:48:33.000Z</time>
      </trkpt>
      <trkpt lat="49.43603" lon="0.97603">
        <ele>95.176788330078</ele>
        <time>2014-01-11T09:48:45.000Z</time>
      </trkpt>
      <trkpt lat="49.43623" lon="0.97584">
        <ele>97.075073242188</ele>
        <time>2014-01-11T09:48:55.000Z</time>
      </trkpt>
      <trkpt lat="49.43627" lon="0.9758">
        <ele>98.565521240234</ele>
        <time>2014-01-11T09:48:57.000Z</time>
      </trkpt>
      <trkpt lat="49.43633" lon="0.97575">
        <ele>99.450561523438</ele>
        <time>2014-01-11T09:49:00.000Z</time>
      </trkpt>
      <trkpt lat="49.43638" lon="0.97571">
        <ele>99.750595092773</ele>
        <time>2014-01-11T09:49:02.000Z</time>
      </trkpt>
      <trkpt lat="49.43644" lon="0.97566">
        <ele>99.767776489258</ele>
        <time>2014-01-11T09:49:05.000Z</time>
      </trkpt>
      <trkpt lat="49.4365" lon="0.97561">
        <ele>99.631484985352</ele>
        <time>2014-01-11T09:49:08.000Z</time>
      </trkpt>
      <trkpt lat="49.43655" lon="0.97557">
        <ele>99.472702026367</ele>
        <time>2014-01-11T09:49:11.000Z</time>
      </trkpt>
      <trkpt lat="49.4366" lon="0.97555">
        <ele>99.324928283691</ele>
        <time>2014-01-11T09:49:13.000Z</time>
      </trkpt>
      <trkpt lat="49.43665" lon="0.97553">
        <ele>99.177917480469</ele>
        <time>2014-01-11T09:49:16.000Z</time>
      </trkpt>
      <trkpt lat="49.43668" lon="0.97552">
        <ele>99.052200317383</ele>
        <time>2014-01-11T09:49:18.000Z</time>
      </trkpt>
      <trkpt lat="49.43673" lon="0.97551">
        <ele>98.935035705566</ele>
        <time>2014-01-11T09:49:20.000Z</time>
      </trkpt>
      <trkpt lat="49.43678" lon="0.97547">
        <ele>98.808532714844</ele>
        <time>2014-01-11T09:49:23.000Z</time>
      </trkpt>
      <trkpt lat="49.43692" lon="0.97507">
        <ele>98.330307006836</ele>
        <time>2014-01-11T09:49:37.000Z</time>
      </trkpt>
      <trkpt lat="49.43702" lon="0.97473">
        <ele>97.286712646484</ele>
        <time>2014-01-11T09:49:50.000Z</time>
      </trkpt>
      <trkpt lat="49.43703" lon="0.97464">
        <ele>96.092712402344</ele>
        <time>2014-01-11T09:49:51.000Z</time>
      </trkpt>
      <trkpt lat="49.437" lon="0.97458">
        <ele>94.820457458496</ele>
        <time>2014-01-11T09:49:53.000Z</time>
      </trkpt>
      <trkpt lat="49.43689" lon="0.97444">
        <ele>93.372978210449</ele>
        <time>2014-01-11T09:49:57.000Z</time>
      </trkpt>
      <trkpt lat="49.43681" lon="0.9744">
        <ele>92.245300292969</ele>
        <time>2014-01-11T09:49:59.000Z</time>
      </trkpt>
      <trkpt lat="49.43674" lon="0.97437">
        <ele>91.670669555664</ele>
        <time>2014-01-11T09:50:03.000Z</time>
      </trkpt>
      <trkpt lat="49.43653" lon="0.97427">
        <ele>91.152526855469</ele>
        <time>2014-01-11T09:50:06.000Z</time>
      </trkpt>
      <trkpt lat="49.43643" lon="0.97424">
        <ele>90.729507446289</ele>
        <time>2014-01-11T09:50:08.000Z</time>
      </trkpt>
      <trkpt lat="49.43634" lon="0.97421">
        <ele>90.523361206055</ele>
        <time>2014-01-11T09:50:10.000Z</time>
      </trkpt>
      <trkpt lat="49.43623" lon="0.97418">
        <ele>90.36644744873</ele>
        <time>2014-01-11T09:50:13.000Z</time>
      </trkpt>
      <trkpt lat="49.43612" lon="0.97415">
        <ele>90.249496459961</ele>
        <time>2014-01-11T09:50:16.000Z</time>
      </trkpt>
      <trkpt lat="49.43604" lon="0.97412">
        <ele>90.254638671875</ele>
        <time>2014-01-11T09:50:19.000Z</time>
      </trkpt>
      <trkpt lat="49.43597" lon="0.97411">
        <ele>90.286445617676</ele>
        <time>2014-01-11T09:50:21.000Z</time>
      </trkpt>
      <trkpt lat="49.43591" lon="0.97409">
        <ele>90.332077026367</ele>
        <time>2014-01-11T09:50:23.000Z</time>
      </trkpt>
      <trkpt lat="49.43582" lon="0.97407">
        <ele>90.393257141113</ele>
        <time>2014-01-11T09:50:26.000Z</time>
      </trkpt>
      <trkpt lat="49.43573" lon="0.97405">
        <ele>90.437210083008</ele>
        <time>2014-01-11T09:50:29.000Z</time>
      </trkpt>
      <trkpt lat="49.43565" lon="0.97403">
        <ele>90.443824768066</ele>
        <time>2014-01-11T09:50:32.000Z</time>
      </trkpt>
      <trkpt lat="49.4356" lon="0.97401">
        <ele>90.426910400391</ele>
        <time>2014-01-11T09:50:34.000Z</time>
      </trkpt>
      <trkpt lat="49.43551" lon="0.974">
        <ele>90.390258789062</ele>
        <time>2014-01-11T09:50:37.000Z</time>
      </trkpt>
      <trkpt lat="49.43544" lon="0.974">
        <ele>90.341293334961</ele>
        <time>2014-01-11T09:50:39.000Z</time>
      </trkpt>
      <trkpt lat="49.43538" lon="0.97399">
        <ele>90.303146362305</ele>
        <time>2014-01-11T09:50:41.000Z</time>
      </trkpt>
      <trkpt lat="49.43532" lon="0.97398">
        <ele>90.280212402344</ele>
        <time>2014-01-11T09:50:43.000Z</time>
      </trkpt>
      <trkpt lat="49.43526" lon="0.97398">
        <ele>90.266998291016</ele>
        <time>2014-01-11T09:50:45.000Z</time>
      </trkpt>
      <trkpt lat="49.43518" lon="0.97395">
        <ele>90.242401123047</ele>
        <time>2014-01-11T09:50:48.000Z</time>
      </trkpt>
      <trkpt lat="49.43513" lon="0.97393">
        <ele>90.20588684082</ele>
        <time>2014-01-11T09:50:50.000Z</time>
      </trkpt>
      <trkpt lat="49.43507" lon="0.97391">
        <ele>90.160293579102</ele>
        <time>2014-01-11T09:50:52.000Z</time>
      </trkpt>
      <trkpt lat="49.43497" lon="0.97389">
        <ele>90.118286132812</ele>
        <time>2014-01-11T09:50:55.000Z</time>
      </trkpt>
      <trkpt lat="49.43489" lon="0.97387">
        <ele>90.083389282227</ele>
        <time>2014-01-11T09:50:58.000Z</time>
      </trkpt>
      <trkpt lat="49.43482" lon="0.97386">
        <ele>90.074203491211</ele>
        <time>2014-01-11T09:51:00.000Z</time>
      </trkpt>
      <trkpt lat="49.43475" lon="0.97384">
        <ele>90.08073425293</ele>
        <time>2014-01-11T09:51:02.000Z</time>
      </trkpt>
      <trkpt lat="49.43467" lon="0.97382">
        <ele>90.104049682617</ele>
        <time>2014-01-11T09:51:05.000Z</time>
      </trkpt>
      <trkpt lat="49.43461" lon="0.9738">
        <ele>90.129722595215</ele>
        <time>2014-01-11T09:51:07.000Z</time>
      </trkpt>
      <trkpt lat="49.43451" lon="0.97377">
        <ele>90.149436950684</ele>
        <time>2014-01-11T09:51:10.000Z</time>
      </trkpt>
      <trkpt lat="49.4344" lon="0.97376">
        <ele>90.174179077148</ele>
        <time>2014-01-11T09:51:13.000Z</time>
      </trkpt>
      <trkpt lat="49.43427" lon="0.97375">
        <ele>90.222671508789</ele>
        <time>2014-01-11T09:51:16.000Z</time>
      </trkpt>
      <trkpt lat="49.43414" lon="0.97373">
        <ele>90.278945922852</ele>
        <time>2014-01-11T09:51:19.000Z</time>
      </trkpt>
      <trkpt lat="49.43405" lon="0.9737">
        <ele>90.32421875</ele>
        <time>2014-01-11T09:51:21.000Z</time>
      </trkpt>
      <trkpt lat="49.43392" lon="0.97366">
        <ele>90.350090026855</ele>
        <time>2014-01-11T09:51:24.000Z</time>
      </trkpt>
      <trkpt lat="49.43382" lon="0.97364">
        <ele>90.353012084961</ele>
        <time>2014-01-11T09:51:27.000Z</time>
      </trkpt>
      <trkpt lat="49.43378" lon="0.97363">
        <ele>90.326622009277</ele>
        <time>2014-01-11T09:51:29.000Z</time>
      </trkpt>
      <trkpt lat="49.43373" lon="0.97363">
        <ele>90.286270141602</ele>
        <time>2014-01-11T09:51:31.000Z</time>
      </trkpt>
      <trkpt lat="49.43367" lon="0.9736">
        <ele>90.234313964844</ele>
        <time>2014-01-11T09:51:33.000Z</time>
      </trkpt>
      <trkpt lat="49.43354" lon="0.97354">
        <ele>90.161338806152</ele>
        <time>2014-01-11T09:51:36.000Z</time>
      </trkpt>
      <trkpt lat="49.43346" lon="0.97351">
        <ele>90.075973510742</ele>
        <time>2014-01-11T09:51:38.000Z</time>
      </trkpt>
      <trkpt lat="49.43339" lon="0.9735">
        <ele>89.986030578613</ele>
        <time>2014-01-11T09:51:40.000Z</time>
      </trkpt>
      <trkpt lat="49.43327" lon="0.97351">
        <ele>89.820930480957</ele>
        <time>2014-01-11T09:51:43.000Z</time>
      </trkpt>
      <trkpt lat="49.43315" lon="0.97351">
        <ele>89.542488098145</ele>
        <time>2014-01-11T09:51:46.000Z</time>
      </trkpt>
      <trkpt lat="49.43306" lon="0.97354">
        <ele>89.224510192871</ele>
        <time>2014-01-11T09:51:48.000Z</time>
      </trkpt>
      <trkpt lat="49.43296" lon="0.97356">
        <ele>88.83324432373</ele>
        <time>2014-01-11T09:51:50.000Z</time>
      </trkpt>
      <trkpt lat="49.43283" lon="0.97361">
        <ele>88.335021972656</ele>
        <time>2014-01-11T09:51:53.000Z</time>
      </trkpt>
      <trkpt lat="49.43269" lon="0.97368">
        <ele>87.805480957031</ele>
        <time>2014-01-11T09:51:56.000Z</time>
      </trkpt>
      <trkpt lat="49.43254" lon="0.97376">
        <ele>87.316345214844</ele>
        <time>2014-01-11T09:51:59.000Z</time>
      </trkpt>
      <trkpt lat="49.43246" lon="0.97381">
        <ele>86.864936828613</ele>
        <time>2014-01-11T09:52:01.000Z</time>
      </trkpt>
      <trkpt lat="49.43237" lon="0.97385">
        <ele>86.455108642578</ele>
        <time>2014-01-11T09:52:04.000Z</time>
      </trkpt>
      <trkpt lat="49.43224" lon="0.97392">
        <ele>86.07829284668</ele>
        <time>2014-01-11T09:52:07.000Z</time>
      </trkpt>
      <trkpt lat="49.43211" lon="0.97398">
        <ele>85.719825744629</ele>
        <time>2014-01-11T09:52:10.000Z</time>
      </trkpt>
      <trkpt lat="49.43201" lon="0.97404">
        <ele>85.381759643555</ele>
        <time>2014-01-11T09:52:12.000Z</time>
      </trkpt>
      <trkpt lat="49.43179" lon="0.97414">
        <ele>84.894882202148</ele>
        <time>2014-01-11T09:52:15.000Z</time>
      </trkpt>
      <trkpt lat="49.43166" lon="0.97421">
        <ele>84.38444519043</ele>
        <time>2014-01-11T09:52:19.000Z</time>
      </trkpt>
      <trkpt lat="49.43147" lon="0.97433">
        <ele>84.025856018066</ele>
        <time>2014-01-11T09:52:20.000Z</time>
      </trkpt>
      <trkpt lat="49.43126" lon="0.97444">
        <ele>83.792816162109</ele>
        <time>2014-01-11T09:52:23.000Z</time>
      </trkpt>
      <trkpt lat="49.43114" lon="0.97449">
        <ele>83.637351989746</ele>
        <time>2014-01-11T09:52:25.000Z</time>
      </trkpt>
      <trkpt lat="49.43098" lon="0.97458">
        <ele>83.685684204102</ele>
        <time>2014-01-11T09:52:29.000Z</time>
      </trkpt>
      <trkpt lat="49.43082" lon="0.97466">
        <ele>83.819885253906</ele>
        <time>2014-01-11T09:52:31.000Z</time>
      </trkpt>
      <trkpt lat="49.43064" lon="0.97476">
        <ele>83.88402557373</ele>
        <time>2014-01-11T09:52:34.000Z</time>
      </trkpt>
      <trkpt lat="49.43052" lon="0.97484">
        <ele>83.925003051758</ele>
        <time>2014-01-11T09:52:36.000Z</time>
      </trkpt>
      <trkpt lat="49.4304" lon="0.97493">
        <ele>83.971374511719</ele>
        <time>2014-01-11T09:52:38.000Z</time>
      </trkpt>
      <trkpt lat="49.4303" lon="0.97499">
        <ele>83.991821289062</ele>
        <time>2014-01-11T09:52:40.000Z</time>
      </trkpt>
      <trkpt lat="49.43008" lon="0.97512">
        <ele>84.037788391113</ele>
        <time>2014-01-11T09:52:43.000Z</time>
      </trkpt>
      <trkpt lat="49.42997" lon="0.9752">
        <ele>84.13493347168</ele>
        <time>2014-01-11T09:52:45.000Z</time>
      </trkpt>
      <trkpt lat="49.42987" lon="0.9753">
        <ele>84.321578979492</ele>
        <time>2014-01-11T09:52:47.000Z</time>
      </trkpt>
      <trkpt lat="49.42974" lon="0.97541">
        <ele>84.571853637695</ele>
        <time>2014-01-11T09:52:50.000Z</time>
      </trkpt>
      <trkpt lat="49.42965" lon="0.97545">
        <ele>84.843872070312</ele>
        <time>2014-01-11T09:52:52.000Z</time>
      </trkpt>
      <trkpt lat="49.42953" lon="0.97552">
        <ele>85.07698059082</ele>
        <time>2014-01-11T09:52:55.000Z</time>
      </trkpt>
      <trkpt lat="49.42939" lon="0.97556">
        <ele>85.205261230469</ele>
        <time>2014-01-11T09:52:58.000Z</time>
      </trkpt>
      <trkpt lat="49.4293" lon="0.97558">
        <ele>85.182968139648</ele>
        <time>2014-01-11T09:53:00.000Z</time>
      </trkpt>
      <trkpt lat="49.42917" lon="0.97563">
        <ele>85.026763916016</ele>
        <time>2014-01-11T09:53:03.000Z</time>
      </trkpt>
      <trkpt lat="49.42909" lon="0.97565">
        <ele>84.825241088867</ele>
        <time>2014-01-11T09:53:05.000Z</time>
      </trkpt>
      <trkpt lat="49.42905" lon="0.9757">
        <ele>84.625091552734</ele>
        <time>2014-01-11T09:53:08.000Z</time>
      </trkpt>
      <trkpt lat="49.42896" lon="0.97564">
        <ele>84.399444580078</ele>
        <time>2014-01-11T09:53:11.000Z</time>
      </trkpt>
      <trkpt lat="49.4289" lon="0.97552">
        <ele>84.162643432617</ele>
        <time>2014-01-11T09:53:14.000Z</time>
      </trkpt>
      <trkpt lat="49.42886" lon="0.97541">
        <ele>83.94660949707</ele>
        <time>2014-01-11T09:53:17.000Z</time>
      </trkpt>
      <trkpt lat="49.42886" lon="0.97531">
        <ele>83.745681762695</ele>
        <time>2014-01-11T09:53:19.000Z</time>
      </trkpt>
      <trkpt lat="49.42886" lon="0.97533">
        <ele>83.54948425293</ele>
        <time>2014-01-11T09:53:21.000Z</time>
      </trkpt>
      <trkpt lat="49.42883" lon="0.97519">
        <ele>83.394630432129</ele>
        <time>2014-01-11T09:53:24.000Z</time>
      </trkpt>
      <trkpt lat="49.42881" lon="0.97508">
        <ele>83.277694702148</ele>
        <time>2014-01-11T09:53:26.000Z</time>
      </trkpt>
      <trkpt lat="49.42875" lon="0.97483">
        <ele>83.188301086426</ele>
        <time>2014-01-11T09:53:29.000Z</time>
      </trkpt>
      <trkpt lat="49.42869" lon="0.97455">
        <ele>83.168998718262</ele>
        <time>2014-01-11T09:53:32.000Z</time>
      </trkpt>
      <trkpt lat="49.42858" lon="0.97428">
        <ele>83.314682006836</ele>
        <time>2014-01-11T09:53:35.000Z</time>
      </trkpt>
      <trkpt lat="49.42851" lon="0.97409">
        <ele>83.619148254395</ele>
        <time>2014-01-11T09:53:38.000Z</time>
      </trkpt>
      <trkpt lat="49.4285" lon="0.974">
        <ele>83.958335876465</ele>
        <time>2014-01-11T09:53:40.000Z</time>
      </trkpt>
      <trkpt lat="49.42841" lon="0.97346">
        <ele>84.425102233887</ele>
        <time>2014-01-11T09:53:46.000Z</time>
      </trkpt>
      <trkpt lat="49.42836" lon="0.97327">
        <ele>84.867630004883</ele>
        <time>2014-01-11T09:53:49.000Z</time>
      </trkpt>
      <trkpt lat="49.42833" lon="0.97305">
        <ele>84.983085632324</ele>
        <time>2014-01-11T09:53:52.000Z</time>
      </trkpt>
      <trkpt lat="49.4283" lon="0.97293">
        <ele>84.880271911621</ele>
        <time>2014-01-11T09:53:54.000Z</time>
      </trkpt>
      <trkpt lat="49.42826" lon="0.97277">
        <ele>84.642593383789</ele>
        <time>2014-01-11T09:53:57.000Z</time>
      </trkpt>
      <trkpt lat="49.42822" lon="0.97262">
        <ele>84.186782836914</ele>
        <time>2014-01-11T09:53:59.000Z</time>
      </trkpt>
      <trkpt lat="49.42818" lon="0.97247">
        <ele>83.617263793945</ele>
        <time>2014-01-11T09:54:01.000Z</time>
      </trkpt>
      <trkpt lat="49.42815" lon="0.97234">
        <ele>83.171867370605</ele>
        <time>2014-01-11T09:54:03.000Z</time>
      </trkpt>
      <trkpt lat="49.42812" lon="0.97223">
        <ele>82.789566040039</ele>
        <time>2014-01-11T09:54:06.000Z</time>
      </trkpt>
      <trkpt lat="49.42801" lon="0.97181">
        <ele>82.476791381836</ele>
        <time>2014-01-11T09:54:14.000Z</time>
      </trkpt>
      <trkpt lat="49.42792" lon="0.97143">
        <ele>82.385467529297</ele>
        <time>2014-01-11T09:54:20.000Z</time>
      </trkpt>
      <trkpt lat="49.42789" lon="0.97129">
        <ele>82.457107543945</ele>
        <time>2014-01-11T09:54:22.000Z</time>
      </trkpt>
      <trkpt lat="49.42786" lon="0.97115">
        <ele>82.635459899902</ele>
        <time>2014-01-11T09:54:24.000Z</time>
      </trkpt>
      <trkpt lat="49.4278" lon="0.97097">
        <ele>82.97794342041</ele>
        <time>2014-01-11T09:54:27.000Z</time>
      </trkpt>
      <trkpt lat="49.42775" lon="0.97086">
        <ele>83.482376098633</ele>
        <time>2014-01-11T09:54:29.000Z</time>
      </trkpt>
      <trkpt lat="49.42771" lon="0.97074">
        <ele>83.918128967285</ele>
        <time>2014-01-11T09:54:31.000Z</time>
      </trkpt>
      <trkpt lat="49.42765" lon="0.9706">
        <ele>84.321807861328</ele>
        <time>2014-01-11T09:54:34.000Z</time>
      </trkpt>
      <trkpt lat="49.4276" lon="0.97049">
        <ele>84.690963745117</ele>
        <time>2014-01-11T09:54:36.000Z</time>
      </trkpt>
      <trkpt lat="49.42758" lon="0.97045">
        <ele>84.946029663086</ele>
        <time>2014-01-11T09:54:39.000Z</time>
      </trkpt>
      <trkpt lat="49.42746" lon="0.97006">
        <ele>85.093368530273</ele>
        <time>2014-01-11T09:54:45.000Z</time>
      </trkpt>
      <trkpt lat="49.42737" lon="0.96967">
        <ele>84.945571899414</ele>
        <time>2014-01-11T09:54:54.000Z</time>
      </trkpt>
      <trkpt lat="49.42736" lon="0.96925">
        <ele>84.416732788086</ele>
        <time>2014-01-11T09:55:00.000Z</time>
      </trkpt>
      <trkpt lat="49.42735" lon="0.96907">
        <ele>83.726112365723</ele>
        <time>2014-01-11T09:55:02.000Z</time>
      </trkpt>
      <trkpt lat="49.42734" lon="0.96883">
        <ele>82.872283935547</ele>
        <time>2014-01-11T09:55:07.000Z</time>
      </trkpt>
      <trkpt lat="49.42734" lon="0.96838">
        <ele>81.686218261719</ele>
        <time>2014-01-11T09:55:18.000Z</time>
      </trkpt>
      <trkpt lat="49.42735" lon="0.9679">
        <ele>80.53231048584</ele>
        <time>2014-01-11T09:55:25.000Z</time>
      </trkpt>
      <trkpt lat="49.42728" lon="0.96744">
        <ele>79.662605285645</ele>
        <time>2014-01-11T09:55:30.000Z</time>
      </trkpt>
      <trkpt lat="49.42714" lon="0.96708">
        <ele>78.981536865234</ele>
        <time>2014-01-11T09:55:45.000Z</time>
      </trkpt>
      <trkpt lat="49.42716" lon="0.96665">
        <ele>78.193244934082</ele>
        <time>2014-01-11T09:56:01.000Z</time>
      </trkpt>
      <trkpt lat="49.4272" lon="0.96624">
        <ele>77.632293701172</ele>
        <time>2014-01-11T09:56:14.000Z</time>
      </trkpt>
      <trkpt lat="49.42716" lon="0.96581">
        <ele>77.213577270508</ele>
        <time>2014-01-11T09:56:27.000Z</time>
      </trkpt>
      <trkpt lat="49.42709" lon="0.96555">
        <ele>76.788955688477</ele>
        <time>2014-01-11T09:56:33.000Z</time>
      </trkpt>
      <trkpt lat="49.42705" lon="0.96544">
        <ele>76.234260559082</ele>
        <time>2014-01-11T09:56:36.000Z</time>
      </trkpt>
      <trkpt lat="49.42701" lon="0.96536">
        <ele>75.869018554688</ele>
        <time>2014-01-11T09:56:38.000Z</time>
      </trkpt>
      <trkpt lat="49.42699" lon="0.96531">
        <ele>75.560531616211</ele>
        <time>2014-01-11T09:56:40.000Z</time>
      </trkpt>
      <trkpt lat="49.42697" lon="0.96519">
        <ele>75.245262145996</ele>
        <time>2014-01-11T09:56:43.000Z</time>
      </trkpt>
      <trkpt lat="49.42695" lon="0.96513">
        <ele>74.938049316406</ele>
        <time>2014-01-11T09:56:45.000Z</time>
      </trkpt>
      <trkpt lat="49.42693" lon="0.96503">
        <ele>74.617111206055</ele>
        <time>2014-01-11T09:56:48.000Z</time>
      </trkpt>
      <trkpt lat="49.42693" lon="0.96499">
        <ele>74.327484130859</ele>
        <time>2014-01-11T09:56:51.000Z</time>
      </trkpt>
      <trkpt lat="49.42692" lon="0.96487">
        <ele>74.052360534668</ele>
        <time>2014-01-11T09:56:54.000Z</time>
      </trkpt>
      <trkpt lat="49.42693" lon="0.96482">
        <ele>73.866302490234</ele>
        <time>2014-01-11T09:56:56.000Z</time>
      </trkpt>
      <trkpt lat="49.42693" lon="0.96475">
        <ele>73.730842590332</ele>
        <time>2014-01-11T09:56:59.000Z</time>
      </trkpt>
      <trkpt lat="49.42693" lon="0.96451">
        <ele>73.634132385254</ele>
        <time>2014-01-11T09:57:03.000Z</time>
      </trkpt>
      <trkpt lat="49.42694" lon="0.96434">
        <ele>73.551681518555</ele>
        <time>2014-01-11T09:57:05.000Z</time>
      </trkpt>
      <trkpt lat="49.42694" lon="0.96424">
        <ele>73.482833862305</ele>
        <time>2014-01-11T09:57:07.000Z</time>
      </trkpt>
      <trkpt lat="49.42693" lon="0.96412">
        <ele>73.313354492188</ele>
        <time>2014-01-11T09:57:10.000Z</time>
      </trkpt>
      <trkpt lat="49.42693" lon="0.9641">
        <ele>73.118621826172</ele>
        <time>2014-01-11T09:57:12.000Z</time>
      </trkpt>
      <trkpt lat="49.42692" lon="0.96408">
        <ele>72.921867370605</ele>
        <time>2014-01-11T09:57:14.000Z</time>
      </trkpt>
      <trkpt lat="49.42691" lon="0.96406">
        <ele>72.677032470703</ele>
        <time>2014-01-11T09:57:16.000Z</time>
      </trkpt>
      <trkpt lat="49.4269" lon="0.96404">
        <ele>72.406120300293</ele>
        <time>2014-01-11T09:57:19.000Z</time>
      </trkpt>
      <trkpt lat="49.42696" lon="0.96403">
        <ele>72.40803527832</ele>
        <time>2014-01-11T09:57:30.000Z</time>
      </trkpt>
      <trkpt lat="49.42698" lon="0.96403">
        <ele>72.483673095703</ele>
        <time>2014-01-11T09:57:32.000Z</time>
      </trkpt>
      <trkpt lat="49.42702" lon="0.96406">
        <ele>72.788185119629</ele>
        <time>2014-01-11T09:57:36.000Z</time>
      </trkpt>
      <trkpt lat="49.42705" lon="0.96408">
        <ele>73.256004333496</ele>
        <time>2014-01-11T09:57:39.000Z</time>
      </trkpt>
      <trkpt lat="49.42713" lon="0.96412">
        <ele>74.070663452148</ele>
        <time>2014-01-11T09:57:42.000Z</time>
      </trkpt>
      <trkpt lat="49.42722" lon="0.96416">
        <ele>75.031539916992</ele>
        <time>2014-01-11T09:57:44.000Z</time>
      </trkpt>
      <trkpt lat="49.42737" lon="0.96422">
        <ele>76.401222229004</ele>
        <time>2014-01-11T09:57:47.000Z</time>
      </trkpt>
      <trkpt lat="49.42745" lon="0.96426">
        <ele>77.807243347168</ele>
        <time>2014-01-11T09:57:50.000Z</time>
      </trkpt>
      <trkpt lat="49.42759" lon="0.96432">
        <ele>79.306221008301</ele>
        <time>2014-01-11T09:57:53.000Z</time>
      </trkpt>
      <trkpt lat="49.42762" lon="0.96434">
        <ele>80.50895690918</ele>
        <time>2014-01-11T09:57:55.000Z</time>
      </trkpt>
      <trkpt lat="49.42772" lon="0.96439">
        <ele>81.410499572754</ele>
        <time>2014-01-11T09:57:58.000Z</time>
      </trkpt>
      <trkpt lat="49.42783" lon="0.96443">
        <ele>81.884941101074</ele>
        <time>2014-01-11T09:58:01.000Z</time>
      </trkpt>
      <trkpt lat="49.42789" lon="0.96447">
        <ele>82.146118164062</ele>
        <time>2014-01-11T09:58:03.000Z</time>
      </trkpt>
      <trkpt lat="49.428" lon="0.96452">
        <ele>82.208892822266</ele>
        <time>2014-01-11T09:58:06.000Z</time>
      </trkpt>
      <trkpt lat="49.42804" lon="0.96454">
        <ele>82.260208129883</ele>
        <time>2014-01-11T09:58:08.000Z</time>
      </trkpt>
      <trkpt lat="49.42823" lon="0.96466">
        <ele>82.174560546875</ele>
        <time>2014-01-11T09:58:13.000Z</time>
      </trkpt>
      <trkpt lat="49.4283" lon="0.96471">
        <ele>82.005355834961</ele>
        <time>2014-01-11T09:58:15.000Z</time>
      </trkpt>
      <trkpt lat="49.42836" lon="0.96474">
        <ele>81.79899597168</ele>
        <time>2014-01-11T09:58:17.000Z</time>
      </trkpt>
      <trkpt lat="49.42844" lon="0.96479">
        <ele>81.610244750977</ele>
        <time>2014-01-11T09:58:20.000Z</time>
      </trkpt>
      <trkpt lat="49.4285" lon="0.96481">
        <ele>81.451698303223</ele>
        <time>2014-01-11T09:58:22.000Z</time>
      </trkpt>
      <trkpt lat="49.42857" lon="0.96483">
        <ele>81.437316894531</ele>
        <time>2014-01-11T09:58:24.000Z</time>
      </trkpt>
      <trkpt lat="49.42865" lon="0.96485">
        <ele>81.540054321289</ele>
        <time>2014-01-11T09:58:27.000Z</time>
      </trkpt>
      <trkpt lat="49.4287" lon="0.96487">
        <ele>81.709144592285</ele>
        <time>2014-01-11T09:58:29.000Z</time>
      </trkpt>
      <trkpt lat="49.42875" lon="0.96488">
        <ele>81.902015686035</ele>
        <time>2014-01-11T09:58:31.000Z</time>
      </trkpt>
      <trkpt lat="49.42883" lon="0.9649">
        <ele>82.122520446777</ele>
        <time>2014-01-11T09:58:34.000Z</time>
      </trkpt>
      <trkpt lat="49.42888" lon="0.96492">
        <ele>82.347610473633</ele>
        <time>2014-01-11T09:58:36.000Z</time>
      </trkpt>
      <trkpt lat="49.42896" lon="0.96493">
        <ele>82.586753845215</ele>
        <time>2014-01-11T09:58:39.000Z</time>
      </trkpt>
      <trkpt lat="49.42905" lon="0.96495">
        <ele>82.865081787109</ele>
        <time>2014-01-11T09:58:42.000Z</time>
      </trkpt>
      <trkpt lat="49.42912" lon="0.96497">
        <ele>83.182319641113</ele>
        <time>2014-01-11T09:58:45.000Z</time>
      </trkpt>
      <trkpt lat="49.42918" lon="0.96498">
        <ele>83.494277954102</ele>
        <time>2014-01-11T09:58:47.000Z</time>
      </trkpt>
      <trkpt lat="49.42925" lon="0.96501">
        <ele>83.835159301758</ele>
        <time>2014-01-11T09:58:50.000Z</time>
      </trkpt>
      <trkpt lat="49.42931" lon="0.96503">
        <ele>84.14958190918</ele>
        <time>2014-01-11T09:58:52.000Z</time>
      </trkpt>
      <trkpt lat="49.42938" lon="0.96505">
        <ele>84.464942932129</ele>
        <time>2014-01-11T09:58:55.000Z</time>
      </trkpt>
      <trkpt lat="49.42946" lon="0.96506">
        <ele>84.78621673584</ele>
        <time>2014-01-11T09:58:58.000Z</time>
      </trkpt>
      <trkpt lat="49.42952" lon="0.96507">
        <ele>85.117172241211</ele>
        <time>2014-01-11T09:59:00.000Z</time>
      </trkpt>
      <trkpt lat="49.42956" lon="0.96507">
        <ele>85.431564331055</ele>
        <time>2014-01-11T09:59:02.000Z</time>
      </trkpt>
      <trkpt lat="49.42963" lon="0.96507">
        <ele>85.776321411133</ele>
        <time>2014-01-11T09:59:05.000Z</time>
      </trkpt>
      <trkpt lat="49.4297" lon="0.96509">
        <ele>86.101112365723</ele>
        <time>2014-01-11T09:59:08.000Z</time>
      </trkpt>
      <trkpt lat="49.42977" lon="0.96511">
        <ele>86.402709960938</ele>
        <time>2014-01-11T09:59:11.000Z</time>
      </trkpt>
      <trkpt lat="49.42984" lon="0.96514">
        <ele>86.69669342041</ele>
        <time>2014-01-11T09:59:14.000Z</time>
      </trkpt>
      <trkpt lat="49.42989" lon="0.96516">
        <ele>86.972534179688</ele>
        <time>2014-01-11T09:59:16.000Z</time>
      </trkpt>
      <trkpt lat="49.42997" lon="0.96518">
        <ele>87.222999572754</ele>
        <time>2014-01-11T09:59:19.000Z</time>
      </trkpt>
      <trkpt lat="49.43005" lon="0.96521">
        <ele>87.45532989502</ele>
        <time>2014-01-11T09:59:22.000Z</time>
      </trkpt>
      <trkpt lat="49.43013" lon="0.96522">
        <ele>87.664047241211</ele>
        <time>2014-01-11T09:59:25.000Z</time>
      </trkpt>
      <trkpt lat="49.4302" lon="0.96524">
        <ele>87.856864929199</ele>
        <time>2014-01-11T09:59:28.000Z</time>
      </trkpt>
      <trkpt lat="49.43026" lon="0.96526">
        <ele>88.038345336914</ele>
        <time>2014-01-11T09:59:30.000Z</time>
      </trkpt>
      <trkpt lat="49.43034" lon="0.96529">
        <ele>88.19701385498</ele>
        <time>2014-01-11T09:59:33.000Z</time>
      </trkpt>
      <trkpt lat="49.43037" lon="0.96532">
        <ele>88.332313537598</ele>
        <time>2014-01-11T09:59:35.000Z</time>
      </trkpt>
      <trkpt lat="49.43041" lon="0.96534">
        <ele>88.454261779785</ele>
        <time>2014-01-11T09:59:38.000Z</time>
      </trkpt>
      <trkpt lat="49.43047" lon="0.96537">
        <ele>88.576065063477</ele>
        <time>2014-01-11T09:59:40.000Z</time>
      </trkpt>
      <trkpt lat="49.43051" lon="0.96538">
        <ele>88.710243225098</ele>
        <time>2014-01-11T09:59:42.000Z</time>
      </trkpt>
      <trkpt lat="49.43056" lon="0.9654">
        <ele>88.856666564941</ele>
        <time>2014-01-11T09:59:45.000Z</time>
      </trkpt>
      <trkpt lat="49.43058" lon="0.9654">
        <ele>89.001968383789</ele>
        <time>2014-01-11T09:59:48.000Z</time>
      </trkpt>
      <trkpt lat="49.43069" lon="0.96544">
        <ele>89.23900604248</ele>
        <time>2014-01-11T09:59:51.000Z</time>
      </trkpt>
      <trkpt lat="49.43078" lon="0.96547">
        <ele>89.532020568848</ele>
        <time>2014-01-11T09:59:54.000Z</time>
      </trkpt>
      <trkpt lat="49.43081" lon="0.96548">
        <ele>89.826248168945</ele>
        <time>2014-01-11T09:59:56.000Z</time>
      </trkpt>
      <trkpt lat="49.43091" lon="0.96552">
        <ele>90.12296295166</ele>
        <time>2014-01-11T09:59:59.000Z</time>
      </trkpt>
      <trkpt lat="49.43095" lon="0.96553">
        <ele>90.418029785156</ele>
        <time>2014-01-11T10:00:01.000Z</time>
      </trkpt>
      <trkpt lat="49.43106" lon="0.96556">
        <ele>90.637054443359</ele>
        <time>2014-01-11T10:00:05.000Z</time>
      </trkpt>
      <trkpt lat="49.43113" lon="0.96558">
        <ele>90.796272277832</ele>
        <time>2014-01-11T10:00:08.000Z</time>
      </trkpt>
      <trkpt lat="49.43119" lon="0.9656">
        <ele>90.944396972656</ele>
        <time>2014-01-11T10:00:10.000Z</time>
      </trkpt>
      <trkpt lat="49.43128" lon="0.96565">
        <ele>91.101425170898</ele>
        <time>2014-01-11T10:00:15.000Z</time>
      </trkpt>
      <trkpt lat="49.43129" lon="0.96566">
        <ele>91.260276794434</ele>
        <time>2014-01-11T10:00:17.000Z</time>
      </trkpt>
      <trkpt lat="49.4313" lon="0.96568">
        <ele>91.399604797363</ele>
        <time>2014-01-11T10:00:20.000Z</time>
      </trkpt>
      <trkpt lat="49.4313" lon="0.9657">
        <ele>91.518920898438</ele>
        <time>2014-01-11T10:00:23.000Z</time>
      </trkpt>
      <trkpt lat="49.4313" lon="0.96571">
        <ele>91.624694824219</ele>
        <time>2014-01-11T10:00:26.000Z</time>
      </trkpt>
      <trkpt lat="49.43131" lon="0.96572">
        <ele>91.680686950684</ele>
        <time>2014-01-11T10:00:34.000Z</time>
      </trkpt>
      <trkpt lat="49.43132" lon="0.96573">
        <ele>91.73429107666</ele>
        <time>2014-01-11T10:00:46.000Z</time>
      </trkpt>
      <trkpt lat="49.43133" lon="0.96573">
        <ele>91.776107788086</ele>
        <time>2014-01-11T10:00:52.000Z</time>
      </trkpt>
      <trkpt lat="49.43135" lon="0.96572">
        <ele>91.812660217285</ele>
        <time>2014-01-11T10:00:59.000Z</time>
      </trkpt>
      <trkpt lat="49.43139" lon="0.96572">
        <ele>91.84391784668</ele>
        <time>2014-01-11T10:01:02.000Z</time>
      </trkpt>
      <trkpt lat="49.43142" lon="0.96571">
        <ele>91.877540588379</ele>
        <time>2014-01-11T10:01:05.000Z</time>
      </trkpt>
      <trkpt lat="49.43153" lon="0.96571">
        <ele>91.945083618164</ele>
        <time>2014-01-11T10:01:08.000Z</time>
      </trkpt>
      <trkpt lat="49.43164" lon="0.96574">
        <ele>92.078140258789</ele>
        <time>2014-01-11T10:01:11.000Z</time>
      </trkpt>
      <trkpt lat="49.43175" lon="0.96577">
        <ele>92.234619140625</ele>
        <time>2014-01-11T10:01:14.000Z</time>
      </trkpt>
      <trkpt lat="49.43185" lon="0.96579">
        <ele>92.400955200195</ele>
        <time>2014-01-11T10:01:17.000Z</time>
      </trkpt>
      <trkpt lat="49.43193" lon="0.9658">
        <ele>92.576316833496</ele>
        <time>2014-01-11T10:01:20.000Z</time>
      </trkpt>
      <trkpt lat="49.432" lon="0.96584">
        <ele>92.741348266602</ele>
        <time>2014-01-11T10:01:23.000Z</time>
      </trkpt>
      <trkpt lat="49.43202" lon="0.96584">
        <ele>92.833389282227</ele>
        <time>2014-01-11T10:01:26.000Z</time>
      </trkpt>
      <trkpt lat="49.43229" lon="0.96594">
        <ele>92.864273071289</ele>
        <time>2014-01-11T10:01:40.000Z</time>
      </trkpt>
      <trkpt lat="49.4326" lon="0.96606">
        <ele>92.795539855957</ele>
        <time>2014-01-11T10:01:48.000Z</time>
      </trkpt>
      <trkpt lat="49.43272" lon="0.96611">
        <ele>92.625312805176</ele>
        <time>2014-01-11T10:01:51.000Z</time>
      </trkpt>
      <trkpt lat="49.43277" lon="0.96612">
        <ele>92.389770507812</ele>
        <time>2014-01-11T10:01:53.000Z</time>
      </trkpt>
      <trkpt lat="49.43297" lon="0.9662">
        <ele>92.053565979004</ele>
        <time>2014-01-11T10:01:57.000Z</time>
      </trkpt>
      <trkpt lat="49.43302" lon="0.96621">
        <ele>91.728378295898</ele>
        <time>2014-01-11T10:01:59.000Z</time>
      </trkpt>
      <trkpt lat="49.43314" lon="0.96623">
        <ele>91.435882568359</ele>
        <time>2014-01-11T10:02:02.000Z</time>
      </trkpt>
      <trkpt lat="49.43332" lon="0.96623">
        <ele>91.135681152344</ele>
        <time>2014-01-11T10:02:06.000Z</time>
      </trkpt>
      <trkpt lat="49.43336" lon="0.96622">
        <ele>90.820617675781</ele>
        <time>2014-01-11T10:02:08.000Z</time>
      </trkpt>
      <trkpt lat="49.43344" lon="0.96625">
        <ele>90.53271484375</ele>
        <time>2014-01-11T10:02:11.000Z</time>
      </trkpt>
      <trkpt lat="49.43346" lon="0.96625">
        <ele>90.240013122559</ele>
        <time>2014-01-11T10:02:13.000Z</time>
      </trkpt>
      <trkpt lat="49.43356" lon="0.96625">
        <ele>89.878433227539</ele>
        <time>2014-01-11T10:02:16.000Z</time>
      </trkpt>
      <trkpt lat="49.43362" lon="0.96622">
        <ele>89.505447387695</ele>
        <time>2014-01-11T10:02:19.000Z</time>
      </trkpt>
      <trkpt lat="49.4337" lon="0.96619">
        <ele>89.042129516602</ele>
        <time>2014-01-11T10:02:22.000Z</time>
      </trkpt>
      <trkpt lat="49.43381" lon="0.96614">
        <ele>88.457069396973</ele>
        <time>2014-01-11T10:02:25.000Z</time>
      </trkpt>
      <trkpt lat="49.43409" lon="0.96605">
        <ele>87.393424987793</ele>
        <time>2014-01-11T10:02:29.000Z</time>
      </trkpt>
      <trkpt lat="49.43419" lon="0.96602">
        <ele>86.264305114746</ele>
        <time>2014-01-11T10:02:31.000Z</time>
      </trkpt>
      <trkpt lat="49.43433" lon="0.96598">
        <ele>84.993682861328</ele>
        <time>2014-01-11T10:02:34.000Z</time>
      </trkpt>
      <trkpt lat="49.43443" lon="0.96596">
        <ele>83.698577880859</ele>
        <time>2014-01-11T10:02:36.000Z</time>
      </trkpt>
      <trkpt lat="49.43452" lon="0.96602">
        <ele>82.621719360352</ele>
        <time>2014-01-11T10:02:38.000Z</time>
      </trkpt>
      <trkpt lat="49.43464" lon="0.96608">
        <ele>82.038475036621</ele>
        <time>2014-01-11T10:02:41.000Z</time>
      </trkpt>
      <trkpt lat="49.43475" lon="0.96611">
        <ele>81.601913452148</ele>
        <time>2014-01-11T10:02:44.000Z</time>
      </trkpt>
      <trkpt lat="49.43483" lon="0.96613">
        <ele>81.363700866699</ele>
        <time>2014-01-11T10:02:46.000Z</time>
      </trkpt>
      <trkpt lat="49.43492" lon="0.96614">
        <ele>81.232711791992</ele>
        <time>2014-01-11T10:02:48.000Z</time>
      </trkpt>
      <trkpt lat="49.43504" lon="0.96615">
        <ele>80.973495483398</ele>
        <time>2014-01-11T10:02:51.000Z</time>
      </trkpt>
      <trkpt lat="49.43513" lon="0.96612">
        <ele>80.519638061523</ele>
        <time>2014-01-11T10:02:53.000Z</time>
      </trkpt>
      <trkpt lat="49.4353" lon="0.96611">
        <ele>79.836784362793</ele>
        <time>2014-01-11T10:02:56.000Z</time>
      </trkpt>
      <trkpt lat="49.43541" lon="0.96612">
        <ele>79.061004638672</ele>
        <time>2014-01-11T10:02:58.000Z</time>
      </trkpt>
      <trkpt lat="49.43551" lon="0.96612">
        <ele>78.210456848145</ele>
        <time>2014-01-11T10:03:00.000Z</time>
      </trkpt>
      <trkpt lat="49.43562" lon="0.96613">
        <ele>77.348831176758</ele>
        <time>2014-01-11T10:03:02.000Z</time>
      </trkpt>
      <trkpt lat="49.43581" lon="0.96614">
        <ele>76.472221374512</ele>
        <time>2014-01-11T10:03:05.000Z</time>
      </trkpt>
      <trkpt lat="49.43593" lon="0.96613">
        <ele>75.613723754883</ele>
        <time>2014-01-11T10:03:07.000Z</time>
      </trkpt>
      <trkpt lat="49.43604" lon="0.96612">
        <ele>74.682762145996</ele>
        <time>2014-01-11T10:03:09.000Z</time>
      </trkpt>
      <trkpt lat="49.4362" lon="0.96612">
        <ele>73.627922058105</ele>
        <time>2014-01-11T10:03:12.000Z</time>
      </trkpt>
      <trkpt lat="49.43631" lon="0.96609">
        <ele>72.374183654785</ele>
        <time>2014-01-11T10:03:14.000Z</time>
      </trkpt>
      <trkpt lat="49.43647" lon="0.96607">
        <ele>71.003326416016</ele>
        <time>2014-01-11T10:03:17.000Z</time>
      </trkpt>
      <trkpt lat="49.43659" lon="0.96612">
        <ele>69.900947570801</ele>
        <time>2014-01-11T10:03:20.000Z</time>
      </trkpt>
      <trkpt lat="49.4367" lon="0.96613">
        <ele>68.86206817627</ele>
        <time>2014-01-11T10:03:23.000Z</time>
      </trkpt>
      <trkpt lat="49.43701" lon="0.96618">
        <ele>67.060653686523</ele>
        <time>2014-01-11T10:03:27.000Z</time>
      </trkpt>
      <trkpt lat="49.43712" lon="0.9662">
        <ele>65.301361083984</ele>
        <time>2014-01-11T10:03:29.000Z</time>
      </trkpt>
      <trkpt lat="49.43723" lon="0.9663">
        <ele>63.850761413574</ele>
        <time>2014-01-11T10:03:32.000Z</time>
      </trkpt>
      <trkpt lat="49.43734" lon="0.96641">
        <ele>62.395740509033</ele>
        <time>2014-01-11T10:03:35.000Z</time>
      </trkpt>
      <trkpt lat="49.4374" lon="0.96648">
        <ele>61.13631439209</ele>
        <time>2014-01-11T10:03:37.000Z</time>
      </trkpt>
      <trkpt lat="49.43744" lon="0.96654">
        <ele>60.995750427246</ele>
        <time>2014-01-11T10:03:39.000Z</time>
      </trkpt>
      <trkpt lat="49.43754" lon="0.96668">
        <ele>61.28148651123</ele>
        <time>2014-01-11T10:03:42.000Z</time>
      </trkpt>
      <trkpt lat="49.43758" lon="0.96678">
        <ele>61.598937988281</ele>
        <time>2014-01-11T10:03:44.000Z</time>
      </trkpt>
      <trkpt lat="49.43762" lon="0.96686">
        <ele>61.904102325439</ele>
        <time>2014-01-11T10:03:47.000Z</time>
      </trkpt>
      <trkpt lat="49.43788" lon="0.96705">
        <ele>61.577095031738</ele>
        <time>2014-01-11T10:04:01.000Z</time>
      </trkpt>
      <trkpt lat="49.43788" lon="0.96705">
        <ele>61.577095031738</ele>
        <time>2014-01-11T10:04:21.000Z</time>
      </trkpt>
      <trkpt lat="49.43815" lon="0.96709">
        <ele>60.206504821777</ele>
        <time>2014-01-11T10:04:28.000Z</time>
      </trkpt>
      <trkpt lat="49.43815" lon="0.96709">
        <ele>60.206504821777</ele>
        <time>2014-01-11T10:04:48.000Z</time>
      </trkpt>
      <trkpt lat="49.43828" lon="0.96706">
        <ele>58.088317871094</ele>
        <time>2014-01-11T10:05:03.000Z</time>
      </trkpt>
      <trkpt lat="49.43978" lon="0.96452">
        <ele>50.196220397949</ele>
        <time>2014-01-11T10:05:17.000Z</time>
      </trkpt>
      <trkpt lat="49.43999" lon="0.96405">
        <ele>41.905620574951</ele>
        <time>2014-01-11T10:05:20.000Z</time>
      </trkpt>
      <trkpt lat="49.44023" lon="0.96363">
        <ele>33.989601135254</ele>
        <time>2014-01-11T10:05:23.000Z</time>
      </trkpt>
      <trkpt lat="49.44046" lon="0.96329">
        <ele>26.808971405029</ele>
        <time>2014-01-11T10:05:26.000Z</time>
      </trkpt>
      <trkpt lat="49.44057" lon="0.96313">
        <ele>20.095113754272</ele>
        <time>2014-01-11T10:05:28.000Z</time>
      </trkpt>
      <trkpt lat="49.44068" lon="0.96298">
        <ele>19.032001495361</ele>
        <time>2014-01-11T10:05:31.000Z</time>
      </trkpt>
      <trkpt lat="49.44071" lon="0.96298">
        <ele>18.348819732666</ele>
        <time>2014-01-11T10:05:33.000Z</time>
      </trkpt>
      <trkpt lat="49.44074" lon="0.96305">
        <ele>17.893218994141</ele>
        <time>2014-01-11T10:05:35.000Z</time>
      </trkpt>
      <trkpt lat="49.44081" lon="0.96312">
        <ele>17.63818359375</ele>
        <time>2014-01-11T10:05:37.000Z</time>
      </trkpt>
      <trkpt lat="49.44098" lon="0.96317">
        <ele>17.459457397461</ele>
        <time>2014-01-11T10:05:40.000Z</time>
      </trkpt>
      <trkpt lat="49.44107" lon="0.96326">
        <ele>17.395574569702</ele>
        <time>2014-01-11T10:05:42.000Z</time>
      </trkpt>
      <trkpt lat="49.44118" lon="0.96329">
        <ele>17.314590454102</ele>
        <time>2014-01-11T10:05:44.000Z</time>
      </trkpt>
      <trkpt lat="49.44135" lon="0.96334">
        <ele>17.164087295532</ele>
        <time>2014-01-11T10:05:47.000Z</time>
      </trkpt>
      <trkpt lat="49.44149" lon="0.96339">
        <ele>16.987102508545</ele>
        <time>2014-01-11T10:05:50.000Z</time>
      </trkpt>
      <trkpt lat="49.44162" lon="0.96344">
        <ele>16.860860824585</ele>
        <time>2014-01-11T10:05:53.000Z</time>
      </trkpt>
      <trkpt lat="49.44176" lon="0.96351">
        <ele>16.739526748657</ele>
        <time>2014-01-11T10:05:56.000Z</time>
      </trkpt>
      <trkpt lat="49.44192" lon="0.96358">
        <ele>16.644510269165</ele>
        <time>2014-01-11T10:05:59.000Z</time>
      </trkpt>
      <trkpt lat="49.44207" lon="0.96366">
        <ele>16.610040664673</ele>
        <time>2014-01-11T10:06:02.000Z</time>
      </trkpt>
      <trkpt lat="49.44224" lon="0.96373">
        <ele>16.592472076416</ele>
        <time>2014-01-11T10:06:05.000Z</time>
      </trkpt>
      <trkpt lat="49.44235" lon="0.96378">
        <ele>16.567932128906</ele>
        <time>2014-01-11T10:06:07.000Z</time>
      </trkpt>
      <trkpt lat="49.44252" lon="0.9638">
        <ele>16.504564285278</ele>
        <time>2014-01-11T10:06:10.000Z</time>
      </trkpt>
      <trkpt lat="49.44269" lon="0.96384">
        <ele>16.534915924072</ele>
        <time>2014-01-11T10:06:13.000Z</time>
      </trkpt>
      <trkpt lat="49.44286" lon="0.96386">
        <ele>16.631362915039</ele>
        <time>2014-01-11T10:06:16.000Z</time>
      </trkpt>
      <trkpt lat="49.44303" lon="0.96386">
        <ele>16.800533294678</ele>
        <time>2014-01-11T10:06:19.000Z</time>
      </trkpt>
      <trkpt lat="49.44319" lon="0.96385">
        <ele>17.029804229736</ele>
        <time>2014-01-11T10:06:22.000Z</time>
      </trkpt>
      <trkpt lat="49.4433" lon="0.96385">
        <ele>17.331806182861</ele>
        <time>2014-01-11T10:06:24.000Z</time>
      </trkpt>
      <trkpt lat="49.44347" lon="0.96385">
        <ele>17.545001983643</ele>
        <time>2014-01-11T10:06:27.000Z</time>
      </trkpt>
      <trkpt lat="49.44357" lon="0.96386">
        <ele>17.684534072876</ele>
        <time>2014-01-11T10:06:29.000Z</time>
      </trkpt>
      <trkpt lat="49.44373" lon="0.96387">
        <ele>17.754947662354</ele>
        <time>2014-01-11T10:06:32.000Z</time>
      </trkpt>
      <trkpt lat="49.44388" lon="0.96387">
        <ele>17.771306991577</ele>
        <time>2014-01-11T10:06:35.000Z</time>
      </trkpt>
      <trkpt lat="49.44399" lon="0.96388">
        <ele>17.748296737671</ele>
        <time>2014-01-11T10:06:37.000Z</time>
      </trkpt>
      <trkpt lat="49.44414" lon="0.96388">
        <ele>17.721355438232</ele>
        <time>2014-01-11T10:06:40.000Z</time>
      </trkpt>
      <trkpt lat="49.44426" lon="0.96389">
        <ele>17.598180770874</ele>
        <time>2014-01-11T10:06:43.000Z</time>
      </trkpt>
      <trkpt lat="49.44427" lon="0.96388">
        <ele>17.452669143677</ele>
        <time>2014-01-11T10:06:46.000Z</time>
      </trkpt>
      <trkpt lat="49.44423" lon="0.96372">
        <ele>17.214672088623</ele>
        <time>2014-01-11T10:06:56.000Z</time>
      </trkpt>
      <trkpt lat="49.44426" lon="0.96359">
        <ele>16.834173202515</ele>
        <time>2014-01-11T10:07:01.000Z</time>
      </trkpt>
      <trkpt lat="49.44432" lon="0.96356">
        <ele>16.362613677979</ele>
        <time>2014-01-11T10:07:03.000Z</time>
      </trkpt>
      <trkpt lat="49.44435" lon="0.96354">
        <ele>15.938059806824</ele>
        <time>2014-01-11T10:07:06.000Z</time>
      </trkpt>
      <trkpt lat="49.44453" lon="0.96348">
        <ele>15.305468559265</ele>
        <time>2014-01-11T10:07:10.000Z</time>
      </trkpt>
      <trkpt lat="49.44461" lon="0.96348">
        <ele>14.698579788208</ele>
        <time>2014-01-11T10:07:12.000Z</time>
      </trkpt>
      <trkpt lat="49.44471" lon="0.9635">
        <ele>14.153884887695</ele>
        <time>2014-01-11T10:07:15.000Z</time>
      </trkpt>
      <trkpt lat="49.44477" lon="0.9635">
        <ele>13.651013374329</ele>
        <time>2014-01-11T10:07:17.000Z</time>
      </trkpt>
      <trkpt lat="49.44485" lon="0.96353">
        <ele>13.133455276489</ele>
        <time>2014-01-11T10:07:20.000Z</time>
      </trkpt>
      <trkpt lat="49.44493" lon="0.96357">
        <ele>12.805017471313</ele>
        <time>2014-01-11T10:07:23.000Z</time>
      </trkpt>
      <trkpt lat="49.44499" lon="0.96359">
        <ele>12.502910614014</ele>
        <time>2014-01-11T10:07:27.000Z</time>
      </trkpt>
      <trkpt lat="49.445" lon="0.96357">
        <ele>12.26215171814</ele>
        <time>2014-01-11T10:07:43.000Z</time>
      </trkpt>
      <trkpt lat="49.44501" lon="0.96358">
        <ele>12.077463150024</ele>
        <time>2014-01-11T10:07:46.000Z</time>
      </trkpt>
      <trkpt lat="49.44519" lon="0.96369">
        <ele>11.973990440369</ele>
        <time>2014-01-11T10:07:50.000Z</time>
      </trkpt>
      <trkpt lat="49.44526" lon="0.96374">
        <ele>11.929365158081</ele>
        <time>2014-01-11T10:07:52.000Z</time>
      </trkpt>
      <trkpt lat="49.44536" lon="0.96382">
        <ele>11.942355155945</ele>
        <time>2014-01-11T10:07:55.000Z</time>
      </trkpt>
      <trkpt lat="49.44547" lon="0.96391">
        <ele>11.995873451233</ele>
        <time>2014-01-11T10:07:58.000Z</time>
      </trkpt>
      <trkpt lat="49.44557" lon="0.96395">
        <ele>12.028727531433</ele>
        <time>2014-01-11T10:08:01.000Z</time>
      </trkpt>
      <trkpt lat="49.44564" lon="0.96398">
        <ele>12.032113075256</ele>
        <time>2014-01-11T10:08:04.000Z</time>
      </trkpt>
      <trkpt lat="49.44571" lon="0.96404">
        <ele>12.030722618103</ele>
        <time>2014-01-11T10:08:06.000Z</time>
      </trkpt>
      <trkpt lat="49.4458" lon="0.96415">
        <ele>12.028394699097</ele>
        <time>2014-01-11T10:08:08.000Z</time>
      </trkpt>
      <trkpt lat="49.44592" lon="0.96428">
        <ele>11.923920631409</ele>
        <time>2014-01-11T10:08:11.000Z</time>
      </trkpt>
      <trkpt lat="49.44603" lon="0.96437">
        <ele>11.739068031311</ele>
        <time>2014-01-11T10:08:14.000Z</time>
      </trkpt>
      <trkpt lat="49.44615" lon="0.96445">
        <ele>11.47034740448</ele>
        <time>2014-01-11T10:08:17.000Z</time>
      </trkpt>
      <trkpt lat="49.44626" lon="0.96451">
        <ele>11.105722427368</ele>
        <time>2014-01-11T10:08:20.000Z</time>
      </trkpt>
      <trkpt lat="49.44639" lon="0.96458">
        <ele>10.633268356323</ele>
        <time>2014-01-11T10:08:23.000Z</time>
      </trkpt>
      <trkpt lat="49.44653" lon="0.96465">
        <ele>10.144407272339</ele>
        <time>2014-01-11T10:08:26.000Z</time>
      </trkpt>
      <trkpt lat="49.44667" lon="0.96471">
        <ele>9.6513671875</ele>
        <time>2014-01-11T10:08:29.000Z</time>
      </trkpt>
      <trkpt lat="49.44681" lon="0.96476">
        <ele>9.2343988418579</ele>
        <time>2014-01-11T10:08:32.000Z</time>
      </trkpt>
      <trkpt lat="49.44694" lon="0.96481">
        <ele>8.8911027908325</ele>
        <time>2014-01-11T10:08:35.000Z</time>
      </trkpt>
      <trkpt lat="49.44707" lon="0.96486">
        <ele>8.6245374679565</ele>
        <time>2014-01-11T10:08:38.000Z</time>
      </trkpt>
      <trkpt lat="49.4472" lon="0.96487">
        <ele>8.4346160888672</ele>
        <time>2014-01-11T10:08:41.000Z</time>
      </trkpt>
      <trkpt lat="49.44731" lon="0.96486">
        <ele>8.3204956054688</ele>
        <time>2014-01-11T10:08:44.000Z</time>
      </trkpt>
      <trkpt lat="49.44738" lon="0.96484">
        <ele>8.2034606933594</ele>
        <time>2014-01-11T10:08:46.000Z</time>
      </trkpt>
      <trkpt lat="49.4475" lon="0.96475">
        <ele>8.0557403564453</ele>
        <time>2014-01-11T10:08:50.000Z</time>
      </trkpt>
      <trkpt lat="49.44756" lon="0.96467">
        <ele>7.9018707275391</ele>
        <time>2014-01-11T10:08:51.000Z</time>
      </trkpt>
      <trkpt lat="49.44766" lon="0.96455">
        <ele>7.732177734375</ele>
        <time>2014-01-11T10:08:54.000Z</time>
      </trkpt>
      <trkpt lat="49.44773" lon="0.96451">
        <ele>7.5689148902893</ele>
        <time>2014-01-11T10:08:56.000Z</time>
      </trkpt>
      <trkpt lat="49.44786" lon="0.96447">
        <ele>7.3950777053833</ele>
        <time>2014-01-11T10:08:59.000Z</time>
      </trkpt>
      <trkpt lat="49.44799" lon="0.96445">
        <ele>7.2436957359314</ele>
        <time>2014-01-11T10:09:02.000Z</time>
      </trkpt>
      <trkpt lat="49.44812" lon="0.96449">
        <ele>7.1129469871521</ele>
        <time>2014-01-11T10:09:05.000Z</time>
      </trkpt>
      <trkpt lat="49.44821" lon="0.96453">
        <ele>7.0319128036499</ele>
        <time>2014-01-11T10:09:07.000Z</time>
      </trkpt>
      <trkpt lat="49.4483" lon="0.96457">
        <ele>6.979012966156</ele>
        <time>2014-01-11T10:09:09.000Z</time>
      </trkpt>
      <trkpt lat="49.44844" lon="0.96462">
        <ele>7.0223770141602</ele>
        <time>2014-01-11T10:09:12.000Z</time>
      </trkpt>
      <trkpt lat="49.44853" lon="0.96466">
        <ele>7.1507301330566</ele>
        <time>2014-01-11T10:09:14.000Z</time>
      </trkpt>
      <trkpt lat="49.44868" lon="0.96471">
        <ele>7.392210483551</ele>
        <time>2014-01-11T10:09:17.000Z</time>
      </trkpt>
      <trkpt lat="49.44883" lon="0.96477">
        <ele>7.7471642494202</ele>
        <time>2014-01-11T10:09:20.000Z</time>
      </trkpt>
      <trkpt lat="49.44897" lon="0.96482">
        <ele>8.2274799346924</ele>
        <time>2014-01-11T10:09:23.000Z</time>
      </trkpt>
      <trkpt lat="49.44912" lon="0.96488">
        <ele>8.7926797866821</ele>
        <time>2014-01-11T10:09:26.000Z</time>
      </trkpt>
      <trkpt lat="49.44925" lon="0.96488">
        <ele>9.4298992156982</ele>
        <time>2014-01-11T10:09:29.000Z</time>
      </trkpt>
      <trkpt lat="49.44933" lon="0.96485">
        <ele>10.021413803101</ele>
        <time>2014-01-11T10:09:31.000Z</time>
      </trkpt>
      <trkpt lat="49.44945" lon="0.9648">
        <ele>10.560119628906</ele>
        <time>2014-01-11T10:09:34.000Z</time>
      </trkpt>
      <trkpt lat="49.44956" lon="0.96471">
        <ele>10.974187850952</ele>
        <time>2014-01-11T10:09:37.000Z</time>
      </trkpt>
      <trkpt lat="49.44967" lon="0.96461">
        <ele>11.219157218933</ele>
        <time>2014-01-11T10:09:40.000Z</time>
      </trkpt>
      <trkpt lat="49.44977" lon="0.96449">
        <ele>11.291093826294</ele>
        <time>2014-01-11T10:09:43.000Z</time>
      </trkpt>
      <trkpt lat="49.44987" lon="0.96435">
        <ele>11.201840400696</ele>
        <time>2014-01-11T10:09:46.000Z</time>
      </trkpt>
      <trkpt lat="49.44998" lon="0.96417">
        <ele>10.899116516113</ele>
        <time>2014-01-11T10:09:49.000Z</time>
      </trkpt>
      <trkpt lat="49.45012" lon="0.964">
        <ele>10.677337646484</ele>
        <time>2014-01-11T10:09:52.000Z</time>
      </trkpt>
      <trkpt lat="49.45027" lon="0.96389">
        <ele>10.577189445496</ele>
        <time>2014-01-11T10:09:55.000Z</time>
      </trkpt>
      <trkpt lat="49.45041" lon="0.96379">
        <ele>10.576833724976</ele>
        <time>2014-01-11T10:09:58.000Z</time>
      </trkpt>
      <trkpt lat="49.45056" lon="0.96368">
        <ele>10.706459999084</ele>
        <time>2014-01-11T10:10:01.000Z</time>
      </trkpt>
      <trkpt lat="49.45071" lon="0.96355">
        <ele>10.946508407593</ele>
        <time>2014-01-11T10:10:04.000Z</time>
      </trkpt>
      <trkpt lat="49.45086" lon="0.96343">
        <ele>11.040159225464</ele>
        <time>2014-01-11T10:10:07.000Z</time>
      </trkpt>
      <trkpt lat="49.45101" lon="0.96331">
        <ele>11.022741317749</ele>
        <time>2014-01-11T10:10:10.000Z</time>
      </trkpt>
      <trkpt lat="49.4511" lon="0.96323">
        <ele>10.958150863647</ele>
        <time>2014-01-11T10:10:12.000Z</time>
      </trkpt>
      <trkpt lat="49.45124" lon="0.96311">
        <ele>10.878903388977</ele>
        <time>2014-01-11T10:10:15.000Z</time>
      </trkpt>
      <trkpt lat="49.45134" lon="0.96303">
        <ele>10.828570365906</ele>
        <time>2014-01-11T10:10:17.000Z</time>
      </trkpt>
      <trkpt lat="49.45143" lon="0.96295">
        <ele>10.82799243927</ele>
        <time>2014-01-11T10:10:19.000Z</time>
      </trkpt>
      <trkpt lat="49.45158" lon="0.96283">
        <ele>10.814431190491</ele>
        <time>2014-01-11T10:10:22.000Z</time>
      </trkpt>
      <trkpt lat="49.45168" lon="0.96276">
        <ele>10.768239974976</ele>
        <time>2014-01-11T10:10:24.000Z</time>
      </trkpt>
      <trkpt lat="49.45182" lon="0.96265">
        <ele>10.622548103333</ele>
        <time>2014-01-11T10:10:27.000Z</time>
      </trkpt>
      <trkpt lat="49.45197" lon="0.96256">
        <ele>10.405378341675</ele>
        <time>2014-01-11T10:10:30.000Z</time>
      </trkpt>
      <trkpt lat="49.45206" lon="0.9625">
        <ele>10.137486457825</ele>
        <time>2014-01-11T10:10:32.000Z</time>
      </trkpt>
      <trkpt lat="49.45216" lon="0.96244">
        <ele>9.8931369781494</ele>
        <time>2014-01-11T10:10:34.000Z</time>
      </trkpt>
      <trkpt lat="49.45226" lon="0.96237">
        <ele>9.6663074493408</ele>
        <time>2014-01-11T10:10:36.000Z</time>
      </trkpt>
      <trkpt lat="49.4524" lon="0.96227">
        <ele>9.5079183578491</ele>
        <time>2014-01-11T10:10:39.000Z</time>
      </trkpt>
      <trkpt lat="49.4525" lon="0.96221">
        <ele>9.4119091033936</ele>
        <time>2014-01-11T10:10:41.000Z</time>
      </trkpt>
      <trkpt lat="49.45263" lon="0.96211">
        <ele>9.444055557251</ele>
        <time>2014-01-11T10:10:44.000Z</time>
      </trkpt>
      <trkpt lat="49.45277" lon="0.96202">
        <ele>9.5344944000244</ele>
        <time>2014-01-11T10:10:47.000Z</time>
      </trkpt>
      <trkpt lat="49.45291" lon="0.96196">
        <ele>9.6853637695312</ele>
        <time>2014-01-11T10:10:50.000Z</time>
      </trkpt>
      <trkpt lat="49.453" lon="0.96191">
        <ele>9.8762588500977</ele>
        <time>2014-01-11T10:10:52.000Z</time>
      </trkpt>
      <trkpt lat="49.45313" lon="0.96185">
        <ele>10.106051445007</ele>
        <time>2014-01-11T10:10:55.000Z</time>
      </trkpt>
      <trkpt lat="49.45323" lon="0.96191">
        <ele>10.397651672363</ele>
        <time>2014-01-11T10:10:58.000Z</time>
      </trkpt>
      <trkpt lat="49.45331" lon="0.96196">
        <ele>10.747860908508</ele>
        <time>2014-01-11T10:11:01.000Z</time>
      </trkpt>
      <trkpt lat="49.45338" lon="0.962">
        <ele>11.131709098816</ele>
        <time>2014-01-11T10:11:04.000Z</time>
      </trkpt>
      <trkpt lat="49.45344" lon="0.96203">
        <ele>11.555160522461</ele>
        <time>2014-01-11T10:11:07.000Z</time>
      </trkpt>
      <trkpt lat="49.45346" lon="0.96206">
        <ele>11.995775222778</ele>
        <time>2014-01-11T10:11:09.000Z</time>
      </trkpt>
      <trkpt lat="49.4535" lon="0.96209">
        <ele>12.360423088074</ele>
        <time>2014-01-11T10:11:12.000Z</time>
      </trkpt>
      <trkpt lat="49.45355" lon="0.96211">
        <ele>12.671288490295</ele>
        <time>2014-01-11T10:11:20.000Z</time>
      </trkpt>
      <trkpt lat="49.45358" lon="0.96213">
        <ele>12.929880142212</ele>
        <time>2014-01-11T10:11:23.000Z</time>
      </trkpt>
      <trkpt lat="49.45364" lon="0.96216">
        <ele>13.200500488281</ele>
        <time>2014-01-11T10:11:26.000Z</time>
      </trkpt>
      <trkpt lat="49.45371" lon="0.96219">
        <ele>13.498931884766</ele>
        <time>2014-01-11T10:11:29.000Z</time>
      </trkpt>
      <trkpt lat="49.45375" lon="0.9622">
        <ele>13.788343429565</ele>
        <time>2014-01-11T10:11:31.000Z</time>
      </trkpt>
      <trkpt lat="49.45381" lon="0.96222">
        <ele>14.078336715698</ele>
        <time>2014-01-11T10:11:34.000Z</time>
      </trkpt>
      <trkpt lat="49.45384" lon="0.96224">
        <ele>14.368992805481</ele>
        <time>2014-01-11T10:11:36.000Z</time>
      </trkpt>
      <trkpt lat="49.45388" lon="0.96226">
        <ele>14.633883476257</ele>
        <time>2014-01-11T10:11:38.000Z</time>
      </trkpt>
      <trkpt lat="49.45393" lon="0.9623">
        <ele>14.924237251282</ele>
        <time>2014-01-11T10:11:41.000Z</time>
      </trkpt>
      <trkpt lat="49.45399" lon="0.96233">
        <ele>15.26025390625</ele>
        <time>2014-01-11T10:11:44.000Z</time>
      </trkpt>
      <trkpt lat="49.45404" lon="0.96237">
        <ele>15.632197380066</ele>
        <time>2014-01-11T10:11:47.000Z</time>
      </trkpt>
      <trkpt lat="49.45408" lon="0.9624">
        <ele>16.034994125366</ele>
        <time>2014-01-11T10:11:49.000Z</time>
      </trkpt>
      <trkpt lat="49.45414" lon="0.96244">
        <ele>16.500629425049</ele>
        <time>2014-01-11T10:11:52.000Z</time>
      </trkpt>
      <trkpt lat="49.4542" lon="0.96249">
        <ele>17.006587982178</ele>
        <time>2014-01-11T10:11:55.000Z</time>
      </trkpt>
      <trkpt lat="49.45426" lon="0.96253">
        <ele>17.557216644287</ele>
        <time>2014-01-11T10:11:58.000Z</time>
      </trkpt>
      <trkpt lat="49.4543" lon="0.96256">
        <ele>18.132369995117</ele>
        <time>2014-01-11T10:12:01.000Z</time>
      </trkpt>
      <trkpt lat="49.45434" lon="0.9626">
        <ele>18.754983901978</ele>
        <time>2014-01-11T10:12:04.000Z</time>
      </trkpt>
      <trkpt lat="49.45436" lon="0.96262">
        <ele>19.347997665405</ele>
        <time>2014-01-11T10:12:06.000Z</time>
      </trkpt>
      <trkpt lat="49.45439" lon="0.96265">
        <ele>19.879943847656</ele>
        <time>2014-01-11T10:12:08.000Z</time>
      </trkpt>
      <trkpt lat="49.45441" lon="0.96267">
        <ele>20.360147476196</ele>
        <time>2014-01-11T10:12:10.000Z</time>
      </trkpt>
      <trkpt lat="49.45444" lon="0.9627">
        <ele>20.801330566406</ele>
        <time>2014-01-11T10:12:13.000Z</time>
      </trkpt>
      <trkpt lat="49.45452" lon="0.96275">
        <ele>21.33606338501</ele>
        <time>2014-01-11T10:12:17.000Z</time>
      </trkpt>
      <trkpt lat="49.45453" lon="0.96276">
        <ele>21.825866699219</ele>
        <time>2014-01-11T10:12:20.000Z</time>
      </trkpt>
      <trkpt lat="49.45461" lon="0.96281">
        <ele>22.439155578613</ele>
        <time>2014-01-11T10:12:23.000Z</time>
      </trkpt>
      <trkpt lat="49.45465" lon="0.96283">
        <ele>23.054550170898</ele>
        <time>2014-01-11T10:12:26.000Z</time>
      </trkpt>
      <trkpt lat="49.45466" lon="0.96283">
        <ele>23.616827011108</ele>
        <time>2014-01-11T10:12:28.000Z</time>
      </trkpt>
      <trkpt lat="49.4547" lon="0.96286">
        <ele>24.075124740601</ele>
        <time>2014-01-11T10:12:31.000Z</time>
      </trkpt>
      <trkpt lat="49.45475" lon="0.96289">
        <ele>24.613452911377</ele>
        <time>2014-01-11T10:12:34.000Z</time>
      </trkpt>
      <trkpt lat="49.45491" lon="0.96301">
        <ele>25.436407089233</ele>
        <time>2014-01-11T10:12:44.000Z</time>
      </trkpt>
      <trkpt lat="49.45494" lon="0.96303">
        <ele>26.235284805298</ele>
        <time>2014-01-11T10:12:46.000Z</time>
      </trkpt>
      <trkpt lat="49.45495" lon="0.96304">
        <ele>27.042789459229</ele>
        <time>2014-01-11T10:12:49.000Z</time>
      </trkpt>
      <trkpt lat="49.455" lon="0.96306">
        <ele>27.870265960693</ele>
        <time>2014-01-11T10:12:52.000Z</time>
      </trkpt>
      <trkpt lat="49.45502" lon="0.96312">
        <ele>28.710498809814</ele>
        <time>2014-01-11T10:12:55.000Z</time>
      </trkpt>
      <trkpt lat="49.45503" lon="0.96316">
        <ele>29.179439544678</ele>
        <time>2014-01-11T10:12:58.000Z</time>
      </trkpt>
      <trkpt lat="49.45506" lon="0.96323">
        <ele>29.753332138062</ele>
        <time>2014-01-11T10:13:01.000Z</time>
      </trkpt>
      <trkpt lat="49.45508" lon="0.96327">
        <ele>30.420700073242</ele>
        <time>2014-01-11T10:13:04.000Z</time>
      </trkpt>
      <trkpt lat="49.4551" lon="0.96331">
        <ele>31.068201065063</ele>
        <time>2014-01-11T10:13:07.000Z</time>
      </trkpt>
      <trkpt lat="49.45512" lon="0.96333">
        <ele>31.639562606812</ele>
        <time>2014-01-11T10:13:09.000Z</time>
      </trkpt>
      <trkpt lat="49.45515" lon="0.96336">
        <ele>32.214302062988</ele>
        <time>2014-01-11T10:13:12.000Z</time>
      </trkpt>
      <trkpt lat="49.45516" lon="0.96337">
        <ele>32.665184020996</ele>
        <time>2014-01-11T10:13:15.000Z</time>
      </trkpt>
      <trkpt lat="49.4552" lon="0.96342">
        <ele>33.148181915283</ele>
        <time>2014-01-11T10:13:17.000Z</time>
      </trkpt>
      <trkpt lat="49.45523" lon="0.96345">
        <ele>33.638008117676</ele>
        <time>2014-01-11T10:13:20.000Z</time>
      </trkpt>
      <trkpt lat="49.45525" lon="0.96347">
        <ele>34.150421142578</ele>
        <time>2014-01-11T10:13:22.000Z</time>
      </trkpt>
      <trkpt lat="49.4553" lon="0.96349">
        <ele>34.659301757812</ele>
        <time>2014-01-11T10:13:25.000Z</time>
      </trkpt>
      <trkpt lat="49.45533" lon="0.96351">
        <ele>35.190002441406</ele>
        <time>2014-01-11T10:13:28.000Z</time>
      </trkpt>
      <trkpt lat="49.45538" lon="0.96354">
        <ele>35.701629638672</ele>
        <time>2014-01-11T10:13:31.000Z</time>
      </trkpt>
      <trkpt lat="49.45542" lon="0.96358">
        <ele>36.238891601562</ele>
        <time>2014-01-11T10:13:34.000Z</time>
      </trkpt>
      <trkpt lat="49.45544" lon="0.96361">
        <ele>36.811096191406</ele>
        <time>2014-01-11T10:13:36.000Z</time>
      </trkpt>
      <trkpt lat="49.45547" lon="0.96365">
        <ele>37.385131835938</ele>
        <time>2014-01-11T10:13:38.000Z</time>
      </trkpt>
      <trkpt lat="49.45551" lon="0.9637">
        <ele>38.061248779297</ele>
        <time>2014-01-11T10:13:42.000Z</time>
      </trkpt>
      <trkpt lat="49.45555" lon="0.96374">
        <ele>38.739959716797</ele>
        <time>2014-01-11T10:13:44.000Z</time>
      </trkpt>
      <trkpt lat="49.45559" lon="0.96378">
        <ele>39.429046630859</ele>
        <time>2014-01-11T10:13:47.000Z</time>
      </trkpt>
      <trkpt lat="49.45562" lon="0.9638">
        <ele>40.088989257812</ele>
        <time>2014-01-11T10:13:49.000Z</time>
      </trkpt>
      <trkpt lat="49.45566" lon="0.96384">
        <ele>40.761749267578</ele>
        <time>2014-01-11T10:13:52.000Z</time>
      </trkpt>
      <trkpt lat="49.4557" lon="0.96387">
        <ele>41.411468505859</ele>
        <time>2014-01-11T10:13:55.000Z</time>
      </trkpt>
      <trkpt lat="49.45573" lon="0.96391">
        <ele>42.037994384766</ele>
        <time>2014-01-11T10:13:58.000Z</time>
      </trkpt>
      <trkpt lat="49.45577" lon="0.96394">
        <ele>42.640716552734</ele>
        <time>2014-01-11T10:14:01.000Z</time>
      </trkpt>
      <trkpt lat="49.4558" lon="0.96398">
        <ele>43.283416748047</ele>
        <time>2014-01-11T10:14:04.000Z</time>
      </trkpt>
      <trkpt lat="49.45584" lon="0.96401">
        <ele>43.935871124268</ele>
        <time>2014-01-11T10:14:07.000Z</time>
      </trkpt>
      <trkpt lat="49.45586" lon="0.96403">
        <ele>44.523780822754</ele>
        <time>2014-01-11T10:14:09.000Z</time>
      </trkpt>
      <trkpt lat="49.4559" lon="0.96406">
        <ele>45.121757507324</ele>
        <time>2014-01-11T10:14:12.000Z</time>
      </trkpt>
      <trkpt lat="49.45593" lon="0.96408">
        <ele>45.690196990967</ele>
        <time>2014-01-11T10:14:14.000Z</time>
      </trkpt>
      <trkpt lat="49.45598" lon="0.9641">
        <ele>46.260101318359</ele>
        <time>2014-01-11T10:14:17.000Z</time>
      </trkpt>
      <trkpt lat="49.45601" lon="0.9641">
        <ele>46.768890380859</ele>
        <time>2014-01-11T10:14:19.000Z</time>
      </trkpt>
      <trkpt lat="49.45607" lon="0.96411">
        <ele>47.312835693359</ele>
        <time>2014-01-11T10:14:22.000Z</time>
      </trkpt>
      <trkpt lat="49.4561" lon="0.96412">
        <ele>47.785003662109</ele>
        <time>2014-01-11T10:14:25.000Z</time>
      </trkpt>
      <trkpt lat="49.4562" lon="0.96414">
        <ele>48.392272949219</ele>
        <time>2014-01-11T10:14:30.000Z</time>
      </trkpt>
      <trkpt lat="49.45623" lon="0.96415">
        <ele>48.944610595703</ele>
        <time>2014-01-11T10:14:32.000Z</time>
      </trkpt>
      <trkpt lat="49.45633" lon="0.96419">
        <ele>49.666023254395</ele>
        <time>2014-01-11T10:14:38.000Z</time>
      </trkpt>
      <trkpt lat="49.45634" lon="0.9642">
        <ele>50.308265686035</ele>
        <time>2014-01-11T10:14:40.000Z</time>
      </trkpt>
      <trkpt lat="49.45639" lon="0.96423">
        <ele>51.027587890625</ele>
        <time>2014-01-11T10:14:43.000Z</time>
      </trkpt>
      <trkpt lat="49.45642" lon="0.96425">
        <ele>51.591697692871</ele>
        <time>2014-01-11T10:14:46.000Z</time>
      </trkpt>
      <trkpt lat="49.45646" lon="0.96427">
        <ele>52.175769805908</ele>
        <time>2014-01-11T10:14:48.000Z</time>
      </trkpt>
      <trkpt lat="49.45648" lon="0.96428">
        <ele>52.567737579346</ele>
        <time>2014-01-11T10:14:50.000Z</time>
      </trkpt>
      <trkpt lat="49.45652" lon="0.9643">
        <ele>53.013111114502</ele>
        <time>2014-01-11T10:14:53.000Z</time>
      </trkpt>
      <trkpt lat="49.45654" lon="0.96431">
        <ele>53.381996154785</ele>
        <time>2014-01-11T10:14:57.000Z</time>
      </trkpt>
      <trkpt lat="49.45656" lon="0.96432">
        <ele>53.709156036377</ele>
        <time>2014-01-11T10:14:59.000Z</time>
      </trkpt>
      <trkpt lat="49.45658" lon="0.96432">
        <ele>53.996032714844</ele>
        <time>2014-01-11T10:15:02.000Z</time>
      </trkpt>
      <trkpt lat="49.45661" lon="0.96433">
        <ele>54.291389465332</ele>
        <time>2014-01-11T10:15:05.000Z</time>
      </trkpt>
      <trkpt lat="49.45664" lon="0.96435">
        <ele>54.549510955811</ele>
        <time>2014-01-11T10:15:07.000Z</time>
      </trkpt>
      <trkpt lat="49.45665" lon="0.96434">
        <ele>54.765968322754</ele>
        <time>2014-01-11T10:15:10.000Z</time>
      </trkpt>
      <trkpt lat="49.45667" lon="0.96434">
        <ele>54.964275360107</ele>
        <time>2014-01-11T10:15:12.000Z</time>
      </trkpt>
      <trkpt lat="49.45671" lon="0.96435">
        <ele>55.189888000488</ele>
        <time>2014-01-11T10:15:15.000Z</time>
      </trkpt>
      <trkpt lat="49.45682" lon="0.96437">
        <ele>55.530326843262</ele>
        <time>2014-01-11T10:15:20.000Z</time>
      </trkpt>
      <trkpt lat="49.45685" lon="0.96438">
        <ele>55.866241455078</ele>
        <time>2014-01-11T10:15:23.000Z</time>
      </trkpt>
      <trkpt lat="49.45697" lon="0.96442">
        <ele>56.363189697266</ele>
        <time>2014-01-11T10:15:26.000Z</time>
      </trkpt>
      <trkpt lat="49.45703" lon="0.96443">
        <ele>56.939483642578</ele>
        <time>2014-01-11T10:15:29.000Z</time>
      </trkpt>
      <trkpt lat="49.45707" lon="0.96444">
        <ele>57.489757537842</ele>
        <time>2014-01-11T10:15:31.000Z</time>
      </trkpt>
      <trkpt lat="49.45713" lon="0.96445">
        <ele>57.942405700684</ele>
        <time>2014-01-11T10:15:34.000Z</time>
      </trkpt>
      <trkpt lat="49.45716" lon="0.96446">
        <ele>58.401794433594</ele>
        <time>2014-01-11T10:15:36.000Z</time>
      </trkpt>
      <trkpt lat="49.4572" lon="0.96447">
        <ele>58.724617004395</ele>
        <time>2014-01-11T10:15:38.000Z</time>
      </trkpt>
      <trkpt lat="49.45725" lon="0.96448">
        <ele>59.015449523926</ele>
        <time>2014-01-11T10:15:41.000Z</time>
      </trkpt>
      <trkpt lat="49.45729" lon="0.96449">
        <ele>59.299499511719</ele>
        <time>2014-01-11T10:15:43.000Z</time>
      </trkpt>
      <trkpt lat="49.45732" lon="0.9645">
        <ele>59.551750183105</ele>
        <time>2014-01-11T10:15:46.000Z</time>
      </trkpt>
      <trkpt lat="49.45739" lon="0.96452">
        <ele>59.829418182373</ele>
        <time>2014-01-11T10:15:49.000Z</time>
      </trkpt>
      <trkpt lat="49.45745" lon="0.96452">
        <ele>60.116340637207</ele>
        <time>2014-01-11T10:15:52.000Z</time>
      </trkpt>
      <trkpt lat="49.45751" lon="0.96453">
        <ele>60.417198181152</ele>
        <time>2014-01-11T10:15:55.000Z</time>
      </trkpt>
      <trkpt lat="49.45757" lon="0.96452">
        <ele>60.824157714844</ele>
        <time>2014-01-11T10:15:58.000Z</time>
      </trkpt>
      <trkpt lat="49.45758" lon="0.96452">
        <ele>61.240985870361</ele>
        <time>2014-01-11T10:16:00.000Z</time>
      </trkpt>
      <trkpt lat="49.45766" lon="0.96451">
        <ele>61.782909393311</ele>
        <time>2014-01-11T10:16:03.000Z</time>
      </trkpt>
      <trkpt lat="49.4577" lon="0.96451">
        <ele>62.3642578125</ele>
        <time>2014-01-11T10:16:05.000Z</time>
      </trkpt>
      <trkpt lat="49.45773" lon="0.96449">
        <ele>62.955078125</ele>
        <time>2014-01-11T10:16:07.000Z</time>
      </trkpt>
      <trkpt lat="49.45778" lon="0.96447">
        <ele>63.53515625</ele>
        <time>2014-01-11T10:16:10.000Z</time>
      </trkpt>
      <trkpt lat="49.45783" lon="0.96446">
        <ele>64.1904296875</ele>
        <time>2014-01-11T10:16:13.000Z</time>
      </trkpt>
      <trkpt lat="49.45786" lon="0.96444">
        <ele>64.716796875</ele>
        <time>2014-01-11T10:16:15.000Z</time>
      </trkpt>
      <trkpt lat="49.4579" lon="0.96443">
        <ele>65.2431640625</ele>
        <time>2014-01-11T10:16:17.000Z</time>
      </trkpt>
      <trkpt lat="49.45794" lon="0.96441">
        <ele>65.8017578125</ele>
        <time>2014-01-11T10:16:20.000Z</time>
      </trkpt>
      <trkpt lat="49.45799" lon="0.9644">
        <ele>66.349609375</ele>
        <time>2014-01-11T10:16:23.000Z</time>
      </trkpt>
      <trkpt lat="49.45802" lon="0.9644">
        <ele>66.8544921875</ele>
        <time>2014-01-11T10:16:25.000Z</time>
      </trkpt>
      <trkpt lat="49.45807" lon="0.96439">
        <ele>67.40234375</ele>
        <time>2014-01-11T10:16:28.000Z</time>
      </trkpt>
      <trkpt lat="49.45812" lon="0.96438">
        <ele>67.982421875</ele>
        <time>2014-01-11T10:16:31.000Z</time>
      </trkpt>
      <trkpt lat="49.45816" lon="0.96436">
        <ele>68.5625</ele>
        <time>2014-01-11T10:16:34.000Z</time>
      </trkpt>
      <trkpt lat="49.45821" lon="0.96435">
        <ele>69.1318359375</ele>
        <time>2014-01-11T10:16:37.000Z</time>
      </trkpt>
      <trkpt lat="49.45825" lon="0.96434">
        <ele>69.72265625</ele>
        <time>2014-01-11T10:16:40.000Z</time>
      </trkpt>
      <trkpt lat="49.45829" lon="0.96434">
        <ele>70.302734375</ele>
        <time>2014-01-11T10:16:43.000Z</time>
      </trkpt>
      <trkpt lat="49.45834" lon="0.96434">
        <ele>70.880195617676</ele>
        <time>2014-01-11T10:16:46.000Z</time>
      </trkpt>
      <trkpt lat="49.45837" lon="0.96434">
        <ele>71.396377563477</ele>
        <time>2014-01-11T10:16:48.000Z</time>
      </trkpt>
      <trkpt lat="49.45841" lon="0.96434">
        <ele>71.884750366211</ele>
        <time>2014-01-11T10:16:51.000Z</time>
      </trkpt>
      <trkpt lat="49.45844" lon="0.96433">
        <ele>72.324310302734</ele>
        <time>2014-01-11T10:16:53.000Z</time>
      </trkpt>
      <trkpt lat="49.45848" lon="0.96432">
        <ele>72.752296447754</ele>
        <time>2014-01-11T10:16:56.000Z</time>
      </trkpt>
      <trkpt lat="49.45852" lon="0.96431">
        <ele>73.140075683594</ele>
        <time>2014-01-11T10:16:59.000Z</time>
      </trkpt>
      <trkpt lat="49.45856" lon="0.96431">
        <ele>73.555000305176</ele>
        <time>2014-01-11T10:17:02.000Z</time>
      </trkpt>
      <trkpt lat="49.4586" lon="0.96431">
        <ele>73.955322265625</ele>
        <time>2014-01-11T10:17:05.000Z</time>
      </trkpt>
      <trkpt lat="49.45865" lon="0.96431">
        <ele>74.395126342773</ele>
        <time>2014-01-11T10:17:09.000Z</time>
      </trkpt>
      <trkpt lat="49.45868" lon="0.96432">
        <ele>74.805381774902</ele>
        <time>2014-01-11T10:17:12.000Z</time>
      </trkpt>
      <trkpt lat="49.45871" lon="0.96431">
        <ele>75.182189941406</ele>
        <time>2014-01-11T10:17:14.000Z</time>
      </trkpt>
      <trkpt lat="49.45873" lon="0.96431">
        <ele>75.52165222168</ele>
        <time>2014-01-11T10:17:16.000Z</time>
      </trkpt>
      <trkpt lat="49.45879" lon="0.9643">
        <ele>75.931579589844</ele>
        <time>2014-01-11T10:17:22.000Z</time>
      </trkpt>
      <trkpt lat="49.45882" lon="0.96429">
        <ele>76.324447631836</ele>
        <time>2014-01-11T10:17:25.000Z</time>
      </trkpt>
      <trkpt lat="49.45884" lon="0.96427">
        <ele>76.699645996094</ele>
        <time>2014-01-11T10:17:27.000Z</time>
      </trkpt>
      <trkpt lat="49.45886" lon="0.96426">
        <ele>77.080955505371</ele>
        <time>2014-01-11T10:17:30.000Z</time>
      </trkpt>
      <trkpt lat="49.45893" lon="0.96424">
        <ele>77.593055725098</ele>
        <time>2014-01-11T10:17:34.000Z</time>
      </trkpt>
      <trkpt lat="49.45898" lon="0.96423">
        <ele>78.085159301758</ele>
        <time>2014-01-11T10:17:37.000Z</time>
      </trkpt>
      <trkpt lat="49.45909" lon="0.9642">
        <ele>78.788955688477</ele>
        <time>2014-01-11T10:17:43.000Z</time>
      </trkpt>
      <trkpt lat="49.45912" lon="0.96419">
        <ele>79.543045043945</ele>
        <time>2014-01-11T10:17:45.000Z</time>
      </trkpt>
      <trkpt lat="49.45915" lon="0.96418">
        <ele>80.31901550293</ele>
        <time>2014-01-11T10:17:47.000Z</time>
      </trkpt>
      <trkpt lat="49.4592" lon="0.96416">
        <ele>80.965026855469</ele>
        <time>2014-01-11T10:17:50.000Z</time>
      </trkpt>
      <trkpt lat="49.45921" lon="0.96415">
        <ele>81.466888427734</ele>
        <time>2014-01-11T10:17:52.000Z</time>
      </trkpt>
      <trkpt lat="49.45936" lon="0.9641">
        <ele>81.556930541992</ele>
        <time>2014-01-11T10:18:08.000Z</time>
      </trkpt>
      <trkpt lat="49.45937" lon="0.9641">
        <ele>81.537002563477</ele>
        <time>2014-01-11T10:18:11.000Z</time>
      </trkpt>
      <trkpt lat="49.45964" lon="0.96397">
        <ele>81.310691833496</ele>
        <time>2014-01-11T10:18:21.000Z</time>
      </trkpt>
      <trkpt lat="49.45969" lon="0.96394">
        <ele>81.03303527832</ele>
        <time>2014-01-11T10:18:23.000Z</time>
      </trkpt>
      <trkpt lat="49.45971" lon="0.96392">
        <ele>80.776473999023</ele>
        <time>2014-01-11T10:18:26.000Z</time>
      </trkpt>
      <trkpt lat="49.4598" lon="0.9638">
        <ele>80.685127258301</ele>
        <time>2014-01-11T10:18:31.000Z</time>
      </trkpt>
      <trkpt lat="49.45987" lon="0.96371">
        <ele>80.667617797852</ele>
        <time>2014-01-11T10:18:34.000Z</time>
      </trkpt>
      <trkpt lat="49.45996" lon="0.9636">
        <ele>80.890785217285</ele>
        <time>2014-01-11T10:18:39.000Z</time>
      </trkpt>
      <trkpt lat="49.45999" lon="0.96356">
        <ele>81.167625427246</ele>
        <time>2014-01-11T10:18:41.000Z</time>
      </trkpt>
      <trkpt lat="49.46006" lon="0.9635">
        <ele>81.548057556152</ele>
        <time>2014-01-11T10:18:45.000Z</time>
      </trkpt>
      <trkpt lat="49.46011" lon="0.96345">
        <ele>81.966491699219</ele>
        <time>2014-01-11T10:18:48.000Z</time>
      </trkpt>
      <trkpt lat="49.46016" lon="0.96342">
        <ele>82.402114868164</ele>
        <time>2014-01-11T10:18:51.000Z</time>
      </trkpt>
      <trkpt lat="49.46018" lon="0.96341">
        <ele>82.749374389648</ele>
        <time>2014-01-11T10:18:54.000Z</time>
      </trkpt>
      <trkpt lat="49.46027" lon="0.96338">
        <ele>83.178970336914</ele>
        <time>2014-01-11T10:18:57.000Z</time>
      </trkpt>
      <trkpt lat="49.46035" lon="0.96334">
        <ele>83.624488830566</ele>
        <time>2014-01-11T10:19:00.000Z</time>
      </trkpt>
      <trkpt lat="49.4604" lon="0.96331">
        <ele>83.986145019531</ele>
        <time>2014-01-11T10:19:02.000Z</time>
      </trkpt>
      <trkpt lat="49.46043" lon="0.96329">
        <ele>84.252029418945</ele>
        <time>2014-01-11T10:19:04.000Z</time>
      </trkpt>
      <trkpt lat="49.46055" lon="0.96323">
        <ele>84.487350463867</ele>
        <time>2014-01-11T10:19:08.000Z</time>
      </trkpt>
      <trkpt lat="49.46059" lon="0.96322">
        <ele>84.605972290039</ele>
        <time>2014-01-11T10:19:10.000Z</time>
      </trkpt>
      <trkpt lat="49.46065" lon="0.96319">
        <ele>84.619682312012</ele>
        <time>2014-01-11T10:19:13.000Z</time>
      </trkpt>
      <trkpt lat="49.46071" lon="0.96317">
        <ele>84.65682220459</ele>
        <time>2014-01-11T10:19:16.000Z</time>
      </trkpt>
      <trkpt lat="49.46073" lon="0.96316">
        <ele>84.721687316895</ele>
        <time>2014-01-11T10:19:18.000Z</time>
      </trkpt>
      <trkpt lat="49.46087" lon="0.96308">
        <ele>84.852966308594</ele>
        <time>2014-01-11T10:19:26.000Z</time>
      </trkpt>
      <trkpt lat="49.46093" lon="0.96305">
        <ele>85.048446655273</ele>
        <time>2014-01-11T10:19:29.000Z</time>
      </trkpt>
      <trkpt lat="49.46097" lon="0.96303">
        <ele>85.282958984375</ele>
        <time>2014-01-11T10:19:31.000Z</time>
      </trkpt>
      <trkpt lat="49.46104" lon="0.96301">
        <ele>85.609580993652</ele>
        <time>2014-01-11T10:19:34.000Z</time>
      </trkpt>
      <trkpt lat="49.4611" lon="0.96299">
        <ele>86.02188873291</ele>
        <time>2014-01-11T10:19:37.000Z</time>
      </trkpt>
      <trkpt lat="49.46122" lon="0.96295">
        <ele>86.578201293945</ele>
        <time>2014-01-11T10:19:40.000Z</time>
      </trkpt>
      <trkpt lat="49.46129" lon="0.96292">
        <ele>87.198204040527</ele>
        <time>2014-01-11T10:19:43.000Z</time>
      </trkpt>
      <trkpt lat="49.46134" lon="0.96291">
        <ele>87.870277404785</ele>
        <time>2014-01-11T10:19:46.000Z</time>
      </trkpt>
      <trkpt lat="49.4614" lon="0.96289">
        <ele>88.555976867676</ele>
        <time>2014-01-11T10:19:49.000Z</time>
      </trkpt>
      <trkpt lat="49.46155" lon="0.96284">
        <ele>89.48624420166</ele>
        <time>2014-01-11T10:19:56.000Z</time>
      </trkpt>
      <trkpt lat="49.46163" lon="0.96281">
        <ele>90.406105041504</ele>
        <time>2014-01-11T10:19:59.000Z</time>
      </trkpt>
      <trkpt lat="49.46172" lon="0.96278">
        <ele>91.476516723633</ele>
        <time>2014-01-11T10:20:03.000Z</time>
      </trkpt>
      <trkpt lat="49.46177" lon="0.96277">
        <ele>92.591720581055</ele>
        <time>2014-01-11T10:20:05.000Z</time>
      </trkpt>
      <trkpt lat="49.46183" lon="0.96276">
        <ele>93.824440002441</ele>
        <time>2014-01-11T10:20:08.000Z</time>
      </trkpt>
      <trkpt lat="49.46189" lon="0.96276">
        <ele>94.947372436523</ele>
        <time>2014-01-11T10:20:11.000Z</time>
      </trkpt>
      <trkpt lat="49.46194" lon="0.96276">
        <ele>96.09033203125</ele>
        <time>2014-01-11T10:20:14.000Z</time>
      </trkpt>
      <trkpt lat="49.46204" lon="0.96275">
        <ele>97.309555053711</ele>
        <time>2014-01-11T10:20:20.000Z</time>
      </trkpt>
      <trkpt lat="49.46207" lon="0.96275">
        <ele>98.483360290527</ele>
        <time>2014-01-11T10:20:22.000Z</time>
      </trkpt>
      <trkpt lat="49.46212" lon="0.96276">
        <ele>99.594078063965</ele>
        <time>2014-01-11T10:20:25.000Z</time>
      </trkpt>
      <trkpt lat="49.46213" lon="0.96275">
        <ele>100.50499725342</ele>
        <time>2014-01-11T10:20:28.000Z</time>
      </trkpt>
      <trkpt lat="49.46214" lon="0.96274">
        <ele>101.22266387939</ele>
        <time>2014-01-11T10:20:35.000Z</time>
      </trkpt>
      <trkpt lat="49.46213" lon="0.96273">
        <ele>101.54420471191</ele>
        <time>2014-01-11T10:20:41.000Z</time>
      </trkpt>
      <trkpt lat="49.46214" lon="0.96273">
        <ele>101.80303955078</ele>
        <time>2014-01-11T10:20:46.000Z</time>
      </trkpt>
      <trkpt lat="49.46215" lon="0.96274">
        <ele>101.9366607666</ele>
        <time>2014-01-11T10:20:48.000Z</time>
      </trkpt>
      <trkpt lat="49.46225" lon="0.96277">
        <ele>102.38551330566</ele>
        <time>2014-01-11T10:20:56.000Z</time>
      </trkpt>
      <trkpt lat="49.46227" lon="0.96278">
        <ele>102.86881256104</ele>
        <time>2014-01-11T10:20:59.000Z</time>
      </trkpt>
      <trkpt lat="49.46235" lon="0.96281">
        <ele>103.66109466553</ele>
        <time>2014-01-11T10:21:02.000Z</time>
      </trkpt>
      <trkpt lat="49.46237" lon="0.96281">
        <ele>104.47966003418</ele>
        <time>2014-01-11T10:21:05.000Z</time>
      </trkpt>
      <trkpt lat="49.46244" lon="0.96283">
        <ele>105.47751617432</ele>
        <time>2014-01-11T10:21:08.000Z</time>
      </trkpt>
      <trkpt lat="49.46248" lon="0.96285">
        <ele>106.26462554932</ele>
        <time>2014-01-11T10:21:15.000Z</time>
      </trkpt>
      <trkpt lat="49.46249" lon="0.96286">
        <ele>107.01531982422</ele>
        <time>2014-01-11T10:21:21.000Z</time>
      </trkpt>
      <trkpt lat="49.46249" lon="0.96287">
        <ele>107.46862792969</ele>
        <time>2014-01-11T10:21:30.000Z</time>
      </trkpt>
      <trkpt lat="49.46249" lon="0.96286">
        <ele>107.87977600098</ele>
        <time>2014-01-11T10:21:51.000Z</time>
      </trkpt>
      <trkpt lat="49.46249" lon="0.96284">
        <ele>108.07106018066</ele>
        <time>2014-01-11T10:22:07.000Z</time>
      </trkpt>
      <trkpt lat="49.46251" lon="0.96285">
        <ele>108.15993499756</ele>
        <time>2014-01-11T10:22:12.000Z</time>
      </trkpt>
      <trkpt lat="49.46252" lon="0.96286">
        <ele>108.25710296631</ele>
        <time>2014-01-11T10:22:15.000Z</time>
      </trkpt>
      <trkpt lat="49.46253" lon="0.96286">
        <ele>108.40090179443</ele>
        <time>2014-01-11T10:22:17.000Z</time>
      </trkpt>
      <trkpt lat="49.46254" lon="0.96287">
        <ele>108.56077575684</ele>
        <time>2014-01-11T10:22:19.000Z</time>
      </trkpt>
      <trkpt lat="49.46256" lon="0.96288">
        <ele>108.74417877197</ele>
        <time>2014-01-11T10:22:22.000Z</time>
      </trkpt>
      <trkpt lat="49.46265" lon="0.96293">
        <ele>109.12690734863</ele>
        <time>2014-01-11T10:22:33.000Z</time>
      </trkpt>
      <trkpt lat="49.46266" lon="0.96294">
        <ele>109.52662658691</ele>
        <time>2014-01-11T10:22:35.000Z</time>
      </trkpt>
      <trkpt lat="49.46269" lon="0.96295">
        <ele>109.96295166016</ele>
        <time>2014-01-11T10:22:38.000Z</time>
      </trkpt>
      <trkpt lat="49.4627" lon="0.96296">
        <ele>110.40041351318</ele>
        <time>2014-01-11T10:22:40.000Z</time>
      </trkpt>
      <trkpt lat="49.46275" lon="0.96296">
        <ele>110.9282989502</ele>
        <time>2014-01-11T10:22:54.000Z</time>
      </trkpt>
      <trkpt lat="49.46275" lon="0.96295">
        <ele>111.25826263428</ele>
        <time>2014-01-11T10:22:55.000Z</time>
      </trkpt>
      <trkpt lat="49.46277" lon="0.96295">
        <ele>111.59214019775</ele>
        <time>2014-01-11T10:23:07.000Z</time>
      </trkpt>
      <trkpt lat="49.46286" lon="0.963">
        <ele>112.12141418457</ele>
        <time>2014-01-11T10:23:23.000Z</time>
      </trkpt>
      <trkpt lat="49.46288" lon="0.96302">
        <ele>112.67158508301</ele>
        <time>2014-01-11T10:23:27.000Z</time>
      </trkpt>
      <trkpt lat="49.46299" lon="0.96307">
        <ele>113.41660308838</ele>
        <time>2014-01-11T10:23:39.000Z</time>
      </trkpt>
      <trkpt lat="49.46302" lon="0.96307">
        <ele>114.2179107666</ele>
        <time>2014-01-11T10:23:41.000Z</time>
      </trkpt>
      <trkpt lat="49.46305" lon="0.96309">
        <ele>115.08420562744</ele>
        <time>2014-01-11T10:23:44.000Z</time>
      </trkpt>
      <trkpt lat="49.46307" lon="0.9631">
        <ele>115.72552490234</ele>
        <time>2014-01-11T10:23:47.000Z</time>
      </trkpt>
      <trkpt lat="49.4631" lon="0.96311">
        <ele>116.41844177246</ele>
        <time>2014-01-11T10:23:50.000Z</time>
      </trkpt>
      <trkpt lat="49.46312" lon="0.96311">
        <ele>116.83792877197</ele>
        <time>2014-01-11T10:23:53.000Z</time>
      </trkpt>
      <trkpt lat="49.46314" lon="0.96311">
        <ele>117.24731445312</ele>
        <time>2014-01-11T10:23:56.000Z</time>
      </trkpt>
      <trkpt lat="49.4632" lon="0.96312">
        <ele>117.71846008301</ele>
        <time>2014-01-11T10:24:00.000Z</time>
      </trkpt>
      <trkpt lat="49.46321" lon="0.96313">
        <ele>118.21903991699</ele>
        <time>2014-01-11T10:24:02.000Z</time>
      </trkpt>
      <trkpt lat="49.46321" lon="0.96313">
        <ele>118.21903991699</ele>
        <time>2014-01-11T10:24:22.000Z</time>
      </trkpt>
      <trkpt lat="49.46349" lon="0.96316">
        <ele>119.38203430176</ele>
        <time>2014-01-11T10:24:27.000Z</time>
      </trkpt>
      <trkpt lat="49.46362" lon="0.96317">
        <ele>120.80479431152</ele>
        <time>2014-01-11T10:24:36.000Z</time>
      </trkpt>
      <trkpt lat="49.46364" lon="0.96316">
        <ele>122.20796203613</ele>
        <time>2014-01-11T10:24:39.000Z</time>
      </trkpt>
      <trkpt lat="49.46364" lon="0.96316">
        <ele>122.20796203613</ele>
        <time>2014-01-11T10:24:59.000Z</time>
      </trkpt>
      <trkpt lat="49.46392" lon="0.96314">
        <ele>124.14597320557</ele>
        <time>2014-01-11T10:25:29.000Z</time>
      </trkpt>
      <trkpt lat="49.46392" lon="0.96314">
        <ele>124.14597320557</ele>
        <time>2014-01-11T10:25:49.000Z</time>
      </trkpt>
      <trkpt lat="49.46396" lon="0.9633">
        <ele>126.02601623535</ele>
        <time>2014-01-11T10:25:53.000Z</time>
      </trkpt>
      <trkpt lat="49.46397" lon="0.96328">
        <ele>127.16495513916</ele>
        <time>2014-01-11T10:25:56.000Z</time>
      </trkpt>
      <trkpt lat="49.46402" lon="0.96318">
        <ele>128.1630859375</ele>
        <time>2014-01-11T10:26:00.000Z</time>
      </trkpt>
      <trkpt lat="49.46402" lon="0.96316">
        <ele>129.11781311035</ele>
        <time>2014-01-11T10:26:03.000Z</time>
      </trkpt>
      <trkpt lat="49.46403" lon="0.96311">
        <ele>129.4154510498</ele>
        <time>2014-01-11T10:26:05.000Z</time>
      </trkpt>
      <trkpt lat="49.46404" lon="0.96307">
        <ele>129.75064086914</ele>
        <time>2014-01-11T10:26:08.000Z</time>
      </trkpt>
      <trkpt lat="49.46405" lon="0.96304">
        <ele>130.08456420898</ele>
        <time>2014-01-11T10:26:10.000Z</time>
      </trkpt>
      <trkpt lat="49.46405" lon="0.96302">
        <ele>130.26516723633</ele>
        <time>2014-01-11T10:26:12.000Z</time>
      </trkpt>
      <trkpt lat="49.46406" lon="0.96298">
        <ele>130.48501586914</ele>
        <time>2014-01-11T10:26:15.000Z</time>
      </trkpt>
      <trkpt lat="49.46407" lon="0.96297">
        <ele>130.67079162598</ele>
        <time>2014-01-11T10:26:17.000Z</time>
      </trkpt>
      <trkpt lat="49.46407" lon="0.96295">
        <ele>130.8298034668</ele>
        <time>2014-01-11T10:26:20.000Z</time>
      </trkpt>
      <trkpt lat="49.46406" lon="0.96293">
        <ele>130.94184875488</ele>
        <time>2014-01-11T10:26:26.000Z</time>
      </trkpt>
      <trkpt lat="49.46406" lon="0.96292">
        <ele>131.03335571289</ele>
        <time>2014-01-11T10:26:30.000Z</time>
      </trkpt>
      <trkpt lat="49.46404" lon="0.96289">
        <ele>131.04025268555</ele>
        <time>2014-01-11T10:26:39.000Z</time>
      </trkpt>
      <trkpt lat="49.46404" lon="0.9629">
        <ele>130.99649047852</ele>
        <time>2014-01-11T10:26:42.000Z</time>
      </trkpt>
      <trkpt lat="49.46403" lon="0.96289">
        <ele>130.92823791504</ele>
        <time>2014-01-11T10:26:52.000Z</time>
      </trkpt>
      <trkpt lat="49.46401" lon="0.96286">
        <ele>130.84257507324</ele>
        <time>2014-01-11T10:26:55.000Z</time>
      </trkpt>
      <trkpt lat="49.46393" lon="0.963">
        <ele>130.4637298584</ele>
        <time>2014-01-11T10:27:06.000Z</time>
      </trkpt>
      <trkpt lat="49.46393" lon="0.96306">
        <ele>130.07122802734</ele>
        <time>2014-01-11T10:27:09.000Z</time>
      </trkpt>
      <trkpt lat="49.46397" lon="0.96329">
        <ele>129.66288757324</ele>
        <time>2014-01-11T10:27:13.000Z</time>
      </trkpt>
      <trkpt lat="49.46399" lon="0.96336">
        <ele>129.25689697266</ele>
        <time>2014-01-11T10:27:15.000Z</time>
      </trkpt>
      <trkpt lat="49.46418" lon="0.96372">
        <ele>129.056640625</ele>
        <time>2014-01-11T10:27:26.000Z</time>
      </trkpt>
      <trkpt lat="49.46424" lon="0.96384">
        <ele>129.09048461914</ele>
        <time>2014-01-11T10:27:29.000Z</time>
      </trkpt>
      <trkpt lat="49.4643" lon="0.96395">
        <ele>129.11930847168</ele>
        <time>2014-01-11T10:27:32.000Z</time>
      </trkpt>
      <trkpt lat="49.46436" lon="0.96403">
        <ele>129.16540527344</ele>
        <time>2014-01-11T10:27:35.000Z</time>
      </trkpt>
      <trkpt lat="49.46445" lon="0.96414">
        <ele>129.1731262207</ele>
        <time>2014-01-11T10:27:39.000Z</time>
      </trkpt>
      <trkpt lat="49.46448" lon="0.96419">
        <ele>128.95866394043</ele>
        <time>2014-01-11T10:27:41.000Z</time>
      </trkpt>
      <trkpt lat="49.46456" lon="0.96431">
        <ele>128.65010070801</ele>
        <time>2014-01-11T10:27:44.000Z</time>
      </trkpt>
      <trkpt lat="49.46462" lon="0.96444">
        <ele>128.22732543945</ele>
        <time>2014-01-11T10:27:47.000Z</time>
      </trkpt>
      <trkpt lat="49.46464" lon="0.96448">
        <ele>127.78105163574</ele>
        <time>2014-01-11T10:27:49.000Z</time>
      </trkpt>
      <trkpt lat="49.46469" lon="0.96459">
        <ele>127.25777435303</ele>
        <time>2014-01-11T10:27:52.000Z</time>
      </trkpt>
      <trkpt lat="49.46486" lon="0.9649">
        <ele>126.505027771</ele>
        <time>2014-01-11T10:27:59.000Z</time>
      </trkpt>
      <trkpt lat="49.46495" lon="0.96509">
        <ele>125.70253753662</ele>
        <time>2014-01-11T10:28:02.000Z</time>
      </trkpt>
      <trkpt lat="49.46503" lon="0.96527">
        <ele>124.79960632324</ele>
        <time>2014-01-11T10:28:05.000Z</time>
      </trkpt>
      <trkpt lat="49.46513" lon="0.96545">
        <ele>123.6622467041</ele>
        <time>2014-01-11T10:28:08.000Z</time>
      </trkpt>
      <trkpt lat="49.46524" lon="0.96563">
        <ele>122.34322357178</ele>
        <time>2014-01-11T10:28:11.000Z</time>
      </trkpt>
      <trkpt lat="49.46531" lon="0.96573">
        <ele>121.12819671631</ele>
        <time>2014-01-11T10:28:13.000Z</time>
      </trkpt>
      <trkpt lat="49.46543" lon="0.96591">
        <ele>119.81168365479</ele>
        <time>2014-01-11T10:28:16.000Z</time>
      </trkpt>
      <trkpt lat="49.46553" lon="0.96608">
        <ele>118.48946380615</ele>
        <time>2014-01-11T10:28:19.000Z</time>
      </trkpt>
      <trkpt lat="49.4656" lon="0.96619">
        <ele>117.29292297363</ele>
        <time>2014-01-11T10:28:21.000Z</time>
      </trkpt>
      <trkpt lat="49.46565" lon="0.9663">
        <ele>116.23960113525</ele>
        <time>2014-01-11T10:28:23.000Z</time>
      </trkpt>
      <trkpt lat="49.46571" lon="0.96644">
        <ele>115.15818023682</ele>
        <time>2014-01-11T10:28:26.000Z</time>
      </trkpt>
      <trkpt lat="49.46575" lon="0.96652">
        <ele>114.27010345459</ele>
        <time>2014-01-11T10:28:28.000Z</time>
      </trkpt>
      <trkpt lat="49.46578" lon="0.96662">
        <ele>113.51875305176</ele>
        <time>2014-01-11T10:28:31.000Z</time>
      </trkpt>
      <trkpt lat="49.46581" lon="0.96668">
        <ele>112.81153869629</ele>
        <time>2014-01-11T10:28:34.000Z</time>
      </trkpt>
      <trkpt lat="49.46586" lon="0.96675">
        <ele>112.01164245605</ele>
        <time>2014-01-11T10:28:38.000Z</time>
      </trkpt>
      <trkpt lat="49.46589" lon="0.96679">
        <ele>111.27337646484</ele>
        <time>2014-01-11T10:28:40.000Z</time>
      </trkpt>
      <trkpt lat="49.46593" lon="0.96681">
        <ele>110.5291519165</ele>
        <time>2014-01-11T10:28:43.000Z</time>
      </trkpt>
      <trkpt lat="49.46597" lon="0.96682">
        <ele>109.85150146484</ele>
        <time>2014-01-11T10:28:46.000Z</time>
      </trkpt>
      <trkpt lat="49.46602" lon="0.96679">
        <ele>109.35776519775</ele>
        <time>2014-01-11T10:28:49.000Z</time>
      </trkpt>
      <trkpt lat="49.46607" lon="0.96675">
        <ele>109.20159912109</ele>
        <time>2014-01-11T10:28:52.000Z</time>
      </trkpt>
      <trkpt lat="49.46614" lon="0.9667">
        <ele>109.27712249756</ele>
        <time>2014-01-11T10:28:55.000Z</time>
      </trkpt>
      <trkpt lat="49.46618" lon="0.96667">
        <ele>109.53281402588</ele>
        <time>2014-01-11T10:28:57.000Z</time>
      </trkpt>
      <trkpt lat="49.46623" lon="0.96663">
        <ele>109.88846588135</ele>
        <time>2014-01-11T10:29:00.000Z</time>
      </trkpt>
      <trkpt lat="49.46626" lon="0.96661">
        <ele>110.19013977051</ele>
        <time>2014-01-11T10:29:02.000Z</time>
      </trkpt>
      <trkpt lat="49.4663" lon="0.96658">
        <ele>110.42024993896</ele>
        <time>2014-01-11T10:29:05.000Z</time>
      </trkpt>
      <trkpt lat="49.46635" lon="0.96655">
        <ele>110.5645980835</ele>
        <time>2014-01-11T10:29:08.000Z</time>
      </trkpt>
      <trkpt lat="49.46639" lon="0.96653">
        <ele>110.64776611328</ele>
        <time>2014-01-11T10:29:11.000Z</time>
      </trkpt>
      <trkpt lat="49.46644" lon="0.96651">
        <ele>110.7060546875</ele>
        <time>2014-01-11T10:29:14.000Z</time>
      </trkpt>
      <trkpt lat="49.46648" lon="0.96652">
        <ele>110.70446777344</ele>
        <time>2014-01-11T10:29:22.000Z</time>
      </trkpt>
      <trkpt lat="49.46647" lon="0.96656">
        <ele>110.59907531738</ele>
        <time>2014-01-11T10:29:25.000Z</time>
      </trkpt>
      <trkpt lat="49.46646" lon="0.96658">
        <ele>110.4317855835</ele>
        <time>2014-01-11T10:29:28.000Z</time>
      </trkpt>
      <trkpt lat="49.46646" lon="0.96658">
        <ele>110.4317855835</ele>
        <time>2014-01-11T10:29:48.000Z</time>
      </trkpt>
      <trkpt lat="49.46645" lon="0.96658">
        <ele>110.27457427979</ele>
        <time>2014-01-11T10:29:50.000Z</time>
      </trkpt>
      <trkpt lat="49.46646" lon="0.96657">
        <ele>110.12204742432</ele>
        <time>2014-01-11T10:29:53.000Z</time>
      </trkpt>
      <trkpt lat="49.46666" lon="0.96642">
        <ele>110.2091293335</ele>
        <time>2014-01-11T10:30:03.000Z</time>
      </trkpt>
      <trkpt lat="49.46669" lon="0.9664">
        <ele>110.38967132568</ele>
        <time>2014-01-11T10:30:05.000Z</time>
      </trkpt>
      <trkpt lat="49.46697" lon="0.96624">
        <ele>110.58862304688</ele>
        <time>2014-01-11T10:30:17.000Z</time>
      </trkpt>
      <trkpt lat="49.46713" lon="0.96591">
        <ele>110.98600006104</ele>
        <time>2014-01-11T10:30:29.000Z</time>
      </trkpt>
      <trkpt lat="49.46712" lon="0.96596">
        <ele>111.31944274902</ele>
        <time>2014-01-11T10:30:33.000Z</time>
      </trkpt>
      <trkpt lat="49.4671" lon="0.96604">
        <ele>111.38053894043</ele>
        <time>2014-01-11T10:30:35.000Z</time>
      </trkpt>
      <trkpt lat="49.46707" lon="0.9662">
        <ele>111.26484680176</ele>
        <time>2014-01-11T10:30:38.000Z</time>
      </trkpt>
      <trkpt lat="49.46703" lon="0.96638">
        <ele>110.95805358887</ele>
        <time>2014-01-11T10:30:41.000Z</time>
      </trkpt>
      <trkpt lat="49.4669" lon="0.96656">
        <ele>110.25578308105</ele>
        <time>2014-01-11T10:30:44.000Z</time>
      </trkpt>
      <trkpt lat="49.46684" lon="0.96673">
        <ele>109.34175109863</ele>
        <time>2014-01-11T10:30:47.000Z</time>
      </trkpt>
      <trkpt lat="49.46679" lon="0.96688">
        <ele>108.27707672119</ele>
        <time>2014-01-11T10:30:50.000Z</time>
      </trkpt>
      <trkpt lat="49.46672" lon="0.96704">
        <ele>107.08060455322</ele>
        <time>2014-01-11T10:30:53.000Z</time>
      </trkpt>
      <trkpt lat="49.46665" lon="0.96714">
        <ele>105.90110015869</ele>
        <time>2014-01-11T10:30:56.000Z</time>
      </trkpt>
      <trkpt lat="49.46664" lon="0.96718">
        <ele>104.82710266113</ele>
        <time>2014-01-11T10:30:59.000Z</time>
      </trkpt>
      <trkpt lat="49.46656" lon="0.96758">
        <ele>103.25659179688</ele>
        <time>2014-01-11T10:31:16.000Z</time>
      </trkpt>
      <trkpt lat="49.46656" lon="0.96758">
        <ele>103.25659179688</ele>
        <time>2014-01-11T10:31:36.000Z</time>
      </trkpt>
      <trkpt lat="49.46642" lon="0.96793">
        <ele>101.26969146729</ele>
        <time>2014-01-11T10:31:45.000Z</time>
      </trkpt>
      <trkpt lat="49.46622" lon="0.96824">
        <ele>98.443771362305</ele>
        <time>2014-01-11T10:32:05.000Z</time>
      </trkpt>
      <trkpt lat="49.4662" lon="0.96858">
        <ele>95.43155670166</ele>
        <time>2014-01-11T10:32:18.000Z</time>
      </trkpt>
      <trkpt lat="49.46629" lon="0.96895">
        <ele>92.710716247559</ele>
        <time>2014-01-11T10:32:45.000Z</time>
      </trkpt>
      <trkpt lat="49.46629" lon="0.96895">
        <ele>92.710716247559</ele>
        <time>2014-01-11T10:33:05.000Z</time>
      </trkpt>
      <trkpt lat="49.46629" lon="0.96939">
        <ele>90.558204650879</ele>
        <time>2014-01-11T10:33:26.000Z</time>
      </trkpt>
      <trkpt lat="49.46627" lon="0.96985">
        <ele>88.729797363281</ele>
        <time>2014-01-11T10:33:47.000Z</time>
      </trkpt>
      <trkpt lat="49.46625" lon="0.97">
        <ele>87.865592956543</ele>
        <time>2014-01-11T10:33:53.000Z</time>
      </trkpt>
      <trkpt lat="49.46625" lon="0.97002">
        <ele>87.380714416504</ele>
        <time>2014-01-11T10:33:56.000Z</time>
      </trkpt>
      <trkpt lat="49.46624" lon="0.97009">
        <ele>86.594863891602</ele>
        <time>2014-01-11T10:34:01.000Z</time>
      </trkpt>
      <trkpt lat="49.46624" lon="0.97011">
        <ele>85.958274841309</ele>
        <time>2014-01-11T10:34:04.000Z</time>
      </trkpt>
      <trkpt lat="49.46624" lon="0.97011">
        <ele>85.958274841309</ele>
        <time>2014-01-11T10:34:24.000Z</time>
      </trkpt>
      <trkpt lat="49.46624" lon="0.97032">
        <ele>85.513160705566</ele>
        <time>2014-01-11T10:34:44.000Z</time>
      </trkpt>
      <trkpt lat="49.46625" lon="0.97032">
        <ele>85.296920776367</ele>
        <time>2014-01-11T10:34:48.000Z</time>
      </trkpt>
      <trkpt lat="49.46626" lon="0.97033">
        <ele>85.13826751709</ele>
        <time>2014-01-11T10:34:50.000Z</time>
      </trkpt>
      <trkpt lat="49.46626" lon="0.97035">
        <ele>85.111953735352</ele>
        <time>2014-01-11T10:34:55.000Z</time>
      </trkpt>
      <trkpt lat="49.46626" lon="0.97035">
        <ele>85.111953735352</ele>
        <time>2014-01-11T10:35:15.000Z</time>
      </trkpt>
      <trkpt lat="49.46626" lon="0.97038">
        <ele>85.105461120605</ele>
        <time>2014-01-11T10:35:22.000Z</time>
      </trkpt>
      <trkpt lat="49.46626" lon="0.9704">
        <ele>85.218711853027</ele>
        <time>2014-01-11T10:35:24.000Z</time>
      </trkpt>
      <trkpt lat="49.46621" lon="0.97066">
        <ele>84.763496398926</ele>
        <time>2014-01-11T10:35:28.000Z</time>
      </trkpt>
      <trkpt lat="49.46617" lon="0.97079">
        <ele>83.901206970215</ele>
        <time>2014-01-11T10:35:30.000Z</time>
      </trkpt>
      <trkpt lat="49.46614" lon="0.97089">
        <ele>82.779884338379</ele>
        <time>2014-01-11T10:35:32.000Z</time>
      </trkpt>
      <trkpt lat="49.46609" lon="0.97101">
        <ele>81.424514770508</ele>
        <time>2014-01-11T10:35:35.000Z</time>
      </trkpt>
      <trkpt lat="49.46603" lon="0.97113">
        <ele>79.773109436035</ele>
        <time>2014-01-11T10:35:38.000Z</time>
      </trkpt>
      <trkpt lat="49.46598" lon="0.97126">
        <ele>78.385009765625</ele>
        <time>2014-01-11T10:35:41.000Z</time>
      </trkpt>
      <trkpt lat="49.46595" lon="0.97134">
        <ele>77.221054077148</ele>
        <time>2014-01-11T10:35:43.000Z</time>
      </trkpt>
      <trkpt lat="49.46591" lon="0.97147">
        <ele>76.055068969727</ele>
        <time>2014-01-11T10:35:46.000Z</time>
      </trkpt>
      <trkpt lat="49.46587" lon="0.97161">
        <ele>74.928115844727</ele>
        <time>2014-01-11T10:35:49.000Z</time>
      </trkpt>
      <trkpt lat="49.46582" lon="0.97175">
        <ele>74.015953063965</ele>
        <time>2014-01-11T10:35:52.000Z</time>
      </trkpt>
      <trkpt lat="49.46578" lon="0.97191">
        <ele>73.451271057129</ele>
        <time>2014-01-11T10:35:55.000Z</time>
      </trkpt>
      <trkpt lat="49.46575" lon="0.97208">
        <ele>73.139587402344</ele>
        <time>2014-01-11T10:35:58.000Z</time>
      </trkpt>
      <trkpt lat="49.46573" lon="0.97228">
        <ele>73.223777770996</ele>
        <time>2014-01-11T10:36:01.000Z</time>
      </trkpt>
      <trkpt lat="49.46575" lon="0.97242">
        <ele>73.768257141113</ele>
        <time>2014-01-11T10:36:03.000Z</time>
      </trkpt>
      <trkpt lat="49.46577" lon="0.97256">
        <ele>74.579055786133</ele>
        <time>2014-01-11T10:36:05.000Z</time>
      </trkpt>
      <trkpt lat="49.46585" lon="0.97277">
        <ele>75.432273864746</ele>
        <time>2014-01-11T10:36:08.000Z</time>
      </trkpt>
      <trkpt lat="49.46592" lon="0.9729">
        <ele>76.314590454102</ele>
        <time>2014-01-11T10:36:10.000Z</time>
      </trkpt>
      <trkpt lat="49.46601" lon="0.97304">
        <ele>77.28035736084</ele>
        <time>2014-01-11T10:36:13.000Z</time>
      </trkpt>
      <trkpt lat="49.46612" lon="0.97315">
        <ele>78.274375915527</ele>
        <time>2014-01-11T10:36:16.000Z</time>
      </trkpt>
      <trkpt lat="49.46621" lon="0.97322">
        <ele>79.360275268555</ele>
        <time>2014-01-11T10:36:19.000Z</time>
      </trkpt>
      <trkpt lat="49.46629" lon="0.97327">
        <ele>80.50577545166</ele>
        <time>2014-01-11T10:36:22.000Z</time>
      </trkpt>
      <trkpt lat="49.46635" lon="0.9733">
        <ele>81.65837097168</ele>
        <time>2014-01-11T10:36:24.000Z</time>
      </trkpt>
      <trkpt lat="49.4664" lon="0.97332">
        <ele>82.692962646484</ele>
        <time>2014-01-11T10:36:26.000Z</time>
      </trkpt>
      <trkpt lat="49.46645" lon="0.97333">
        <ele>83.61661529541</ele>
        <time>2014-01-11T10:36:28.000Z</time>
      </trkpt>
      <trkpt lat="49.4665" lon="0.97333">
        <ele>84.43448638916</ele>
        <time>2014-01-11T10:36:32.000Z</time>
      </trkpt>
      <trkpt lat="49.46653" lon="0.97334">
        <ele>85.130767822266</ele>
        <time>2014-01-11T10:36:34.000Z</time>
      </trkpt>
      <trkpt lat="49.46655" lon="0.97334">
        <ele>85.735244750977</ele>
        <time>2014-01-11T10:36:37.000Z</time>
      </trkpt>
      <trkpt lat="49.46664" lon="0.97335">
        <ele>86.479965209961</ele>
        <time>2014-01-11T10:36:40.000Z</time>
      </trkpt>
      <trkpt lat="49.46668" lon="0.97336">
        <ele>87.166778564453</ele>
        <time>2014-01-11T10:36:42.000Z</time>
      </trkpt>
      <trkpt lat="49.46672" lon="0.97337">
        <ele>87.78483581543</ele>
        <time>2014-01-11T10:36:44.000Z</time>
      </trkpt>
      <trkpt lat="49.46675" lon="0.97338">
        <ele>88.396774291992</ele>
        <time>2014-01-11T10:36:47.000Z</time>
      </trkpt>
      <trkpt lat="49.46683" lon="0.97341">
        <ele>89.06787109375</ele>
        <time>2014-01-11T10:36:50.000Z</time>
      </trkpt>
      <trkpt lat="49.46689" lon="0.97343">
        <ele>89.54541015625</ele>
        <time>2014-01-11T10:36:53.000Z</time>
      </trkpt>
      <trkpt lat="49.46693" lon="0.97345">
        <ele>89.983726501465</ele>
        <time>2014-01-11T10:36:56.000Z</time>
      </trkpt>
      <trkpt lat="49.46704" lon="0.97352">
        <ele>90.433837890625</ele>
        <time>2014-01-11T10:37:01.000Z</time>
      </trkpt>
      <trkpt lat="49.46708" lon="0.97355">
        <ele>90.84268951416</ele>
        <time>2014-01-11T10:37:04.000Z</time>
      </trkpt>
      <trkpt lat="49.46711" lon="0.97356">
        <ele>91.173629760742</ele>
        <time>2014-01-11T10:37:07.000Z</time>
      </trkpt>
      <trkpt lat="49.46716" lon="0.97359">
        <ele>91.474075317383</ele>
        <time>2014-01-11T10:37:10.000Z</time>
      </trkpt>
      <trkpt lat="49.46719" lon="0.9736">
        <ele>91.764472961426</ele>
        <time>2014-01-11T10:37:13.000Z</time>
      </trkpt>
      <trkpt lat="49.4672" lon="0.97361">
        <ele>91.966377258301</ele>
        <time>2014-01-11T10:37:15.000Z</time>
      </trkpt>
      <trkpt lat="49.46722" lon="0.97362">
        <ele>92.172409057617</ele>
        <time>2014-01-11T10:37:18.000Z</time>
      </trkpt>
      <trkpt lat="49.46725" lon="0.97363">
        <ele>92.388168334961</ele>
        <time>2014-01-11T10:37:21.000Z</time>
      </trkpt>
      <trkpt lat="49.46726" lon="0.97363">
        <ele>92.568664550781</ele>
        <time>2014-01-11T10:37:24.000Z</time>
      </trkpt>
      <trkpt lat="49.46727" lon="0.97364">
        <ele>92.710800170898</ele>
        <time>2014-01-11T10:37:26.000Z</time>
      </trkpt>
      <trkpt lat="49.4673" lon="0.97366">
        <ele>92.848831176758</ele>
        <time>2014-01-11T10:37:29.000Z</time>
      </trkpt>
      <trkpt lat="49.46732" lon="0.97368">
        <ele>92.952598571777</ele>
        <time>2014-01-11T10:37:31.000Z</time>
      </trkpt>
      <trkpt lat="49.46733" lon="0.9737">
        <ele>92.973831176758</ele>
        <time>2014-01-11T10:37:33.000Z</time>
      </trkpt>
      <trkpt lat="49.46737" lon="0.97374">
        <ele>92.919540405273</ele>
        <time>2014-01-11T10:37:36.000Z</time>
      </trkpt>
      <trkpt lat="49.4674" lon="0.97379">
        <ele>92.777610778809</ele>
        <time>2014-01-11T10:37:39.000Z</time>
      </trkpt>
      <trkpt lat="49.46742" lon="0.97384">
        <ele>92.544357299805</ele>
        <time>2014-01-11T10:37:42.000Z</time>
      </trkpt>
      <trkpt lat="49.46745" lon="0.97387">
        <ele>92.25617980957</ele>
        <time>2014-01-11T10:37:44.000Z</time>
      </trkpt>
      <trkpt lat="49.46748" lon="0.97393">
        <ele>91.904479980469</ele>
        <time>2014-01-11T10:37:47.000Z</time>
      </trkpt>
      <trkpt lat="49.4675" lon="0.97399">
        <ele>91.472457885742</ele>
        <time>2014-01-11T10:37:50.000Z</time>
      </trkpt>
      <trkpt lat="49.46753" lon="0.97403">
        <ele>91.099411010742</ele>
        <time>2014-01-11T10:37:52.000Z</time>
      </trkpt>
      <trkpt lat="49.46756" lon="0.9741">
        <ele>90.761962890625</ele>
        <time>2014-01-11T10:37:55.000Z</time>
      </trkpt>
      <trkpt lat="49.46758" lon="0.97416">
        <ele>90.390426635742</ele>
        <time>2014-01-11T10:37:58.000Z</time>
      </trkpt>
      <trkpt lat="49.46761" lon="0.97423">
        <ele>90.129898071289</ele>
        <time>2014-01-11T10:38:01.000Z</time>
      </trkpt>
      <trkpt lat="49.46763" lon="0.97427">
        <ele>89.987380981445</ele>
        <time>2014-01-11T10:38:03.000Z</time>
      </trkpt>
      <trkpt lat="49.46765" lon="0.97431">
        <ele>89.866264343262</ele>
        <time>2014-01-11T10:38:05.000Z</time>
      </trkpt>
      <trkpt lat="49.46768" lon="0.97438">
        <ele>89.816444396973</ele>
        <time>2014-01-11T10:38:08.000Z</time>
      </trkpt>
      <trkpt lat="49.46771" lon="0.97444">
        <ele>89.824401855469</ele>
        <time>2014-01-11T10:38:11.000Z</time>
      </trkpt>
      <trkpt lat="49.46772" lon="0.97448">
        <ele>89.800415039062</ele>
        <time>2014-01-11T10:38:13.000Z</time>
      </trkpt>
      <trkpt lat="49.46774" lon="0.97453">
        <ele>89.778991699219</ele>
        <time>2014-01-11T10:38:15.000Z</time>
      </trkpt>
      <trkpt lat="49.46776" lon="0.97458">
        <ele>89.683959960938</ele>
        <time>2014-01-11T10:38:18.000Z</time>
      </trkpt>
      <trkpt lat="49.46777" lon="0.97464">
        <ele>89.496459960938</ele>
        <time>2014-01-11T10:38:21.000Z</time>
      </trkpt>
      <trkpt lat="49.46779" lon="0.9747">
        <ele>89.307495117188</ele>
        <time>2014-01-11T10:38:24.000Z</time>
      </trkpt>
      <trkpt lat="49.46781" lon="0.97475">
        <ele>89.095642089844</ele>
        <time>2014-01-11T10:38:27.000Z</time>
      </trkpt>
      <trkpt lat="49.46783" lon="0.9748">
        <ele>88.871154785156</ele>
        <time>2014-01-11T10:38:30.000Z</time>
      </trkpt>
      <trkpt lat="49.46784" lon="0.97485">
        <ele>88.669006347656</ele>
        <time>2014-01-11T10:38:32.000Z</time>
      </trkpt>
      <trkpt lat="49.46786" lon="0.97491">
        <ele>88.471435546875</ele>
        <time>2014-01-11T10:38:35.000Z</time>
      </trkpt>
      <trkpt lat="49.46788" lon="0.97496">
        <ele>88.284851074219</ele>
        <time>2014-01-11T10:38:37.000Z</time>
      </trkpt>
      <trkpt lat="49.46789" lon="0.975">
        <ele>88.0986328125</ele>
        <time>2014-01-11T10:38:39.000Z</time>
      </trkpt>
      <trkpt lat="49.46792" lon="0.97505">
        <ele>88.02693939209</ele>
        <time>2014-01-11T10:38:42.000Z</time>
      </trkpt>
      <trkpt lat="49.46795" lon="0.97511">
        <ele>88.061599731445</ele>
        <time>2014-01-11T10:38:45.000Z</time>
      </trkpt>
      <trkpt lat="49.46798" lon="0.97516">
        <ele>88.280174255371</ele>
        <time>2014-01-11T10:38:48.000Z</time>
      </trkpt>
      <trkpt lat="49.468" lon="0.97522">
        <ele>88.575218200684</ele>
        <time>2014-01-11T10:38:51.000Z</time>
      </trkpt>
      <trkpt lat="49.46803" lon="0.97528">
        <ele>88.99781036377</ele>
        <time>2014-01-11T10:38:54.000Z</time>
      </trkpt>
      <trkpt lat="49.46805" lon="0.97533">
        <ele>89.35026550293</ele>
        <time>2014-01-11T10:38:56.000Z</time>
      </trkpt>
      <trkpt lat="49.46808" lon="0.97541">
        <ele>89.678176879883</ele>
        <time>2014-01-11T10:38:59.000Z</time>
      </trkpt>
      <trkpt lat="49.4681" lon="0.97546">
        <ele>89.918014526367</ele>
        <time>2014-01-11T10:39:01.000Z</time>
      </trkpt>
      <trkpt lat="49.46812" lon="0.97554">
        <ele>90.085571289062</ele>
        <time>2014-01-11T10:39:04.000Z</time>
      </trkpt>
      <trkpt lat="49.46814" lon="0.97562">
        <ele>90.17610168457</ele>
        <time>2014-01-11T10:39:07.000Z</time>
      </trkpt>
      <trkpt lat="49.46817" lon="0.97569">
        <ele>90.283843994141</ele>
        <time>2014-01-11T10:39:10.000Z</time>
      </trkpt>
      <trkpt lat="49.46818" lon="0.97574">
        <ele>90.309844970703</ele>
        <time>2014-01-11T10:39:12.000Z</time>
      </trkpt>
      <trkpt lat="49.4682" lon="0.97582">
        <ele>90.281883239746</ele>
        <time>2014-01-11T10:39:15.000Z</time>
      </trkpt>
      <trkpt lat="49.46822" lon="0.97589">
        <ele>90.311363220215</ele>
        <time>2014-01-11T10:39:18.000Z</time>
      </trkpt>
      <trkpt lat="49.46823" lon="0.97596">
        <ele>90.317756652832</ele>
        <time>2014-01-11T10:39:21.000Z</time>
      </trkpt>
      <trkpt lat="49.46824" lon="0.97602">
        <ele>90.299911499023</ele>
        <time>2014-01-11T10:39:24.000Z</time>
      </trkpt>
      <trkpt lat="49.46825" lon="0.97607">
        <ele>90.349754333496</ele>
        <time>2014-01-11T10:39:26.000Z</time>
      </trkpt>
      <trkpt lat="49.46826" lon="0.97615">
        <ele>90.393775939941</ele>
        <time>2014-01-11T10:39:29.000Z</time>
      </trkpt>
      <trkpt lat="49.46828" lon="0.97623">
        <ele>90.421020507812</ele>
        <time>2014-01-11T10:39:32.000Z</time>
      </trkpt>
      <trkpt lat="49.4683" lon="0.97632">
        <ele>90.466667175293</ele>
        <time>2014-01-11T10:39:35.000Z</time>
      </trkpt>
      <trkpt lat="49.46831" lon="0.97639">
        <ele>90.509201049805</ele>
        <time>2014-01-11T10:39:37.000Z</time>
      </trkpt>
      <trkpt lat="49.46832" lon="0.97645">
        <ele>90.532470703125</ele>
        <time>2014-01-11T10:39:39.000Z</time>
      </trkpt>
      <trkpt lat="49.46833" lon="0.97653">
        <ele>90.59024810791</ele>
        <time>2014-01-11T10:39:42.000Z</time>
      </trkpt>
      <trkpt lat="49.46835" lon="0.97661">
        <ele>90.61792755127</ele>
        <time>2014-01-11T10:39:45.000Z</time>
      </trkpt>
      <trkpt lat="49.46837" lon="0.97669">
        <ele>90.618438720703</ele>
        <time>2014-01-11T10:39:48.000Z</time>
      </trkpt>
      <trkpt lat="49.46838" lon="0.97676">
        <ele>90.579734802246</ele>
        <time>2014-01-11T10:39:51.000Z</time>
      </trkpt>
      <trkpt lat="49.4684" lon="0.97682">
        <ele>90.525169372559</ele>
        <time>2014-01-11T10:39:54.000Z</time>
      </trkpt>
      <trkpt lat="49.46841" lon="0.97686">
        <ele>90.463768005371</ele>
        <time>2014-01-11T10:39:56.000Z</time>
      </trkpt>
      <trkpt lat="49.46842" lon="0.97688">
        <ele>90.389297485352</ele>
        <time>2014-01-11T10:40:01.000Z</time>
      </trkpt>
      <trkpt lat="49.46851" lon="0.97695">
        <ele>90.608680725098</ele>
        <time>2014-01-11T10:40:07.000Z</time>
      </trkpt>
      <trkpt lat="49.46848" lon="0.97699">
        <ele>90.666946411133</ele>
        <time>2014-01-11T10:40:16.000Z</time>
      </trkpt>
      <trkpt lat="49.46848" lon="0.97701">
        <ele>90.670822143555</ele>
        <time>2014-01-11T10:40:19.000Z</time>
      </trkpt>
      <trkpt lat="49.46849" lon="0.97711">
        <ele>90.576560974121</ele>
        <time>2014-01-11T10:40:27.000Z</time>
      </trkpt>
      <trkpt lat="49.46849" lon="0.97715">
        <ele>90.460655212402</ele>
        <time>2014-01-11T10:40:30.000Z</time>
      </trkpt>
      <trkpt lat="49.46849" lon="0.97722">
        <ele>89.95418548584</ele>
        <time>2014-01-11T10:40:40.000Z</time>
      </trkpt>
      <trkpt lat="49.4685" lon="0.97724">
        <ele>89.664283752441</ele>
        <time>2014-01-11T10:40:52.000Z</time>
      </trkpt>
      <trkpt lat="49.46851" lon="0.97726">
        <ele>89.457420349121</ele>
        <time>2014-01-11T10:40:54.000Z</time>
      </trkpt>
      <trkpt lat="49.46852" lon="0.97728">
        <ele>89.362075805664</ele>
        <time>2014-01-11T10:40:56.000Z</time>
      </trkpt>
      <trkpt lat="49.46854" lon="0.9773">
        <ele>89.327163696289</ele>
        <time>2014-01-11T10:40:58.000Z</time>
      </trkpt>
      <trkpt lat="49.46855" lon="0.97732">
        <ele>89.41569519043</ele>
        <time>2014-01-11T10:41:00.000Z</time>
      </trkpt>
      <trkpt lat="49.46857" lon="0.97737">
        <ele>89.503601074219</ele>
        <time>2014-01-11T10:41:03.000Z</time>
      </trkpt>
      <trkpt lat="49.4686" lon="0.97741">
        <ele>89.578094482422</ele>
        <time>2014-01-11T10:41:06.000Z</time>
      </trkpt>
      <trkpt lat="49.46863" lon="0.97746">
        <ele>89.689140319824</ele>
        <time>2014-01-11T10:41:09.000Z</time>
      </trkpt>
      <trkpt lat="49.46867" lon="0.9775">
        <ele>89.848976135254</ele>
        <time>2014-01-11T10:41:12.000Z</time>
      </trkpt>
      <trkpt lat="49.4687" lon="0.97753">
        <ele>90.048561096191</ele>
        <time>2014-01-11T10:41:14.000Z</time>
      </trkpt>
      <trkpt lat="49.46873" lon="0.97756">
        <ele>90.240547180176</ele>
        <time>2014-01-11T10:41:16.000Z</time>
      </trkpt>
      <trkpt lat="49.46878" lon="0.97763">
        <ele>90.44645690918</ele>
        <time>2014-01-11T10:41:19.000Z</time>
      </trkpt>
      <trkpt lat="49.46883" lon="0.97766">
        <ele>90.66828918457</ele>
        <time>2014-01-11T10:41:22.000Z</time>
      </trkpt>
      <trkpt lat="49.46886" lon="0.97767">
        <ele>90.913146972656</ele>
        <time>2014-01-11T10:41:25.000Z</time>
      </trkpt>
      <trkpt lat="49.46888" lon="0.97766">
        <ele>91.203590393066</ele>
        <time>2014-01-11T10:41:28.000Z</time>
      </trkpt>
      <trkpt lat="49.46889" lon="0.97766">
        <ele>91.520835876465</ele>
        <time>2014-01-11T10:41:30.000Z</time>
      </trkpt>
      <trkpt lat="49.46891" lon="0.97766">
        <ele>91.84489440918</ele>
        <time>2014-01-11T10:41:33.000Z</time>
      </trkpt>
      <trkpt lat="49.46897" lon="0.97766">
        <ele>92.320304870605</ele>
        <time>2014-01-11T10:41:38.000Z</time>
      </trkpt>
      <trkpt lat="49.46899" lon="0.97766">
        <ele>92.782119750977</ele>
        <time>2014-01-11T10:41:40.000Z</time>
      </trkpt>
      <trkpt lat="49.46904" lon="0.97767">
        <ele>93.300926208496</ele>
        <time>2014-01-11T10:41:43.000Z</time>
      </trkpt>
      <trkpt lat="49.46909" lon="0.97767">
        <ele>93.937355041504</ele>
        <time>2014-01-11T10:41:46.000Z</time>
      </trkpt>
      <trkpt lat="49.46914" lon="0.97767">
        <ele>94.721038818359</ele>
        <time>2014-01-11T10:41:49.000Z</time>
      </trkpt>
      <trkpt lat="49.46918" lon="0.97766">
        <ele>95.464431762695</ele>
        <time>2014-01-11T10:41:52.000Z</time>
      </trkpt>
      <trkpt lat="49.46923" lon="0.97766">
        <ele>96.281066894531</ele>
        <time>2014-01-11T10:41:55.000Z</time>
      </trkpt>
      <trkpt lat="49.46926" lon="0.97766">
        <ele>97.03832244873</ele>
        <time>2014-01-11T10:41:57.000Z</time>
      </trkpt>
      <trkpt lat="49.46928" lon="0.97766">
        <ele>97.705490112305</ele>
        <time>2014-01-11T10:41:59.000Z</time>
      </trkpt>
      <trkpt lat="49.46932" lon="0.97767">
        <ele>98.301200866699</ele>
        <time>2014-01-11T10:42:02.000Z</time>
      </trkpt>
      <trkpt lat="49.46935" lon="0.97767">
        <ele>98.751693725586</ele>
        <time>2014-01-11T10:42:04.000Z</time>
      </trkpt>
      <trkpt lat="49.46938" lon="0.97769">
        <ele>99.120750427246</ele>
        <time>2014-01-11T10:42:07.000Z</time>
      </trkpt>
      <trkpt lat="49.4694" lon="0.9777">
        <ele>99.403823852539</ele>
        <time>2014-01-11T10:42:09.000Z</time>
      </trkpt>
      <trkpt lat="49.46943" lon="0.97773">
        <ele>99.640525817871</ele>
        <time>2014-01-11T10:42:12.000Z</time>
      </trkpt>
      <trkpt lat="49.46946" lon="0.97776">
        <ele>99.76042175293</ele>
        <time>2014-01-11T10:42:15.000Z</time>
      </trkpt>
      <trkpt lat="49.46949" lon="0.97779">
        <ele>99.811027526855</ele>
        <time>2014-01-11T10:42:18.000Z</time>
      </trkpt>
      <trkpt lat="49.4695" lon="0.97781">
        <ele>99.784469604492</ele>
        <time>2014-01-11T10:42:21.000Z</time>
      </trkpt>
      <trkpt lat="49.46952" lon="0.97784">
        <ele>99.703903198242</ele>
        <time>2014-01-11T10:42:24.000Z</time>
      </trkpt>
      <trkpt lat="49.46953" lon="0.97786">
        <ele>99.565406799316</ele>
        <time>2014-01-11T10:42:29.000Z</time>
      </trkpt>
      <trkpt lat="49.46954" lon="0.97785">
        <ele>99.50163269043</ele>
        <time>2014-01-11T10:42:49.000Z</time>
      </trkpt>
      <trkpt lat="49.46956" lon="0.97787">
        <ele>99.471908569336</ele>
        <time>2014-01-11T10:42:56.000Z</time>
      </trkpt>
      <trkpt lat="49.46957" lon="0.97793">
        <ele>99.300170898438</ele>
        <time>2014-01-11T10:42:59.000Z</time>
      </trkpt>
      <trkpt lat="49.46959" lon="0.97801">
        <ele>98.957260131836</ele>
        <time>2014-01-11T10:43:01.000Z</time>
      </trkpt>
      <trkpt lat="49.46961" lon="0.97816">
        <ele>98.300590515137</ele>
        <time>2014-01-11T10:43:04.000Z</time>
      </trkpt>
      <trkpt lat="49.46965" lon="0.9783">
        <ele>97.250198364258</ele>
        <time>2014-01-11T10:43:07.000Z</time>
      </trkpt>
      <trkpt lat="49.46969" lon="0.97844">
        <ele>95.998878479004</ele>
        <time>2014-01-11T10:43:10.000Z</time>
      </trkpt>
      <trkpt lat="49.46973" lon="0.97859">
        <ele>94.693138122559</ele>
        <time>2014-01-11T10:43:13.000Z</time>
      </trkpt>
      <trkpt lat="49.46976" lon="0.9787">
        <ele>93.456153869629</ele>
        <time>2014-01-11T10:43:15.000Z</time>
      </trkpt>
      <trkpt lat="49.46981" lon="0.97886">
        <ele>92.374710083008</ele>
        <time>2014-01-11T10:43:18.000Z</time>
      </trkpt>
      <trkpt lat="49.46985" lon="0.97901">
        <ele>91.425979614258</ele>
        <time>2014-01-11T10:43:21.000Z</time>
      </trkpt>
      <trkpt lat="49.46988" lon="0.97918">
        <ele>90.386764526367</ele>
        <time>2014-01-11T10:43:24.000Z</time>
      </trkpt>
      <trkpt lat="49.46987" lon="0.97938">
        <ele>89.022415161133</ele>
        <time>2014-01-11T10:43:27.000Z</time>
      </trkpt>
      <trkpt lat="49.46987" lon="0.97963">
        <ele>87.221450805664</ele>
        <time>2014-01-11T10:43:30.000Z</time>
      </trkpt>
      <trkpt lat="49.46986" lon="0.97989">
        <ele>84.951812744141</ele>
        <time>2014-01-11T10:43:33.000Z</time>
      </trkpt>
      <trkpt lat="49.46985" lon="0.98013">
        <ele>82.318695068359</ele>
        <time>2014-01-11T10:43:36.000Z</time>
      </trkpt>
      <trkpt lat="49.46984" lon="0.98037">
        <ele>79.51123046875</ele>
        <time>2014-01-11T10:43:39.000Z</time>
      </trkpt>
      <trkpt lat="49.46983" lon="0.98059">
        <ele>76.832710266113</ele>
        <time>2014-01-11T10:43:42.000Z</time>
      </trkpt>
      <trkpt lat="49.46984" lon="0.98074">
        <ele>74.515823364258</ele>
        <time>2014-01-11T10:43:44.000Z</time>
      </trkpt>
      <trkpt lat="49.46987" lon="0.98094">
        <ele>72.750564575195</ele>
        <time>2014-01-11T10:43:47.000Z</time>
      </trkpt>
      <trkpt lat="49.46991" lon="0.98111">
        <ele>71.560134887695</ele>
        <time>2014-01-11T10:43:50.000Z</time>
      </trkpt>
      <trkpt lat="49.46994" lon="0.98118">
        <ele>70.847190856934</ele>
        <time>2014-01-11T10:43:52.000Z</time>
      </trkpt>
      <trkpt lat="49.46996" lon="0.98125">
        <ele>70.532562255859</ele>
        <time>2014-01-11T10:43:55.000Z</time>
      </trkpt>
      <trkpt lat="49.46999" lon="0.98139">
        <ele>70.397338867188</ele>
        <time>2014-01-11T10:43:58.000Z</time>
      </trkpt>
      <trkpt lat="49.47001" lon="0.98152">
        <ele>70.28515625</ele>
        <time>2014-01-11T10:44:01.000Z</time>
      </trkpt>
      <trkpt lat="49.47003" lon="0.98165">
        <ele>70.103065490723</ele>
        <time>2014-01-11T10:44:04.000Z</time>
      </trkpt>
      <trkpt lat="49.47004" lon="0.98174">
        <ele>69.880332946777</ele>
        <time>2014-01-11T10:44:06.000Z</time>
      </trkpt>
      <trkpt lat="49.47004" lon="0.98186">
        <ele>69.546463012695</ele>
        <time>2014-01-11T10:44:09.000Z</time>
      </trkpt>
      <trkpt lat="49.47002" lon="0.98195">
        <ele>69.145195007324</ele>
        <time>2014-01-11T10:44:11.000Z</time>
      </trkpt>
      <trkpt lat="49.47001" lon="0.9821">
        <ele>68.693855285645</ele>
        <time>2014-01-11T10:44:14.000Z</time>
      </trkpt>
      <trkpt lat="49.46999" lon="0.98218">
        <ele>68.215209960938</ele>
        <time>2014-01-11T10:44:16.000Z</time>
      </trkpt>
      <trkpt lat="49.46999" lon="0.98222">
        <ele>67.74348449707</ele>
        <time>2014-01-11T10:44:19.000Z</time>
      </trkpt>
      <trkpt lat="49.47007" lon="0.98266">
        <ele>67.465103149414</ele>
        <time>2014-01-11T10:44:27.000Z</time>
      </trkpt>
      <trkpt lat="49.4701" lon="0.98278">
        <ele>67.455513000488</ele>
        <time>2014-01-11T10:44:29.000Z</time>
      </trkpt>
      <trkpt lat="49.47015" lon="0.98293">
        <ele>67.74683380127</ele>
        <time>2014-01-11T10:44:32.000Z</time>
      </trkpt>
      <trkpt lat="49.47018" lon="0.98301">
        <ele>68.218383789062</ele>
        <time>2014-01-11T10:44:34.000Z</time>
      </trkpt>
      <trkpt lat="49.47018" lon="0.98341">
        <ele>69.036849975586</ele>
        <time>2014-01-11T10:44:54.000Z</time>
      </trkpt>
      <trkpt lat="49.46994" lon="0.98312">
        <ele>69.429985046387</ele>
        <time>2014-01-11T10:45:51.000Z</time>
      </trkpt>
      <trkpt lat="49.46984" lon="0.98304">
        <ele>69.722732543945</ele>
        <time>2014-01-11T10:45:54.000Z</time>
      </trkpt>
      <trkpt lat="49.46977" lon="0.98294">
        <ele>69.824295043945</ele>
        <time>2014-01-11T10:45:56.000Z</time>
      </trkpt>
      <trkpt lat="49.4697" lon="0.98279">
        <ele>69.721008300781</ele>
        <time>2014-01-11T10:45:58.000Z</time>
      </trkpt>
      <trkpt lat="49.4696" lon="0.98259">
        <ele>69.120460510254</ele>
        <time>2014-01-11T10:46:01.000Z</time>
      </trkpt>
      <trkpt lat="49.46953" lon="0.9825">
        <ele>68.785255432129</ele>
        <time>2014-01-11T10:46:03.000Z</time>
      </trkpt>
      <trkpt lat="49.46942" lon="0.98233">
        <ele>68.337905883789</ele>
        <time>2014-01-11T10:46:06.000Z</time>
      </trkpt>
      <trkpt lat="49.46933" lon="0.98217">
        <ele>67.778869628906</ele>
        <time>2014-01-11T10:46:08.000Z</time>
      </trkpt>
      <trkpt lat="49.46925" lon="0.98181">
        <ele>66.888343811035</ele>
        <time>2014-01-11T10:46:11.000Z</time>
      </trkpt>
      <trkpt lat="49.46922" lon="0.98162">
        <ele>65.890975952148</ele>
        <time>2014-01-11T10:46:13.000Z</time>
      </trkpt>
      <trkpt lat="49.46914" lon="0.98137">
        <ele>64.629707336426</ele>
        <time>2014-01-11T10:46:16.000Z</time>
      </trkpt>
      <trkpt lat="49.46903" lon="0.98115">
        <ele>63.261817932129</ele>
        <time>2014-01-11T10:46:19.000Z</time>
      </trkpt>
      <trkpt lat="49.46896" lon="0.981">
        <ele>61.898826599121</ele>
        <time>2014-01-11T10:46:21.000Z</time>
      </trkpt>
      <trkpt lat="49.46885" lon="0.98079">
        <ele>60.833793640137</ele>
        <time>2014-01-11T10:46:24.000Z</time>
      </trkpt>
      <trkpt lat="49.46878" lon="0.98066">
        <ele>60.101123809814</ele>
        <time>2014-01-11T10:46:26.000Z</time>
      </trkpt>
      <trkpt lat="49.46867" lon="0.98048">
        <ele>59.715209960938</ele>
        <time>2014-01-11T10:46:29.000Z</time>
      </trkpt>
      <trkpt lat="49.46861" lon="0.98036">
        <ele>59.45288848877</ele>
        <time>2014-01-11T10:46:31.000Z</time>
      </trkpt>
      <trkpt lat="49.46855" lon="0.98026">
        <ele>59.250427246094</ele>
        <time>2014-01-11T10:46:33.000Z</time>
      </trkpt>
      <trkpt lat="49.46848" lon="0.98016">
        <ele>59.085388183594</ele>
        <time>2014-01-11T10:46:35.000Z</time>
      </trkpt>
      <trkpt lat="49.46838" lon="0.98001">
        <ele>58.657402038574</ele>
        <time>2014-01-11T10:46:38.000Z</time>
      </trkpt>
      <trkpt lat="49.4683" lon="0.97992">
        <ele>58.366249084473</ele>
        <time>2014-01-11T10:46:40.000Z</time>
      </trkpt>
      <trkpt lat="49.46814" lon="0.97979">
        <ele>58.557228088379</ele>
        <time>2014-01-11T10:46:43.000Z</time>
      </trkpt>
      <trkpt lat="49.46803" lon="0.97969">
        <ele>59.034168243408</ele>
        <time>2014-01-11T10:46:45.000Z</time>
      </trkpt>
      <trkpt lat="49.46788" lon="0.97956">
        <ele>59.789558410645</ele>
        <time>2014-01-11T10:46:48.000Z</time>
      </trkpt>
      <trkpt lat="49.46774" lon="0.97944">
        <ele>60.799945831299</ele>
        <time>2014-01-11T10:46:51.000Z</time>
      </trkpt>
      <trkpt lat="49.46766" lon="0.97935">
        <ele>61.632911682129</ele>
        <time>2014-01-11T10:46:53.000Z</time>
      </trkpt>
      <trkpt lat="49.46753" lon="0.97922">
        <ele>61.869239807129</ele>
        <time>2014-01-11T10:46:56.000Z</time>
      </trkpt>
      <trkpt lat="49.46742" lon="0.97908">
        <ele>62.025749206543</ele>
        <time>2014-01-11T10:46:59.000Z</time>
      </trkpt>
      <trkpt lat="49.46732" lon="0.97895">
        <ele>62.250328063965</ele>
        <time>2014-01-11T10:47:02.000Z</time>
      </trkpt>
      <trkpt lat="49.46726" lon="0.97886">
        <ele>62.550720214844</ele>
        <time>2014-01-11T10:47:04.000Z</time>
      </trkpt>
      <trkpt lat="49.46719" lon="0.97876">
        <ele>62.998817443848</ele>
        <time>2014-01-11T10:47:07.000Z</time>
      </trkpt>
      <trkpt lat="49.46713" lon="0.97865">
        <ele>63.67227935791</ele>
        <time>2014-01-11T10:47:10.000Z</time>
      </trkpt>
      <trkpt lat="49.46711" lon="0.97848">
        <ele>64.190773010254</ele>
        <time>2014-01-11T10:47:13.000Z</time>
      </trkpt>
      <trkpt lat="49.46707" lon="0.97834">
        <ele>64.445960998535</ele>
        <time>2014-01-11T10:47:15.000Z</time>
      </trkpt>
      <trkpt lat="49.46697" lon="0.97804">
        <ele>64.413818359375</ele>
        <time>2014-01-11T10:47:18.000Z</time>
      </trkpt>
      <trkpt lat="49.46688" lon="0.97772">
        <ele>63.931529998779</ele>
        <time>2014-01-11T10:47:21.000Z</time>
      </trkpt>
      <trkpt lat="49.4668" lon="0.97746">
        <ele>62.969604492188</ele>
        <time>2014-01-11T10:47:24.000Z</time>
      </trkpt>
      <trkpt lat="49.46674" lon="0.97721">
        <ele>61.640617370605</ele>
        <time>2014-01-11T10:47:27.000Z</time>
      </trkpt>
      <trkpt lat="49.46667" lon="0.97696">
        <ele>59.904926300049</ele>
        <time>2014-01-11T10:47:30.000Z</time>
      </trkpt>
      <trkpt lat="49.46664" lon="0.9768">
        <ele>58.190441131592</ele>
        <time>2014-01-11T10:47:32.000Z</time>
      </trkpt>
      <trkpt lat="49.46662" lon="0.97654">
        <ele>56.647998809814</ele>
        <time>2014-01-11T10:47:35.000Z</time>
      </trkpt>
      <trkpt lat="49.4666" lon="0.97637">
        <ele>55.476707458496</ele>
        <time>2014-01-11T10:47:37.000Z</time>
      </trkpt>
      <trkpt lat="49.46656" lon="0.97611">
        <ele>54.593322753906</ele>
        <time>2014-01-11T10:47:40.000Z</time>
      </trkpt>
      <trkpt lat="49.46653" lon="0.97588">
        <ele>53.98412322998</ele>
        <time>2014-01-11T10:47:43.000Z</time>
      </trkpt>
      <trkpt lat="49.46648" lon="0.97566">
        <ele>53.575050354004</ele>
        <time>2014-01-11T10:47:46.000Z</time>
      </trkpt>
      <trkpt lat="49.46644" lon="0.97553">
        <ele>53.35750579834</ele>
        <time>2014-01-11T10:47:48.000Z</time>
      </trkpt>
      <trkpt lat="49.46646" lon="0.97534">
        <ele>53.31498336792</ele>
        <time>2014-01-11T10:47:51.000Z</time>
      </trkpt>
      <trkpt lat="49.46644" lon="0.97514">
        <ele>53.430957794189</ele>
        <time>2014-01-11T10:47:54.000Z</time>
      </trkpt>
      <trkpt lat="49.46637" lon="0.97504">
        <ele>53.529010772705</ele>
        <time>2014-01-11T10:47:57.000Z</time>
      </trkpt>
      <trkpt lat="49.46611" lon="0.97489">
        <ele>53.067054748535</ele>
        <time>2014-01-11T10:48:01.000Z</time>
      </trkpt>
      <trkpt lat="49.46586" lon="0.97477">
        <ele>52.099365234375</ele>
        <time>2014-01-11T10:48:04.000Z</time>
      </trkpt>
      <trkpt lat="49.4656" lon="0.97463">
        <ele>51.244506835938</ele>
        <time>2014-01-11T10:48:07.000Z</time>
      </trkpt>
      <trkpt lat="49.46539" lon="0.97445">
        <ele>50.575721740723</ele>
        <time>2014-01-11T10:48:10.000Z</time>
      </trkpt>
      <trkpt lat="49.46517" lon="0.9743">
        <ele>50.136329650879</ele>
        <time>2014-01-11T10:48:13.000Z</time>
      </trkpt>
      <trkpt lat="49.46497" lon="0.9742">
        <ele>50.133029937744</ele>
        <time>2014-01-11T10:48:16.000Z</time>
      </trkpt>
      <trkpt lat="49.46478" lon="0.97413">
        <ele>50.60818862915</ele>
        <time>2014-01-11T10:48:19.000Z</time>
      </trkpt>
      <trkpt lat="49.4646" lon="0.97404">
        <ele>50.795318603516</ele>
        <time>2014-01-11T10:48:22.000Z</time>
      </trkpt>
      <trkpt lat="49.4645" lon="0.97398">
        <ele>50.674938201904</ele>
        <time>2014-01-11T10:48:24.000Z</time>
      </trkpt>
      <trkpt lat="49.46441" lon="0.97391">
        <ele>50.403285980225</ele>
        <time>2014-01-11T10:48:27.000Z</time>
      </trkpt>
      <trkpt lat="49.46423" lon="0.9737">
        <ele>49.856651306152</ele>
        <time>2014-01-11T10:48:31.000Z</time>
      </trkpt>
      <trkpt lat="49.46417" lon="0.9736">
        <ele>49.11466217041</ele>
        <time>2014-01-11T10:48:33.000Z</time>
      </trkpt>
      <trkpt lat="49.46408" lon="0.97342">
        <ele>48.53356552124</ele>
        <time>2014-01-11T10:48:36.000Z</time>
      </trkpt>
      <trkpt lat="49.46399" lon="0.9733">
        <ele>48.177349090576</ele>
        <time>2014-01-11T10:48:38.000Z</time>
      </trkpt>
      <trkpt lat="49.46385" lon="0.97313">
        <ele>48.221458435059</ele>
        <time>2014-01-11T10:48:41.000Z</time>
      </trkpt>
      <trkpt lat="49.46376" lon="0.97302">
        <ele>48.762275695801</ele>
        <time>2014-01-11T10:48:43.000Z</time>
      </trkpt>
      <trkpt lat="49.46369" lon="0.97293">
        <ele>49.599792480469</ele>
        <time>2014-01-11T10:48:45.000Z</time>
      </trkpt>
      <trkpt lat="49.46365" lon="0.97289">
        <ele>50.350116729736</ele>
        <time>2014-01-11T10:48:48.000Z</time>
      </trkpt>
      <trkpt lat="49.4635" lon="0.97264">
        <ele>50.976993560791</ele>
        <time>2014-01-11T10:48:52.000Z</time>
      </trkpt>
      <trkpt lat="49.46346" lon="0.97249">
        <ele>51.184917449951</ele>
        <time>2014-01-11T10:48:55.000Z</time>
      </trkpt>
      <trkpt lat="49.46342" lon="0.97231">
        <ele>51.111694335938</ele>
        <time>2014-01-11T10:48:58.000Z</time>
      </trkpt>
      <trkpt lat="49.46339" lon="0.97212">
        <ele>50.771160125732</ele>
        <time>2014-01-11T10:49:01.000Z</time>
      </trkpt>
      <trkpt lat="49.46336" lon="0.9719">
        <ele>50.157432556152</ele>
        <time>2014-01-11T10:49:04.000Z</time>
      </trkpt>
      <trkpt lat="49.46336" lon="0.97171">
        <ele>49.289226531982</ele>
        <time>2014-01-11T10:49:06.000Z</time>
      </trkpt>
      <trkpt lat="49.46335" lon="0.97144">
        <ele>48.277736663818</ele>
        <time>2014-01-11T10:49:09.000Z</time>
      </trkpt>
      <trkpt lat="49.46336" lon="0.97125">
        <ele>47.22416305542</ele>
        <time>2014-01-11T10:49:11.000Z</time>
      </trkpt>
      <trkpt lat="49.46335" lon="0.97093">
        <ele>46.046936035156</ele>
        <time>2014-01-11T10:49:14.000Z</time>
      </trkpt>
      <trkpt lat="49.46333" lon="0.97064">
        <ele>44.988945007324</ele>
        <time>2014-01-11T10:49:17.000Z</time>
      </trkpt>
      <trkpt lat="49.46331" lon="0.97046">
        <ele>44.166557312012</ele>
        <time>2014-01-11T10:49:19.000Z</time>
      </trkpt>
      <trkpt lat="49.46329" lon="0.97024">
        <ele>43.578514099121</ele>
        <time>2014-01-11T10:49:22.000Z</time>
      </trkpt>
      <trkpt lat="49.46327" lon="0.97005">
        <ele>43.122932434082</ele>
        <time>2014-01-11T10:49:25.000Z</time>
      </trkpt>
      <trkpt lat="49.46323" lon="0.96992">
        <ele>43.08776473999</ele>
        <time>2014-01-11T10:49:27.000Z</time>
      </trkpt>
      <trkpt lat="49.46316" lon="0.96976">
        <ele>43.408317565918</ele>
        <time>2014-01-11T10:49:30.000Z</time>
      </trkpt>
      <trkpt lat="49.46309" lon="0.96961">
        <ele>43.856315612793</ele>
        <time>2014-01-11T10:49:33.000Z</time>
      </trkpt>
      <trkpt lat="49.46292" lon="0.96945">
        <ele>44.233184814453</ele>
        <time>2014-01-11T10:49:36.000Z</time>
      </trkpt>
      <trkpt lat="49.46279" lon="0.96934">
        <ele>44.438732147217</ele>
        <time>2014-01-11T10:49:38.000Z</time>
      </trkpt>
      <trkpt lat="49.46266" lon="0.96924">
        <ele>44.212070465088</ele>
        <time>2014-01-11T10:49:40.000Z</time>
      </trkpt>
      <trkpt lat="49.46254" lon="0.96915">
        <ele>43.456024169922</ele>
        <time>2014-01-11T10:49:42.000Z</time>
      </trkpt>
      <trkpt lat="49.46243" lon="0.96906">
        <ele>42.593723297119</ele>
        <time>2014-01-11T10:49:45.000Z</time>
      </trkpt>
      <trkpt lat="49.4623" lon="0.96898">
        <ele>41.868339538574</ele>
        <time>2014-01-11T10:49:48.000Z</time>
      </trkpt>
      <trkpt lat="49.46198" lon="0.96888">
        <ele>41.141288757324</ele>
        <time>2014-01-11T10:49:52.000Z</time>
      </trkpt>
      <trkpt lat="49.46175" lon="0.96878">
        <ele>40.560405731201</ele>
        <time>2014-01-11T10:49:55.000Z</time>
      </trkpt>
      <trkpt lat="49.46156" lon="0.96869">
        <ele>40.277839660645</ele>
        <time>2014-01-11T10:49:58.000Z</time>
      </trkpt>
      <trkpt lat="49.4615" lon="0.96866">
        <ele>39.987312316895</ele>
        <time>2014-01-11T10:50:00.000Z</time>
      </trkpt>
      <trkpt lat="49.46126" lon="0.96846">
        <ele>39.758731842041</ele>
        <time>2014-01-11T10:50:05.000Z</time>
      </trkpt>
      <trkpt lat="49.46099" lon="0.96828">
        <ele>39.72229385376</ele>
        <time>2014-01-11T10:50:12.000Z</time>
      </trkpt>
      <trkpt lat="49.46072" lon="0.9681">
        <ele>40.002586364746</ele>
        <time>2014-01-11T10:50:19.000Z</time>
      </trkpt>
      <trkpt lat="49.46045" lon="0.96787">
        <ele>40.201942443848</ele>
        <time>2014-01-11T10:50:25.000Z</time>
      </trkpt>
      <trkpt lat="49.46015" lon="0.96765">
        <ele>39.706047058105</ele>
        <time>2014-01-11T10:50:32.000Z</time>
      </trkpt>
      <trkpt lat="49.4598" lon="0.96753">
        <ele>38.402980804443</ele>
        <time>2014-01-11T10:50:36.000Z</time>
      </trkpt>
      <trkpt lat="49.4595" lon="0.96745">
        <ele>36.922294616699</ele>
        <time>2014-01-11T10:50:39.000Z</time>
      </trkpt>
      <trkpt lat="49.45928" lon="0.9674">
        <ele>35.223442077637</ele>
        <time>2014-01-11T10:50:41.000Z</time>
      </trkpt>
      <trkpt lat="49.45909" lon="0.96739">
        <ele>33.595405578613</ele>
        <time>2014-01-11T10:50:43.000Z</time>
      </trkpt>
      <trkpt lat="49.45883" lon="0.96742">
        <ele>32.73783493042</ele>
        <time>2014-01-11T10:50:46.000Z</time>
      </trkpt>
      <trkpt lat="49.45859" lon="0.96746">
        <ele>32.613422393799</ele>
        <time>2014-01-11T10:50:49.000Z</time>
      </trkpt>
      <trkpt lat="49.45844" lon="0.96748">
        <ele>32.696952819824</ele>
        <time>2014-01-11T10:50:51.000Z</time>
      </trkpt>
      <trkpt lat="49.45822" lon="0.9675">
        <ele>32.70076751709</ele>
        <time>2014-01-11T10:50:54.000Z</time>
      </trkpt>
      <trkpt lat="49.45809" lon="0.96752">
        <ele>32.559074401855</ele>
        <time>2014-01-11T10:50:56.000Z</time>
      </trkpt>
      <trkpt lat="49.4579" lon="0.96756">
        <ele>32.076301574707</ele>
        <time>2014-01-11T10:50:59.000Z</time>
      </trkpt>
      <trkpt lat="49.45777" lon="0.96759">
        <ele>31.397287368774</ele>
        <time>2014-01-11T10:51:01.000Z</time>
      </trkpt>
      <trkpt lat="49.45758" lon="0.96766">
        <ele>30.458032608032</ele>
        <time>2014-01-11T10:51:04.000Z</time>
      </trkpt>
      <trkpt lat="49.45741" lon="0.96776">
        <ele>29.668804168701</ele>
        <time>2014-01-11T10:51:07.000Z</time>
      </trkpt>
      <trkpt lat="49.45724" lon="0.96789">
        <ele>29.133190155029</ele>
        <time>2014-01-11T10:51:10.000Z</time>
      </trkpt>
      <trkpt lat="49.45713" lon="0.96797">
        <ele>28.815166473389</ele>
        <time>2014-01-11T10:51:12.000Z</time>
      </trkpt>
      <trkpt lat="49.45699" lon="0.96811">
        <ele>28.500890731812</ele>
        <time>2014-01-11T10:51:15.000Z</time>
      </trkpt>
      <trkpt lat="49.45684" lon="0.96823">
        <ele>28.173992156982</ele>
        <time>2014-01-11T10:51:18.000Z</time>
      </trkpt>
      <trkpt lat="49.45675" lon="0.9683">
        <ele>27.621349334717</ele>
        <time>2014-01-11T10:51:20.000Z</time>
      </trkpt>
      <trkpt lat="49.45666" lon="0.9684">
        <ele>26.876901626587</ele>
        <time>2014-01-11T10:51:22.000Z</time>
      </trkpt>
      <trkpt lat="49.45654" lon="0.96856">
        <ele>26.534854888916</ele>
        <time>2014-01-11T10:51:25.000Z</time>
      </trkpt>
      <trkpt lat="49.45645" lon="0.96866">
        <ele>26.504364013672</ele>
        <time>2014-01-11T10:51:27.000Z</time>
      </trkpt>
      <trkpt lat="49.45632" lon="0.9688">
        <ele>26.860250473022</ele>
        <time>2014-01-11T10:51:30.000Z</time>
      </trkpt>
      <trkpt lat="49.45619" lon="0.96896">
        <ele>27.331665039062</ele>
        <time>2014-01-11T10:51:33.000Z</time>
      </trkpt>
      <trkpt lat="49.45607" lon="0.96913">
        <ele>27.581552505493</ele>
        <time>2014-01-11T10:51:36.000Z</time>
      </trkpt>
      <trkpt lat="49.45596" lon="0.96929">
        <ele>27.384057998657</ele>
        <time>2014-01-11T10:51:39.000Z</time>
      </trkpt>
      <trkpt lat="49.45584" lon="0.96944">
        <ele>26.951482772827</ele>
        <time>2014-01-11T10:51:42.000Z</time>
      </trkpt>
      <trkpt lat="49.45577" lon="0.96953">
        <ele>26.36826133728</ele>
        <time>2014-01-11T10:51:44.000Z</time>
      </trkpt>
      <trkpt lat="49.4557" lon="0.9696">
        <ele>25.845077514648</ele>
        <time>2014-01-11T10:51:46.000Z</time>
      </trkpt>
      <trkpt lat="49.45562" lon="0.96966">
        <ele>25.569292068481</ele>
        <time>2014-01-11T10:51:48.000Z</time>
      </trkpt>
      <trkpt lat="49.45554" lon="0.96974">
        <ele>25.257617950439</ele>
        <time>2014-01-11T10:51:50.000Z</time>
      </trkpt>
      <trkpt lat="49.45548" lon="0.96984">
        <ele>24.873022079468</ele>
        <time>2014-01-11T10:51:52.000Z</time>
      </trkpt>
      <trkpt lat="49.45541" lon="0.97004">
        <ele>24.314014434814</ele>
        <time>2014-01-11T10:51:55.000Z</time>
      </trkpt>
      <trkpt lat="49.4554" lon="0.97015">
        <ele>23.971343994141</ele>
        <time>2014-01-11T10:51:57.000Z</time>
      </trkpt>
      <trkpt lat="49.45539" lon="0.97031">
        <ele>23.932601928711</ele>
        <time>2014-01-11T10:52:00.000Z</time>
      </trkpt>
      <trkpt lat="49.45538" lon="0.97039">
        <ele>24.088998794556</ele>
        <time>2014-01-11T10:52:02.000Z</time>
      </trkpt>
      <trkpt lat="49.45533" lon="0.9705">
        <ele>24.463375091553</ele>
        <time>2014-01-11T10:52:05.000Z</time>
      </trkpt>
      <trkpt lat="49.45527" lon="0.9706">
        <ele>25.03210067749</ele>
        <time>2014-01-11T10:52:08.000Z</time>
      </trkpt>
      <trkpt lat="49.45523" lon="0.97071">
        <ele>25.455905914307</ele>
        <time>2014-01-11T10:52:10.000Z</time>
      </trkpt>
      <trkpt lat="49.45513" lon="0.97092">
        <ele>25.685134887695</ele>
        <time>2014-01-11T10:52:13.000Z</time>
      </trkpt>
      <trkpt lat="49.45505" lon="0.9711">
        <ele>25.942081451416</ele>
        <time>2014-01-11T10:52:15.000Z</time>
      </trkpt>
      <trkpt lat="49.45491" lon="0.97135">
        <ele>26.396224975586</ele>
        <time>2014-01-11T10:52:18.000Z</time>
      </trkpt>
      <trkpt lat="49.45476" lon="0.97153">
        <ele>26.87749671936</ele>
        <time>2014-01-11T10:52:21.000Z</time>
      </trkpt>
      <trkpt lat="49.4546" lon="0.97167">
        <ele>27.174606323242</ele>
        <time>2014-01-11T10:52:24.000Z</time>
      </trkpt>
      <trkpt lat="49.45445" lon="0.97177">
        <ele>27.310546875</ele>
        <time>2014-01-11T10:52:27.000Z</time>
      </trkpt>
      <trkpt lat="49.45432" lon="0.97188">
        <ele>27.28639793396</ele>
        <time>2014-01-11T10:52:30.000Z</time>
      </trkpt>
      <trkpt lat="49.45425" lon="0.97196">
        <ele>27.017696380615</ele>
        <time>2014-01-11T10:52:32.000Z</time>
      </trkpt>
      <trkpt lat="49.45415" lon="0.97201">
        <ele>26.629077911377</ele>
        <time>2014-01-11T10:52:35.000Z</time>
      </trkpt>
      <trkpt lat="49.45407" lon="0.97205">
        <ele>26.374038696289</ele>
        <time>2014-01-11T10:52:37.000Z</time>
      </trkpt>
      <trkpt lat="49.45404" lon="0.97207">
        <ele>26.232751846313</ele>
        <time>2014-01-11T10:52:40.000Z</time>
      </trkpt>
      <trkpt lat="49.45391" lon="0.97215">
        <ele>26.120096206665</ele>
        <time>2014-01-11T10:52:43.000Z</time>
      </trkpt>
      <trkpt lat="49.45377" lon="0.97239">
        <ele>26.291217803955</ele>
        <time>2014-01-11T10:52:53.000Z</time>
      </trkpt>
      <trkpt lat="49.45374" lon="0.97253">
        <ele>26.830099105835</ele>
        <time>2014-01-11T10:52:58.000Z</time>
      </trkpt>
      <trkpt lat="49.4537" lon="0.97267">
        <ele>27.768447875977</ele>
        <time>2014-01-11T10:53:04.000Z</time>
      </trkpt>
      <trkpt lat="49.45366" lon="0.97275">
        <ele>28.881809234619</ele>
        <time>2014-01-11T10:53:09.000Z</time>
      </trkpt>
      <trkpt lat="49.45366" lon="0.97277">
        <ele>30.030725479126</ele>
        <time>2014-01-11T10:53:13.000Z</time>
      </trkpt>
      <trkpt lat="49.45357" lon="0.97283">
        <ele>30.915765762329</ele>
        <time>2014-01-11T10:53:19.000Z</time>
      </trkpt>
      <trkpt lat="49.45353" lon="0.97296">
        <ele>31.835773468018</ele>
        <time>2014-01-11T10:53:27.000Z</time>
      </trkpt>
      <trkpt lat="49.45349" lon="0.97313">
        <ele>32.795066833496</ele>
        <time>2014-01-11T10:53:34.000Z</time>
      </trkpt>
      <trkpt lat="49.45345" lon="0.97328">
        <ele>33.958911895752</ele>
        <time>2014-01-11T10:53:39.000Z</time>
      </trkpt>
      <trkpt lat="49.45342" lon="0.97342">
        <ele>35.342185974121</ele>
        <time>2014-01-11T10:53:43.000Z</time>
      </trkpt>
      <trkpt lat="49.45338" lon="0.97357">
        <ele>36.876350402832</ele>
        <time>2014-01-11T10:53:48.000Z</time>
      </trkpt>
      <trkpt lat="49.45351" lon="0.97394">
        <ele>39.075839996338</ele>
        <time>2014-01-11T10:54:08.000Z</time>
      </trkpt>
      <trkpt lat="49.45363" lon="0.97409">
        <ele>41.494831085205</ele>
        <time>2014-01-11T10:54:25.000Z</time>
      </trkpt>
      <trkpt lat="49.45363" lon="0.97409">
        <ele>41.494831085205</ele>
        <time>2014-01-11T10:54:45.000Z</time>
      </trkpt>
      <trkpt lat="49.45371" lon="0.97401">
        <ele>43.561611175537</ele>
        <time>2014-01-11T10:54:49.000Z</time>
      </trkpt>
      <trkpt lat="49.45371" lon="0.97401">
        <ele>43.561611175537</ele>
        <time>2014-01-11T10:55:10.000Z</time>
      </trkpt>
      <trkpt lat="49.45372" lon="0.97419">
        <ele>45.784004211426</ele>
        <time>2014-01-11T10:55:13.000Z</time>
      </trkpt>
      <trkpt lat="49.45372" lon="0.97423">
        <ele>47.865116119385</ele>
        <time>2014-01-11T10:55:13.000Z</time>
      </trkpt>
      <trkpt lat="49.45372" lon="0.9743">
        <ele>49.071594238281</ele>
        <time>2014-01-11T10:55:16.000Z</time>
      </trkpt>
      <trkpt lat="49.45371" lon="0.97432">
        <ele>49.6611328125</ele>
        <time>2014-01-11T10:55:19.000Z</time>
      </trkpt>
      <trkpt lat="49.4537" lon="0.97431">
        <ele>50.183143615723</ele>
        <time>2014-01-11T10:55:23.000Z</time>
      </trkpt>
      <trkpt lat="49.4537" lon="0.97429">
        <ele>50.274646759033</ele>
        <time>2014-01-11T10:55:25.000Z</time>
      </trkpt>
      <trkpt lat="49.4537" lon="0.97426">
        <ele>50.27513885498</ele>
        <time>2014-01-11T10:55:28.000Z</time>
      </trkpt>
      <trkpt lat="49.4537" lon="0.97424">
        <ele>50.153564453125</ele>
        <time>2014-01-11T10:55:31.000Z</time>
      </trkpt>
      <trkpt lat="49.45369" lon="0.9742">
        <ele>49.943138122559</ele>
        <time>2014-01-11T10:55:35.000Z</time>
      </trkpt>
      <trkpt lat="49.45369" lon="0.97419">
        <ele>49.736904144287</ele>
        <time>2014-01-11T10:55:40.000Z</time>
      </trkpt>
      <trkpt lat="49.45367" lon="0.97418">
        <ele>49.494335174561</ele>
        <time>2014-01-11T10:55:42.000Z</time>
      </trkpt>
      <trkpt lat="49.45366" lon="0.97416">
        <ele>49.218299865723</ele>
        <time>2014-01-11T10:55:45.000Z</time>
      </trkpt>
      <trkpt lat="49.45362" lon="0.97414">
        <ele>48.830074310303</ele>
        <time>2014-01-11T10:55:48.000Z</time>
      </trkpt>
      <trkpt lat="49.45358" lon="0.97415">
        <ele>48.424976348877</ele>
        <time>2014-01-11T10:55:51.000Z</time>
      </trkpt>
      <trkpt lat="49.45356" lon="0.97416">
        <ele>48.020214080811</ele>
        <time>2014-01-11T10:55:54.000Z</time>
      </trkpt>
      <trkpt lat="49.45351" lon="0.9742">
        <ele>47.586475372314</ele>
        <time>2014-01-11T10:55:57.000Z</time>
      </trkpt>
      <trkpt lat="49.45349" lon="0.97422">
        <ele>47.17041015625</ele>
        <time>2014-01-11T10:56:00.000Z</time>
      </trkpt>
      <trkpt lat="49.45347" lon="0.97425">
        <ele>46.875068664551</ele>
        <time>2014-01-11T10:56:03.000Z</time>
      </trkpt>
      <trkpt lat="49.45346" lon="0.97427">
        <ele>46.662147521973</ele>
        <time>2014-01-11T10:56:05.000Z</time>
      </trkpt>
      <trkpt lat="49.45345" lon="0.97435">
        <ele>46.540798187256</ele>
        <time>2014-01-11T10:56:08.000Z</time>
      </trkpt>
      <trkpt lat="49.45344" lon="0.97439">
        <ele>46.527812957764</ele>
        <time>2014-01-11T10:56:10.000Z</time>
      </trkpt>
      <trkpt lat="49.45343" lon="0.97446">
        <ele>46.610164642334</ele>
        <time>2014-01-11T10:56:13.000Z</time>
      </trkpt>
      <trkpt lat="49.45341" lon="0.97453">
        <ele>46.748424530029</ele>
        <time>2014-01-11T10:56:16.000Z</time>
      </trkpt>
      <trkpt lat="49.45341" lon="0.97457">
        <ele>46.905693054199</ele>
        <time>2014-01-11T10:56:18.000Z</time>
      </trkpt>
      <trkpt lat="49.4534" lon="0.97461">
        <ele>47.034046173096</ele>
        <time>2014-01-11T10:56:20.000Z</time>
      </trkpt>
      <trkpt lat="49.45339" lon="0.97465">
        <ele>47.161445617676</ele>
        <time>2014-01-11T10:56:23.000Z</time>
      </trkpt>
      <trkpt lat="49.45338" lon="0.97469">
        <ele>47.269207000732</ele>
        <time>2014-01-11T10:56:26.000Z</time>
      </trkpt>
      <trkpt lat="49.45338" lon="0.97472">
        <ele>47.343742370605</ele>
        <time>2014-01-11T10:56:28.000Z</time>
      </trkpt>
      <trkpt lat="49.45337" lon="0.97476">
        <ele>47.412754058838</ele>
        <time>2014-01-11T10:56:30.000Z</time>
      </trkpt>
      <trkpt lat="49.45336" lon="0.97483">
        <ele>47.489246368408</ele>
        <time>2014-01-11T10:56:33.000Z</time>
      </trkpt>
      <trkpt lat="49.45336" lon="0.97489">
        <ele>47.596961975098</ele>
        <time>2014-01-11T10:56:36.000Z</time>
      </trkpt>
      <trkpt lat="49.45335" lon="0.97495">
        <ele>47.721000671387</ele>
        <time>2014-01-11T10:56:39.000Z</time>
      </trkpt>
      <trkpt lat="49.45334" lon="0.97501">
        <ele>47.877849578857</ele>
        <time>2014-01-11T10:56:42.000Z</time>
      </trkpt>
      <trkpt lat="49.45334" lon="0.97508">
        <ele>48.100120544434</ele>
        <time>2014-01-11T10:56:45.000Z</time>
      </trkpt>
      <trkpt lat="49.45334" lon="0.97512">
        <ele>48.351722717285</ele>
        <time>2014-01-11T10:56:48.000Z</time>
      </trkpt>
      <trkpt lat="49.45333" lon="0.9752">
        <ele>48.66756439209</ele>
        <time>2014-01-11T10:56:51.000Z</time>
      </trkpt>
      <trkpt lat="49.45333" lon="0.97524">
        <ele>49.008411407471</ele>
        <time>2014-01-11T10:56:53.000Z</time>
      </trkpt>
      <trkpt lat="49.45333" lon="0.97528">
        <ele>49.359722137451</ele>
        <time>2014-01-11T10:56:55.000Z</time>
      </trkpt>
      <trkpt lat="49.45332" lon="0.97529">
        <ele>49.683219909668</ele>
        <time>2014-01-11T10:56:57.000Z</time>
      </trkpt>
      <trkpt lat="49.45329" lon="0.97541">
        <ele>50.196418762207</ele>
        <time>2014-01-11T10:57:00.000Z</time>
      </trkpt>
      <trkpt lat="49.4533" lon="0.97552">
        <ele>50.727222442627</ele>
        <time>2014-01-11T10:57:03.000Z</time>
      </trkpt>
      <trkpt lat="49.45331" lon="0.97558">
        <ele>51.273376464844</ele>
        <time>2014-01-11T10:57:05.000Z</time>
      </trkpt>
      <trkpt lat="49.45332" lon="0.97564">
        <ele>51.820701599121</ele>
        <time>2014-01-11T10:57:07.000Z</time>
      </trkpt>
      <trkpt lat="49.45333" lon="0.9757">
        <ele>52.400245666504</ele>
        <time>2014-01-11T10:57:09.000Z</time>
      </trkpt>
      <trkpt lat="49.45335" lon="0.97579">
        <ele>52.91109085083</ele>
        <time>2014-01-11T10:57:12.000Z</time>
      </trkpt>
      <trkpt lat="49.45337" lon="0.97587">
        <ele>53.486572265625</ele>
        <time>2014-01-11T10:57:15.000Z</time>
      </trkpt>
      <trkpt lat="49.45339" lon="0.97592">
        <ele>54.129936218262</ele>
        <time>2014-01-11T10:57:18.000Z</time>
      </trkpt>
      <trkpt lat="49.45341" lon="0.97599">
        <ele>54.89786529541</ele>
        <time>2014-01-11T10:57:20.000Z</time>
      </trkpt>
      <trkpt lat="49.45341" lon="0.97604">
        <ele>55.684154510498</ele>
        <time>2014-01-11T10:57:22.000Z</time>
      </trkpt>
      <trkpt lat="49.45342" lon="0.97611">
        <ele>56.417003631592</ele>
        <time>2014-01-11T10:57:25.000Z</time>
      </trkpt>
      <trkpt lat="49.45343" lon="0.97618">
        <ele>57.087505340576</ele>
        <time>2014-01-11T10:57:29.000Z</time>
      </trkpt>
      <trkpt lat="49.45343" lon="0.97622">
        <ele>57.704692840576</ele>
        <time>2014-01-11T10:57:31.000Z</time>
      </trkpt>
      <trkpt lat="49.45344" lon="0.97628">
        <ele>58.251159667969</ele>
        <time>2014-01-11T10:57:34.000Z</time>
      </trkpt>
      <trkpt lat="49.45345" lon="0.97634">
        <ele>58.820495605469</ele>
        <time>2014-01-11T10:57:37.000Z</time>
      </trkpt>
      <trkpt lat="49.45346" lon="0.97642">
        <ele>59.415397644043</ele>
        <time>2014-01-11T10:57:40.000Z</time>
      </trkpt>
      <trkpt lat="49.45346" lon="0.97648">
        <ele>59.976642608643</ele>
        <time>2014-01-11T10:57:42.000Z</time>
      </trkpt>
      <trkpt lat="49.45348" lon="0.97657">
        <ele>60.626262664795</ele>
        <time>2014-01-11T10:57:45.000Z</time>
      </trkpt>
      <trkpt lat="49.4535" lon="0.97665">
        <ele>61.340393066406</ele>
        <time>2014-01-11T10:57:48.000Z</time>
      </trkpt>
      <trkpt lat="49.45351" lon="0.97673">
        <ele>62.130603790283</ele>
        <time>2014-01-11T10:57:51.000Z</time>
      </trkpt>
      <trkpt lat="49.45353" lon="0.97681">
        <ele>62.964347839355</ele>
        <time>2014-01-11T10:57:54.000Z</time>
      </trkpt>
      <trkpt lat="49.45354" lon="0.97687">
        <ele>63.884422302246</ele>
        <time>2014-01-11T10:57:57.000Z</time>
      </trkpt>
      <trkpt lat="49.45355" lon="0.9769">
        <ele>64.697525024414</ele>
        <time>2014-01-11T10:57:59.000Z</time>
      </trkpt>
      <trkpt lat="49.45357" lon="0.97697">
        <ele>65.561241149902</ele>
        <time>2014-01-11T10:58:02.000Z</time>
      </trkpt>
      <trkpt lat="49.45359" lon="0.97701">
        <ele>66.332901000977</ele>
        <time>2014-01-11T10:58:04.000Z</time>
      </trkpt>
      <trkpt lat="49.4536" lon="0.97708">
        <ele>67.068771362305</ele>
        <time>2014-01-11T10:58:07.000Z</time>
      </trkpt>
      <trkpt lat="49.45361" lon="0.97712">
        <ele>67.729042053223</ele>
        <time>2014-01-11T10:58:09.000Z</time>
      </trkpt>
      <trkpt lat="49.45363" lon="0.97718">
        <ele>68.46955871582</ele>
        <time>2014-01-11T10:58:12.000Z</time>
      </trkpt>
      <trkpt lat="49.45364" lon="0.97722">
        <ele>69.079879760742</ele>
        <time>2014-01-11T10:58:14.000Z</time>
      </trkpt>
      <trkpt lat="49.45365" lon="0.97725">
        <ele>69.664260864258</ele>
        <time>2014-01-11T10:58:16.000Z</time>
      </trkpt>
      <trkpt lat="49.45366" lon="0.97729">
        <ele>70.16584777832</ele>
        <time>2014-01-11T10:58:18.000Z</time>
      </trkpt>
      <trkpt lat="49.45367" lon="0.97734">
        <ele>70.679885864258</ele>
        <time>2014-01-11T10:58:21.000Z</time>
      </trkpt>
      <trkpt lat="49.45369" lon="0.9774">
        <ele>71.169677734375</ele>
        <time>2014-01-11T10:58:24.000Z</time>
      </trkpt>
      <trkpt lat="49.45369" lon="0.97741">
        <ele>71.614799499512</ele>
        <time>2014-01-11T10:58:27.000Z</time>
      </trkpt>
      <trkpt lat="49.4537" lon="0.97751">
        <ele>72.168907165527</ele>
        <time>2014-01-11T10:58:30.000Z</time>
      </trkpt>
      <trkpt lat="49.45371" lon="0.97755">
        <ele>72.734085083008</ele>
        <time>2014-01-11T10:58:32.000Z</time>
      </trkpt>
      <trkpt lat="49.45372" lon="0.97761">
        <ele>73.298316955566</ele>
        <time>2014-01-11T10:58:35.000Z</time>
      </trkpt>
      <trkpt lat="49.45372" lon="0.97765">
        <ele>73.838043212891</ele>
        <time>2014-01-11T10:58:38.000Z</time>
      </trkpt>
      <trkpt lat="49.45372" lon="0.97772">
        <ele>74.482398986816</ele>
        <time>2014-01-11T10:58:43.000Z</time>
      </trkpt>
      <trkpt lat="49.45372" lon="0.97775">
        <ele>75.005493164062</ele>
        <time>2014-01-11T10:58:45.000Z</time>
      </trkpt>
      <trkpt lat="49.45372" lon="0.9778">
        <ele>75.543380737305</ele>
        <time>2014-01-11T10:58:52.000Z</time>
      </trkpt>
      <trkpt lat="49.45372" lon="0.97781">
        <ele>75.973724365234</ele>
        <time>2014-01-11T10:58:57.000Z</time>
      </trkpt>
      <trkpt lat="49.4537" lon="0.97779">
        <ele>76.264144897461</ele>
        <time>2014-01-11T10:59:01.000Z</time>
      </trkpt>
      <trkpt lat="49.4537" lon="0.97779">
        <ele>76.394668579102</ele>
        <time>2014-01-11T10:59:04.000Z</time>
      </trkpt>
      <trkpt lat="49.45369" lon="0.97779">
        <ele>76.454933166504</ele>
        <time>2014-01-11T10:59:08.000Z</time>
      </trkpt>
      <trkpt lat="49.45368" lon="0.97777">
        <ele>76.377243041992</ele>
        <time>2014-01-11T10:59:12.000Z</time>
      </trkpt>
      <trkpt lat="49.45368" lon="0.97775">
        <ele>76.24397277832</ele>
        <time>2014-01-11T10:59:15.000Z</time>
      </trkpt>
      <trkpt lat="49.45367" lon="0.97773">
        <ele>76.095344543457</ele>
        <time>2014-01-11T10:59:18.000Z</time>
      </trkpt>
      <trkpt lat="49.45366" lon="0.97771">
        <ele>75.915573120117</ele>
        <time>2014-01-11T10:59:21.000Z</time>
      </trkpt>
      <trkpt lat="49.45365" lon="0.9777">
        <ele>75.720764160156</ele>
        <time>2014-01-11T10:59:23.000Z</time>
      </trkpt>
      <trkpt lat="49.45364" lon="0.97773">
        <ele>75.617500305176</ele>
        <time>2014-01-11T10:59:29.000Z</time>
      </trkpt>
      <trkpt lat="49.45363" lon="0.97775">
        <ele>75.589553833008</ele>
        <time>2014-01-11T10:59:31.000Z</time>
      </trkpt>
      <trkpt lat="49.45363" lon="0.97777">
        <ele>75.665100097656</ele>
        <time>2014-01-11T10:59:34.000Z</time>
      </trkpt>
      <trkpt lat="49.45363" lon="0.97779">
        <ele>75.837257385254</ele>
        <time>2014-01-11T10:59:37.000Z</time>
      </trkpt>
      <trkpt lat="49.45363" lon="0.97788">
        <ele>76.21851348877</ele>
        <time>2014-01-11T10:59:42.000Z</time>
      </trkpt>
      <trkpt lat="49.45363" lon="0.97791">
        <ele>76.608535766602</ele>
        <time>2014-01-11T10:59:44.000Z</time>
      </trkpt>
      <trkpt lat="49.45364" lon="0.97796">
        <ele>77.074607849121</ele>
        <time>2014-01-11T10:59:47.000Z</time>
      </trkpt>
      <trkpt lat="49.45364" lon="0.97799">
        <ele>77.567153930664</ele>
        <time>2014-01-11T10:59:49.000Z</time>
      </trkpt>
      <trkpt lat="49.45364" lon="0.97805">
        <ele>78.140396118164</ele>
        <time>2014-01-11T10:59:53.000Z</time>
      </trkpt>
      <trkpt lat="49.45364" lon="0.97808">
        <ele>78.57447052002</ele>
        <time>2014-01-11T10:59:55.000Z</time>
      </trkpt>
      <trkpt lat="49.45362" lon="0.97815">
        <ele>79.110900878906</ele>
        <time>2014-01-11T11:00:04.000Z</time>
      </trkpt>
      <trkpt lat="49.4536" lon="0.97819">
        <ele>79.627182006836</ele>
        <time>2014-01-11T11:00:07.000Z</time>
      </trkpt>
      <trkpt lat="49.45357" lon="0.97824">
        <ele>80.189437866211</ele>
        <time>2014-01-11T11:00:10.000Z</time>
      </trkpt>
      <trkpt lat="49.45356" lon="0.97826">
        <ele>80.670654296875</ele>
        <time>2014-01-11T11:00:13.000Z</time>
      </trkpt>
      <trkpt lat="49.45353" lon="0.97837">
        <ele>81.346839904785</ele>
        <time>2014-01-11T11:00:16.000Z</time>
      </trkpt>
      <trkpt lat="49.45351" lon="0.97844">
        <ele>81.947166442871</ele>
        <time>2014-01-11T11:00:19.000Z</time>
      </trkpt>
      <trkpt lat="49.4535" lon="0.9785">
        <ele>82.544891357422</ele>
        <time>2014-01-11T11:00:22.000Z</time>
      </trkpt>
      <trkpt lat="49.4535" lon="0.97862">
        <ele>83.200477600098</ele>
        <time>2014-01-11T11:00:30.000Z</time>
      </trkpt>
      <trkpt lat="49.4535" lon="0.97866">
        <ele>83.861282348633</ele>
        <time>2014-01-11T11:00:33.000Z</time>
      </trkpt>
      <trkpt lat="49.4535" lon="0.9787">
        <ele>84.324104309082</ele>
        <time>2014-01-11T11:00:36.000Z</time>
      </trkpt>
      <trkpt lat="49.4535" lon="0.97872">
        <ele>84.729187011719</ele>
        <time>2014-01-11T11:00:39.000Z</time>
      </trkpt>
      <trkpt lat="49.45352" lon="0.97884">
        <ele>85.216842651367</ele>
        <time>2014-01-11T11:00:44.000Z</time>
      </trkpt>
      <trkpt lat="49.45352" lon="0.97889">
        <ele>85.60181427002</ele>
        <time>2014-01-11T11:00:46.000Z</time>
      </trkpt>
      <trkpt lat="49.45353" lon="0.97897">
        <ele>86.04532623291</ele>
        <time>2014-01-11T11:00:49.000Z</time>
      </trkpt>
      <trkpt lat="49.45354" lon="0.97903">
        <ele>86.515907287598</ele>
        <time>2014-01-11T11:00:51.000Z</time>
      </trkpt>
      <trkpt lat="49.45355" lon="0.97907">
        <ele>87.023536682129</ele>
        <time>2014-01-11T11:00:54.000Z</time>
      </trkpt>
      <trkpt lat="49.45357" lon="0.97922">
        <ele>87.55394744873</ele>
        <time>2014-01-11T11:01:01.000Z</time>
      </trkpt>
      <trkpt lat="49.45358" lon="0.97925">
        <ele>88.040832519531</ele>
        <time>2014-01-11T11:01:03.000Z</time>
      </trkpt>
      <trkpt lat="49.45359" lon="0.9793">
        <ele>88.456016540527</ele>
        <time>2014-01-11T11:01:06.000Z</time>
      </trkpt>
      <trkpt lat="49.45361" lon="0.97936">
        <ele>88.856521606445</ele>
        <time>2014-01-11T11:01:10.000Z</time>
      </trkpt>
      <trkpt lat="49.45362" lon="0.9794">
        <ele>89.225440979004</ele>
        <time>2014-01-11T11:01:13.000Z</time>
      </trkpt>
      <trkpt lat="49.45362" lon="0.97943">
        <ele>89.434310913086</ele>
        <time>2014-01-11T11:01:16.000Z</time>
      </trkpt>
      <trkpt lat="49.45363" lon="0.97945">
        <ele>89.641075134277</ele>
        <time>2014-01-11T11:01:18.000Z</time>
      </trkpt>
      <trkpt lat="49.45364" lon="0.97947">
        <ele>89.824813842773</ele>
        <time>2014-01-11T11:01:20.000Z</time>
      </trkpt>
      <trkpt lat="49.45366" lon="0.97954">
        <ele>90.018714904785</ele>
        <time>2014-01-11T11:01:24.000Z</time>
      </trkpt>
      <trkpt lat="49.45366" lon="0.97958">
        <ele>90.20881652832</ele>
        <time>2014-01-11T11:01:25.000Z</time>
      </trkpt>
      <trkpt lat="49.45367" lon="0.97962">
        <ele>90.419303894043</ele>
        <time>2014-01-11T11:01:28.000Z</time>
      </trkpt>
      <trkpt lat="49.45368" lon="0.97964">
        <ele>90.625076293945</ele>
        <time>2014-01-11T11:01:31.000Z</time>
      </trkpt>
      <trkpt lat="49.4537" lon="0.97969">
        <ele>90.869522094727</ele>
        <time>2014-01-11T11:01:40.000Z</time>
      </trkpt>
      <trkpt lat="49.4537" lon="0.97973">
        <ele>91.078262329102</ele>
        <time>2014-01-11T11:01:43.000Z</time>
      </trkpt>
      <trkpt lat="49.45371" lon="0.97975">
        <ele>91.275436401367</ele>
        <time>2014-01-11T11:01:46.000Z</time>
      </trkpt>
      <trkpt lat="49.45374" lon="0.97988">
        <ele>91.56510925293</ele>
        <time>2014-01-11T11:01:55.000Z</time>
      </trkpt>
      <trkpt lat="49.45374" lon="0.9799">
        <ele>91.854965209961</ele>
        <time>2014-01-11T11:01:58.000Z</time>
      </trkpt>
      <trkpt lat="49.45374" lon="0.97993">
        <ele>92.121139526367</ele>
        <time>2014-01-11T11:02:01.000Z</time>
      </trkpt>
      <trkpt lat="49.45375" lon="0.97995">
        <ele>92.374076843262</ele>
        <time>2014-01-11T11:02:04.000Z</time>
      </trkpt>
      <trkpt lat="49.45375" lon="0.97997">
        <ele>92.622032165527</ele>
        <time>2014-01-11T11:02:06.000Z</time>
      </trkpt>
      <trkpt lat="49.45374" lon="0.98">
        <ele>92.736724853516</ele>
        <time>2014-01-11T11:02:15.000Z</time>
      </trkpt>
      <trkpt lat="49.45373" lon="0.98002">
        <ele>92.824325561523</ele>
        <time>2014-01-11T11:02:17.000Z</time>
      </trkpt>
      <trkpt lat="49.45374" lon="0.98008">
        <ele>92.885208129883</ele>
        <time>2014-01-11T11:02:26.000Z</time>
      </trkpt>
      <trkpt lat="49.45375" lon="0.98008">
        <ele>92.934463500977</ele>
        <time>2014-01-11T11:02:29.000Z</time>
      </trkpt>
      <trkpt lat="49.45377" lon="0.98008">
        <ele>92.976303100586</ele>
        <time>2014-01-11T11:02:31.000Z</time>
      </trkpt>
      <trkpt lat="49.45382" lon="0.98009">
        <ele>93.050933837891</ele>
        <time>2014-01-11T11:02:37.000Z</time>
      </trkpt>
      <trkpt lat="49.45384" lon="0.9801">
        <ele>93.15079498291</ele>
        <time>2014-01-11T11:02:40.000Z</time>
      </trkpt>
      <trkpt lat="49.45387" lon="0.98014">
        <ele>93.269470214844</ele>
        <time>2014-01-11T11:02:44.000Z</time>
      </trkpt>
      <trkpt lat="49.4539" lon="0.98017">
        <ele>93.395896911621</ele>
        <time>2014-01-11T11:02:47.000Z</time>
      </trkpt>
      <trkpt lat="49.45392" lon="0.98019">
        <ele>93.522972106934</ele>
        <time>2014-01-11T11:02:49.000Z</time>
      </trkpt>
      <trkpt lat="49.45394" lon="0.98021">
        <ele>93.620491027832</ele>
        <time>2014-01-11T11:02:52.000Z</time>
      </trkpt>
      <trkpt lat="49.45398" lon="0.98027">
        <ele>93.719985961914</ele>
        <time>2014-01-11T11:02:57.000Z</time>
      </trkpt>
      <trkpt lat="49.454" lon="0.98032">
        <ele>93.804298400879</ele>
        <time>2014-01-11T11:03:00.000Z</time>
      </trkpt>
      <trkpt lat="49.45401" lon="0.98036">
        <ele>93.873825073242</ele>
        <time>2014-01-11T11:03:02.000Z</time>
      </trkpt>
      <trkpt lat="49.45402" lon="0.98038">
        <ele>93.928283691406</ele>
        <time>2014-01-11T11:03:04.000Z</time>
      </trkpt>
      <trkpt lat="49.45403" lon="0.98041">
        <ele>93.968437194824</ele>
        <time>2014-01-11T11:03:10.000Z</time>
      </trkpt>
      <trkpt lat="49.45403" lon="0.98044">
        <ele>93.980445861816</ele>
        <time>2014-01-11T11:03:13.000Z</time>
      </trkpt>
      <trkpt lat="49.45403" lon="0.98049">
        <ele>93.976165771484</ele>
        <time>2014-01-11T11:03:16.000Z</time>
      </trkpt>
      <trkpt lat="49.45403" lon="0.98051">
        <ele>93.96728515625</ele>
        <time>2014-01-11T11:03:18.000Z</time>
      </trkpt>
      <trkpt lat="49.45405" lon="0.98062">
        <ele>93.952766418457</ele>
        <time>2014-01-11T11:03:23.000Z</time>
      </trkpt>
      <trkpt lat="49.45407" lon="0.98065">
        <ele>93.940658569336</ele>
        <time>2014-01-11T11:03:26.000Z</time>
      </trkpt>
      <trkpt lat="49.45409" lon="0.98067">
        <ele>93.943664550781</ele>
        <time>2014-01-11T11:03:28.000Z</time>
      </trkpt>
      <trkpt lat="49.45411" lon="0.98069">
        <ele>93.959243774414</ele>
        <time>2014-01-11T11:03:31.000Z</time>
      </trkpt>
      <trkpt lat="49.45415" lon="0.98073">
        <ele>93.984428405762</ele>
        <time>2014-01-11T11:03:35.000Z</time>
      </trkpt>
      <trkpt lat="49.45415" lon="0.98074">
        <ele>94.016624450684</ele>
        <time>2014-01-11T11:03:37.000Z</time>
      </trkpt>
      <trkpt lat="49.45417" lon="0.98079">
        <ele>94.052795410156</ele>
        <time>2014-01-11T11:03:39.000Z</time>
      </trkpt>
      <trkpt lat="49.45419" lon="0.98081">
        <ele>94.091766357422</ele>
        <time>2014-01-11T11:03:41.000Z</time>
      </trkpt>
      <trkpt lat="49.4542" lon="0.98082">
        <ele>94.130424499512</ele>
        <time>2014-01-11T11:03:43.000Z</time>
      </trkpt>
      <trkpt lat="49.45423" lon="0.98087">
        <ele>94.210426330566</ele>
        <time>2014-01-11T11:03:46.000Z</time>
      </trkpt>
      <trkpt lat="49.45426" lon="0.98088">
        <ele>94.329643249512</ele>
        <time>2014-01-11T11:03:49.000Z</time>
      </trkpt>
      <trkpt lat="49.4543" lon="0.98093">
        <ele>94.49479675293</ele>
        <time>2014-01-11T11:03:52.000Z</time>
      </trkpt>
      <trkpt lat="49.45431" lon="0.98097">
        <ele>94.664337158203</ele>
        <time>2014-01-11T11:03:54.000Z</time>
      </trkpt>
      <trkpt lat="49.45432" lon="0.98101">
        <ele>94.837890625</ele>
        <time>2014-01-11T11:03:56.000Z</time>
      </trkpt>
      <trkpt lat="49.45433" lon="0.98105">
        <ele>94.978515625</ele>
        <time>2014-01-11T11:03:59.000Z</time>
      </trkpt>
      <trkpt lat="49.45433" lon="0.98106">
        <ele>95.083984375</ele>
        <time>2014-01-11T11:04:02.000Z</time>
      </trkpt>
      <trkpt lat="49.45436" lon="0.98112">
        <ele>95.171875</ele>
        <time>2014-01-11T11:04:05.000Z</time>
      </trkpt>
      <trkpt lat="49.45436" lon="0.98116">
        <ele>95.248046875</ele>
        <time>2014-01-11T11:04:08.000Z</time>
      </trkpt>
      <trkpt lat="49.45434" lon="0.98121">
        <ele>95.283203125</ele>
        <time>2014-01-11T11:04:19.000Z</time>
      </trkpt>
      <trkpt lat="49.45437" lon="0.98124">
        <ele>95.341796875</ele>
        <time>2014-01-11T11:04:30.000Z</time>
      </trkpt>
      <trkpt lat="49.45438" lon="0.98124">
        <ele>95.40625</ele>
        <time>2014-01-11T11:04:32.000Z</time>
      </trkpt>
      <trkpt lat="49.45438" lon="0.98122">
        <ele>95.435546875</ele>
        <time>2014-01-11T11:04:39.000Z</time>
      </trkpt>
      <trkpt lat="49.45437" lon="0.9812">
        <ele>95.453125</ele>
        <time>2014-01-11T11:04:42.000Z</time>
      </trkpt>
      <trkpt lat="49.45436" lon="0.98119">
        <ele>95.482421875</ele>
        <time>2014-01-11T11:04:46.000Z</time>
      </trkpt>
      <trkpt lat="49.45435" lon="0.98119">
        <ele>95.458984375</ele>
        <time>2014-01-11T11:04:51.000Z</time>
      </trkpt>
      <trkpt lat="49.45435" lon="0.98117">
        <ele>95.412109375</ele>
        <time>2014-01-11T11:04:55.000Z</time>
      </trkpt>
      <trkpt lat="49.45434" lon="0.9812">
        <ele>95.359375</ele>
        <time>2014-01-11T11:05:05.000Z</time>
      </trkpt>
      <trkpt lat="49.45434" lon="0.98122">
        <ele>95.306640625</ele>
        <time>2014-01-11T11:05:07.000Z</time>
      </trkpt>
      <trkpt lat="49.45434" lon="0.98125">
        <ele>95.271484375</ele>
        <time>2014-01-11T11:05:10.000Z</time>
      </trkpt>
      <trkpt lat="49.45435" lon="0.98128">
        <ele>95.259765625</ele>
        <time>2014-01-11T11:05:14.000Z</time>
      </trkpt>
      <trkpt lat="49.45435" lon="0.98126">
        <ele>95.265625</ele>
        <time>2014-01-11T11:05:22.000Z</time>
      </trkpt>
      <trkpt lat="49.45436" lon="0.98125">
        <ele>95.2890625</ele>
        <time>2014-01-11T11:05:25.000Z</time>
      </trkpt>
      <trkpt lat="49.45437" lon="0.98124">
        <ele>95.341796875</ele>
        <time>2014-01-11T11:05:28.000Z</time>
      </trkpt>
      <trkpt lat="49.4544" lon="0.98124">
        <ele>95.4296875</ele>
        <time>2014-01-11T11:05:31.000Z</time>
      </trkpt>
      <trkpt lat="49.45442" lon="0.98124">
        <ele>95.53515625</ele>
        <time>2014-01-11T11:05:34.000Z</time>
      </trkpt>
      <trkpt lat="49.45443" lon="0.98125">
        <ele>95.65234375</ele>
        <time>2014-01-11T11:05:37.000Z</time>
      </trkpt>
      <trkpt lat="49.45443" lon="0.98126">
        <ele>95.763671875</ele>
        <time>2014-01-11T11:05:40.000Z</time>
      </trkpt>
      <trkpt lat="49.45445" lon="0.98127">
        <ele>95.875</ele>
        <time>2014-01-11T11:05:48.000Z</time>
      </trkpt>
      <trkpt lat="49.45444" lon="0.98127">
        <ele>95.93359375</ele>
        <time>2014-01-11T11:05:51.000Z</time>
      </trkpt>
      <trkpt lat="49.45441" lon="0.98126">
        <ele>95.921875</ele>
        <time>2014-01-11T11:05:54.000Z</time>
      </trkpt>
      <trkpt lat="49.45438" lon="0.98125">
        <ele>95.8515625</ele>
        <time>2014-01-11T11:05:57.000Z</time>
      </trkpt>
      <trkpt lat="49.45437" lon="0.98123">
        <ele>95.7578125</ele>
        <time>2014-01-11T11:06:00.000Z</time>
      </trkpt>
      <trkpt lat="49.45434" lon="0.98122">
        <ele>95.59375</ele>
        <time>2014-01-11T11:06:04.000Z</time>
      </trkpt>
      <trkpt lat="49.45432" lon="0.98121">
        <ele>95.41796875</ele>
        <time>2014-01-11T11:06:07.000Z</time>
      </trkpt>
      <trkpt lat="49.45431" lon="0.98121">
        <ele>95.271484375</ele>
        <time>2014-01-11T11:06:10.000Z</time>
      </trkpt>
      <trkpt lat="49.45428" lon="0.98118">
        <ele>95.130859375</ele>
        <time>2014-01-11T11:06:13.000Z</time>
      </trkpt>
      <trkpt lat="49.45427" lon="0.98116">
        <ele>94.990234375</ele>
        <time>2014-01-11T11:06:16.000Z</time>
      </trkpt>
      <trkpt lat="49.45426" lon="0.98113">
        <ele>94.87890625</ele>
        <time>2014-01-11T11:06:19.000Z</time>
      </trkpt>
      <trkpt lat="49.45426" lon="0.98111">
        <ele>94.791015625</ele>
        <time>2014-01-11T11:06:21.000Z</time>
      </trkpt>
      <trkpt lat="49.45425" lon="0.98107">
        <ele>94.708984375</ele>
        <time>2014-01-11T11:06:24.000Z</time>
      </trkpt>
      <trkpt lat="49.45426" lon="0.98105">
        <ele>94.673828125</ele>
        <time>2014-01-11T11:06:31.000Z</time>
      </trkpt>
      <trkpt lat="49.45428" lon="0.98106">
        <ele>94.6796875</ele>
        <time>2014-01-11T11:06:34.000Z</time>
      </trkpt>
      <trkpt lat="49.45433" lon="0.98109">
        <ele>94.7734375</ele>
        <time>2014-01-11T11:06:37.000Z</time>
      </trkpt>
      <trkpt lat="49.45435" lon="0.9811">
        <ele>94.9140625</ele>
        <time>2014-01-11T11:06:39.000Z</time>
      </trkpt>
      <trkpt lat="49.45436" lon="0.98111">
        <ele>95.078125</ele>
        <time>2014-01-11T11:06:41.000Z</time>
      </trkpt>
      <trkpt lat="49.45441" lon="0.98113">
        <ele>95.2890625</ele>
        <time>2014-01-11T11:06:44.000Z</time>
      </trkpt>
      <trkpt lat="49.45442" lon="0.98113">
        <ele>95.5</ele>
        <time>2014-01-11T11:06:46.000Z</time>
      </trkpt>
      <trkpt lat="49.45443" lon="0.98114">
        <ele>95.658203125</ele>
        <time>2014-01-11T11:06:48.000Z</time>
      </trkpt>
      <trkpt lat="49.45444" lon="0.98115">
        <ele>95.787109375</ele>
        <time>2014-01-11T11:06:51.000Z</time>
      </trkpt>
      <trkpt lat="49.45446" lon="0.98116">
        <ele>95.916015625</ele>
        <time>2014-01-11T11:06:54.000Z</time>
      </trkpt>
      <trkpt lat="49.45446" lon="0.98115">
        <ele>95.998046875</ele>
        <time>2014-01-11T11:07:03.000Z</time>
      </trkpt>
      <trkpt lat="49.45445" lon="0.98115">
        <ele>96.0390625</ele>
        <time>2014-01-11T11:07:16.000Z</time>
      </trkpt>
      <trkpt lat="49.45444" lon="0.98112">
        <ele>96.0390625</ele>
        <time>2014-01-11T11:07:19.000Z</time>
      </trkpt>
      <trkpt lat="49.45441" lon="0.98108">
        <ele>95.998046875</ele>
        <time>2014-01-11T11:07:24.000Z</time>
      </trkpt>
      <trkpt lat="49.4544" lon="0.98106">
        <ele>95.91015625</ele>
        <time>2014-01-11T11:07:27.000Z</time>
      </trkpt>
      <trkpt lat="49.45436" lon="0.98101">
        <ele>95.763671875</ele>
        <time>2014-01-11T11:07:35.000Z</time>
      </trkpt>
      <trkpt lat="49.45436" lon="0.98099">
        <ele>95.640625</ele>
        <time>2014-01-11T11:07:39.000Z</time>
      </trkpt>
      <trkpt lat="49.45437" lon="0.98098">
        <ele>95.552734375</ele>
        <time>2014-01-11T11:07:42.000Z</time>
      </trkpt>
      <trkpt lat="49.45438" lon="0.98097">
        <ele>95.5</ele>
        <time>2014-01-11T11:07:45.000Z</time>
      </trkpt>
      <trkpt lat="49.45437" lon="0.98097">
        <ele>95.46484375</ele>
        <time>2014-01-11T11:07:53.000Z</time>
      </trkpt>
      <trkpt lat="49.45436" lon="0.98098">
        <ele>95.470703125</ele>
        <time>2014-01-11T11:07:57.000Z</time>
      </trkpt>
      <trkpt lat="49.45437" lon="0.98103">
        <ele>95.4765625</ele>
        <time>2014-01-11T11:08:04.000Z</time>
      </trkpt>
      <trkpt lat="49.45437" lon="0.98104">
        <ele>95.470703125</ele>
        <time>2014-01-11T11:08:06.000Z</time>
      </trkpt>
      <trkpt lat="49.45438" lon="0.98106">
        <ele>95.470703125</ele>
        <time>2014-01-11T11:08:09.000Z</time>
      </trkpt>
      <trkpt lat="49.45439" lon="0.98107">
        <ele>95.494140625</ele>
        <time>2014-01-11T11:08:11.000Z</time>
      </trkpt>
      <trkpt lat="49.4544" lon="0.98109">
        <ele>95.53515625</ele>
        <time>2014-01-11T11:08:13.000Z</time>
      </trkpt>
      <trkpt lat="49.45439" lon="0.98111">
        <ele>95.564453125</ele>
        <time>2014-01-11T11:08:16.000Z</time>
      </trkpt>
      <trkpt lat="49.45439" lon="0.98112">
        <ele>95.587890625</ele>
        <time>2014-01-11T11:08:19.000Z</time>
      </trkpt>
      <trkpt lat="49.45438" lon="0.98114">
        <ele>95.587890625</ele>
        <time>2014-01-11T11:08:21.000Z</time>
      </trkpt>
      <trkpt lat="49.45438" lon="0.98117">
        <ele>95.576171875</ele>
        <time>2014-01-11T11:08:24.000Z</time>
      </trkpt>
      <trkpt lat="49.45438" lon="0.98119">
        <ele>95.552734375</ele>
        <time>2014-01-11T11:08:27.000Z</time>
      </trkpt>
      <trkpt lat="49.4544" lon="0.98123">
        <ele>95.55859375</ele>
        <time>2014-01-11T11:08:33.000Z</time>
      </trkpt>
      <trkpt lat="49.4544" lon="0.98124">
        <ele>95.58203125</ele>
        <time>2014-01-11T11:08:36.000Z</time>
      </trkpt>
      <trkpt lat="49.45441" lon="0.98125">
        <ele>95.634765625</ele>
        <time>2014-01-11T11:08:44.000Z</time>
      </trkpt>
      <trkpt lat="49.45442" lon="0.98127">
        <ele>95.693359375</ele>
        <time>2014-01-11T11:08:53.000Z</time>
      </trkpt>
      <trkpt lat="49.45443" lon="0.98126">
        <ele>95.775390625</ele>
        <time>2014-01-11T11:08:56.000Z</time>
      </trkpt>
      <trkpt lat="49.45445" lon="0.98127">
        <ele>95.8515625</ele>
        <time>2014-01-11T11:09:05.000Z</time>
      </trkpt>
      <trkpt lat="49.45444" lon="0.98126">
        <ele>95.904296875</ele>
        <time>2014-01-11T11:09:09.000Z</time>
      </trkpt>
      <trkpt lat="49.45443" lon="0.98124">
        <ele>95.93359375</ele>
        <time>2014-01-11T11:09:12.000Z</time>
      </trkpt>
      <trkpt lat="49.45443" lon="0.98123">
        <ele>95.951171875</ele>
        <time>2014-01-11T11:09:18.000Z</time>
      </trkpt>
      <trkpt lat="49.45444" lon="0.98122">
        <ele>95.95703125</ele>
        <time>2014-01-11T11:09:30.000Z</time>
      </trkpt>
      <trkpt lat="49.45444" lon="0.98121">
        <ele>95.951171875</ele>
        <time>2014-01-11T11:09:38.000Z</time>
      </trkpt>
      <trkpt lat="49.45443" lon="0.98118">
        <ele>95.9453125</ele>
        <time>2014-01-11T11:09:51.000Z</time>
      </trkpt>
      <trkpt lat="49.45442" lon="0.98118">
        <ele>95.927734375</ele>
        <time>2014-01-11T11:09:54.000Z</time>
      </trkpt>
      <trkpt lat="49.45441" lon="0.9812">
        <ele>95.892578125</ele>
        <time>2014-01-11T11:09:57.000Z</time>
      </trkpt>
      <trkpt lat="49.4544" lon="0.98121">
        <ele>95.833984375</ele>
        <time>2014-01-11T11:09:59.000Z</time>
      </trkpt>
      <trkpt lat="49.45436" lon="0.98128">
        <ele>95.7109375</ele>
        <time>2014-01-11T11:10:05.000Z</time>
      </trkpt>
      <trkpt lat="49.45433" lon="0.98131">
        <ele>95.564453125</ele>
        <time>2014-01-11T11:10:07.000Z</time>
      </trkpt>
      <trkpt lat="49.4543" lon="0.98135">
        <ele>95.388671875</ele>
        <time>2014-01-11T11:10:10.000Z</time>
      </trkpt>
      <trkpt lat="49.45422" lon="0.98142">
        <ele>95.125</ele>
        <time>2014-01-11T11:10:14.000Z</time>
      </trkpt>
      <trkpt lat="49.45417" lon="0.98146">
        <ele>94.802734375</ele>
        <time>2014-01-11T11:10:16.000Z</time>
      </trkpt>
      <trkpt lat="49.45409" lon="0.98151">
        <ele>94.4921875</ele>
        <time>2014-01-11T11:10:19.000Z</time>
      </trkpt>
      <trkpt lat="49.45401" lon="0.98155">
        <ele>94.177734375</ele>
        <time>2014-01-11T11:10:22.000Z</time>
      </trkpt>
      <trkpt lat="49.45396" lon="0.98157">
        <ele>93.884765625</ele>
        <time>2014-01-11T11:10:24.000Z</time>
      </trkpt>
      <trkpt lat="49.45387" lon="0.98161">
        <ele>93.66015625</ele>
        <time>2014-01-11T11:10:27.000Z</time>
      </trkpt>
      <trkpt lat="49.45378" lon="0.98165">
        <ele>93.462890625</ele>
        <time>2014-01-11T11:10:30.000Z</time>
      </trkpt>
      <trkpt lat="49.45368" lon="0.98173">
        <ele>93.231994628906</ele>
        <time>2014-01-11T11:10:33.000Z</time>
      </trkpt>
      <trkpt lat="49.45357" lon="0.98186">
        <ele>92.906372070312</ele>
        <time>2014-01-11T11:10:36.000Z</time>
      </trkpt>
      <trkpt lat="49.45345" lon="0.98197">
        <ele>92.459251403809</ele>
        <time>2014-01-11T11:10:39.000Z</time>
      </trkpt>
      <trkpt lat="49.45337" lon="0.98204">
        <ele>91.952346801758</ele>
        <time>2014-01-11T11:10:41.000Z</time>
      </trkpt>
      <trkpt lat="49.45324" lon="0.98216">
        <ele>91.467498779297</ele>
        <time>2014-01-11T11:10:44.000Z</time>
      </trkpt>
      <trkpt lat="49.45317" lon="0.98222">
        <ele>91.093528747559</ele>
        <time>2014-01-11T11:10:46.000Z</time>
      </trkpt>
      <trkpt lat="49.45309" lon="0.9823">
        <ele>90.885078430176</ele>
        <time>2014-01-11T11:10:48.000Z</time>
      </trkpt>
      <trkpt lat="49.45298" lon="0.98239">
        <ele>90.905982971191</ele>
        <time>2014-01-11T11:10:51.000Z</time>
      </trkpt>
      <trkpt lat="49.45287" lon="0.98248">
        <ele>91.114356994629</ele>
        <time>2014-01-11T11:10:54.000Z</time>
      </trkpt>
      <trkpt lat="49.4528" lon="0.98254">
        <ele>91.421875</ele>
        <time>2014-01-11T11:10:56.000Z</time>
      </trkpt>
      <trkpt lat="49.45274" lon="0.98259">
        <ele>91.774398803711</ele>
        <time>2014-01-11T11:10:58.000Z</time>
      </trkpt>
      <trkpt lat="49.45265" lon="0.9827">
        <ele>92.195533752441</ele>
        <time>2014-01-11T11:11:01.000Z</time>
      </trkpt>
      <trkpt lat="49.45256" lon="0.98281">
        <ele>92.644821166992</ele>
        <time>2014-01-11T11:11:04.000Z</time>
      </trkpt>
      <trkpt lat="49.45251" lon="0.98288">
        <ele>93.072074890137</ele>
        <time>2014-01-11T11:11:06.000Z</time>
      </trkpt>
      <trkpt lat="49.45244" lon="0.98299">
        <ele>93.467575073242</ele>
        <time>2014-01-11T11:11:09.000Z</time>
      </trkpt>
      <trkpt lat="49.45237" lon="0.9831">
        <ele>93.832374572754</ele>
        <time>2014-01-11T11:11:12.000Z</time>
      </trkpt>
      <trkpt lat="49.4523" lon="0.9832">
        <ele>94.14852142334</ele>
        <time>2014-01-11T11:11:15.000Z</time>
      </trkpt>
      <trkpt lat="49.45222" lon="0.98331">
        <ele>94.424407958984</ele>
        <time>2014-01-11T11:11:18.000Z</time>
      </trkpt>
      <trkpt lat="49.45214" lon="0.98342">
        <ele>94.662864685059</ele>
        <time>2014-01-11T11:11:21.000Z</time>
      </trkpt>
      <trkpt lat="49.45208" lon="0.98353">
        <ele>94.857872009277</ele>
        <time>2014-01-11T11:11:24.000Z</time>
      </trkpt>
      <trkpt lat="49.452" lon="0.98364">
        <ele>95.037246704102</ele>
        <time>2014-01-11T11:11:27.000Z</time>
      </trkpt>
      <trkpt lat="49.45192" lon="0.9837">
        <ele>95.212951660156</ele>
        <time>2014-01-11T11:11:30.000Z</time>
      </trkpt>
      <trkpt lat="49.45184" lon="0.98382">
        <ele>95.348815917969</ele>
        <time>2014-01-11T11:11:33.000Z</time>
      </trkpt>
      <trkpt lat="49.45179" lon="0.98388">
        <ele>95.481575012207</ele>
        <time>2014-01-11T11:11:35.000Z</time>
      </trkpt>
      <trkpt lat="49.45173" lon="0.98399">
        <ele>95.643531799316</ele>
        <time>2014-01-11T11:11:37.000Z</time>
      </trkpt>
      <trkpt lat="49.45163" lon="0.98411">
        <ele>95.800743103027</ele>
        <time>2014-01-11T11:11:40.000Z</time>
      </trkpt>
      <trkpt lat="49.45155" lon="0.98425">
        <ele>95.872955322266</ele>
        <time>2014-01-11T11:11:43.000Z</time>
      </trkpt>
      <trkpt lat="49.4515" lon="0.98431">
        <ele>95.895530700684</ele>
        <time>2014-01-11T11:11:45.000Z</time>
      </trkpt>
      <trkpt lat="49.4514" lon="0.98442">
        <ele>95.857711791992</ele>
        <time>2014-01-11T11:11:48.000Z</time>
      </trkpt>
      <trkpt lat="49.45132" lon="0.9845">
        <ele>95.754257202148</ele>
        <time>2014-01-11T11:11:51.000Z</time>
      </trkpt>
      <trkpt lat="49.45127" lon="0.98455">
        <ele>95.605033874512</ele>
        <time>2014-01-11T11:11:54.000Z</time>
      </trkpt>
      <trkpt lat="49.45121" lon="0.98459">
        <ele>95.469413757324</ele>
        <time>2014-01-11T11:11:56.000Z</time>
      </trkpt>
      <trkpt lat="49.45116" lon="0.98464">
        <ele>95.330101013184</ele>
        <time>2014-01-11T11:11:58.000Z</time>
      </trkpt>
      <trkpt lat="49.45107" lon="0.98473">
        <ele>95.177192687988</ele>
        <time>2014-01-11T11:12:01.000Z</time>
      </trkpt>
      <trkpt lat="49.45098" lon="0.98484">
        <ele>94.995559692383</ele>
        <time>2014-01-11T11:12:04.000Z</time>
      </trkpt>
      <trkpt lat="49.4509" lon="0.98494">
        <ele>94.773048400879</ele>
        <time>2014-01-11T11:12:07.000Z</time>
      </trkpt>
      <trkpt lat="49.45079" lon="0.98508">
        <ele>94.410903930664</ele>
        <time>2014-01-11T11:12:10.000Z</time>
      </trkpt>
      <trkpt lat="49.45069" lon="0.98518">
        <ele>93.897087097168</ele>
        <time>2014-01-11T11:12:13.000Z</time>
      </trkpt>
      <trkpt lat="49.45055" lon="0.98529">
        <ele>93.241088867188</ele>
        <time>2014-01-11T11:12:16.000Z</time>
      </trkpt>
      <trkpt lat="49.45042" lon="0.98543">
        <ele>92.416343688965</ele>
        <time>2014-01-11T11:12:19.000Z</time>
      </trkpt>
      <trkpt lat="49.45031" lon="0.98555">
        <ele>91.457672119141</ele>
        <time>2014-01-11T11:12:22.000Z</time>
      </trkpt>
      <trkpt lat="49.45021" lon="0.98566">
        <ele>90.480041503906</ele>
        <time>2014-01-11T11:12:25.000Z</time>
      </trkpt>
      <trkpt lat="49.45011" lon="0.98575">
        <ele>89.521179199219</ele>
        <time>2014-01-11T11:12:28.000Z</time>
      </trkpt>
      <trkpt lat="49.45003" lon="0.98582">
        <ele>88.637847900391</ele>
        <time>2014-01-11T11:12:30.000Z</time>
      </trkpt>
      <trkpt lat="49.44994" lon="0.98593">
        <ele>87.883842468262</ele>
        <time>2014-01-11T11:12:33.000Z</time>
      </trkpt>
      <trkpt lat="49.44985" lon="0.98604">
        <ele>87.259727478027</ele>
        <time>2014-01-11T11:12:36.000Z</time>
      </trkpt>
      <trkpt lat="49.44979" lon="0.98612">
        <ele>86.778678894043</ele>
        <time>2014-01-11T11:12:38.000Z</time>
      </trkpt>
      <trkpt lat="49.44971" lon="0.98624">
        <ele>86.418273925781</ele>
        <time>2014-01-11T11:12:41.000Z</time>
      </trkpt>
      <trkpt lat="49.44965" lon="0.98631">
        <ele>86.16007232666</ele>
        <time>2014-01-11T11:12:43.000Z</time>
      </trkpt>
      <trkpt lat="49.44957" lon="0.98642">
        <ele>85.996475219727</ele>
        <time>2014-01-11T11:12:46.000Z</time>
      </trkpt>
      <trkpt lat="49.44946" lon="0.98653">
        <ele>85.91943359375</ele>
        <time>2014-01-11T11:12:49.000Z</time>
      </trkpt>
      <trkpt lat="49.44939" lon="0.98657">
        <ele>85.926452636719</ele>
        <time>2014-01-11T11:12:51.000Z</time>
      </trkpt>
      <trkpt lat="49.44934" lon="0.98662">
        <ele>85.995742797852</ele>
        <time>2014-01-11T11:12:53.000Z</time>
      </trkpt>
      <trkpt lat="49.44924" lon="0.98666">
        <ele>86.155410766602</ele>
        <time>2014-01-11T11:12:56.000Z</time>
      </trkpt>
      <trkpt lat="49.44915" lon="0.98672">
        <ele>86.452346801758</ele>
        <time>2014-01-11T11:12:58.000Z</time>
      </trkpt>
      <trkpt lat="49.44901" lon="0.98682">
        <ele>86.851806640625</ele>
        <time>2014-01-11T11:13:01.000Z</time>
      </trkpt>
      <trkpt lat="49.44898" lon="0.98689">
        <ele>87.270004272461</ele>
        <time>2014-01-11T11:13:03.000Z</time>
      </trkpt>
      <trkpt lat="49.4489" lon="0.98696">
        <ele>87.737869262695</ele>
        <time>2014-01-11T11:13:06.000Z</time>
      </trkpt>
      <trkpt lat="49.4488" lon="0.987">
        <ele>88.18034362793</ele>
        <time>2014-01-11T11:13:09.000Z</time>
      </trkpt>
      <trkpt lat="49.44872" lon="0.98702">
        <ele>88.522727966309</ele>
        <time>2014-01-11T11:13:11.000Z</time>
      </trkpt>
      <trkpt lat="49.44865" lon="0.98708">
        <ele>88.800155639648</ele>
        <time>2014-01-11T11:13:13.000Z</time>
      </trkpt>
      <trkpt lat="49.44853" lon="0.98719">
        <ele>89.110618591309</ele>
        <time>2014-01-11T11:13:16.000Z</time>
      </trkpt>
      <trkpt lat="49.44833" lon="0.98733">
        <ele>89.461380004883</ele>
        <time>2014-01-11T11:13:19.000Z</time>
      </trkpt>
      <trkpt lat="49.44816" lon="0.98751">
        <ele>89.797172546387</ele>
        <time>2014-01-11T11:13:22.000Z</time>
      </trkpt>
      <trkpt lat="49.44795" lon="0.98768">
        <ele>89.846473693848</ele>
        <time>2014-01-11T11:13:25.000Z</time>
      </trkpt>
      <trkpt lat="49.44776" lon="0.98786">
        <ele>89.539779663086</ele>
        <time>2014-01-11T11:13:28.000Z</time>
      </trkpt>
      <trkpt lat="49.44763" lon="0.98816">
        <ele>88.707130432129</ele>
        <time>2014-01-11T11:13:31.000Z</time>
      </trkpt>
      <trkpt lat="49.44742" lon="0.98843">
        <ele>87.225624084473</ele>
        <time>2014-01-11T11:13:34.000Z</time>
      </trkpt>
      <trkpt lat="49.44732" lon="0.98857">
        <ele>85.425308227539</ele>
        <time>2014-01-11T11:13:36.000Z</time>
      </trkpt>
      <trkpt lat="49.44711" lon="0.98887">
        <ele>83.32502746582</ele>
        <time>2014-01-11T11:13:40.000Z</time>
      </trkpt>
      <trkpt lat="49.447" lon="0.98894">
        <ele>81.336456298828</ele>
        <time>2014-01-11T11:13:41.000Z</time>
      </trkpt>
      <trkpt lat="49.4468" lon="0.98906">
        <ele>79.448852539062</ele>
        <time>2014-01-11T11:13:44.000Z</time>
      </trkpt>
      <trkpt lat="49.44667" lon="0.98924">
        <ele>77.935157775879</ele>
        <time>2014-01-11T11:13:46.000Z</time>
      </trkpt>
      <trkpt lat="49.44653" lon="0.98939">
        <ele>76.756683349609</ele>
        <time>2014-01-11T11:13:49.000Z</time>
      </trkpt>
      <trkpt lat="49.44638" lon="0.98947">
        <ele>76.085006713867</ele>
        <time>2014-01-11T11:13:52.000Z</time>
      </trkpt>
      <trkpt lat="49.44633" lon="0.98958">
        <ele>75.631813049316</ele>
        <time>2014-01-11T11:13:54.000Z</time>
      </trkpt>
      <trkpt lat="49.44621" lon="0.98966">
        <ele>75.455688476562</ele>
        <time>2014-01-11T11:13:57.000Z</time>
      </trkpt>
      <trkpt lat="49.44611" lon="0.98983">
        <ele>75.429054260254</ele>
        <time>2014-01-11T11:14:00.000Z</time>
      </trkpt>
      <trkpt lat="49.44605" lon="0.98995">
        <ele>75.337341308594</ele>
        <time>2014-01-11T11:14:02.000Z</time>
      </trkpt>
      <trkpt lat="49.44599" lon="0.99005">
        <ele>75.292579650879</ele>
        <time>2014-01-11T11:14:04.000Z</time>
      </trkpt>
      <trkpt lat="49.4459" lon="0.99016">
        <ele>75.216316223145</ele>
        <time>2014-01-11T11:14:07.000Z</time>
      </trkpt>
      <trkpt lat="49.44584" lon="0.99024">
        <ele>75.193550109863</ele>
        <time>2014-01-11T11:14:09.000Z</time>
      </trkpt>
      <trkpt lat="49.44578" lon="0.99033">
        <ele>75.269371032715</ele>
        <time>2014-01-11T11:14:12.000Z</time>
      </trkpt>
      <trkpt lat="49.44568" lon="0.99046">
        <ele>75.487426757812</ele>
        <time>2014-01-11T11:14:16.000Z</time>
      </trkpt>
      <trkpt lat="49.44558" lon="0.99059">
        <ele>75.809196472168</ele>
        <time>2014-01-11T11:14:19.000Z</time>
      </trkpt>
      <trkpt lat="49.44548" lon="0.99072">
        <ele>76.213500976562</ele>
        <time>2014-01-11T11:14:22.000Z</time>
      </trkpt>
      <trkpt lat="49.44542" lon="0.99078">
        <ele>76.647338867188</ele>
        <time>2014-01-11T11:14:24.000Z</time>
      </trkpt>
      <trkpt lat="49.44537" lon="0.99084">
        <ele>77.01042175293</ele>
        <time>2014-01-11T11:14:26.000Z</time>
      </trkpt>
      <trkpt lat="49.44529" lon="0.99093">
        <ele>77.270767211914</ele>
        <time>2014-01-11T11:14:29.000Z</time>
      </trkpt>
      <trkpt lat="49.44525" lon="0.991">
        <ele>77.45238494873</ele>
        <time>2014-01-11T11:14:31.000Z</time>
      </trkpt>
      <trkpt lat="49.44519" lon="0.99108">
        <ele>77.580947875977</ele>
        <time>2014-01-11T11:14:34.000Z</time>
      </trkpt>
      <trkpt lat="49.44509" lon="0.99115">
        <ele>77.683441162109</ele>
        <time>2014-01-11T11:14:42.000Z</time>
      </trkpt>
      <trkpt lat="49.44494" lon="0.99121">
        <ele>77.835403442383</ele>
        <time>2014-01-11T11:14:51.000Z</time>
      </trkpt>
      <trkpt lat="49.44485" lon="0.99128">
        <ele>78.073661804199</ele>
        <time>2014-01-11T11:14:57.000Z</time>
      </trkpt>
      <trkpt lat="49.44474" lon="0.99126">
        <ele>78.390518188477</ele>
        <time>2014-01-11T11:15:02.000Z</time>
      </trkpt>
      <trkpt lat="49.44447" lon="0.99113">
        <ele>78.906089782715</ele>
        <time>2014-01-11T11:15:18.000Z</time>
      </trkpt>
      <trkpt lat="49.44419" lon="0.99114">
        <ele>79.709426879883</ele>
        <time>2014-01-11T11:15:28.000Z</time>
      </trkpt>
      <trkpt lat="49.44392" lon="0.9911">
        <ele>80.46704864502</ele>
        <time>2014-01-11T11:15:43.000Z</time>
      </trkpt>
      <trkpt lat="49.4437" lon="0.99101">
        <ele>81.113868713379</ele>
        <time>2014-01-11T11:15:51.000Z</time>
      </trkpt>
      <trkpt lat="49.44362" lon="0.99098">
        <ele>81.659591674805</ele>
        <time>2014-01-11T11:15:53.000Z</time>
      </trkpt>
      <trkpt lat="49.44337" lon="0.99094">
        <ele>81.976638793945</ele>
        <time>2014-01-11T11:16:02.000Z</time>
      </trkpt>
      <trkpt lat="49.4431" lon="0.99091">
        <ele>81.958518981934</ele>
        <time>2014-01-11T11:16:20.000Z</time>
      </trkpt>
      <trkpt lat="49.44292" lon="0.9908">
        <ele>81.84383392334</ele>
        <time>2014-01-11T11:16:30.000Z</time>
      </trkpt>
      <trkpt lat="49.44282" lon="0.99077">
        <ele>81.689781188965</ele>
        <time>2014-01-11T11:16:33.000Z</time>
      </trkpt>
      <trkpt lat="49.44273" lon="0.99073">
        <ele>81.495414733887</ele>
        <time>2014-01-11T11:16:36.000Z</time>
      </trkpt>
      <trkpt lat="49.44264" lon="0.99069">
        <ele>81.26180267334</ele>
        <time>2014-01-11T11:16:39.000Z</time>
      </trkpt>
      <trkpt lat="49.44253" lon="0.99066">
        <ele>81.029846191406</ele>
        <time>2014-01-11T11:16:42.000Z</time>
      </trkpt>
      <trkpt lat="49.44248" lon="0.99065">
        <ele>80.86328125</ele>
        <time>2014-01-11T11:16:44.000Z</time>
      </trkpt>
      <trkpt lat="49.44244" lon="0.99063">
        <ele>80.739639282227</ele>
        <time>2014-01-11T11:16:46.000Z</time>
      </trkpt>
      <trkpt lat="49.44237" lon="0.9906">
        <ele>80.662437438965</ele>
        <time>2014-01-11T11:16:49.000Z</time>
      </trkpt>
      <trkpt lat="49.44232" lon="0.99057">
        <ele>80.625381469727</ele>
        <time>2014-01-11T11:16:52.000Z</time>
      </trkpt>
      <trkpt lat="49.4423" lon="0.99057">
        <ele>80.633926391602</ele>
        <time>2014-01-11T11:16:55.000Z</time>
      </trkpt>
      <trkpt lat="49.44209" lon="0.99047">
        <ele>80.681968688965</ele>
        <time>2014-01-11T11:17:03.000Z</time>
      </trkpt>
      <trkpt lat="49.44202" lon="0.99044">
        <ele>80.742225646973</ele>
        <time>2014-01-11T11:17:06.000Z</time>
      </trkpt>
      <trkpt lat="49.44196" lon="0.99042">
        <ele>80.807945251465</ele>
        <time>2014-01-11T11:17:09.000Z</time>
      </trkpt>
      <trkpt lat="49.44191" lon="0.9904">
        <ele>80.886779785156</ele>
        <time>2014-01-11T11:17:11.000Z</time>
      </trkpt>
      <trkpt lat="49.44183" lon="0.99038">
        <ele>80.982513427734</ele>
        <time>2014-01-11T11:17:14.000Z</time>
      </trkpt>
      <trkpt lat="49.4418" lon="0.99037">
        <ele>81.054489135742</ele>
        <time>2014-01-11T11:17:16.000Z</time>
      </trkpt>
      <trkpt lat="49.44167" lon="0.99034">
        <ele>81.150886535645</ele>
        <time>2014-01-11T11:17:19.000Z</time>
      </trkpt>
      <trkpt lat="49.44156" lon="0.99031">
        <ele>81.298446655273</ele>
        <time>2014-01-11T11:17:22.000Z</time>
      </trkpt>
      <trkpt lat="49.44146" lon="0.99029">
        <ele>81.492034912109</ele>
        <time>2014-01-11T11:17:25.000Z</time>
      </trkpt>
      <trkpt lat="49.44143" lon="0.99028">
        <ele>81.682312011719</ele>
        <time>2014-01-11T11:17:28.000Z</time>
      </trkpt>
      <trkpt lat="49.44131" lon="0.99026">
        <ele>81.931900024414</ele>
        <time>2014-01-11T11:17:30.000Z</time>
      </trkpt>
      <trkpt lat="49.44126" lon="0.99025">
        <ele>82.176818847656</ele>
        <time>2014-01-11T11:17:33.000Z</time>
      </trkpt>
      <trkpt lat="49.44123" lon="0.99024">
        <ele>82.379287719727</ele>
        <time>2014-01-11T11:17:35.000Z</time>
      </trkpt>
      <trkpt lat="49.44118" lon="0.99024">
        <ele>82.549995422363</ele>
        <time>2014-01-11T11:17:37.000Z</time>
      </trkpt>
      <trkpt lat="49.4411" lon="0.99022">
        <ele>82.755981445312</ele>
        <time>2014-01-11T11:17:40.000Z</time>
      </trkpt>
      <trkpt lat="49.44104" lon="0.99021">
        <ele>82.931480407715</ele>
        <time>2014-01-11T11:17:43.000Z</time>
      </trkpt>
      <trkpt lat="49.44094" lon="0.9902">
        <ele>83.135238647461</ele>
        <time>2014-01-11T11:17:46.000Z</time>
      </trkpt>
      <trkpt lat="49.44089" lon="0.99017">
        <ele>83.353408813477</ele>
        <time>2014-01-11T11:17:49.000Z</time>
      </trkpt>
      <trkpt lat="49.44079" lon="0.99013">
        <ele>83.56413269043</ele>
        <time>2014-01-11T11:17:52.000Z</time>
      </trkpt>
      <trkpt lat="49.44063" lon="0.99007">
        <ele>83.652694702148</ele>
        <time>2014-01-11T11:18:00.000Z</time>
      </trkpt>
      <trkpt lat="49.44057" lon="0.99005">
        <ele>83.675750732422</ele>
        <time>2014-01-11T11:18:03.000Z</time>
      </trkpt>
      <trkpt lat="49.44045" lon="0.99">
        <ele>83.566146850586</ele>
        <time>2014-01-11T11:18:06.000Z</time>
      </trkpt>
      <trkpt lat="49.44042" lon="0.98999">
        <ele>83.392784118652</ele>
        <time>2014-01-11T11:18:09.000Z</time>
      </trkpt>
      <trkpt lat="49.44012" lon="0.98989">
        <ele>82.95361328125</ele>
        <time>2014-01-11T11:18:14.000Z</time>
      </trkpt>
      <trkpt lat="49.44006" lon="0.98987">
        <ele>82.532485961914</ele>
        <time>2014-01-11T11:18:16.000Z</time>
      </trkpt>
      <trkpt lat="49.44002" lon="0.98984">
        <ele>82.102378845215</ele>
        <time>2014-01-11T11:18:19.000Z</time>
      </trkpt>
      <trkpt lat="49.43991" lon="0.98979">
        <ele>81.746383666992</ele>
        <time>2014-01-11T11:18:23.000Z</time>
      </trkpt>
      <trkpt lat="49.43985" lon="0.98977">
        <ele>81.443824768066</ele>
        <time>2014-01-11T11:18:26.000Z</time>
      </trkpt>
      <trkpt lat="49.43979" lon="0.98975">
        <ele>81.420425415039</ele>
        <time>2014-01-11T11:18:29.000Z</time>
      </trkpt>
      <trkpt lat="49.43977" lon="0.98974">
        <ele>81.456192016602</ele>
        <time>2014-01-11T11:18:32.000Z</time>
      </trkpt>
      <trkpt lat="49.43967" lon="0.9897">
        <ele>81.589683532715</ele>
        <time>2014-01-11T11:18:36.000Z</time>
      </trkpt>
      <trkpt lat="49.43953" lon="0.98968">
        <ele>81.818069458008</ele>
        <time>2014-01-11T11:18:44.000Z</time>
      </trkpt>
      <trkpt lat="49.43948" lon="0.98967">
        <ele>82.061630249023</ele>
        <time>2014-01-11T11:18:46.000Z</time>
      </trkpt>
      <trkpt lat="49.43945" lon="0.98967">
        <ele>82.293357849121</ele>
        <time>2014-01-11T11:18:48.000Z</time>
      </trkpt>
      <trkpt lat="49.43932" lon="0.98963">
        <ele>82.6220703125</ele>
        <time>2014-01-11T11:18:51.000Z</time>
      </trkpt>
      <trkpt lat="49.43929" lon="0.98962">
        <ele>82.914962768555</ele>
        <time>2014-01-11T11:18:54.000Z</time>
      </trkpt>
      <trkpt lat="49.43917" lon="0.98959">
        <ele>83.215194702148</ele>
        <time>2014-01-11T11:18:57.000Z</time>
      </trkpt>
      <trkpt lat="49.43908" lon="0.98956">
        <ele>83.494812011719</ele>
        <time>2014-01-11T11:19:00.000Z</time>
      </trkpt>
      <trkpt lat="49.43904" lon="0.98955">
        <ele>83.755821228027</ele>
        <time>2014-01-11T11:19:02.000Z</time>
      </trkpt>
      <trkpt lat="49.43891" lon="0.98953">
        <ele>83.923133850098</ele>
        <time>2014-01-11T11:19:05.000Z</time>
      </trkpt>
      <trkpt lat="49.43888" lon="0.98952">
        <ele>84.068740844727</ele>
        <time>2014-01-11T11:19:07.000Z</time>
      </trkpt>
      <trkpt lat="49.43869" lon="0.98947">
        <ele>84.12052154541</ele>
        <time>2014-01-11T11:19:11.000Z</time>
      </trkpt>
      <trkpt lat="49.43845" lon="0.98943">
        <ele>84.164131164551</ele>
        <time>2014-01-11T11:19:14.000Z</time>
      </trkpt>
      <trkpt lat="49.43841" lon="0.98941">
        <ele>84.20450592041</ele>
        <time>2014-01-11T11:19:16.000Z</time>
      </trkpt>
      <trkpt lat="49.43831" lon="0.98939">
        <ele>84.229118347168</ele>
        <time>2014-01-11T11:19:19.000Z</time>
      </trkpt>
      <trkpt lat="49.43821" lon="0.98937">
        <ele>84.234725952148</ele>
        <time>2014-01-11T11:19:24.000Z</time>
      </trkpt>
      <trkpt lat="49.43819" lon="0.98936">
        <ele>84.223167419434</ele>
        <time>2014-01-11T11:19:27.000Z</time>
      </trkpt>
      <trkpt lat="49.43814" lon="0.98935">
        <ele>84.193519592285</ele>
        <time>2014-01-11T11:19:30.000Z</time>
      </trkpt>
      <trkpt lat="49.43808" lon="0.98933">
        <ele>84.155349731445</ele>
        <time>2014-01-11T11:19:34.000Z</time>
      </trkpt>
      <trkpt lat="49.43803" lon="0.98932">
        <ele>84.114181518555</ele>
        <time>2014-01-11T11:19:35.000Z</time>
      </trkpt>
      <trkpt lat="49.43798" lon="0.98932">
        <ele>84.085601806641</ele>
        <time>2014-01-11T11:19:37.000Z</time>
      </trkpt>
      <trkpt lat="49.43796" lon="0.98931">
        <ele>84.057983398438</ele>
        <time>2014-01-11T11:19:39.000Z</time>
      </trkpt>
      <trkpt lat="49.43785" lon="0.98929">
        <ele>84.029830932617</ele>
        <time>2014-01-11T11:19:42.000Z</time>
      </trkpt>
      <trkpt lat="49.4378" lon="0.98929">
        <ele>84.006011962891</ele>
        <time>2014-01-11T11:19:44.000Z</time>
      </trkpt>
      <trkpt lat="49.43774" lon="0.98928">
        <ele>83.984642028809</ele>
        <time>2014-01-11T11:19:46.000Z</time>
      </trkpt>
      <trkpt lat="49.43765" lon="0.98927">
        <ele>83.963241577148</ele>
        <time>2014-01-11T11:19:49.000Z</time>
      </trkpt>
      <trkpt lat="49.4376" lon="0.98926">
        <ele>83.943466186523</ele>
        <time>2014-01-11T11:19:51.000Z</time>
      </trkpt>
      <trkpt lat="49.43754" lon="0.98924">
        <ele>83.933197021484</ele>
        <time>2014-01-11T11:19:54.000Z</time>
      </trkpt>
      <trkpt lat="49.43742" lon="0.98918">
        <ele>83.773086547852</ele>
        <time>2014-01-11T11:19:57.000Z</time>
      </trkpt>
      <trkpt lat="49.4373" lon="0.98915">
        <ele>83.328659057617</ele>
        <time>2014-01-11T11:20:00.000Z</time>
      </trkpt>
      <trkpt lat="49.43718" lon="0.98913">
        <ele>82.593139648438</ele>
        <time>2014-01-11T11:20:02.000Z</time>
      </trkpt>
      <trkpt lat="49.43713" lon="0.98912">
        <ele>81.738830566406</ele>
        <time>2014-01-11T11:20:05.000Z</time>
      </trkpt>
      <trkpt lat="49.43694" lon="0.98909">
        <ele>80.42204284668</ele>
        <time>2014-01-11T11:20:09.000Z</time>
      </trkpt>
      <trkpt lat="49.43687" lon="0.98908">
        <ele>79.108863830566</ele>
        <time>2014-01-11T11:20:12.000Z</time>
      </trkpt>
      <trkpt lat="49.43673" lon="0.98908">
        <ele>77.745132446289</ele>
        <time>2014-01-11T11:20:15.000Z</time>
      </trkpt>
      <trkpt lat="49.43658" lon="0.98905">
        <ele>76.415954589844</ele>
        <time>2014-01-11T11:20:18.000Z</time>
      </trkpt>
      <trkpt lat="49.4365" lon="0.98903">
        <ele>75.086471557617</ele>
        <time>2014-01-11T11:20:20.000Z</time>
      </trkpt>
      <trkpt lat="49.43618" lon="0.98891">
        <ele>73.685653686523</ele>
        <time>2014-01-11T11:20:24.000Z</time>
      </trkpt>
      <trkpt lat="49.43598" lon="0.98885">
        <ele>72.123336791992</ele>
        <time>2014-01-11T11:20:29.000Z</time>
      </trkpt>
      <trkpt lat="49.43591" lon="0.98884">
        <ele>70.791282653809</ele>
        <time>2014-01-11T11:20:32.000Z</time>
      </trkpt>
      <trkpt lat="49.43586" lon="0.98882">
        <ele>69.64087677002</ele>
        <time>2014-01-11T11:20:34.000Z</time>
      </trkpt>
      <trkpt lat="49.43583" lon="0.98882">
        <ele>68.576072692871</ele>
        <time>2014-01-11T11:20:37.000Z</time>
      </trkpt>
      <trkpt lat="49.43578" lon="0.98885">
        <ele>68.081237792969</ele>
        <time>2014-01-11T11:20:39.000Z</time>
      </trkpt>
      <trkpt lat="49.43572" lon="0.98891">
        <ele>67.961044311523</ele>
        <time>2014-01-11T11:20:42.000Z</time>
      </trkpt>
      <trkpt lat="49.43571" lon="0.98895">
        <ele>68.009376525879</ele>
        <time>2014-01-11T11:20:45.000Z</time>
      </trkpt>
      <trkpt lat="49.43573" lon="0.98901">
        <ele>68.266128540039</ele>
        <time>2014-01-11T11:20:50.000Z</time>
      </trkpt>
      <trkpt lat="49.43575" lon="0.98904">
        <ele>68.613815307617</ele>
        <time>2014-01-11T11:20:52.000Z</time>
      </trkpt>
      <trkpt lat="49.43577" lon="0.98907">
        <ele>69.003280639648</ele>
        <time>2014-01-11T11:20:55.000Z</time>
      </trkpt>
      <trkpt lat="49.43581" lon="0.9891">
        <ele>69.422912597656</ele>
        <time>2014-01-11T11:20:59.000Z</time>
      </trkpt>
      <trkpt lat="49.43583" lon="0.9891">
        <ele>69.799690246582</ele>
        <time>2014-01-11T11:21:01.000Z</time>
      </trkpt>
      <trkpt lat="49.43586" lon="0.9891">
        <ele>70.070449829102</ele>
        <time>2014-01-11T11:21:04.000Z</time>
      </trkpt>
      <trkpt lat="49.43588" lon="0.98909">
        <ele>70.278472900391</ele>
        <time>2014-01-11T11:21:07.000Z</time>
      </trkpt>
      <trkpt lat="49.4359" lon="0.98902">
        <ele>70.30696105957</ele>
        <time>2014-01-11T11:21:10.000Z</time>
      </trkpt>
      <trkpt lat="49.4359" lon="0.98893">
        <ele>70.069160461426</ele>
        <time>2014-01-11T11:21:13.000Z</time>
      </trkpt>
      <trkpt lat="49.4359" lon="0.98884">
        <ele>69.627059936523</ele>
        <time>2014-01-11T11:21:16.000Z</time>
      </trkpt>
      <trkpt lat="49.43589" lon="0.98866">
        <ele>68.824668884277</ele>
        <time>2014-01-11T11:21:19.000Z</time>
      </trkpt>
      <trkpt lat="49.43589" lon="0.98856">
        <ele>67.844375610352</ele>
        <time>2014-01-11T11:21:21.000Z</time>
      </trkpt>
      <trkpt lat="49.43589" lon="0.98833">
        <ele>66.52547454834</ele>
        <time>2014-01-11T11:21:26.000Z</time>
      </trkpt>
      <trkpt lat="49.43583" lon="0.98822">
        <ele>65.465805053711</ele>
        <time>2014-01-11T11:21:29.000Z</time>
      </trkpt>
      <trkpt lat="49.43577" lon="0.98817">
        <ele>64.674697875977</ele>
        <time>2014-01-11T11:21:31.000Z</time>
      </trkpt>
      <trkpt lat="49.43568" lon="0.98809">
        <ele>64.329788208008</ele>
        <time>2014-01-11T11:21:34.000Z</time>
      </trkpt>
      <trkpt lat="49.43557" lon="0.98801">
        <ele>64.269485473633</ele>
        <time>2014-01-11T11:21:37.000Z</time>
      </trkpt>
      <trkpt lat="49.43544" lon="0.98794">
        <ele>64.719985961914</ele>
        <time>2014-01-11T11:21:40.000Z</time>
      </trkpt>
      <trkpt lat="49.43534" lon="0.98791">
        <ele>65.108596801758</ele>
        <time>2014-01-11T11:21:42.000Z</time>
      </trkpt>
      <trkpt lat="49.43522" lon="0.98786">
        <ele>65.442718505859</ele>
        <time>2014-01-11T11:21:44.000Z</time>
      </trkpt>
      <trkpt lat="49.43512" lon="0.98783">
        <ele>65.679214477539</ele>
        <time>2014-01-11T11:21:46.000Z</time>
      </trkpt>
      <trkpt lat="49.43497" lon="0.98779">
        <ele>65.793037414551</ele>
        <time>2014-01-11T11:21:49.000Z</time>
      </trkpt>
      <trkpt lat="49.43486" lon="0.98778">
        <ele>65.732414245605</ele>
        <time>2014-01-11T11:21:52.000Z</time>
      </trkpt>
      <trkpt lat="49.43478" lon="0.98778">
        <ele>65.574645996094</ele>
        <time>2014-01-11T11:21:54.000Z</time>
      </trkpt>
      <trkpt lat="49.43465" lon="0.9878">
        <ele>65.249526977539</ele>
        <time>2014-01-11T11:21:57.000Z</time>
      </trkpt>
      <trkpt lat="49.43454" lon="0.98784">
        <ele>64.745651245117</ele>
        <time>2014-01-11T11:22:00.000Z</time>
      </trkpt>
      <trkpt lat="49.43443" lon="0.98792">
        <ele>64.060447692871</ele>
        <time>2014-01-11T11:22:03.000Z</time>
      </trkpt>
      <trkpt lat="49.43437" lon="0.98798">
        <ele>63.339344024658</ele>
        <time>2014-01-11T11:22:05.000Z</time>
      </trkpt>
      <trkpt lat="49.43431" lon="0.98803">
        <ele>62.55411529541</ele>
        <time>2014-01-11T11:22:07.000Z</time>
      </trkpt>
      <trkpt lat="49.43424" lon="0.98806">
        <ele>61.785846710205</ele>
        <time>2014-01-11T11:22:09.000Z</time>
      </trkpt>
      <trkpt lat="49.43409" lon="0.98809">
        <ele>61.013282775879</ele>
        <time>2014-01-11T11:22:12.000Z</time>
      </trkpt>
      <trkpt lat="49.43396" lon="0.9881">
        <ele>60.341327667236</ele>
        <time>2014-01-11T11:22:15.000Z</time>
      </trkpt>
      <trkpt lat="49.43389" lon="0.98811">
        <ele>59.755695343018</ele>
        <time>2014-01-11T11:22:17.000Z</time>
      </trkpt>
      <trkpt lat="49.43378" lon="0.98811">
        <ele>59.237312316895</ele>
        <time>2014-01-11T11:22:20.000Z</time>
      </trkpt>
      <trkpt lat="49.4337" lon="0.98811">
        <ele>58.788288116455</ele>
        <time>2014-01-11T11:22:23.000Z</time>
      </trkpt>
      <trkpt lat="49.43365" lon="0.98811">
        <ele>58.484245300293</ele>
        <time>2014-01-11T11:22:25.000Z</time>
      </trkpt>
      <trkpt lat="49.43357" lon="0.98811">
        <ele>58.236583709717</ele>
        <time>2014-01-11T11:22:28.000Z</time>
      </trkpt>
      <trkpt lat="49.43349" lon="0.98811">
        <ele>57.991149902344</ele>
        <time>2014-01-11T11:22:31.000Z</time>
      </trkpt>
      <trkpt lat="49.43342" lon="0.9881">
        <ele>57.782676696777</ele>
        <time>2014-01-11T11:22:33.000Z</time>
      </trkpt>
      <trkpt lat="49.43327" lon="0.98805">
        <ele>57.621162414551</ele>
        <time>2014-01-11T11:22:36.000Z</time>
      </trkpt>
      <trkpt lat="49.43312" lon="0.98798">
        <ele>57.532154083252</ele>
        <time>2014-01-11T11:22:38.000Z</time>
      </trkpt>
      <trkpt lat="49.43291" lon="0.98788">
        <ele>57.553150177002</ele>
        <time>2014-01-11T11:22:41.000Z</time>
      </trkpt>
      <trkpt lat="49.4327" lon="0.9878">
        <ele>57.660266876221</ele>
        <time>2014-01-11T11:22:44.000Z</time>
      </trkpt>
      <trkpt lat="49.43257" lon="0.98776">
        <ele>57.809967041016</ele>
        <time>2014-01-11T11:22:46.000Z</time>
      </trkpt>
      <trkpt lat="49.43239" lon="0.9877">
        <ele>58.04341506958</ele>
        <time>2014-01-11T11:22:49.000Z</time>
      </trkpt>
      <trkpt lat="49.4323" lon="0.98767">
        <ele>58.281238555908</ele>
        <time>2014-01-11T11:22:52.000Z</time>
      </trkpt>
      <trkpt lat="49.43204" lon="0.98756">
        <ele>58.591087341309</ele>
        <time>2014-01-11T11:23:12.000Z</time>
      </trkpt>
      <trkpt lat="49.43177" lon="0.98744">
        <ele>59.079814910889</ele>
        <time>2014-01-11T11:23:22.000Z</time>
      </trkpt>
      <trkpt lat="49.43164" lon="0.98739">
        <ele>59.680492401123</ele>
        <time>2014-01-11T11:23:27.000Z</time>
      </trkpt>
      <trkpt lat="49.43153" lon="0.98735">
        <ele>60.233631134033</ele>
        <time>2014-01-11T11:23:30.000Z</time>
      </trkpt>
      <trkpt lat="49.43126" lon="0.98725">
        <ele>60.763896942139</ele>
        <time>2014-01-11T11:23:38.000Z</time>
      </trkpt>
      <trkpt lat="49.43097" lon="0.98711">
        <ele>61.157691955566</ele>
        <time>2014-01-11T11:23:48.000Z</time>
      </trkpt>
      <trkpt lat="49.43088" lon="0.98706">
        <ele>61.307483673096</ele>
        <time>2014-01-11T11:23:51.000Z</time>
      </trkpt>
      <trkpt lat="49.43061" lon="0.98693">
        <ele>61.20238494873</ele>
        <time>2014-01-11T11:24:05.000Z</time>
      </trkpt>
      <trkpt lat="49.43031" lon="0.98688">
        <ele>60.756938934326</ele>
        <time>2014-01-11T11:24:11.000Z</time>
      </trkpt>
      <trkpt lat="49.43004" lon="0.98681">
        <ele>59.90308380127</ele>
        <time>2014-01-11T11:24:20.000Z</time>
      </trkpt>
      <trkpt lat="49.42994" lon="0.98676">
        <ele>58.890769958496</ele>
        <time>2014-01-11T11:24:26.000Z</time>
      </trkpt>
      <trkpt lat="49.42973" lon="0.98666">
        <ele>57.649322509766</ele>
        <time>2014-01-11T11:24:37.000Z</time>
      </trkpt>
      <trkpt lat="49.42966" lon="0.98663">
        <ele>56.504463195801</ele>
        <time>2014-01-11T11:24:40.000Z</time>
      </trkpt>
      <trkpt lat="49.42931" lon="0.98654">
        <ele>55.440551757812</ele>
        <time>2014-01-11T11:24:45.000Z</time>
      </trkpt>
      <trkpt lat="49.42907" lon="0.98641">
        <ele>54.62837600708</ele>
        <time>2014-01-11T11:24:49.000Z</time>
      </trkpt>
      <trkpt lat="49.42887" lon="0.98638">
        <ele>53.877513885498</ele>
        <time>2014-01-11T11:25:03.000Z</time>
      </trkpt>
      <trkpt lat="49.42887" lon="0.98638">
        <ele>53.877513885498</ele>
        <time>2014-01-11T11:25:23.000Z</time>
      </trkpt>
      <trkpt lat="49.42896" lon="0.98652">
        <ele>53.447654724121</ele>
        <time>2014-01-11T11:25:34.000Z</time>
      </trkpt>
      <trkpt lat="49.42896" lon="0.98652">
        <ele>53.447654724121</ele>
        <time>2014-01-11T11:25:54.000Z</time>
      </trkpt>
      <trkpt lat="49.42896" lon="0.98646">
        <ele>53.044841766357</ele>
        <time>2014-01-11T11:26:15.000Z</time>
      </trkpt>
      <trkpt lat="49.42896" lon="0.98645">
        <ele>52.873168945312</ele>
        <time>2014-01-11T11:26:20.000Z</time>
      </trkpt>
      <trkpt lat="49.42897" lon="0.98644">
        <ele>52.832233428955</ele>
        <time>2014-01-11T11:26:23.000Z</time>
      </trkpt>
      <trkpt lat="49.42895" lon="0.98642">
        <ele>52.879066467285</ele>
        <time>2014-01-11T11:26:34.000Z</time>
      </trkpt>
      <trkpt lat="49.42894" lon="0.98641">
        <ele>52.856983184814</ele>
        <time>2014-01-11T11:26:37.000Z</time>
      </trkpt>
      <trkpt lat="49.42891" lon="0.98636">
        <ele>52.823192596436</ele>
        <time>2014-01-11T11:26:47.000Z</time>
      </trkpt>
      <trkpt lat="49.4289" lon="0.98636">
        <ele>52.780395507812</ele>
        <time>2014-01-11T11:26:49.000Z</time>
      </trkpt>
      <trkpt lat="49.42886" lon="0.98635">
        <ele>52.712574005127</ele>
        <time>2014-01-11T11:26:52.000Z</time>
      </trkpt>
      <trkpt lat="49.42877" lon="0.98631">
        <ele>52.583599090576</ele>
        <time>2014-01-11T11:26:57.000Z</time>
      </trkpt>
      <trkpt lat="49.42862" lon="0.98621">
        <ele>52.298938751221</ele>
        <time>2014-01-11T11:27:02.000Z</time>
      </trkpt>
      <trkpt lat="49.42855" lon="0.98614">
        <ele>51.919548034668</ele>
        <time>2014-01-11T11:27:04.000Z</time>
      </trkpt>
      <trkpt lat="49.42844" lon="0.98605">
        <ele>51.354072570801</ele>
        <time>2014-01-11T11:27:07.000Z</time>
      </trkpt>
      <trkpt lat="49.42834" lon="0.98598">
        <ele>50.632331848145</ele>
        <time>2014-01-11T11:27:10.000Z</time>
      </trkpt>
      <trkpt lat="49.42826" lon="0.98591">
        <ele>49.916484832764</ele>
        <time>2014-01-11T11:27:13.000Z</time>
      </trkpt>
      <trkpt lat="49.42819" lon="0.98587">
        <ele>49.323013305664</ele>
        <time>2014-01-11T11:27:15.000Z</time>
      </trkpt>
      <trkpt lat="49.4281" lon="0.98581">
        <ele>48.821006774902</ele>
        <time>2014-01-11T11:27:18.000Z</time>
      </trkpt>
      <trkpt lat="49.42804" lon="0.98574">
        <ele>48.527851104736</ele>
        <time>2014-01-11T11:27:21.000Z</time>
      </trkpt>
      <trkpt lat="49.428" lon="0.98569">
        <ele>48.412956237793</ele>
        <time>2014-01-11T11:27:25.000Z</time>
      </trkpt>
      <trkpt lat="49.42799" lon="0.98567">
        <ele>48.360485076904</ele>
        <time>2014-01-11T11:27:28.000Z</time>
      </trkpt>
      <trkpt lat="49.42786" lon="0.98552">
        <ele>48.275886535645</ele>
        <time>2014-01-11T11:27:32.000Z</time>
      </trkpt>
      <trkpt lat="49.42765" lon="0.98529">
        <ele>47.913269042969</ele>
        <time>2014-01-11T11:27:36.000Z</time>
      </trkpt>
      <trkpt lat="49.42751" lon="0.98517">
        <ele>47.263793945312</ele>
        <time>2014-01-11T11:27:39.000Z</time>
      </trkpt>
      <trkpt lat="49.42736" lon="0.98507">
        <ele>46.652137756348</ele>
        <time>2014-01-11T11:27:42.000Z</time>
      </trkpt>
      <trkpt lat="49.42723" lon="0.98497">
        <ele>46.107025146484</ele>
        <time>2014-01-11T11:27:45.000Z</time>
      </trkpt>
      <trkpt lat="49.42707" lon="0.98486">
        <ele>45.769546508789</ele>
        <time>2014-01-11T11:27:48.000Z</time>
      </trkpt>
      <trkpt lat="49.42694" lon="0.98476">
        <ele>45.77241897583</ele>
        <time>2014-01-11T11:27:51.000Z</time>
      </trkpt>
      <trkpt lat="49.42685" lon="0.9847">
        <ele>46.038627624512</ele>
        <time>2014-01-11T11:27:54.000Z</time>
      </trkpt>
      <trkpt lat="49.42672" lon="0.98464">
        <ele>46.238677978516</ele>
        <time>2014-01-11T11:27:57.000Z</time>
      </trkpt>
      <trkpt lat="49.42654" lon="0.98452">
        <ele>46.372116088867</ele>
        <time>2014-01-11T11:28:03.000Z</time>
      </trkpt>
      <trkpt lat="49.42652" lon="0.98449">
        <ele>46.360687255859</ele>
        <time>2014-01-11T11:28:05.000Z</time>
      </trkpt>
      <trkpt lat="49.42642" lon="0.9844">
        <ele>46.244609832764</ele>
        <time>2014-01-11T11:28:09.000Z</time>
      </trkpt>
      <trkpt lat="49.42636" lon="0.98433">
        <ele>46.081886291504</ele>
        <time>2014-01-11T11:28:12.000Z</time>
      </trkpt>
      <trkpt lat="49.42626" lon="0.98422">
        <ele>45.827167510986</ele>
        <time>2014-01-11T11:28:15.000Z</time>
      </trkpt>
      <trkpt lat="49.42622" lon="0.98418">
        <ele>45.521141052246</ele>
        <time>2014-01-11T11:28:17.000Z</time>
      </trkpt>
      <trkpt lat="49.42601" lon="0.98397">
        <ele>45.323081970215</ele>
        <time>2014-01-11T11:28:22.000Z</time>
      </trkpt>
      <trkpt lat="49.42589" lon="0.98389">
        <ele>45.156230926514</ele>
        <time>2014-01-11T11:28:25.000Z</time>
      </trkpt>
      <trkpt lat="49.42581" lon="0.98383">
        <ele>44.997226715088</ele>
        <time>2014-01-11T11:28:27.000Z</time>
      </trkpt>
      <trkpt lat="49.42578" lon="0.98381">
        <ele>44.953002929688</ele>
        <time>2014-01-11T11:28:29.000Z</time>
      </trkpt>
      <trkpt lat="49.42573" lon="0.98376">
        <ele>44.944999694824</ele>
        <time>2014-01-11T11:28:31.000Z</time>
      </trkpt>
      <trkpt lat="49.42564" lon="0.98366">
        <ele>44.779975891113</ele>
        <time>2014-01-11T11:28:34.000Z</time>
      </trkpt>
      <trkpt lat="49.42546" lon="0.98344">
        <ele>44.4765625</ele>
        <time>2014-01-11T11:28:38.000Z</time>
      </trkpt>
      <trkpt lat="49.42543" lon="0.9834">
        <ele>44.179225921631</ele>
        <time>2014-01-11T11:28:40.000Z</time>
      </trkpt>
      <trkpt lat="49.42528" lon="0.98323">
        <ele>43.9846534729</ele>
        <time>2014-01-11T11:28:47.000Z</time>
      </trkpt>
      <trkpt lat="49.42521" lon="0.98315">
        <ele>43.891334533691</ele>
        <time>2014-01-11T11:28:49.000Z</time>
      </trkpt>
      <trkpt lat="49.42504" lon="0.98292">
        <ele>43.956077575684</ele>
        <time>2014-01-11T11:28:54.000Z</time>
      </trkpt>
      <trkpt lat="49.425" lon="0.98286">
        <ele>44.192333221436</ele>
        <time>2014-01-11T11:28:56.000Z</time>
      </trkpt>
      <trkpt lat="49.42464" lon="0.98233">
        <ele>44.840293884277</ele>
        <time>2014-01-11T11:29:02.000Z</time>
      </trkpt>
      <trkpt lat="49.42459" lon="0.98224">
        <ele>45.375827789307</ele>
        <time>2014-01-11T11:29:04.000Z</time>
      </trkpt>
      <trkpt lat="49.42451" lon="0.9821">
        <ele>45.74390411377</ele>
        <time>2014-01-11T11:29:07.000Z</time>
      </trkpt>
      <trkpt lat="49.42446" lon="0.982">
        <ele>45.908275604248</ele>
        <time>2014-01-11T11:29:09.000Z</time>
      </trkpt>
      <trkpt lat="49.4244" lon="0.98189">
        <ele>45.909229278564</ele>
        <time>2014-01-11T11:29:12.000Z</time>
      </trkpt>
      <trkpt lat="49.42432" lon="0.98174">
        <ele>45.260547637939</ele>
        <time>2014-01-11T11:29:15.000Z</time>
      </trkpt>
      <trkpt lat="49.42427" lon="0.98159">
        <ele>44.37805557251</ele>
        <time>2014-01-11T11:29:18.000Z</time>
      </trkpt>
      <trkpt lat="49.42424" lon="0.98146">
        <ele>43.430599212646</ele>
        <time>2014-01-11T11:29:21.000Z</time>
      </trkpt>
      <trkpt lat="49.42424" lon="0.98137">
        <ele>42.502014160156</ele>
        <time>2014-01-11T11:29:23.000Z</time>
      </trkpt>
      <trkpt lat="49.42424" lon="0.98133">
        <ele>41.719100952148</ele>
        <time>2014-01-11T11:29:25.000Z</time>
      </trkpt>
      <trkpt lat="49.42421" lon="0.98117">
        <ele>41.030136108398</ele>
        <time>2014-01-11T11:29:28.000Z</time>
      </trkpt>
      <trkpt lat="49.42416" lon="0.98095">
        <ele>40.30904006958</ele>
        <time>2014-01-11T11:29:31.000Z</time>
      </trkpt>
      <trkpt lat="49.4241" lon="0.98081">
        <ele>39.823642730713</ele>
        <time>2014-01-11T11:29:34.000Z</time>
      </trkpt>
      <trkpt lat="49.42405" lon="0.98071">
        <ele>39.595989227295</ele>
        <time>2014-01-11T11:29:37.000Z</time>
      </trkpt>
      <trkpt lat="49.42403" lon="0.98069">
        <ele>39.412223815918</ele>
        <time>2014-01-11T11:29:40.000Z</time>
      </trkpt>
      <trkpt lat="49.42397" lon="0.98059">
        <ele>39.557777404785</ele>
        <time>2014-01-11T11:29:44.000Z</time>
      </trkpt>
      <trkpt lat="49.42395" lon="0.98057">
        <ele>40.021850585938</ele>
        <time>2014-01-11T11:29:46.000Z</time>
      </trkpt>
      <trkpt lat="49.42392" lon="0.98055">
        <ele>40.452606201172</ele>
        <time>2014-01-11T11:29:49.000Z</time>
      </trkpt>
      <trkpt lat="49.4239" lon="0.98052">
        <ele>40.731750488281</ele>
        <time>2014-01-11T11:29:52.000Z</time>
      </trkpt>
      <trkpt lat="49.42384" lon="0.98041">
        <ele>41.041023254395</ele>
        <time>2014-01-11T11:29:57.000Z</time>
      </trkpt>
      <trkpt lat="49.42382" lon="0.98038">
        <ele>41.210182189941</ele>
        <time>2014-01-11T11:30:00.000Z</time>
      </trkpt>
      <trkpt lat="49.4237" lon="0.98016">
        <ele>41.279544830322</ele>
        <time>2014-01-11T11:30:04.000Z</time>
      </trkpt>
      <trkpt lat="49.42362" lon="0.98006">
        <ele>41.197109222412</ele>
        <time>2014-01-11T11:30:07.000Z</time>
      </trkpt>
      <trkpt lat="49.42359" lon="0.98002">
        <ele>41.043121337891</ele>
        <time>2014-01-11T11:30:10.000Z</time>
      </trkpt>
      <trkpt lat="49.42344" lon="0.97982">
        <ele>40.61075592041</ele>
        <time>2014-01-11T11:30:14.000Z</time>
      </trkpt>
      <trkpt lat="49.4234" lon="0.97978">
        <ele>40.108825683594</ele>
        <time>2014-01-11T11:30:16.000Z</time>
      </trkpt>
      <trkpt lat="49.42337" lon="0.97972">
        <ele>39.585090637207</ele>
        <time>2014-01-11T11:30:19.000Z</time>
      </trkpt>
      <trkpt lat="49.42333" lon="0.97966">
        <ele>39.060947418213</ele>
        <time>2014-01-11T11:30:22.000Z</time>
      </trkpt>
      <trkpt lat="49.42325" lon="0.97956">
        <ele>38.65686416626</ele>
        <time>2014-01-11T11:30:26.000Z</time>
      </trkpt>
      <trkpt lat="49.42323" lon="0.97953">
        <ele>38.5041847229</ele>
        <time>2014-01-11T11:30:28.000Z</time>
      </trkpt>
      <trkpt lat="49.4232" lon="0.9795">
        <ele>38.453155517578</ele>
        <time>2014-01-11T11:30:30.000Z</time>
      </trkpt>
      <trkpt lat="49.42313" lon="0.97945">
        <ele>38.592094421387</ele>
        <time>2014-01-11T11:30:33.000Z</time>
      </trkpt>
      <trkpt lat="49.42311" lon="0.97943">
        <ele>38.86075592041</ele>
        <time>2014-01-11T11:30:36.000Z</time>
      </trkpt>
      <trkpt lat="49.42303" lon="0.97938">
        <ele>39.222221374512</ele>
        <time>2014-01-11T11:30:39.000Z</time>
      </trkpt>
      <trkpt lat="49.42301" lon="0.97939">
        <ele>39.626842498779</ele>
        <time>2014-01-11T11:30:43.000Z</time>
      </trkpt>
      <trkpt lat="49.42294" lon="0.9794">
        <ele>40.179748535156</ele>
        <time>2014-01-11T11:30:46.000Z</time>
      </trkpt>
      <trkpt lat="49.42287" lon="0.97938">
        <ele>40.789215087891</ele>
        <time>2014-01-11T11:30:49.000Z</time>
      </trkpt>
      <trkpt lat="49.42284" lon="0.97938">
        <ele>41.424346923828</ele>
        <time>2014-01-11T11:30:51.000Z</time>
      </trkpt>
      <trkpt lat="49.42276" lon="0.97936">
        <ele>42.090270996094</ele>
        <time>2014-01-11T11:30:54.000Z</time>
      </trkpt>
      <trkpt lat="49.42272" lon="0.97936">
        <ele>42.788871765137</ele>
        <time>2014-01-11T11:30:56.000Z</time>
      </trkpt>
      <trkpt lat="49.42266" lon="0.97936">
        <ele>43.448265075684</ele>
        <time>2014-01-11T11:30:59.000Z</time>
      </trkpt>
      <trkpt lat="49.42263" lon="0.97935">
        <ele>44.040184020996</ele>
        <time>2014-01-11T11:31:01.000Z</time>
      </trkpt>
      <trkpt lat="49.42253" lon="0.97936">
        <ele>44.840805053711</ele>
        <time>2014-01-11T11:31:06.000Z</time>
      </trkpt>
      <trkpt lat="49.42249" lon="0.97936">
        <ele>45.543163299561</ele>
        <time>2014-01-11T11:31:08.000Z</time>
      </trkpt>
      <trkpt lat="49.42245" lon="0.97936">
        <ele>46.240264892578</ele>
        <time>2014-01-11T11:31:10.000Z</time>
      </trkpt>
      <trkpt lat="49.42242" lon="0.97937">
        <ele>46.87345123291</ele>
        <time>2014-01-11T11:31:12.000Z</time>
      </trkpt>
      <trkpt lat="49.42238" lon="0.9794">
        <ele>47.542579650879</ele>
        <time>2014-01-11T11:31:15.000Z</time>
      </trkpt>
      <trkpt lat="49.42237" lon="0.97941">
        <ele>47.979114532471</ele>
        <time>2014-01-11T11:31:18.000Z</time>
      </trkpt>
      <trkpt lat="49.4223" lon="0.97946">
        <ele>48.559593200684</ele>
        <time>2014-01-11T11:31:22.000Z</time>
      </trkpt>
      <trkpt lat="49.42226" lon="0.97948">
        <ele>49.172847747803</ele>
        <time>2014-01-11T11:31:25.000Z</time>
      </trkpt>
      <trkpt lat="49.42223" lon="0.97949">
        <ele>49.787220001221</ele>
        <time>2014-01-11T11:31:27.000Z</time>
      </trkpt>
      <trkpt lat="49.42221" lon="0.97951">
        <ele>50.333629608154</ele>
        <time>2014-01-11T11:31:29.000Z</time>
      </trkpt>
      <trkpt lat="49.42217" lon="0.97952">
        <ele>50.96529006958</ele>
        <time>2014-01-11T11:31:33.000Z</time>
      </trkpt>
      <trkpt lat="49.42216" lon="0.97953">
        <ele>51.397563934326</ele>
        <time>2014-01-11T11:31:36.000Z</time>
      </trkpt>
      <trkpt lat="49.4221" lon="0.97955">
        <ele>51.869110107422</ele>
        <time>2014-01-11T11:31:40.000Z</time>
      </trkpt>
      <trkpt lat="49.42206" lon="0.97959">
        <ele>52.387084960938</ele>
        <time>2014-01-11T11:31:43.000Z</time>
      </trkpt>
      <trkpt lat="49.42201" lon="0.97964">
        <ele>52.993816375732</ele>
        <time>2014-01-11T11:31:46.000Z</time>
      </trkpt>
      <trkpt lat="49.42199" lon="0.97965">
        <ele>53.545402526855</ele>
        <time>2014-01-11T11:31:49.000Z</time>
      </trkpt>
      <trkpt lat="49.42191" lon="0.97973">
        <ele>54.328624725342</ele>
        <time>2014-01-11T11:31:53.000Z</time>
      </trkpt>
      <trkpt lat="49.42188" lon="0.97977">
        <ele>55.058319091797</ele>
        <time>2014-01-11T11:31:56.000Z</time>
      </trkpt>
      <trkpt lat="49.42185" lon="0.97981">
        <ele>55.744609832764</ele>
        <time>2014-01-11T11:31:58.000Z</time>
      </trkpt>
      <trkpt lat="49.42184" lon="0.97983">
        <ele>56.318077087402</ele>
        <time>2014-01-11T11:32:01.000Z</time>
      </trkpt>
      <trkpt lat="49.42184" lon="0.97991">
        <ele>56.891052246094</ele>
        <time>2014-01-11T11:32:04.000Z</time>
      </trkpt>
      <trkpt lat="49.42182" lon="0.97996">
        <ele>57.284252166748</ele>
        <time>2014-01-11T11:32:07.000Z</time>
      </trkpt>
      <trkpt lat="49.42181" lon="0.97999">
        <ele>57.623645782471</ele>
        <time>2014-01-11T11:32:10.000Z</time>
      </trkpt>
      <trkpt lat="49.42176" lon="0.98005">
        <ele>58.027111053467</ele>
        <time>2014-01-11T11:32:13.000Z</time>
      </trkpt>
      <trkpt lat="49.42173" lon="0.98009">
        <ele>58.507213592529</ele>
        <time>2014-01-11T11:32:16.000Z</time>
      </trkpt>
      <trkpt lat="49.42169" lon="0.98012">
        <ele>59.029712677002</ele>
        <time>2014-01-11T11:32:19.000Z</time>
      </trkpt>
      <trkpt lat="49.42168" lon="0.98013">
        <ele>59.502113342285</ele>
        <time>2014-01-11T11:32:22.000Z</time>
      </trkpt>
      <trkpt lat="49.42161" lon="0.98018">
        <ele>60.161754608154</ele>
        <time>2014-01-11T11:32:25.000Z</time>
      </trkpt>
      <trkpt lat="49.42157" lon="0.98022">
        <ele>60.830699920654</ele>
        <time>2014-01-11T11:32:28.000Z</time>
      </trkpt>
      <trkpt lat="49.42156" lon="0.98023">
        <ele>61.43985748291</ele>
        <time>2014-01-11T11:32:30.000Z</time>
      </trkpt>
      <trkpt lat="49.42152" lon="0.98031">
        <ele>62.159107208252</ele>
        <time>2014-01-11T11:32:33.000Z</time>
      </trkpt>
      <trkpt lat="49.42149" lon="0.98036">
        <ele>62.995586395264</ele>
        <time>2014-01-11T11:32:36.000Z</time>
      </trkpt>
      <trkpt lat="49.42147" lon="0.9804">
        <ele>63.657878875732</ele>
        <time>2014-01-11T11:32:39.000Z</time>
      </trkpt>
      <trkpt lat="49.42144" lon="0.98047">
        <ele>64.339881896973</ele>
        <time>2014-01-11T11:32:42.000Z</time>
      </trkpt>
      <trkpt lat="49.42142" lon="0.98052">
        <ele>65.087669372559</ele>
        <time>2014-01-11T11:32:45.000Z</time>
      </trkpt>
      <trkpt lat="49.42139" lon="0.98058">
        <ele>65.773063659668</ele>
        <time>2014-01-11T11:32:48.000Z</time>
      </trkpt>
      <trkpt lat="49.42138" lon="0.9806">
        <ele>66.360794067383</ele>
        <time>2014-01-11T11:32:51.000Z</time>
      </trkpt>
      <trkpt lat="49.42131" lon="0.98068">
        <ele>67.192459106445</ele>
        <time>2014-01-11T11:32:54.000Z</time>
      </trkpt>
      <trkpt lat="49.42128" lon="0.98073">
        <ele>68.031509399414</ele>
        <time>2014-01-11T11:32:57.000Z</time>
      </trkpt>
      <trkpt lat="49.42126" lon="0.98075">
        <ele>68.816024780273</ele>
        <time>2014-01-11T11:33:00.000Z</time>
      </trkpt>
      <trkpt lat="49.42121" lon="0.98086">
        <ele>69.757781982422</ele>
        <time>2014-01-11T11:33:03.000Z</time>
      </trkpt>
      <trkpt lat="49.42118" lon="0.98094">
        <ele>70.808822631836</ele>
        <time>2014-01-11T11:33:06.000Z</time>
      </trkpt>
      <trkpt lat="49.42118" lon="0.98096">
        <ele>71.59041595459</ele>
        <time>2014-01-11T11:33:08.000Z</time>
      </trkpt>
      <trkpt lat="49.42115" lon="0.98106">
        <ele>72.352584838867</ele>
        <time>2014-01-11T11:33:11.000Z</time>
      </trkpt>
      <trkpt lat="49.42112" lon="0.98111">
        <ele>73.177314758301</ele>
        <time>2014-01-11T11:33:14.000Z</time>
      </trkpt>
      <trkpt lat="49.4211" lon="0.98115">
        <ele>73.762184143066</ele>
        <time>2014-01-11T11:33:16.000Z</time>
      </trkpt>
      <trkpt lat="49.42107" lon="0.98122">
        <ele>74.306678771973</ele>
        <time>2014-01-11T11:33:20.000Z</time>
      </trkpt>
      <trkpt lat="49.42105" lon="0.98128">
        <ele>74.87141418457</ele>
        <time>2014-01-11T11:33:23.000Z</time>
      </trkpt>
      <trkpt lat="49.42104" lon="0.98133">
        <ele>75.325637817383</ele>
        <time>2014-01-11T11:33:25.000Z</time>
      </trkpt>
      <trkpt lat="49.42102" lon="0.98137">
        <ele>75.703102111816</ele>
        <time>2014-01-11T11:33:28.000Z</time>
      </trkpt>
      <trkpt lat="49.42099" lon="0.98144">
        <ele>76.100601196289</ele>
        <time>2014-01-11T11:33:31.000Z</time>
      </trkpt>
      <trkpt lat="49.42096" lon="0.98149">
        <ele>76.428993225098</ele>
        <time>2014-01-11T11:33:34.000Z</time>
      </trkpt>
      <trkpt lat="49.42093" lon="0.98153">
        <ele>76.740440368652</ele>
        <time>2014-01-11T11:33:37.000Z</time>
      </trkpt>
      <trkpt lat="49.4209" lon="0.98158">
        <ele>77.04118347168</ele>
        <time>2014-01-11T11:33:40.000Z</time>
      </trkpt>
      <trkpt lat="49.42086" lon="0.98165">
        <ele>77.340232849121</ele>
        <time>2014-01-11T11:33:44.000Z</time>
      </trkpt>
      <trkpt lat="49.42084" lon="0.98167">
        <ele>77.580604553223</ele>
        <time>2014-01-11T11:33:46.000Z</time>
      </trkpt>
      <trkpt lat="49.42081" lon="0.9817">
        <ele>77.845199584961</ele>
        <time>2014-01-11T11:33:48.000Z</time>
      </trkpt>
      <trkpt lat="49.4208" lon="0.98172">
        <ele>78.090766906738</ele>
        <time>2014-01-11T11:33:50.000Z</time>
      </trkpt>
      <trkpt lat="49.42076" lon="0.98178">
        <ele>78.462890625</ele>
        <time>2014-01-11T11:33:53.000Z</time>
      </trkpt>
      <trkpt lat="49.42074" lon="0.98181">
        <ele>78.862632751465</ele>
        <time>2014-01-11T11:33:55.000Z</time>
      </trkpt>
      <trkpt lat="49.42072" lon="0.98184">
        <ele>79.32096862793</ele>
        <time>2014-01-11T11:33:57.000Z</time>
      </trkpt>
      <trkpt lat="49.42068" lon="0.98189">
        <ele>79.810195922852</ele>
        <time>2014-01-11T11:34:00.000Z</time>
      </trkpt>
      <trkpt lat="49.42064" lon="0.98193">
        <ele>80.40168762207</ele>
        <time>2014-01-11T11:34:03.000Z</time>
      </trkpt>
      <trkpt lat="49.42063" lon="0.98194">
        <ele>80.861740112305</ele>
        <time>2014-01-11T11:34:06.000Z</time>
      </trkpt>
      <trkpt lat="49.42057" lon="0.98202">
        <ele>81.443862915039</ele>
        <time>2014-01-11T11:34:12.000Z</time>
      </trkpt>
      <trkpt lat="49.42051" lon="0.98209">
        <ele>82.125</ele>
        <time>2014-01-11T11:34:14.000Z</time>
      </trkpt>
      <trkpt lat="49.4205" lon="0.98212">
        <ele>82.714950561523</ele>
        <time>2014-01-11T11:34:16.000Z</time>
      </trkpt>
      <trkpt lat="49.42044" lon="0.98225">
        <ele>83.34529876709</ele>
        <time>2014-01-11T11:34:21.000Z</time>
      </trkpt>
      <trkpt lat="49.42039" lon="0.9823">
        <ele>84.054214477539</ele>
        <time>2014-01-11T11:34:24.000Z</time>
      </trkpt>
      <trkpt lat="49.42036" lon="0.98235">
        <ele>84.646064758301</ele>
        <time>2014-01-11T11:34:27.000Z</time>
      </trkpt>
      <trkpt lat="49.42035" lon="0.98237">
        <ele>85.079597473145</ele>
        <time>2014-01-11T11:34:29.000Z</time>
      </trkpt>
      <trkpt lat="49.42028" lon="0.9825">
        <ele>85.63786315918</ele>
        <time>2014-01-11T11:34:34.000Z</time>
      </trkpt>
      <trkpt lat="49.42026" lon="0.98253">
        <ele>86.107070922852</ele>
        <time>2014-01-11T11:34:36.000Z</time>
      </trkpt>
      <trkpt lat="49.42019" lon="0.9827">
        <ele>86.748207092285</ele>
        <time>2014-01-11T11:34:44.000Z</time>
      </trkpt>
      <trkpt lat="49.42012" lon="0.98281">
        <ele>87.51496887207</ele>
        <time>2014-01-11T11:34:47.000Z</time>
      </trkpt>
      <trkpt lat="49.42009" lon="0.98286">
        <ele>88.324493408203</ele>
        <time>2014-01-11T11:34:50.000Z</time>
      </trkpt>
      <trkpt lat="49.42007" lon="0.9829">
        <ele>89.022613525391</ele>
        <time>2014-01-11T11:34:51.000Z</time>
      </trkpt>
      <trkpt lat="49.42003" lon="0.98296">
        <ele>89.691299438477</ele>
        <time>2014-01-11T11:34:54.000Z</time>
      </trkpt>
      <trkpt lat="49.42002" lon="0.98297">
        <ele>90.086051940918</ele>
        <time>2014-01-11T11:34:57.000Z</time>
      </trkpt>
      <trkpt lat="49.41994" lon="0.98308">
        <ele>90.504165649414</ele>
        <time>2014-01-11T11:35:01.000Z</time>
      </trkpt>
      <trkpt lat="49.4199" lon="0.98312">
        <ele>90.991065979004</ele>
        <time>2014-01-11T11:35:05.000Z</time>
      </trkpt>
      <trkpt lat="49.41986" lon="0.98317">
        <ele>91.565338134766</ele>
        <time>2014-01-11T11:35:07.000Z</time>
      </trkpt>
      <trkpt lat="49.41984" lon="0.9832">
        <ele>92.177291870117</ele>
        <time>2014-01-11T11:35:09.000Z</time>
      </trkpt>
      <trkpt lat="49.41983" lon="0.98322">
        <ele>92.800720214844</ele>
        <time>2014-01-11T11:35:12.000Z</time>
      </trkpt>
      <trkpt lat="49.41975" lon="0.98338">
        <ele>93.432594299316</ele>
        <time>2014-01-11T11:35:18.000Z</time>
      </trkpt>
      <trkpt lat="49.41975" lon="0.98345">
        <ele>93.939605712891</ele>
        <time>2014-01-11T11:35:20.000Z</time>
      </trkpt>
      <trkpt lat="49.41974" lon="0.98348">
        <ele>94.327926635742</ele>
        <time>2014-01-11T11:35:22.000Z</time>
      </trkpt>
      <trkpt lat="49.41972" lon="0.9836">
        <ele>94.661109924316</ele>
        <time>2014-01-11T11:35:25.000Z</time>
      </trkpt>
      <trkpt lat="49.41971" lon="0.98367">
        <ele>94.986679077148</ele>
        <time>2014-01-11T11:35:28.000Z</time>
      </trkpt>
      <trkpt lat="49.41969" lon="0.98372">
        <ele>95.105026245117</ele>
        <time>2014-01-11T11:35:31.000Z</time>
      </trkpt>
      <trkpt lat="49.41969" lon="0.98373">
        <ele>95.224304199219</ele>
        <time>2014-01-11T11:35:33.000Z</time>
      </trkpt>
      <trkpt lat="49.41964" lon="0.98382">
        <ele>95.426773071289</ele>
        <time>2014-01-11T11:35:38.000Z</time>
      </trkpt>
      <trkpt lat="49.41962" lon="0.98385">
        <ele>95.619079589844</ele>
        <time>2014-01-11T11:35:40.000Z</time>
      </trkpt>
      <trkpt lat="49.41961" lon="0.98388">
        <ele>95.819625854492</ele>
        <time>2014-01-11T11:35:42.000Z</time>
      </trkpt>
      <trkpt lat="49.41958" lon="0.98393">
        <ele>96.02596282959</ele>
        <time>2014-01-11T11:35:45.000Z</time>
      </trkpt>
      <trkpt lat="49.41955" lon="0.98402">
        <ele>96.258842468262</ele>
        <time>2014-01-11T11:35:53.000Z</time>
      </trkpt>
      <trkpt lat="49.41954" lon="0.98404">
        <ele>96.403366088867</ele>
        <time>2014-01-11T11:35:55.000Z</time>
      </trkpt>
      <trkpt lat="49.41952" lon="0.9841">
        <ele>96.532997131348</ele>
        <time>2014-01-11T11:35:58.000Z</time>
      </trkpt>
      <trkpt lat="49.4195" lon="0.98416">
        <ele>96.647689819336</ele>
        <time>2014-01-11T11:36:01.000Z</time>
      </trkpt>
      <trkpt lat="49.41949" lon="0.98421">
        <ele>96.769271850586</ele>
        <time>2014-01-11T11:36:04.000Z</time>
      </trkpt>
      <trkpt lat="49.41948" lon="0.98423">
        <ele>96.871017456055</ele>
        <time>2014-01-11T11:36:07.000Z</time>
      </trkpt>
      <trkpt lat="49.41945" lon="0.98434">
        <ele>97.07209777832</ele>
        <time>2014-01-11T11:36:10.000Z</time>
      </trkpt>
      <trkpt lat="49.41945" lon="0.98439">
        <ele>97.298767089844</ele>
        <time>2014-01-11T11:36:12.000Z</time>
      </trkpt>
      <trkpt lat="49.41943" lon="0.98447">
        <ele>97.579833984375</ele>
        <time>2014-01-11T11:36:15.000Z</time>
      </trkpt>
      <trkpt lat="49.41942" lon="0.9845">
        <ele>97.843170166016</ele>
        <time>2014-01-11T11:36:17.000Z</time>
      </trkpt>
      <trkpt lat="49.4194" lon="0.98458">
        <ele>98.162078857422</ele>
        <time>2014-01-11T11:36:20.000Z</time>
      </trkpt>
      <trkpt lat="49.4194" lon="0.9846">
        <ele>98.389678955078</ele>
        <time>2014-01-11T11:36:22.000Z</time>
      </trkpt>
      <trkpt lat="49.41938" lon="0.98472">
        <ele>98.672180175781</ele>
        <time>2014-01-11T11:36:27.000Z</time>
      </trkpt>
      <trkpt lat="49.41936" lon="0.98479">
        <ele>98.958038330078</ele>
        <time>2014-01-11T11:36:30.000Z</time>
      </trkpt>
      <trkpt lat="49.41935" lon="0.98485">
        <ele>99.275054931641</ele>
        <time>2014-01-11T11:36:33.000Z</time>
      </trkpt>
      <trkpt lat="49.41934" lon="0.98487">
        <ele>99.522705078125</ele>
        <time>2014-01-11T11:36:36.000Z</time>
      </trkpt>
      <trkpt lat="49.41932" lon="0.98499">
        <ele>99.864776611328</ele>
        <time>2014-01-11T11:36:39.000Z</time>
      </trkpt>
      <trkpt lat="49.41931" lon="0.98504">
        <ele>100.14674377441</ele>
        <time>2014-01-11T11:36:41.000Z</time>
      </trkpt>
      <trkpt lat="49.4193" lon="0.9851">
        <ele>100.38571929932</ele>
        <time>2014-01-11T11:36:43.000Z</time>
      </trkpt>
      <trkpt lat="49.41928" lon="0.98515">
        <ele>100.5968170166</ele>
        <time>2014-01-11T11:36:46.000Z</time>
      </trkpt>
      <trkpt lat="49.41924" lon="0.98522">
        <ele>100.8557510376</ele>
        <time>2014-01-11T11:36:50.000Z</time>
      </trkpt>
      <trkpt lat="49.41922" lon="0.98529">
        <ele>101.02996826172</ele>
        <time>2014-01-11T11:36:52.000Z</time>
      </trkpt>
      <trkpt lat="49.4192" lon="0.98533">
        <ele>101.17562866211</ele>
        <time>2014-01-11T11:36:55.000Z</time>
      </trkpt>
      <trkpt lat="49.41917" lon="0.98542">
        <ele>101.3046875</ele>
        <time>2014-01-11T11:36:58.000Z</time>
      </trkpt>
      <trkpt lat="49.41915" lon="0.98547">
        <ele>101.45224761963</ele>
        <time>2014-01-11T11:37:01.000Z</time>
      </trkpt>
      <trkpt lat="49.41913" lon="0.98551">
        <ele>101.62014770508</ele>
        <time>2014-01-11T11:37:04.000Z</time>
      </trkpt>
      <trkpt lat="49.41909" lon="0.98561">
        <ele>101.91781616211</ele>
        <time>2014-01-11T11:37:09.000Z</time>
      </trkpt>
      <trkpt lat="49.41907" lon="0.98565">
        <ele>102.30242919922</ele>
        <time>2014-01-11T11:37:12.000Z</time>
      </trkpt>
      <trkpt lat="49.41905" lon="0.98568">
        <ele>102.73886871338</ele>
        <time>2014-01-11T11:37:14.000Z</time>
      </trkpt>
      <trkpt lat="49.41903" lon="0.98572">
        <ele>103.20503234863</ele>
        <time>2014-01-11T11:37:17.000Z</time>
      </trkpt>
      <trkpt lat="49.41902" lon="0.98573">
        <ele>103.62453460693</ele>
        <time>2014-01-11T11:37:19.000Z</time>
      </trkpt>
      <trkpt lat="49.41899" lon="0.98579">
        <ele>104.02297210693</ele>
        <time>2014-01-11T11:37:22.000Z</time>
      </trkpt>
      <trkpt lat="49.41897" lon="0.98583">
        <ele>104.40731048584</ele>
        <time>2014-01-11T11:37:25.000Z</time>
      </trkpt>
      <trkpt lat="49.41896" lon="0.98585">
        <ele>104.79319000244</ele>
        <time>2014-01-11T11:37:27.000Z</time>
      </trkpt>
      <trkpt lat="49.41894" lon="0.98588">
        <ele>105.18369293213</ele>
        <time>2014-01-11T11:37:29.000Z</time>
      </trkpt>
      <trkpt lat="49.41889" lon="0.98594">
        <ele>105.77197265625</ele>
        <time>2014-01-11T11:37:35.000Z</time>
      </trkpt>
      <trkpt lat="49.41887" lon="0.98596">
        <ele>106.31721496582</ele>
        <time>2014-01-11T11:37:37.000Z</time>
      </trkpt>
      <trkpt lat="49.41885" lon="0.986">
        <ele>106.87070465088</ele>
        <time>2014-01-11T11:37:40.000Z</time>
      </trkpt>
      <trkpt lat="49.41884" lon="0.98604">
        <ele>107.41020202637</ele>
        <time>2014-01-11T11:37:43.000Z</time>
      </trkpt>
      <trkpt lat="49.41881" lon="0.98609">
        <ele>107.98722839355</ele>
        <time>2014-01-11T11:37:46.000Z</time>
      </trkpt>
      <trkpt lat="49.41879" lon="0.98613">
        <ele>108.40334320068</ele>
        <time>2014-01-11T11:37:49.000Z</time>
      </trkpt>
      <trkpt lat="49.41877" lon="0.98615">
        <ele>108.79774475098</ele>
        <time>2014-01-11T11:37:51.000Z</time>
      </trkpt>
      <trkpt lat="49.41874" lon="0.98618">
        <ele>109.17565917969</ele>
        <time>2014-01-11T11:37:54.000Z</time>
      </trkpt>
      <trkpt lat="49.41872" lon="0.9862">
        <ele>109.54759216309</ele>
        <time>2014-01-11T11:37:57.000Z</time>
      </trkpt>
      <trkpt lat="49.41869" lon="0.98623">
        <ele>109.89378356934</ele>
        <time>2014-01-11T11:38:00.000Z</time>
      </trkpt>
      <trkpt lat="49.41867" lon="0.98627">
        <ele>110.21466064453</ele>
        <time>2014-01-11T11:38:03.000Z</time>
      </trkpt>
      <trkpt lat="49.41859" lon="0.98636">
        <ele>110.61466217041</ele>
        <time>2014-01-11T11:38:12.000Z</time>
      </trkpt>
      <trkpt lat="49.41856" lon="0.9864">
        <ele>110.98099517822</ele>
        <time>2014-01-11T11:38:15.000Z</time>
      </trkpt>
      <trkpt lat="49.41853" lon="0.98645">
        <ele>111.32470703125</ele>
        <time>2014-01-11T11:38:18.000Z</time>
      </trkpt>
      <trkpt lat="49.41849" lon="0.98652">
        <ele>111.56848144531</ele>
        <time>2014-01-11T11:38:22.000Z</time>
      </trkpt>
      <trkpt lat="49.41846" lon="0.98658">
        <ele>111.75495910645</ele>
        <time>2014-01-11T11:38:25.000Z</time>
      </trkpt>
      <trkpt lat="49.41844" lon="0.98662">
        <ele>111.78615570068</ele>
        <time>2014-01-11T11:38:27.000Z</time>
      </trkpt>
      <trkpt lat="49.41841" lon="0.98666">
        <ele>111.75466156006</ele>
        <time>2014-01-11T11:38:30.000Z</time>
      </trkpt>
      <trkpt lat="49.41838" lon="0.98669">
        <ele>111.71907806396</ele>
        <time>2014-01-11T11:38:32.000Z</time>
      </trkpt>
      <trkpt lat="49.41836" lon="0.98671">
        <ele>111.7074432373</ele>
        <time>2014-01-11T11:38:34.000Z</time>
      </trkpt>
      <trkpt lat="49.41834" lon="0.98673">
        <ele>111.73091888428</ele>
        <time>2014-01-11T11:38:37.000Z</time>
      </trkpt>
      <trkpt lat="49.41826" lon="0.98683">
        <ele>111.91719055176</ele>
        <time>2014-01-11T11:38:43.000Z</time>
      </trkpt>
      <trkpt lat="49.41823" lon="0.98688">
        <ele>112.18314361572</ele>
        <time>2014-01-11T11:38:46.000Z</time>
      </trkpt>
      <trkpt lat="49.41817" lon="0.9869">
        <ele>112.56673431396</ele>
        <time>2014-01-11T11:38:52.000Z</time>
      </trkpt>
      <trkpt lat="49.41816" lon="0.98691">
        <ele>112.95707702637</ele>
        <time>2014-01-11T11:38:54.000Z</time>
      </trkpt>
      <trkpt lat="49.41813" lon="0.98698">
        <ele>113.37107849121</ele>
        <time>2014-01-11T11:39:00.000Z</time>
      </trkpt>
      <trkpt lat="49.41811" lon="0.987">
        <ele>113.67381286621</ele>
        <time>2014-01-11T11:39:03.000Z</time>
      </trkpt>
      <trkpt lat="49.41808" lon="0.98703">
        <ele>113.98762512207</ele>
        <time>2014-01-11T11:39:06.000Z</time>
      </trkpt>
      <trkpt lat="49.41804" lon="0.98707">
        <ele>114.23712158203</ele>
        <time>2014-01-11T11:39:09.000Z</time>
      </trkpt>
      <trkpt lat="49.418" lon="0.9871">
        <ele>114.54081726074</ele>
        <time>2014-01-11T11:39:12.000Z</time>
      </trkpt>
      <trkpt lat="49.41794" lon="0.98715">
        <ele>114.93039703369</ele>
        <time>2014-01-11T11:39:16.000Z</time>
      </trkpt>
      <trkpt lat="49.4179" lon="0.98718">
        <ele>115.34423828125</ele>
        <time>2014-01-11T11:39:18.000Z</time>
      </trkpt>
      <trkpt lat="49.41786" lon="0.98722">
        <ele>115.77593994141</ele>
        <time>2014-01-11T11:39:21.000Z</time>
      </trkpt>
      <trkpt lat="49.41783" lon="0.98725">
        <ele>116.19783782959</ele>
        <time>2014-01-11T11:39:23.000Z</time>
      </trkpt>
      <trkpt lat="49.41774" lon="0.98732">
        <ele>116.69087219238</ele>
        <time>2014-01-11T11:39:29.000Z</time>
      </trkpt>
      <trkpt lat="49.41772" lon="0.98734">
        <ele>117.10958099365</ele>
        <time>2014-01-11T11:39:31.000Z</time>
      </trkpt>
      <trkpt lat="49.41769" lon="0.98736">
        <ele>117.51137542725</ele>
        <time>2014-01-11T11:39:34.000Z</time>
      </trkpt>
      <trkpt lat="49.41763" lon="0.98741">
        <ele>117.92907714844</ele>
        <time>2014-01-11T11:39:37.000Z</time>
      </trkpt>
      <trkpt lat="49.4176" lon="0.98746">
        <ele>118.33543395996</ele>
        <time>2014-01-11T11:39:39.000Z</time>
      </trkpt>
      <trkpt lat="49.41756" lon="0.98753">
        <ele>118.66938781738</ele>
        <time>2014-01-11T11:39:42.000Z</time>
      </trkpt>
      <trkpt lat="49.4175" lon="0.98761">
        <ele>119.08756256104</ele>
        <time>2014-01-11T11:39:46.000Z</time>
      </trkpt>
      <trkpt lat="49.41748" lon="0.98764">
        <ele>119.4966583252</ele>
        <time>2014-01-11T11:39:48.000Z</time>
      </trkpt>
      <trkpt lat="49.41747" lon="0.98767">
        <ele>119.83393859863</ele>
        <time>2014-01-11T11:39:50.000Z</time>
      </trkpt>
      <trkpt lat="49.41743" lon="0.98775">
        <ele>120.18929290771</ele>
        <time>2014-01-11T11:39:53.000Z</time>
      </trkpt>
      <trkpt lat="49.41741" lon="0.9878">
        <ele>120.50321960449</ele>
        <time>2014-01-11T11:39:56.000Z</time>
      </trkpt>
      <trkpt lat="49.4174" lon="0.98782">
        <ele>120.70418548584</ele>
        <time>2014-01-11T11:39:58.000Z</time>
      </trkpt>
      <trkpt lat="49.41739" lon="0.98784">
        <ele>120.87534332275</ele>
        <time>2014-01-11T11:40:01.000Z</time>
      </trkpt>
      <trkpt lat="49.41732" lon="0.98794">
        <ele>121.12519836426</ele>
        <time>2014-01-11T11:40:04.000Z</time>
      </trkpt>
      <trkpt lat="49.41725" lon="0.98803">
        <ele>121.42230224609</ele>
        <time>2014-01-11T11:40:08.000Z</time>
      </trkpt>
      <trkpt lat="49.41722" lon="0.98806">
        <ele>121.72370910645</ele>
        <time>2014-01-11T11:40:10.000Z</time>
      </trkpt>
      <trkpt lat="49.41718" lon="0.98812">
        <ele>122.05299377441</ele>
        <time>2014-01-11T11:40:13.000Z</time>
      </trkpt>
      <trkpt lat="49.41716" lon="0.98816">
        <ele>122.41084289551</ele>
        <time>2014-01-11T11:40:16.000Z</time>
      </trkpt>
      <trkpt lat="49.4171" lon="0.98826">
        <ele>122.75511169434</ele>
        <time>2014-01-11T11:40:21.000Z</time>
      </trkpt>
      <trkpt lat="49.41704" lon="0.98837">
        <ele>123.05655670166</ele>
        <time>2014-01-11T11:40:29.000Z</time>
      </trkpt>
      <trkpt lat="49.41703" lon="0.98839">
        <ele>123.32978820801</ele>
        <time>2014-01-11T11:40:31.000Z</time>
      </trkpt>
      <trkpt lat="49.41695" lon="0.98847">
        <ele>123.61585998535</ele>
        <time>2014-01-11T11:40:38.000Z</time>
      </trkpt>
      <trkpt lat="49.41689" lon="0.98855">
        <ele>123.90190124512</ele>
        <time>2014-01-11T11:40:44.000Z</time>
      </trkpt>
      <trkpt lat="49.41687" lon="0.98858">
        <ele>124.10465240479</ele>
        <time>2014-01-11T11:40:46.000Z</time>
      </trkpt>
      <trkpt lat="49.41682" lon="0.98864">
        <ele>124.23860168457</ele>
        <time>2014-01-11T11:40:49.000Z</time>
      </trkpt>
      <trkpt lat="49.41679" lon="0.98868">
        <ele>124.35917663574</ele>
        <time>2014-01-11T11:40:52.000Z</time>
      </trkpt>
      <trkpt lat="49.41671" lon="0.98879">
        <ele>124.38143157959</ele>
        <time>2014-01-11T11:40:57.000Z</time>
      </trkpt>
      <trkpt lat="49.41668" lon="0.98883">
        <ele>124.3512802124</ele>
        <time>2014-01-11T11:40:59.000Z</time>
      </trkpt>
      <trkpt lat="49.41666" lon="0.98885">
        <ele>124.29431152344</ele>
        <time>2014-01-11T11:41:01.000Z</time>
      </trkpt>
      <trkpt lat="49.41665" lon="0.98887">
        <ele>124.22047424316</ele>
        <time>2014-01-11T11:41:03.000Z</time>
      </trkpt>
      <trkpt lat="49.4166" lon="0.98894">
        <ele>124.10174560547</ele>
        <time>2014-01-11T11:41:06.000Z</time>
      </trkpt>
      <trkpt lat="49.4166" lon="0.98896">
        <ele>124.00007629395</ele>
        <time>2014-01-11T11:41:09.000Z</time>
      </trkpt>
      <trkpt lat="49.41655" lon="0.98908">
        <ele>123.85908508301</ele>
        <time>2014-01-11T11:41:12.000Z</time>
      </trkpt>
      <trkpt lat="49.41653" lon="0.98912">
        <ele>123.72399902344</ele>
        <time>2014-01-11T11:41:14.000Z</time>
      </trkpt>
      <trkpt lat="49.41652" lon="0.98914">
        <ele>123.5906829834</ele>
        <time>2014-01-11T11:41:16.000Z</time>
      </trkpt>
      <trkpt lat="49.41652" lon="0.98917">
        <ele>123.49485015869</ele>
        <time>2014-01-11T11:41:19.000Z</time>
      </trkpt>
      <trkpt lat="49.41652" lon="0.9892">
        <ele>123.42263031006</ele>
        <time>2014-01-11T11:41:21.000Z</time>
      </trkpt>
      <trkpt lat="49.41652" lon="0.98927">
        <ele>123.4211807251</ele>
        <time>2014-01-11T11:41:26.000Z</time>
      </trkpt>
      <trkpt lat="49.41652" lon="0.98931">
        <ele>123.43996429443</ele>
        <time>2014-01-11T11:41:29.000Z</time>
      </trkpt>
      <trkpt lat="49.41652" lon="0.98933">
        <ele>123.47389221191</ele>
        <time>2014-01-11T11:41:31.000Z</time>
      </trkpt>
      <trkpt lat="49.41652" lon="0.98938">
        <ele>123.52899169922</ele>
        <time>2014-01-11T11:41:37.000Z</time>
      </trkpt>
      <trkpt lat="49.41652" lon="0.9894">
        <ele>123.58393859863</ele>
        <time>2014-01-11T11:41:39.000Z</time>
      </trkpt>
      <trkpt lat="49.4165" lon="0.98944">
        <ele>123.64333343506</ele>
        <time>2014-01-11T11:41:42.000Z</time>
      </trkpt>
      <trkpt lat="49.41648" lon="0.98948">
        <ele>123.71354675293</ele>
        <time>2014-01-11T11:41:45.000Z</time>
      </trkpt>
      <trkpt lat="49.41648" lon="0.98949">
        <ele>123.7850112915</ele>
        <time>2014-01-11T11:41:48.000Z</time>
      </trkpt>
      <trkpt lat="49.41645" lon="0.98954">
        <ele>123.87223052979</ele>
        <time>2014-01-11T11:41:50.000Z</time>
      </trkpt>
      <trkpt lat="49.41643" lon="0.98957">
        <ele>123.9711151123</ele>
        <time>2014-01-11T11:41:52.000Z</time>
      </trkpt>
      <trkpt lat="49.41641" lon="0.9896">
        <ele>124.06943511963</ele>
        <time>2014-01-11T11:41:54.000Z</time>
      </trkpt>
      <trkpt lat="49.41638" lon="0.98965">
        <ele>124.18741607666</ele>
        <time>2014-01-11T11:41:57.000Z</time>
      </trkpt>
      <trkpt lat="49.41635" lon="0.98969">
        <ele>124.33044433594</ele>
        <time>2014-01-11T11:42:00.000Z</time>
      </trkpt>
      <trkpt lat="49.41634" lon="0.98973">
        <ele>124.45967102051</ele>
        <time>2014-01-11T11:42:02.000Z</time>
      </trkpt>
      <trkpt lat="49.41633" lon="0.98974">
        <ele>124.57792663574</ele>
        <time>2014-01-11T11:42:04.000Z</time>
      </trkpt>
      <trkpt lat="49.4163" lon="0.98978">
        <ele>124.70961761475</ele>
        <time>2014-01-11T11:42:07.000Z</time>
      </trkpt>
      <trkpt lat="49.41627" lon="0.9898">
        <ele>124.8279876709</ele>
        <time>2014-01-11T11:42:09.000Z</time>
      </trkpt>
      <trkpt lat="49.41623" lon="0.98984">
        <ele>124.95698547363</ele>
        <time>2014-01-11T11:42:12.000Z</time>
      </trkpt>
      <trkpt lat="49.41613" lon="0.98994">
        <ele>125.17295074463</ele>
        <time>2014-01-11T11:42:19.000Z</time>
      </trkpt>
      <trkpt lat="49.41611" lon="0.98999">
        <ele>125.41396331787</ele>
        <time>2014-01-11T11:42:21.000Z</time>
      </trkpt>
      <trkpt lat="49.41608" lon="0.99005">
        <ele>125.6290512085</ele>
        <time>2014-01-11T11:42:24.000Z</time>
      </trkpt>
      <trkpt lat="49.41605" lon="0.99008">
        <ele>125.82053375244</ele>
        <time>2014-01-11T11:42:26.000Z</time>
      </trkpt>
      <trkpt lat="49.41601" lon="0.99012">
        <ele>125.97998046875</ele>
        <time>2014-01-11T11:42:29.000Z</time>
      </trkpt>
      <trkpt lat="49.41599" lon="0.99016">
        <ele>126.03285980225</ele>
        <time>2014-01-11T11:42:36.000Z</time>
      </trkpt>
      <trkpt lat="49.41599" lon="0.99018">
        <ele>126.042137146</ele>
        <time>2014-01-11T11:42:39.000Z</time>
      </trkpt>
      <trkpt lat="49.416" lon="0.99019">
        <ele>126.03086090088</ele>
        <time>2014-01-11T11:42:41.000Z</time>
      </trkpt>
      <trkpt lat="49.41602" lon="0.99021">
        <ele>125.98899078369</ele>
        <time>2014-01-11T11:42:43.000Z</time>
      </trkpt>
      <trkpt lat="49.41604" lon="0.99024">
        <ele>125.90761566162</ele>
        <time>2014-01-11T11:42:45.000Z</time>
      </trkpt>
      <trkpt lat="49.41604" lon="0.99024">
        <ele>125.90761566162</ele>
        <time>2014-01-11T11:43:05.000Z</time>
      </trkpt>
      <trkpt lat="49.41611" lon="0.99048">
        <ele>125.66729736328</ele>
        <time>2014-01-11T11:43:40.000Z</time>
      </trkpt>
      <trkpt lat="49.4161" lon="0.99046">
        <ele>125.44525146484</ele>
        <time>2014-01-11T11:43:43.000Z</time>
      </trkpt>
      <trkpt lat="49.41606" lon="0.99031">
        <ele>125.34515380859</ele>
        <time>2014-01-11T11:43:47.000Z</time>
      </trkpt>
      <trkpt lat="49.41604" lon="0.99025">
        <ele>125.30702972412</ele>
        <time>2014-01-11T11:43:49.000Z</time>
      </trkpt>
      <trkpt lat="49.41602" lon="0.99019">
        <ele>125.34857177734</ele>
        <time>2014-01-11T11:43:51.000Z</time>
      </trkpt>
      <trkpt lat="49.41601" lon="0.99014">
        <ele>125.58229827881</ele>
        <time>2014-01-11T11:43:54.000Z</time>
      </trkpt>
      <trkpt lat="49.41595" lon="0.98989">
        <ele>125.86795806885</ele>
        <time>2014-01-11T11:43:58.000Z</time>
      </trkpt>
      <trkpt lat="49.41592" lon="0.98972">
        <ele>125.98708343506</ele>
        <time>2014-01-11T11:44:01.000Z</time>
      </trkpt>
      <trkpt lat="49.4159" lon="0.9896">
        <ele>126.03108978271</ele>
        <time>2014-01-11T11:44:04.000Z</time>
      </trkpt>
      <trkpt lat="49.41588" lon="0.98939">
        <ele>125.93489074707</ele>
        <time>2014-01-11T11:44:07.000Z</time>
      </trkpt>
      <trkpt lat="49.41594" lon="0.98928">
        <ele>125.72902679443</ele>
        <time>2014-01-11T11:44:10.000Z</time>
      </trkpt>
      <trkpt lat="49.41599" lon="0.98923">
        <ele>125.41339111328</ele>
        <time>2014-01-11T11:44:12.000Z</time>
      </trkpt>
      <trkpt lat="49.41605" lon="0.98915">
        <ele>125.09332275391</ele>
        <time>2014-01-11T11:44:15.000Z</time>
      </trkpt>
      <trkpt lat="49.41608" lon="0.98903">
        <ele>124.76473236084</ele>
        <time>2014-01-11T11:44:18.000Z</time>
      </trkpt>
      <trkpt lat="49.41611" lon="0.98891">
        <ele>124.48915863037</ele>
        <time>2014-01-11T11:44:21.000Z</time>
      </trkpt>
      <trkpt lat="49.41613" lon="0.98882">
        <ele>124.27464294434</ele>
        <time>2014-01-11T11:44:23.000Z</time>
      </trkpt>
      <trkpt lat="49.41616" lon="0.98872">
        <ele>124.09445953369</ele>
        <time>2014-01-11T11:44:25.000Z</time>
      </trkpt>
      <trkpt lat="49.41619" lon="0.98857">
        <ele>123.97380065918</ele>
        <time>2014-01-11T11:44:28.000Z</time>
      </trkpt>
      <trkpt lat="49.41623" lon="0.98841">
        <ele>123.91340637207</ele>
        <time>2014-01-11T11:44:31.000Z</time>
      </trkpt>
      <trkpt lat="49.41627" lon="0.98826">
        <ele>123.91786956787</ele>
        <time>2014-01-11T11:44:34.000Z</time>
      </trkpt>
      <trkpt lat="49.41628" lon="0.98821">
        <ele>123.94813537598</ele>
        <time>2014-01-11T11:44:37.000Z</time>
      </trkpt>
      <trkpt lat="49.41629" lon="0.98798">
        <ele>123.97276306152</ele>
        <time>2014-01-11T11:44:42.000Z</time>
      </trkpt>
      <trkpt lat="49.41628" lon="0.98788">
        <ele>123.98569488525</ele>
        <time>2014-01-11T11:44:44.000Z</time>
      </trkpt>
      <trkpt lat="49.41627" lon="0.98779">
        <ele>123.96378326416</ele>
        <time>2014-01-11T11:44:46.000Z</time>
      </trkpt>
      <trkpt lat="49.41624" lon="0.98763">
        <ele>123.86259460449</ele>
        <time>2014-01-11T11:44:49.000Z</time>
      </trkpt>
      <trkpt lat="49.41621" lon="0.98743">
        <ele>123.7039642334</ele>
        <time>2014-01-11T11:44:52.000Z</time>
      </trkpt>
      <trkpt lat="49.41618" lon="0.9873">
        <ele>123.5439453125</ele>
        <time>2014-01-11T11:44:55.000Z</time>
      </trkpt>
      <trkpt lat="49.41613" lon="0.98719">
        <ele>123.36991882324</ele>
        <time>2014-01-11T11:44:58.000Z</time>
      </trkpt>
      <trkpt lat="49.41607" lon="0.98704">
        <ele>123.17590332031</ele>
        <time>2014-01-11T11:45:01.000Z</time>
      </trkpt>
      <trkpt lat="49.41601" lon="0.98692">
        <ele>122.99096679688</ele>
        <time>2014-01-11T11:45:04.000Z</time>
      </trkpt>
      <trkpt lat="49.41592" lon="0.98672">
        <ele>122.81253814697</ele>
        <time>2014-01-11T11:45:07.000Z</time>
      </trkpt>
      <trkpt lat="49.41587" lon="0.98655">
        <ele>122.68951416016</ele>
        <time>2014-01-11T11:45:10.000Z</time>
      </trkpt>
      <trkpt lat="49.41582" lon="0.98637">
        <ele>122.67497253418</ele>
        <time>2014-01-11T11:45:13.000Z</time>
      </trkpt>
      <trkpt lat="49.41579" lon="0.98623">
        <ele>122.78942871094</ele>
        <time>2014-01-11T11:45:16.000Z</time>
      </trkpt>
      <trkpt lat="49.41579" lon="0.98618">
        <ele>122.97129058838</ele>
        <time>2014-01-11T11:45:19.000Z</time>
      </trkpt>
      <trkpt lat="49.41574" lon="0.98581">
        <ele>123.40873718262</ele>
        <time>2014-01-11T11:45:24.000Z</time>
      </trkpt>
      <trkpt lat="49.41572" lon="0.98575">
        <ele>123.805519104</ele>
        <time>2014-01-11T11:45:26.000Z</time>
      </trkpt>
      <trkpt lat="49.41567" lon="0.98557">
        <ele>124.13368988037</ele>
        <time>2014-01-11T11:45:29.000Z</time>
      </trkpt>
      <trkpt lat="49.4156" lon="0.98505">
        <ele>124.47528076172</ele>
        <time>2014-01-11T11:45:33.000Z</time>
      </trkpt>
      <trkpt lat="49.41557" lon="0.98477">
        <ele>124.57574462891</ele>
        <time>2014-01-11T11:45:35.000Z</time>
      </trkpt>
      <trkpt lat="49.41552" lon="0.98442">
        <ele>124.12522888184</ele>
        <time>2014-01-11T11:45:38.000Z</time>
      </trkpt>
      <trkpt lat="49.41548" lon="0.98423">
        <ele>123.49947357178</ele>
        <time>2014-01-11T11:45:40.000Z</time>
      </trkpt>
      <trkpt lat="49.41542" lon="0.98399">
        <ele>122.73708343506</ele>
        <time>2014-01-11T11:45:43.000Z</time>
      </trkpt>
      <trkpt lat="49.41535" lon="0.98379">
        <ele>121.79205322266</ele>
        <time>2014-01-11T11:45:46.000Z</time>
      </trkpt>
      <trkpt lat="49.41527" lon="0.9836">
        <ele>120.98176574707</ele>
        <time>2014-01-11T11:45:49.000Z</time>
      </trkpt>
      <trkpt lat="49.4152" lon="0.98343">
        <ele>120.43684387207</ele>
        <time>2014-01-11T11:45:52.000Z</time>
      </trkpt>
      <trkpt lat="49.41517" lon="0.98332">
        <ele>120.04801177979</ele>
        <time>2014-01-11T11:45:54.000Z</time>
      </trkpt>
      <trkpt lat="49.41513" lon="0.98315">
        <ele>119.98992919922</ele>
        <time>2014-01-11T11:45:57.000Z</time>
      </trkpt>
      <trkpt lat="49.4151" lon="0.98305">
        <ele>120.15059661865</ele>
        <time>2014-01-11T11:45:59.000Z</time>
      </trkpt>
      <trkpt lat="49.41507" lon="0.98294">
        <ele>120.52663421631</ele>
        <time>2014-01-11T11:46:01.000Z</time>
      </trkpt>
      <trkpt lat="49.41501" lon="0.98281">
        <ele>121.16452789307</ele>
        <time>2014-01-11T11:46:04.000Z</time>
      </trkpt>
      <trkpt lat="49.41491" lon="0.98272">
        <ele>122.00618743896</ele>
        <time>2014-01-11T11:46:07.000Z</time>
      </trkpt>
      <trkpt lat="49.41476" lon="0.98269">
        <ele>122.75941467285</ele>
        <time>2014-01-11T11:46:10.000Z</time>
      </trkpt>
      <trkpt lat="49.4146" lon="0.98272">
        <ele>123.43006896973</ele>
        <time>2014-01-11T11:46:13.000Z</time>
      </trkpt>
      <trkpt lat="49.41446" lon="0.98279">
        <ele>123.99780273438</ele>
        <time>2014-01-11T11:46:16.000Z</time>
      </trkpt>
      <trkpt lat="49.41433" lon="0.98288">
        <ele>124.42346191406</ele>
        <time>2014-01-11T11:46:19.000Z</time>
      </trkpt>
      <trkpt lat="49.41424" lon="0.98294">
        <ele>124.71457672119</ele>
        <time>2014-01-11T11:46:21.000Z</time>
      </trkpt>
      <trkpt lat="49.41412" lon="0.98303">
        <ele>124.94980621338</ele>
        <time>2014-01-11T11:46:24.000Z</time>
      </trkpt>
      <trkpt lat="49.41402" lon="0.98312">
        <ele>125.15684509277</ele>
        <time>2014-01-11T11:46:27.000Z</time>
      </trkpt>
      <trkpt lat="49.41396" lon="0.98318">
        <ele>125.34578704834</ele>
        <time>2014-01-11T11:46:29.000Z</time>
      </trkpt>
      <trkpt lat="49.41387" lon="0.98329">
        <ele>125.51242828369</ele>
        <time>2014-01-11T11:46:32.000Z</time>
      </trkpt>
      <trkpt lat="49.41377" lon="0.98341">
        <ele>125.64482116699</ele>
        <time>2014-01-11T11:46:35.000Z</time>
      </trkpt>
      <trkpt lat="49.41372" lon="0.98348">
        <ele>125.72023773193</ele>
        <time>2014-01-11T11:46:37.000Z</time>
      </trkpt>
      <trkpt lat="49.41366" lon="0.98355">
        <ele>125.77514648438</ele>
        <time>2014-01-11T11:46:39.000Z</time>
      </trkpt>
      <trkpt lat="49.41358" lon="0.9837">
        <ele>125.81750488281</ele>
        <time>2014-01-11T11:46:42.000Z</time>
      </trkpt>
      <trkpt lat="49.4135" lon="0.98383">
        <ele>125.84413909912</ele>
        <time>2014-01-11T11:46:45.000Z</time>
      </trkpt>
      <trkpt lat="49.41343" lon="0.98396">
        <ele>125.86940765381</ele>
        <time>2014-01-11T11:46:48.000Z</time>
      </trkpt>
      <trkpt lat="49.41336" lon="0.98407">
        <ele>125.90582275391</ele>
        <time>2014-01-11T11:46:51.000Z</time>
      </trkpt>
      <trkpt lat="49.4133" lon="0.98419">
        <ele>125.94758605957</ele>
        <time>2014-01-11T11:46:54.000Z</time>
      </trkpt>
      <trkpt lat="49.41325" lon="0.98426">
        <ele>125.9976348877</ele>
        <time>2014-01-11T11:46:56.000Z</time>
      </trkpt>
      <trkpt lat="49.41317" lon="0.98436">
        <ele>126.04844665527</ele>
        <time>2014-01-11T11:46:59.000Z</time>
      </trkpt>
      <trkpt lat="49.41312" lon="0.98443">
        <ele>126.1000213623</ele>
        <time>2014-01-11T11:47:01.000Z</time>
      </trkpt>
      <trkpt lat="49.41307" lon="0.98451">
        <ele>126.14282226562</ele>
        <time>2014-01-11T11:47:03.000Z</time>
      </trkpt>
      <trkpt lat="49.41298" lon="0.98464">
        <ele>126.18760681152</ele>
        <time>2014-01-11T11:47:06.000Z</time>
      </trkpt>
      <trkpt lat="49.4129" lon="0.98476">
        <ele>126.23655700684</ele>
        <time>2014-01-11T11:47:09.000Z</time>
      </trkpt>
      <trkpt lat="49.41282" lon="0.98487">
        <ele>126.28729248047</ele>
        <time>2014-01-11T11:47:12.000Z</time>
      </trkpt>
      <trkpt lat="49.41278" lon="0.98494">
        <ele>126.33087158203</ele>
        <time>2014-01-11T11:47:14.000Z</time>
      </trkpt>
      <trkpt lat="49.41271" lon="0.98503">
        <ele>126.38063049316</ele>
        <time>2014-01-11T11:47:17.000Z</time>
      </trkpt>
      <trkpt lat="49.41267" lon="0.98509">
        <ele>126.43239593506</ele>
        <time>2014-01-11T11:47:19.000Z</time>
      </trkpt>
      <trkpt lat="49.41261" lon="0.98515">
        <ele>126.49418640137</ele>
        <time>2014-01-11T11:47:21.000Z</time>
      </trkpt>
      <trkpt lat="49.41249" lon="0.98533">
        <ele>126.62630462646</ele>
        <time>2014-01-11T11:47:24.000Z</time>
      </trkpt>
      <trkpt lat="49.41243" lon="0.98539">
        <ele>126.81318664551</ele>
        <time>2014-01-11T11:47:27.000Z</time>
      </trkpt>
      <trkpt lat="49.41232" lon="0.98554">
        <ele>127.10333251953</ele>
        <time>2014-01-11T11:47:30.000Z</time>
      </trkpt>
      <trkpt lat="49.41224" lon="0.98567">
        <ele>127.47987365723</ele>
        <time>2014-01-11T11:47:33.000Z</time>
      </trkpt>
      <trkpt lat="49.41217" lon="0.9858">
        <ele>127.9384765625</ele>
        <time>2014-01-11T11:47:36.000Z</time>
      </trkpt>
      <trkpt lat="49.41212" lon="0.98588">
        <ele>128.37661743164</ele>
        <time>2014-01-11T11:47:38.000Z</time>
      </trkpt>
      <trkpt lat="49.41208" lon="0.98596">
        <ele>128.81513977051</ele>
        <time>2014-01-11T11:47:40.000Z</time>
      </trkpt>
      <trkpt lat="49.412" lon="0.98607">
        <ele>129.23089599609</ele>
        <time>2014-01-11T11:47:43.000Z</time>
      </trkpt>
      <trkpt lat="49.41194" lon="0.98614">
        <ele>129.6156463623</ele>
        <time>2014-01-11T11:47:45.000Z</time>
      </trkpt>
      <trkpt lat="49.41189" lon="0.98621">
        <ele>129.958984375</ele>
        <time>2014-01-11T11:47:47.000Z</time>
      </trkpt>
      <trkpt lat="49.41183" lon="0.98628">
        <ele>130.310546875</ele>
        <time>2014-01-11T11:47:49.000Z</time>
      </trkpt>
      <trkpt lat="49.41174" lon="0.98637">
        <ele>130.720703125</ele>
        <time>2014-01-11T11:47:52.000Z</time>
      </trkpt>
      <trkpt lat="49.41164" lon="0.98647">
        <ele>131.12783813477</ele>
        <time>2014-01-11T11:47:55.000Z</time>
      </trkpt>
      <trkpt lat="49.41155" lon="0.98659">
        <ele>131.5086517334</ele>
        <time>2014-01-11T11:47:58.000Z</time>
      </trkpt>
      <trkpt lat="49.41145" lon="0.98674">
        <ele>131.8443145752</ele>
        <time>2014-01-11T11:48:01.000Z</time>
      </trkpt>
      <trkpt lat="49.41135" lon="0.98689">
        <ele>132.09048461914</ele>
        <time>2014-01-11T11:48:04.000Z</time>
      </trkpt>
      <trkpt lat="49.41125" lon="0.98703">
        <ele>132.19741821289</ele>
        <time>2014-01-11T11:48:07.000Z</time>
      </trkpt>
      <trkpt lat="49.41115" lon="0.98717">
        <ele>132.19456481934</ele>
        <time>2014-01-11T11:48:10.000Z</time>
      </trkpt>
      <trkpt lat="49.41105" lon="0.98731">
        <ele>132.13293457031</ele>
        <time>2014-01-11T11:48:13.000Z</time>
      </trkpt>
      <trkpt lat="49.41098" lon="0.98739">
        <ele>132.04586791992</ele>
        <time>2014-01-11T11:48:15.000Z</time>
      </trkpt>
      <trkpt lat="49.41088" lon="0.98752">
        <ele>131.96147155762</ele>
        <time>2014-01-11T11:48:18.000Z</time>
      </trkpt>
      <trkpt lat="49.41079" lon="0.98766">
        <ele>131.81274414062</ele>
        <time>2014-01-11T11:48:21.000Z</time>
      </trkpt>
      <trkpt lat="49.41073" lon="0.98776">
        <ele>131.61166381836</ele>
        <time>2014-01-11T11:48:23.000Z</time>
      </trkpt>
      <trkpt lat="49.41066" lon="0.98791">
        <ele>131.34976196289</ele>
        <time>2014-01-11T11:48:26.000Z</time>
      </trkpt>
      <trkpt lat="49.41058" lon="0.98803">
        <ele>131.05659484863</ele>
        <time>2014-01-11T11:48:29.000Z</time>
      </trkpt>
      <trkpt lat="49.41053" lon="0.98812">
        <ele>130.7751159668</ele>
        <time>2014-01-11T11:48:31.000Z</time>
      </trkpt>
      <trkpt lat="49.41043" lon="0.98824">
        <ele>130.60046386719</ele>
        <time>2014-01-11T11:48:34.000Z</time>
      </trkpt>
      <trkpt lat="49.41033" lon="0.98837">
        <ele>130.54153442383</ele>
        <time>2014-01-11T11:48:37.000Z</time>
      </trkpt>
      <trkpt lat="49.41024" lon="0.98848">
        <ele>130.56927490234</ele>
        <time>2014-01-11T11:48:40.000Z</time>
      </trkpt>
      <trkpt lat="49.41018" lon="0.98857">
        <ele>130.63851928711</ele>
        <time>2014-01-11T11:48:42.000Z</time>
      </trkpt>
      <trkpt lat="49.4101" lon="0.98869">
        <ele>130.71250915527</ele>
        <time>2014-01-11T11:48:45.000Z</time>
      </trkpt>
      <trkpt lat="49.41003" lon="0.98884">
        <ele>130.74813842773</ele>
        <time>2014-01-11T11:48:48.000Z</time>
      </trkpt>
      <trkpt lat="49.40997" lon="0.98898">
        <ele>130.68782043457</ele>
        <time>2014-01-11T11:48:51.000Z</time>
      </trkpt>
      <trkpt lat="49.40993" lon="0.98909">
        <ele>130.56851196289</ele>
        <time>2014-01-11T11:48:53.000Z</time>
      </trkpt>
      <trkpt lat="49.40989" lon="0.98918">
        <ele>130.40510559082</ele>
        <time>2014-01-11T11:48:55.000Z</time>
      </trkpt>
      <trkpt lat="49.40984" lon="0.98927">
        <ele>130.21878051758</ele>
        <time>2014-01-11T11:48:57.000Z</time>
      </trkpt>
      <trkpt lat="49.40976" lon="0.98937">
        <ele>130.04069519043</ele>
        <time>2014-01-11T11:49:00.000Z</time>
      </trkpt>
      <trkpt lat="49.40969" lon="0.9895">
        <ele>129.91470336914</ele>
        <time>2014-01-11T11:49:03.000Z</time>
      </trkpt>
      <trkpt lat="49.40964" lon="0.98965">
        <ele>129.8486328125</ele>
        <time>2014-01-11T11:49:06.000Z</time>
      </trkpt>
      <trkpt lat="49.40961" lon="0.98973">
        <ele>129.83428955078</ele>
        <time>2014-01-11T11:49:08.000Z</time>
      </trkpt>
      <trkpt lat="49.40957" lon="0.98985">
        <ele>129.87577819824</ele>
        <time>2014-01-11T11:49:11.000Z</time>
      </trkpt>
      <trkpt lat="49.40954" lon="0.98992">
        <ele>129.95297241211</ele>
        <time>2014-01-11T11:49:13.000Z</time>
      </trkpt>
      <trkpt lat="49.40952" lon="0.99001">
        <ele>130.05433654785</ele>
        <time>2014-01-11T11:49:16.000Z</time>
      </trkpt>
      <trkpt lat="49.40939" lon="0.99024">
        <ele>130.12437438965</ele>
        <time>2014-01-11T11:49:21.000Z</time>
      </trkpt>
      <trkpt lat="49.40931" lon="0.99038">
        <ele>130.19123840332</ele>
        <time>2014-01-11T11:49:24.000Z</time>
      </trkpt>
      <trkpt lat="49.40926" lon="0.99047">
        <ele>130.24526977539</ele>
        <time>2014-01-11T11:49:26.000Z</time>
      </trkpt>
      <trkpt lat="49.4092" lon="0.99055">
        <ele>130.30044555664</ele>
        <time>2014-01-11T11:49:28.000Z</time>
      </trkpt>
      <trkpt lat="49.40912" lon="0.99068">
        <ele>130.2864074707</ele>
        <time>2014-01-11T11:49:31.000Z</time>
      </trkpt>
      <trkpt lat="49.40908" lon="0.99078">
        <ele>130.21559143066</ele>
        <time>2014-01-11T11:49:33.000Z</time>
      </trkpt>
      <trkpt lat="49.40906" lon="0.9909">
        <ele>130.04219055176</ele>
        <time>2014-01-11T11:49:35.000Z</time>
      </trkpt>
      <trkpt lat="49.40905" lon="0.99102">
        <ele>129.75286865234</ele>
        <time>2014-01-11T11:49:37.000Z</time>
      </trkpt>
      <trkpt lat="49.40906" lon="0.99117">
        <ele>129.32968139648</ele>
        <time>2014-01-11T11:49:44.000Z</time>
      </trkpt>
      <trkpt lat="49.40908" lon="0.99132">
        <ele>128.86141967773</ele>
        <time>2014-01-11T11:49:44.000Z</time>
      </trkpt>
      <trkpt lat="49.4091" lon="0.99142">
        <ele>128.41250610352</ele>
        <time>2014-01-11T11:49:46.000Z</time>
      </trkpt>
      <trkpt lat="49.4091" lon="0.99148">
        <ele>128.01036071777</ele>
        <time>2014-01-11T11:49:49.000Z</time>
      </trkpt>
      <trkpt lat="49.40911" lon="0.99154">
        <ele>127.67204284668</ele>
        <time>2014-01-11T11:49:56.000Z</time>
      </trkpt>
      <trkpt lat="49.40911" lon="0.99155">
        <ele>127.43827819824</ele>
        <time>2014-01-11T11:49:59.000Z</time>
      </trkpt>
      <trkpt lat="49.40913" lon="0.99157">
        <ele>127.29824066162</ele>
        <time>2014-01-11T11:50:01.000Z</time>
      </trkpt>
      <trkpt lat="49.40915" lon="0.9916">
        <ele>127.21340179443</ele>
        <time>2014-01-11T11:50:03.000Z</time>
      </trkpt>
      <trkpt lat="49.40918" lon="0.99164">
        <ele>127.149559021</ele>
        <time>2014-01-11T11:50:06.000Z</time>
      </trkpt>
      <trkpt lat="49.40919" lon="0.99166">
        <ele>127.0916519165</ele>
        <time>2014-01-11T11:50:09.000Z</time>
      </trkpt>
      <trkpt lat="49.40921" lon="0.9917">
        <ele>127.00093078613</ele>
        <time>2014-01-11T11:50:12.000Z</time>
      </trkpt>
      <trkpt lat="49.40921" lon="0.99173">
        <ele>126.89262390137</ele>
        <time>2014-01-11T11:50:16.000Z</time>
      </trkpt>
      <trkpt lat="49.40921" lon="0.99173">
        <ele>126.89262390137</ele>
        <time>2014-01-11T11:50:28.000Z</time>
      </trkpt>
    </trkseg>
  </trk>
</gpx>